<?xml version="1.0" encoding="UTF-8" standalone="no" ?>
<gpx xmlns="http://www.topografix.com/GPX/1/1" xmlns:xsi="http://www.w3.org/2001/XMLSchema-instance" xsi:schemaLocation="http://www.topografix.com/GPX/1/1 http://www.topografix.com/GPX/1/1/gpx.xsd" version="1.1" creator="VisuGPX - https://www.visugpx.com">
  <metadata>
    <name>Pique Rouge de Bassiès</name>
    <desc><![CDATA[Randonnée sportive (25 km / 2000 m de dénivelé) à la Pique Rouge de Bassiès en passant par les étangs de Bassiès et une magnifique crête qui aboutit au somment en venant du nord. La descente et très verticale mais offre une vue somptueuse sur le massif du Montcalm juste en face]]></desc>
  </metadata>
  <trk>
    <name><![CDATA[Move]]></name>
    <trkseg>
      <trkpt lat="42.71399" lon="1.43507">
        <ele>1124.8000488281</ele>
        <time>2018-09-23T11:29:34.009Z</time>
      </trkpt>
      <trkpt lat="42.71399" lon="1.43508">
        <ele>1121</ele>
        <time>2018-09-23T11:29:35.009Z</time>
      </trkpt>
      <trkpt lat="42.71402" lon="1.43514">
        <ele>1121</ele>
        <time>2018-09-23T11:29:39.009Z</time>
      </trkpt>
      <trkpt lat="42.71407" lon="1.4352">
        <ele>1120</ele>
        <time>2018-09-23T11:29:43.009Z</time>
      </trkpt>
      <trkpt lat="42.71409" lon="1.43526">
        <ele>1120</ele>
        <time>2018-09-23T11:29:47.009Z</time>
      </trkpt>
      <trkpt lat="42.71414" lon="1.43532">
        <ele>1120</ele>
        <time>2018-09-23T11:29:51.009Z</time>
      </trkpt>
      <trkpt lat="42.71418" lon="1.43536">
        <ele>1120</ele>
        <time>2018-09-23T11:29:54.009Z</time>
      </trkpt>
      <trkpt lat="42.71422" lon="1.43543">
        <ele>1120</ele>
        <time>2018-09-23T11:29:58.009Z</time>
      </trkpt>
      <trkpt lat="42.71428" lon="1.43551">
        <ele>1117</ele>
        <time>2018-09-23T11:30:03.009Z</time>
      </trkpt>
      <trkpt lat="42.71435" lon="1.43558">
        <ele>1117</ele>
        <time>2018-09-23T11:30:08.009Z</time>
      </trkpt>
      <trkpt lat="42.71441" lon="1.43565">
        <ele>1116</ele>
        <time>2018-09-23T11:30:11.009Z</time>
      </trkpt>
      <trkpt lat="42.71448" lon="1.43573">
        <ele>1116</ele>
        <time>2018-09-23T11:30:14.009Z</time>
      </trkpt>
      <trkpt lat="42.71455" lon="1.43581">
        <ele>1116</ele>
        <time>2018-09-23T11:30:17.009Z</time>
      </trkpt>
      <trkpt lat="42.7146" lon="1.43588">
        <ele>1116</ele>
        <time>2018-09-23T11:30:20.009Z</time>
      </trkpt>
      <trkpt lat="42.71466" lon="1.43596">
        <ele>1116</ele>
        <time>2018-09-23T11:30:23.009Z</time>
      </trkpt>
      <trkpt lat="42.71472" lon="1.43605">
        <ele>1116</ele>
        <time>2018-09-23T11:30:26.009Z</time>
      </trkpt>
      <trkpt lat="42.71478" lon="1.43613">
        <ele>1116</ele>
        <time>2018-09-23T11:30:29.009Z</time>
      </trkpt>
      <trkpt lat="42.71484" lon="1.43622">
        <ele>1114</ele>
        <time>2018-09-23T11:30:32.009Z</time>
      </trkpt>
      <trkpt lat="42.71491" lon="1.43629">
        <ele>1114</ele>
        <time>2018-09-23T11:30:35.009Z</time>
      </trkpt>
      <trkpt lat="42.71499" lon="1.43636">
        <ele>1114</ele>
        <time>2018-09-23T11:30:39.009Z</time>
      </trkpt>
      <trkpt lat="42.71508" lon="1.43639">
        <ele>1113</ele>
        <time>2018-09-23T11:30:42.009Z</time>
      </trkpt>
      <trkpt lat="42.71517" lon="1.43644">
        <ele>1113</ele>
        <time>2018-09-23T11:30:46.009Z</time>
      </trkpt>
      <trkpt lat="42.71526" lon="1.43647">
        <ele>1113</ele>
        <time>2018-09-23T11:30:50.009Z</time>
      </trkpt>
      <trkpt lat="42.71535" lon="1.43653">
        <ele>1112</ele>
        <time>2018-09-23T11:30:54.009Z</time>
      </trkpt>
      <trkpt lat="42.71543" lon="1.43663">
        <ele>1112</ele>
        <time>2018-09-23T11:30:57.009Z</time>
      </trkpt>
      <trkpt lat="42.71552" lon="1.43672">
        <ele>1110.8505119983</ele>
        <time>2018-09-23T11:31:01.009Z</time>
      </trkpt>
      <trkpt lat="42.71561" lon="1.4368">
        <ele>1110</ele>
        <time>2018-09-23T11:31:05.009Z</time>
      </trkpt>
      <trkpt lat="42.7157" lon="1.4369">
        <ele>1110</ele>
        <time>2018-09-23T11:31:09.009Z</time>
      </trkpt>
      <trkpt lat="42.71579" lon="1.437">
        <ele>1109</ele>
        <time>2018-09-23T11:31:13.009Z</time>
      </trkpt>
      <trkpt lat="42.71585" lon="1.43709">
        <ele>1109</ele>
        <time>2018-09-23T11:31:16.009Z</time>
      </trkpt>
      <trkpt lat="42.7159" lon="1.43718">
        <ele>1109</ele>
        <time>2018-09-23T11:31:19.009Z</time>
      </trkpt>
      <trkpt lat="42.71595" lon="1.4373">
        <ele>1107</ele>
        <time>2018-09-23T11:31:22.009Z</time>
      </trkpt>
      <trkpt lat="42.716" lon="1.43743">
        <ele>1107</ele>
        <time>2018-09-23T11:31:25.009Z</time>
      </trkpt>
      <trkpt lat="42.71604" lon="1.43754">
        <ele>1105</ele>
        <time>2018-09-23T11:31:28.009Z</time>
      </trkpt>
      <trkpt lat="42.71607" lon="1.43763">
        <ele>1104.4210048</ele>
        <time>2018-09-23T11:31:31.009Z</time>
      </trkpt>
      <trkpt lat="42.71613" lon="1.43772">
        <ele>1104</ele>
        <time>2018-09-23T11:31:34.009Z</time>
      </trkpt>
      <trkpt lat="42.7162" lon="1.43783">
        <ele>1103</ele>
        <time>2018-09-23T11:31:38.009Z</time>
      </trkpt>
      <trkpt lat="42.71627" lon="1.43796">
        <ele>1102</ele>
        <time>2018-09-23T11:31:42.009Z</time>
      </trkpt>
      <trkpt lat="42.71633" lon="1.43807">
        <ele>1102</ele>
        <time>2018-09-23T11:31:45.009Z</time>
      </trkpt>
      <trkpt lat="42.71641" lon="1.43818">
        <ele>1102</ele>
        <time>2018-09-23T11:31:48.009Z</time>
      </trkpt>
      <trkpt lat="42.71648" lon="1.43829">
        <ele>1102</ele>
        <time>2018-09-23T11:31:52.009Z</time>
      </trkpt>
      <trkpt lat="42.71656" lon="1.43841">
        <ele>1102</ele>
        <time>2018-09-23T11:31:56.009Z</time>
      </trkpt>
      <trkpt lat="42.71662" lon="1.43853">
        <ele>1102</ele>
        <time>2018-09-23T11:31:59.009Z</time>
      </trkpt>
      <trkpt lat="42.71667" lon="1.43865">
        <ele>1100</ele>
        <time>2018-09-23T11:32:02.009Z</time>
      </trkpt>
      <trkpt lat="42.71673" lon="1.43879">
        <ele>1100</ele>
        <time>2018-09-23T11:32:06.009Z</time>
      </trkpt>
      <trkpt lat="42.71678" lon="1.4389">
        <ele>1100</ele>
        <time>2018-09-23T11:32:09.009Z</time>
      </trkpt>
      <trkpt lat="42.71682" lon="1.43905">
        <ele>1100</ele>
        <time>2018-09-23T11:32:13.009Z</time>
      </trkpt>
      <trkpt lat="42.71685" lon="1.4392">
        <ele>1100</ele>
        <time>2018-09-23T11:32:17.009Z</time>
      </trkpt>
      <trkpt lat="42.71685" lon="1.43933">
        <ele>1100</ele>
        <time>2018-09-23T11:32:20.009Z</time>
      </trkpt>
      <trkpt lat="42.71684" lon="1.43945">
        <ele>1098</ele>
        <time>2018-09-23T11:32:23.009Z</time>
      </trkpt>
      <trkpt lat="42.7168" lon="1.43958">
        <ele>1098</ele>
        <time>2018-09-23T11:32:26.009Z</time>
      </trkpt>
      <trkpt lat="42.71677" lon="1.43965">
        <ele>1098</ele>
        <time>2018-09-23T11:32:28.009Z</time>
      </trkpt>
      <trkpt lat="42.71675" lon="1.43978">
        <ele>1097.4210048</ele>
        <time>2018-09-23T11:32:31.009Z</time>
      </trkpt>
      <trkpt lat="42.71674" lon="1.43991">
        <ele>1097</ele>
        <time>2018-09-23T11:32:34.009Z</time>
      </trkpt>
      <trkpt lat="42.71674" lon="1.44003">
        <ele>1097</ele>
        <time>2018-09-23T11:32:37.009Z</time>
      </trkpt>
      <trkpt lat="42.71676" lon="1.44016">
        <ele>1097</ele>
        <time>2018-09-23T11:32:40.009Z</time>
      </trkpt>
      <trkpt lat="42.7168" lon="1.4403">
        <ele>1097</ele>
        <time>2018-09-23T11:32:45.009Z</time>
      </trkpt>
      <trkpt lat="42.71688" lon="1.44022">
        <ele>1097</ele>
        <time>2018-09-23T11:32:49.009Z</time>
      </trkpt>
      <trkpt lat="42.71693" lon="1.44013">
        <ele>1096</ele>
        <time>2018-09-23T11:32:52.009Z</time>
      </trkpt>
      <trkpt lat="42.71697" lon="1.44007">
        <ele>1096</ele>
        <time>2018-09-23T11:32:54.009Z</time>
      </trkpt>
      <trkpt lat="42.71701" lon="1.43999">
        <ele>1096</ele>
        <time>2018-09-23T11:32:57.009Z</time>
      </trkpt>
      <trkpt lat="42.71705" lon="1.43991">
        <ele>1096</ele>
        <time>2018-09-23T11:33:00.009Z</time>
      </trkpt>
      <trkpt lat="42.7171" lon="1.43983">
        <ele>1100</ele>
        <time>2018-09-23T11:33:03.009Z</time>
      </trkpt>
      <trkpt lat="42.71715" lon="1.43979">
        <ele>1100</ele>
        <time>2018-09-23T11:33:06.009Z</time>
      </trkpt>
      <trkpt lat="42.71718" lon="1.43977">
        <ele>1100</ele>
        <time>2018-09-23T11:33:08.009Z</time>
      </trkpt>
      <trkpt lat="42.71721" lon="1.43977">
        <ele>1100</ele>
        <time>2018-09-23T11:33:10.009Z</time>
      </trkpt>
      <trkpt lat="42.71726" lon="1.43982">
        <ele>1101</ele>
        <time>2018-09-23T11:33:15.009Z</time>
      </trkpt>
      <trkpt lat="42.7173" lon="1.4399">
        <ele>1101</ele>
        <time>2018-09-23T11:33:19.009Z</time>
      </trkpt>
      <trkpt lat="42.71733" lon="1.43996">
        <ele>1103</ele>
        <time>2018-09-23T11:33:22.009Z</time>
      </trkpt>
      <trkpt lat="42.71738" lon="1.44006">
        <ele>1103</ele>
        <time>2018-09-23T11:33:29.009Z</time>
      </trkpt>
      <trkpt lat="42.71742" lon="1.44015">
        <ele>1106</ele>
        <time>2018-09-23T11:33:35.009Z</time>
      </trkpt>
      <trkpt lat="42.71748" lon="1.44025">
        <ele>1108</ele>
        <time>2018-09-23T11:33:42.009Z</time>
      </trkpt>
      <trkpt lat="42.71751" lon="1.44035">
        <ele>1108</ele>
        <time>2018-09-23T11:33:47.009Z</time>
      </trkpt>
      <trkpt lat="42.71755" lon="1.44046">
        <ele>1110</ele>
        <time>2018-09-23T11:33:53.009Z</time>
      </trkpt>
      <trkpt lat="42.71759" lon="1.44055">
        <ele>1110</ele>
        <time>2018-09-23T11:33:59.009Z</time>
      </trkpt>
      <trkpt lat="42.71763" lon="1.44063">
        <ele>1112</ele>
        <time>2018-09-23T11:34:04.009Z</time>
      </trkpt>
      <trkpt lat="42.71767" lon="1.44073">
        <ele>1112</ele>
        <time>2018-09-23T11:34:10.009Z</time>
      </trkpt>
      <trkpt lat="42.71772" lon="1.44085">
        <ele>1114</ele>
        <time>2018-09-23T11:34:17.009Z</time>
      </trkpt>
      <trkpt lat="42.71775" lon="1.44096">
        <ele>1117</ele>
        <time>2018-09-23T11:34:24.009Z</time>
      </trkpt>
      <trkpt lat="42.71778" lon="1.44105">
        <ele>1119</ele>
        <time>2018-09-23T11:34:29.009Z</time>
      </trkpt>
      <trkpt lat="42.7178" lon="1.44113">
        <ele>1119</ele>
        <time>2018-09-23T11:34:33.009Z</time>
      </trkpt>
      <trkpt lat="42.71782" lon="1.44121">
        <ele>1119</ele>
        <time>2018-09-23T11:34:38.009Z</time>
      </trkpt>
      <trkpt lat="42.71784" lon="1.4413">
        <ele>1121</ele>
        <time>2018-09-23T11:34:43.009Z</time>
      </trkpt>
      <trkpt lat="42.71786" lon="1.44139">
        <ele>1121</ele>
        <time>2018-09-23T11:34:49.009Z</time>
      </trkpt>
      <trkpt lat="42.71791" lon="1.44148">
        <ele>1123</ele>
        <time>2018-09-23T11:34:55.009Z</time>
      </trkpt>
      <trkpt lat="42.71797" lon="1.44143">
        <ele>1124</ele>
        <time>2018-09-23T11:35:02.009Z</time>
      </trkpt>
      <trkpt lat="42.71797" lon="1.44135">
        <ele>1127</ele>
        <time>2018-09-23T11:35:23.009Z</time>
      </trkpt>
      <trkpt lat="42.71799" lon="1.44124">
        <ele>1127</ele>
        <time>2018-09-23T11:35:30.009Z</time>
      </trkpt>
      <trkpt lat="42.71799" lon="1.44111">
        <ele>1128</ele>
        <time>2018-09-23T11:35:37.009Z</time>
      </trkpt>
      <trkpt lat="42.71798" lon="1.44098">
        <ele>1129</ele>
        <time>2018-09-23T11:35:43.009Z</time>
      </trkpt>
      <trkpt lat="42.71798" lon="1.44086">
        <ele>1129</ele>
        <time>2018-09-23T11:35:50.009Z</time>
      </trkpt>
      <trkpt lat="42.71797" lon="1.44072">
        <ele>1131</ele>
        <time>2018-09-23T11:35:58.009Z</time>
      </trkpt>
      <trkpt lat="42.71797" lon="1.44057">
        <ele>1133</ele>
        <time>2018-09-23T11:36:07.009Z</time>
      </trkpt>
      <trkpt lat="42.71798" lon="1.44045">
        <ele>1135</ele>
        <time>2018-09-23T11:36:12.009Z</time>
      </trkpt>
      <trkpt lat="42.71799" lon="1.44035">
        <ele>1135</ele>
        <time>2018-09-23T11:36:17.009Z</time>
      </trkpt>
      <trkpt lat="42.718" lon="1.44026">
        <ele>1136</ele>
        <time>2018-09-23T11:36:22.009Z</time>
      </trkpt>
      <trkpt lat="42.71801" lon="1.44017">
        <ele>1136</ele>
        <time>2018-09-23T11:36:27.009Z</time>
      </trkpt>
      <trkpt lat="42.71803" lon="1.4401">
        <ele>1138</ele>
        <time>2018-09-23T11:36:32.009Z</time>
      </trkpt>
      <trkpt lat="42.71804" lon="1.44002">
        <ele>1138</ele>
        <time>2018-09-23T11:36:37.009Z</time>
      </trkpt>
      <trkpt lat="42.71806" lon="1.43997">
        <ele>1138.5789952</ele>
        <time>2018-09-23T11:36:41.009Z</time>
      </trkpt>
      <trkpt lat="42.71812" lon="1.43992">
        <ele>1139</ele>
        <time>2018-09-23T11:36:46.009Z</time>
      </trkpt>
      <trkpt lat="42.71818" lon="1.43993">
        <ele>1139</ele>
        <time>2018-09-23T11:36:50.009Z</time>
      </trkpt>
      <trkpt lat="42.71823" lon="1.43998">
        <ele>1142</ele>
        <time>2018-09-23T11:36:54.009Z</time>
      </trkpt>
      <trkpt lat="42.71826" lon="1.44006">
        <ele>1145</ele>
        <time>2018-09-23T11:36:58.009Z</time>
      </trkpt>
      <trkpt lat="42.71829" lon="1.44014">
        <ele>1144</ele>
        <time>2018-09-23T11:37:02.009Z</time>
      </trkpt>
      <trkpt lat="42.71832" lon="1.44024">
        <ele>1144</ele>
        <time>2018-09-23T11:37:07.009Z</time>
      </trkpt>
      <trkpt lat="42.71834" lon="1.44034">
        <ele>1146</ele>
        <time>2018-09-23T11:37:12.009Z</time>
      </trkpt>
      <trkpt lat="42.71835" lon="1.44045">
        <ele>1146</ele>
        <time>2018-09-23T11:37:17.009Z</time>
      </trkpt>
      <trkpt lat="42.71835" lon="1.44058">
        <ele>1146</ele>
        <time>2018-09-23T11:37:23.009Z</time>
      </trkpt>
      <trkpt lat="42.71836" lon="1.44071">
        <ele>1146</ele>
        <time>2018-09-23T11:37:30.009Z</time>
      </trkpt>
      <trkpt lat="42.71834" lon="1.44085">
        <ele>1146</ele>
        <time>2018-09-23T11:37:38.009Z</time>
      </trkpt>
      <trkpt lat="42.71834" lon="1.441">
        <ele>1147</ele>
        <time>2018-09-23T11:37:43.009Z</time>
      </trkpt>
      <trkpt lat="42.71833" lon="1.4411">
        <ele>1147</ele>
        <time>2018-09-23T11:37:48.009Z</time>
      </trkpt>
      <trkpt lat="42.71833" lon="1.44124">
        <ele>1147</ele>
        <time>2018-09-23T11:37:52.009Z</time>
      </trkpt>
      <trkpt lat="42.71832" lon="1.44139">
        <ele>1147</ele>
        <time>2018-09-23T11:37:56.009Z</time>
      </trkpt>
      <trkpt lat="42.71833" lon="1.44152">
        <ele>1147</ele>
        <time>2018-09-23T11:37:59.009Z</time>
      </trkpt>
      <trkpt lat="42.71834" lon="1.44164">
        <ele>1148</ele>
        <time>2018-09-23T11:38:02.009Z</time>
      </trkpt>
      <trkpt lat="42.71834" lon="1.44177">
        <ele>1148</ele>
        <time>2018-09-23T11:38:06.009Z</time>
      </trkpt>
      <trkpt lat="42.71836" lon="1.4419">
        <ele>1148</ele>
        <time>2018-09-23T11:38:10.009Z</time>
      </trkpt>
      <trkpt lat="42.71836" lon="1.44203">
        <ele>1150</ele>
        <time>2018-09-23T11:38:14.009Z</time>
      </trkpt>
      <trkpt lat="42.71837" lon="1.44215">
        <ele>1150</ele>
        <time>2018-09-23T11:38:18.009Z</time>
      </trkpt>
      <trkpt lat="42.71838" lon="1.44224">
        <ele>1151.1579904</ele>
        <time>2018-09-23T11:38:21.009Z</time>
      </trkpt>
      <trkpt lat="42.7184" lon="1.44237">
        <ele>1152</ele>
        <time>2018-09-23T11:38:25.009Z</time>
      </trkpt>
      <trkpt lat="42.71842" lon="1.44248">
        <ele>1152</ele>
        <time>2018-09-23T11:38:29.009Z</time>
      </trkpt>
      <trkpt lat="42.71844" lon="1.44261">
        <ele>1153</ele>
        <time>2018-09-23T11:38:33.009Z</time>
      </trkpt>
      <trkpt lat="42.71849" lon="1.44273">
        <ele>1153</ele>
        <time>2018-09-23T11:38:37.009Z</time>
      </trkpt>
      <trkpt lat="42.71854" lon="1.44285">
        <ele>1153.5789952</ele>
        <time>2018-09-23T11:38:41.009Z</time>
      </trkpt>
      <trkpt lat="42.71856" lon="1.44294">
        <ele>1154</ele>
        <time>2018-09-23T11:38:44.009Z</time>
      </trkpt>
      <trkpt lat="42.71858" lon="1.44303">
        <ele>1154</ele>
        <time>2018-09-23T11:38:47.009Z</time>
      </trkpt>
      <trkpt lat="42.71861" lon="1.44313">
        <ele>1154</ele>
        <time>2018-09-23T11:38:50.009Z</time>
      </trkpt>
      <trkpt lat="42.71863" lon="1.44323">
        <ele>1156</ele>
        <time>2018-09-23T11:38:53.009Z</time>
      </trkpt>
      <trkpt lat="42.71865" lon="1.44335">
        <ele>1156</ele>
        <time>2018-09-23T11:38:56.009Z</time>
      </trkpt>
      <trkpt lat="42.71867" lon="1.44346">
        <ele>1156</ele>
        <time>2018-09-23T11:38:59.009Z</time>
      </trkpt>
      <trkpt lat="42.71869" lon="1.44357">
        <ele>1156</ele>
        <time>2018-09-23T11:39:02.009Z</time>
      </trkpt>
      <trkpt lat="42.71871" lon="1.44368">
        <ele>1156</ele>
        <time>2018-09-23T11:39:05.009Z</time>
      </trkpt>
      <trkpt lat="42.71873" lon="1.44378">
        <ele>1156</ele>
        <time>2018-09-23T11:39:08.009Z</time>
      </trkpt>
      <trkpt lat="42.71877" lon="1.44388">
        <ele>1156.5789952</ele>
        <time>2018-09-23T11:39:11.009Z</time>
      </trkpt>
      <trkpt lat="42.7188" lon="1.44397">
        <ele>1157</ele>
        <time>2018-09-23T11:39:14.009Z</time>
      </trkpt>
      <trkpt lat="42.71882" lon="1.44407">
        <ele>1157</ele>
        <time>2018-09-23T11:39:17.009Z</time>
      </trkpt>
      <trkpt lat="42.71885" lon="1.44417">
        <ele>1157</ele>
        <time>2018-09-23T11:39:20.009Z</time>
      </trkpt>
      <trkpt lat="42.71886" lon="1.44426">
        <ele>1158</ele>
        <time>2018-09-23T11:39:23.009Z</time>
      </trkpt>
      <trkpt lat="42.71889" lon="1.44438">
        <ele>1158</ele>
        <time>2018-09-23T11:39:27.009Z</time>
      </trkpt>
      <trkpt lat="42.71889" lon="1.4445">
        <ele>1159.1579904</ele>
        <time>2018-09-23T11:39:31.009Z</time>
      </trkpt>
      <trkpt lat="42.7189" lon="1.44463">
        <ele>1160</ele>
        <time>2018-09-23T11:39:35.009Z</time>
      </trkpt>
      <trkpt lat="42.71892" lon="1.44473">
        <ele>1160</ele>
        <time>2018-09-23T11:39:39.009Z</time>
      </trkpt>
      <trkpt lat="42.71894" lon="1.44485">
        <ele>1162</ele>
        <time>2018-09-23T11:39:43.009Z</time>
      </trkpt>
      <trkpt lat="42.71898" lon="1.44495">
        <ele>1162</ele>
        <time>2018-09-23T11:39:47.009Z</time>
      </trkpt>
      <trkpt lat="42.71902" lon="1.44506">
        <ele>1163.1579904</ele>
        <time>2018-09-23T11:39:51.009Z</time>
      </trkpt>
      <trkpt lat="42.71905" lon="1.44514">
        <ele>1164</ele>
        <time>2018-09-23T11:39:54.009Z</time>
      </trkpt>
      <trkpt lat="42.7191" lon="1.44525">
        <ele>1164</ele>
        <time>2018-09-23T11:39:58.009Z</time>
      </trkpt>
      <trkpt lat="42.71913" lon="1.44535">
        <ele>1169</ele>
        <time>2018-09-23T11:40:02.009Z</time>
      </trkpt>
      <trkpt lat="42.71918" lon="1.44544">
        <ele>1169</ele>
        <time>2018-09-23T11:40:06.009Z</time>
      </trkpt>
      <trkpt lat="42.71922" lon="1.44556">
        <ele>1169</ele>
        <time>2018-09-23T11:40:10.009Z</time>
      </trkpt>
      <trkpt lat="42.71924" lon="1.44565">
        <ele>1169</ele>
        <time>2018-09-23T11:40:13.009Z</time>
      </trkpt>
      <trkpt lat="42.71926" lon="1.44574">
        <ele>1169</ele>
        <time>2018-09-23T11:40:16.009Z</time>
      </trkpt>
      <trkpt lat="42.71929" lon="1.44583">
        <ele>1169</ele>
        <time>2018-09-23T11:40:19.009Z</time>
      </trkpt>
      <trkpt lat="42.71932" lon="1.44593">
        <ele>1171</ele>
        <time>2018-09-23T11:40:22.009Z</time>
      </trkpt>
      <trkpt lat="42.71934" lon="1.44601">
        <ele>1171</ele>
        <time>2018-09-23T11:40:25.009Z</time>
      </trkpt>
      <trkpt lat="42.71936" lon="1.44611">
        <ele>1171</ele>
        <time>2018-09-23T11:40:30.009Z</time>
      </trkpt>
      <trkpt lat="42.71937" lon="1.44619">
        <ele>1173</ele>
        <time>2018-09-23T11:40:34.009Z</time>
      </trkpt>
      <trkpt lat="42.71936" lon="1.44627">
        <ele>1173</ele>
        <time>2018-09-23T11:40:38.009Z</time>
      </trkpt>
      <trkpt lat="42.71937" lon="1.44634">
        <ele>1174</ele>
        <time>2018-09-23T11:40:42.009Z</time>
      </trkpt>
      <trkpt lat="42.71937" lon="1.44641">
        <ele>1174</ele>
        <time>2018-09-23T11:40:46.009Z</time>
      </trkpt>
      <trkpt lat="42.71938" lon="1.44651">
        <ele>1174</ele>
        <time>2018-09-23T11:40:50.009Z</time>
      </trkpt>
      <trkpt lat="42.71939" lon="1.44658">
        <ele>1176</ele>
        <time>2018-09-23T11:40:53.009Z</time>
      </trkpt>
      <trkpt lat="42.71941" lon="1.44665">
        <ele>1176</ele>
        <time>2018-09-23T11:40:57.009Z</time>
      </trkpt>
      <trkpt lat="42.71944" lon="1.44671">
        <ele>1176.5789952</ele>
        <time>2018-09-23T11:41:01.009Z</time>
      </trkpt>
      <trkpt lat="42.7194" lon="1.44666">
        <ele>1177</ele>
        <time>2018-09-23T11:41:10.009Z</time>
      </trkpt>
      <trkpt lat="42.71937" lon="1.44661">
        <ele>1177</ele>
        <time>2018-09-23T11:41:13.009Z</time>
      </trkpt>
      <trkpt lat="42.71931" lon="1.44668">
        <ele>1177</ele>
        <time>2018-09-23T11:41:20.009Z</time>
      </trkpt>
      <trkpt lat="42.71932" lon="1.4468">
        <ele>1174</ele>
        <time>2018-09-23T11:41:23.009Z</time>
      </trkpt>
      <trkpt lat="42.71932" lon="1.44688">
        <ele>1172.8420096</ele>
        <time>2018-09-23T11:41:26.009Z</time>
      </trkpt>
      <trkpt lat="42.71932" lon="1.44698">
        <ele>1172</ele>
        <time>2018-09-23T11:41:30.009Z</time>
      </trkpt>
      <trkpt lat="42.71941" lon="1.44701">
        <ele>1170</ele>
        <time>2018-09-23T11:41:35.009Z</time>
      </trkpt>
      <trkpt lat="42.71948" lon="1.44696">
        <ele>1169</ele>
        <time>2018-09-23T11:41:38.009Z</time>
      </trkpt>
      <trkpt lat="42.71953" lon="1.4469">
        <ele>1169</ele>
        <time>2018-09-23T11:41:41.009Z</time>
      </trkpt>
      <trkpt lat="42.71958" lon="1.44683">
        <ele>1169</ele>
        <time>2018-09-23T11:41:45.009Z</time>
      </trkpt>
      <trkpt lat="42.71964" lon="1.44677">
        <ele>1169</ele>
        <time>2018-09-23T11:42:26.009Z</time>
      </trkpt>
      <trkpt lat="42.71973" lon="1.44673">
        <ele>1169</ele>
        <time>2018-09-23T11:42:56.009Z</time>
      </trkpt>
      <trkpt lat="42.71983" lon="1.44675">
        <ele>1167</ele>
        <time>2018-09-23T11:43:20.009Z</time>
      </trkpt>
      <trkpt lat="42.71995" lon="1.44674">
        <ele>1169</ele>
        <time>2018-09-23T11:43:26.009Z</time>
      </trkpt>
      <trkpt lat="42.72006" lon="1.44673">
        <ele>1169</ele>
        <time>2018-09-23T11:43:31.009Z</time>
      </trkpt>
      <trkpt lat="42.72017" lon="1.4467">
        <ele>1169</ele>
        <time>2018-09-23T11:43:35.009Z</time>
      </trkpt>
      <trkpt lat="42.72025" lon="1.44659">
        <ele>1169</ele>
        <time>2018-09-23T11:43:38.009Z</time>
      </trkpt>
      <trkpt lat="42.72035" lon="1.44652">
        <ele>1169</ele>
        <time>2018-09-23T11:43:42.009Z</time>
      </trkpt>
      <trkpt lat="42.72045" lon="1.44646">
        <ele>1169</ele>
        <time>2018-09-23T11:43:45.009Z</time>
      </trkpt>
      <trkpt lat="42.72054" lon="1.44638">
        <ele>1169</ele>
        <time>2018-09-23T11:43:49.009Z</time>
      </trkpt>
      <trkpt lat="42.72064" lon="1.44627">
        <ele>1169</ele>
        <time>2018-09-23T11:43:53.009Z</time>
      </trkpt>
      <trkpt lat="42.72073" lon="1.4462">
        <ele>1169</ele>
        <time>2018-09-23T11:43:58.009Z</time>
      </trkpt>
      <trkpt lat="42.72083" lon="1.44626">
        <ele>1168</ele>
        <time>2018-09-23T11:44:04.009Z</time>
      </trkpt>
      <trkpt lat="42.72095" lon="1.44627">
        <ele>1168</ele>
        <time>2018-09-23T11:44:08.009Z</time>
      </trkpt>
      <trkpt lat="42.72106" lon="1.44628">
        <ele>1169</ele>
        <time>2018-09-23T11:44:12.009Z</time>
      </trkpt>
      <trkpt lat="42.72118" lon="1.44629">
        <ele>1169</ele>
        <time>2018-09-23T11:44:16.009Z</time>
      </trkpt>
      <trkpt lat="42.72128" lon="1.44635">
        <ele>1169</ele>
        <time>2018-09-23T11:44:20.009Z</time>
      </trkpt>
      <trkpt lat="42.7214" lon="1.44641">
        <ele>1169</ele>
        <time>2018-09-23T11:44:25.009Z</time>
      </trkpt>
      <trkpt lat="42.72152" lon="1.44646">
        <ele>1169</ele>
        <time>2018-09-23T11:44:29.009Z</time>
      </trkpt>
      <trkpt lat="42.72163" lon="1.4465">
        <ele>1169</ele>
        <time>2018-09-23T11:44:33.009Z</time>
      </trkpt>
      <trkpt lat="42.72173" lon="1.44656">
        <ele>1169</ele>
        <time>2018-09-23T11:44:37.009Z</time>
      </trkpt>
      <trkpt lat="42.72186" lon="1.44657">
        <ele>1169</ele>
        <time>2018-09-23T11:44:41.009Z</time>
      </trkpt>
      <trkpt lat="42.72199" lon="1.4466">
        <ele>1169</ele>
        <time>2018-09-23T11:44:45.009Z</time>
      </trkpt>
      <trkpt lat="42.72207" lon="1.4467">
        <ele>1169</ele>
        <time>2018-09-23T11:44:49.009Z</time>
      </trkpt>
      <trkpt lat="42.72215" lon="1.44682">
        <ele>1169</ele>
        <time>2018-09-23T11:44:53.009Z</time>
      </trkpt>
      <trkpt lat="42.72225" lon="1.44691">
        <ele>1169</ele>
        <time>2018-09-23T11:44:58.009Z</time>
      </trkpt>
      <trkpt lat="42.72235" lon="1.44694">
        <ele>1167</ele>
        <time>2018-09-23T11:45:02.009Z</time>
      </trkpt>
      <trkpt lat="42.72246" lon="1.44696">
        <ele>1167</ele>
        <time>2018-09-23T11:45:06.009Z</time>
      </trkpt>
      <trkpt lat="42.72257" lon="1.44697">
        <ele>1167</ele>
        <time>2018-09-23T11:45:10.009Z</time>
      </trkpt>
      <trkpt lat="42.72267" lon="1.44699">
        <ele>1168</ele>
        <time>2018-09-23T11:45:14.009Z</time>
      </trkpt>
      <trkpt lat="42.72279" lon="1.44704">
        <ele>1168</ele>
        <time>2018-09-23T11:45:19.009Z</time>
      </trkpt>
      <trkpt lat="42.72287" lon="1.44713">
        <ele>1168</ele>
        <time>2018-09-23T11:45:22.009Z</time>
      </trkpt>
      <trkpt lat="42.72296" lon="1.44723">
        <ele>1168</ele>
        <time>2018-09-23T11:45:25.009Z</time>
      </trkpt>
      <trkpt lat="42.72304" lon="1.44731">
        <ele>1168</ele>
        <time>2018-09-23T11:45:28.009Z</time>
      </trkpt>
      <trkpt lat="42.72314" lon="1.44737">
        <ele>1167</ele>
        <time>2018-09-23T11:45:32.009Z</time>
      </trkpt>
      <trkpt lat="42.72326" lon="1.44741">
        <ele>1167</ele>
        <time>2018-09-23T11:45:37.009Z</time>
      </trkpt>
      <trkpt lat="42.72336" lon="1.44742">
        <ele>1168.1579904</ele>
        <time>2018-09-23T11:45:41.009Z</time>
      </trkpt>
      <trkpt lat="42.72348" lon="1.44748">
        <ele>1169</ele>
        <time>2018-09-23T11:45:46.009Z</time>
      </trkpt>
      <trkpt lat="42.72357" lon="1.44756">
        <ele>1169</ele>
        <time>2018-09-23T11:45:49.009Z</time>
      </trkpt>
      <trkpt lat="42.72365" lon="1.44763">
        <ele>1168</ele>
        <time>2018-09-23T11:45:52.009Z</time>
      </trkpt>
      <trkpt lat="42.72376" lon="1.44767">
        <ele>1168</ele>
        <time>2018-09-23T11:45:56.009Z</time>
      </trkpt>
      <trkpt lat="42.72388" lon="1.44771">
        <ele>1168</ele>
        <time>2018-09-23T11:46:00.009Z</time>
      </trkpt>
      <trkpt lat="42.72398" lon="1.44777">
        <ele>1167</ele>
        <time>2018-09-23T11:46:04.009Z</time>
      </trkpt>
      <trkpt lat="42.72409" lon="1.44782">
        <ele>1167</ele>
        <time>2018-09-23T11:46:08.009Z</time>
      </trkpt>
      <trkpt lat="42.72419" lon="1.44788">
        <ele>1167</ele>
        <time>2018-09-23T11:46:12.009Z</time>
      </trkpt>
      <trkpt lat="42.72431" lon="1.4479">
        <ele>1167</ele>
        <time>2018-09-23T11:46:17.009Z</time>
      </trkpt>
      <trkpt lat="42.72442" lon="1.44792">
        <ele>1167</ele>
        <time>2018-09-23T11:46:21.009Z</time>
      </trkpt>
      <trkpt lat="42.72453" lon="1.44796">
        <ele>1167</ele>
        <time>2018-09-23T11:46:26.009Z</time>
      </trkpt>
      <trkpt lat="42.72464" lon="1.44799">
        <ele>1167</ele>
        <time>2018-09-23T11:46:30.009Z</time>
      </trkpt>
      <trkpt lat="42.72475" lon="1.44806">
        <ele>1168</ele>
        <time>2018-09-23T11:46:34.009Z</time>
      </trkpt>
      <trkpt lat="42.72485" lon="1.44811">
        <ele>1168</ele>
        <time>2018-09-23T11:46:37.009Z</time>
      </trkpt>
      <trkpt lat="42.72498" lon="1.44815">
        <ele>1167.4210048</ele>
        <time>2018-09-23T11:46:41.009Z</time>
      </trkpt>
      <trkpt lat="42.72508" lon="1.44819">
        <ele>1167</ele>
        <time>2018-09-23T11:46:44.009Z</time>
      </trkpt>
      <trkpt lat="42.72518" lon="1.44826">
        <ele>1167</ele>
        <time>2018-09-23T11:46:48.009Z</time>
      </trkpt>
      <trkpt lat="42.72528" lon="1.44828">
        <ele>1166</ele>
        <time>2018-09-23T11:46:52.009Z</time>
      </trkpt>
      <trkpt lat="42.72539" lon="1.44824">
        <ele>1166</ele>
        <time>2018-09-23T11:46:55.009Z</time>
      </trkpt>
      <trkpt lat="42.7255" lon="1.44824">
        <ele>1166</ele>
        <time>2018-09-23T11:46:59.009Z</time>
      </trkpt>
      <trkpt lat="42.72559" lon="1.44834">
        <ele>1167</ele>
        <time>2018-09-23T11:47:03.009Z</time>
      </trkpt>
      <trkpt lat="42.7257" lon="1.44844">
        <ele>1167</ele>
        <time>2018-09-23T11:47:07.009Z</time>
      </trkpt>
      <trkpt lat="42.72582" lon="1.44849">
        <ele>1167</ele>
        <time>2018-09-23T11:47:11.009Z</time>
      </trkpt>
      <trkpt lat="42.72594" lon="1.44852">
        <ele>1167</ele>
        <time>2018-09-23T11:47:15.009Z</time>
      </trkpt>
      <trkpt lat="42.72604" lon="1.44848">
        <ele>1167</ele>
        <time>2018-09-23T11:47:19.009Z</time>
      </trkpt>
      <trkpt lat="42.72615" lon="1.44842">
        <ele>1166</ele>
        <time>2018-09-23T11:47:23.009Z</time>
      </trkpt>
      <trkpt lat="42.72624" lon="1.44835">
        <ele>1166</ele>
        <time>2018-09-23T11:47:27.009Z</time>
      </trkpt>
      <trkpt lat="42.72635" lon="1.44826">
        <ele>1166</ele>
        <time>2018-09-23T11:47:32.009Z</time>
      </trkpt>
      <trkpt lat="42.72643" lon="1.44818">
        <ele>1166</ele>
        <time>2018-09-23T11:47:36.009Z</time>
      </trkpt>
      <trkpt lat="42.7265" lon="1.44807">
        <ele>1166</ele>
        <time>2018-09-23T11:47:41.009Z</time>
      </trkpt>
      <trkpt lat="42.72657" lon="1.44795">
        <ele>1166</ele>
        <time>2018-09-23T11:47:45.009Z</time>
      </trkpt>
      <trkpt lat="42.72663" lon="1.44784">
        <ele>1166</ele>
        <time>2018-09-23T11:47:48.009Z</time>
      </trkpt>
      <trkpt lat="42.72669" lon="1.44773">
        <ele>1166</ele>
        <time>2018-09-23T11:47:51.009Z</time>
      </trkpt>
      <trkpt lat="42.72676" lon="1.44764">
        <ele>1166</ele>
        <time>2018-09-23T11:47:54.009Z</time>
      </trkpt>
      <trkpt lat="42.72685" lon="1.44755">
        <ele>1166</ele>
        <time>2018-09-23T11:47:57.009Z</time>
      </trkpt>
      <trkpt lat="42.72693" lon="1.44742">
        <ele>1165.4210048</ele>
        <time>2018-09-23T11:48:01.009Z</time>
      </trkpt>
      <trkpt lat="42.727" lon="1.44731">
        <ele>1165</ele>
        <time>2018-09-23T11:48:05.009Z</time>
      </trkpt>
      <trkpt lat="42.7271" lon="1.44722">
        <ele>1165</ele>
        <time>2018-09-23T11:48:09.009Z</time>
      </trkpt>
      <trkpt lat="42.72721" lon="1.44714">
        <ele>1166</ele>
        <time>2018-09-23T11:48:13.009Z</time>
      </trkpt>
      <trkpt lat="42.72732" lon="1.4471">
        <ele>1166</ele>
        <time>2018-09-23T11:48:17.009Z</time>
      </trkpt>
      <trkpt lat="42.72738" lon="1.44708">
        <ele>1166</ele>
        <time>2018-09-23T11:48:19.009Z</time>
      </trkpt>
      <trkpt lat="42.72746" lon="1.44705">
        <ele>1167</ele>
        <time>2018-09-23T11:48:22.009Z</time>
      </trkpt>
      <trkpt lat="42.72751" lon="1.44701">
        <ele>1167</ele>
        <time>2018-09-23T11:48:24.009Z</time>
      </trkpt>
      <trkpt lat="42.72757" lon="1.44697">
        <ele>1167</ele>
        <time>2018-09-23T11:48:26.009Z</time>
      </trkpt>
      <trkpt lat="42.72761" lon="1.44693">
        <ele>1167</ele>
        <time>2018-09-23T11:48:28.009Z</time>
      </trkpt>
      <trkpt lat="42.7277" lon="1.44683">
        <ele>1167</ele>
        <time>2018-09-23T11:48:33.009Z</time>
      </trkpt>
      <trkpt lat="42.72779" lon="1.44676">
        <ele>1167</ele>
        <time>2018-09-23T11:48:37.009Z</time>
      </trkpt>
      <trkpt lat="42.72786" lon="1.44672">
        <ele>1167</ele>
        <time>2018-09-23T11:48:40.009Z</time>
      </trkpt>
      <trkpt lat="42.72794" lon="1.4467">
        <ele>1167</ele>
        <time>2018-09-23T11:48:44.009Z</time>
      </trkpt>
      <trkpt lat="42.72791" lon="1.44683">
        <ele>1167</ele>
        <time>2018-09-23T11:48:53.009Z</time>
      </trkpt>
      <trkpt lat="42.72787" lon="1.44697">
        <ele>1167</ele>
        <time>2018-09-23T11:48:56.009Z</time>
      </trkpt>
      <trkpt lat="42.72785" lon="1.4471">
        <ele>1167</ele>
        <time>2018-09-23T11:48:59.009Z</time>
      </trkpt>
      <trkpt lat="42.72783" lon="1.44728">
        <ele>1165</ele>
        <time>2018-09-23T11:49:03.009Z</time>
      </trkpt>
      <trkpt lat="42.72781" lon="1.44741">
        <ele>1165</ele>
        <time>2018-09-23T11:49:06.009Z</time>
      </trkpt>
      <trkpt lat="42.72778" lon="1.44756">
        <ele>1165</ele>
        <time>2018-09-23T11:49:10.009Z</time>
      </trkpt>
      <trkpt lat="42.72776" lon="1.44773">
        <ele>1165</ele>
        <time>2018-09-23T11:49:14.009Z</time>
      </trkpt>
      <trkpt lat="42.72776" lon="1.44789">
        <ele>1165</ele>
        <time>2018-09-23T11:49:18.009Z</time>
      </trkpt>
      <trkpt lat="42.72775" lon="1.44805">
        <ele>1165</ele>
        <time>2018-09-23T11:49:22.009Z</time>
      </trkpt>
      <trkpt lat="42.72776" lon="1.4482">
        <ele>1165</ele>
        <time>2018-09-23T11:49:26.009Z</time>
      </trkpt>
      <trkpt lat="42.72782" lon="1.44832">
        <ele>1165</ele>
        <time>2018-09-23T11:49:30.009Z</time>
      </trkpt>
      <trkpt lat="42.72786" lon="1.44845">
        <ele>1166</ele>
        <time>2018-09-23T11:49:34.009Z</time>
      </trkpt>
      <trkpt lat="42.72788" lon="1.4486">
        <ele>1166</ele>
        <time>2018-09-23T11:49:38.009Z</time>
      </trkpt>
      <trkpt lat="42.7279" lon="1.44877">
        <ele>1166</ele>
        <time>2018-09-23T11:49:42.009Z</time>
      </trkpt>
      <trkpt lat="42.72791" lon="1.44893">
        <ele>1166</ele>
        <time>2018-09-23T11:49:46.009Z</time>
      </trkpt>
      <trkpt lat="42.72792" lon="1.44908">
        <ele>1166</ele>
        <time>2018-09-23T11:49:50.009Z</time>
      </trkpt>
      <trkpt lat="42.72794" lon="1.44924">
        <ele>1165</ele>
        <time>2018-09-23T11:49:54.009Z</time>
      </trkpt>
      <trkpt lat="42.72799" lon="1.44939">
        <ele>1165</ele>
        <time>2018-09-23T11:49:58.009Z</time>
      </trkpt>
      <trkpt lat="42.72804" lon="1.44952">
        <ele>1165.5789952</ele>
        <time>2018-09-23T11:50:01.009Z</time>
      </trkpt>
      <trkpt lat="42.72809" lon="1.44967">
        <ele>1166</ele>
        <time>2018-09-23T11:50:05.009Z</time>
      </trkpt>
      <trkpt lat="42.72814" lon="1.44981">
        <ele>1166</ele>
        <time>2018-09-23T11:50:09.009Z</time>
      </trkpt>
      <trkpt lat="42.7282" lon="1.44995">
        <ele>1166</ele>
        <time>2018-09-23T11:50:13.009Z</time>
      </trkpt>
      <trkpt lat="42.72826" lon="1.45008">
        <ele>1166</ele>
        <time>2018-09-23T11:50:17.009Z</time>
      </trkpt>
      <trkpt lat="42.72832" lon="1.45022">
        <ele>1166</ele>
        <time>2018-09-23T11:50:21.009Z</time>
      </trkpt>
      <trkpt lat="42.72838" lon="1.45034">
        <ele>1166</ele>
        <time>2018-09-23T11:50:25.009Z</time>
      </trkpt>
      <trkpt lat="42.72845" lon="1.45045">
        <ele>1166</ele>
        <time>2018-09-23T11:50:29.009Z</time>
      </trkpt>
      <trkpt lat="42.72854" lon="1.45055">
        <ele>1165</ele>
        <time>2018-09-23T11:50:33.009Z</time>
      </trkpt>
      <trkpt lat="42.72864" lon="1.45059">
        <ele>1165</ele>
        <time>2018-09-23T11:50:37.009Z</time>
      </trkpt>
      <trkpt lat="42.72874" lon="1.45061">
        <ele>1165.5789952</ele>
        <time>2018-09-23T11:50:41.009Z</time>
      </trkpt>
      <trkpt lat="42.72886" lon="1.45066">
        <ele>1166</ele>
        <time>2018-09-23T11:50:46.009Z</time>
      </trkpt>
      <trkpt lat="42.72896" lon="1.45074">
        <ele>1165.4210048</ele>
        <time>2018-09-23T11:50:51.009Z</time>
      </trkpt>
      <trkpt lat="42.72907" lon="1.45076">
        <ele>1165</ele>
        <time>2018-09-23T11:50:55.009Z</time>
      </trkpt>
      <trkpt lat="42.72918" lon="1.45079">
        <ele>1165</ele>
        <time>2018-09-23T11:50:59.009Z</time>
      </trkpt>
      <trkpt lat="42.72929" lon="1.45085">
        <ele>1164</ele>
        <time>2018-09-23T11:51:03.009Z</time>
      </trkpt>
      <trkpt lat="42.72939" lon="1.4509">
        <ele>1164</ele>
        <time>2018-09-23T11:51:07.009Z</time>
      </trkpt>
      <trkpt lat="42.7295" lon="1.45096">
        <ele>1164.5789952</ele>
        <time>2018-09-23T11:51:11.009Z</time>
      </trkpt>
      <trkpt lat="42.72959" lon="1.45104">
        <ele>1165</ele>
        <time>2018-09-23T11:51:14.009Z</time>
      </trkpt>
      <trkpt lat="42.72967" lon="1.45114">
        <ele>1165</ele>
        <time>2018-09-23T11:51:17.009Z</time>
      </trkpt>
      <trkpt lat="42.72976" lon="1.45126">
        <ele>1165</ele>
        <time>2018-09-23T11:51:21.009Z</time>
      </trkpt>
      <trkpt lat="42.72984" lon="1.45135">
        <ele>1165</ele>
        <time>2018-09-23T11:51:24.009Z</time>
      </trkpt>
      <trkpt lat="42.72992" lon="1.45144">
        <ele>1165</ele>
        <time>2018-09-23T11:51:27.009Z</time>
      </trkpt>
      <trkpt lat="42.73001" lon="1.45155">
        <ele>1164.4210048</ele>
        <time>2018-09-23T11:51:31.009Z</time>
      </trkpt>
      <trkpt lat="42.73009" lon="1.45166">
        <ele>1164</ele>
        <time>2018-09-23T11:51:35.009Z</time>
      </trkpt>
      <trkpt lat="42.73018" lon="1.45175">
        <ele>1164</ele>
        <time>2018-09-23T11:51:40.009Z</time>
      </trkpt>
      <trkpt lat="42.73029" lon="1.45182">
        <ele>1164</ele>
        <time>2018-09-23T11:51:44.009Z</time>
      </trkpt>
      <trkpt lat="42.73038" lon="1.4519">
        <ele>1164</ele>
        <time>2018-09-23T11:51:48.009Z</time>
      </trkpt>
      <trkpt lat="42.73048" lon="1.45197">
        <ele>1165</ele>
        <time>2018-09-23T11:51:52.009Z</time>
      </trkpt>
      <trkpt lat="42.73059" lon="1.45203">
        <ele>1165</ele>
        <time>2018-09-23T11:51:56.009Z</time>
      </trkpt>
      <trkpt lat="42.73068" lon="1.45211">
        <ele>1165</ele>
        <time>2018-09-23T11:51:59.009Z</time>
      </trkpt>
      <trkpt lat="42.73076" lon="1.45219">
        <ele>1164</ele>
        <time>2018-09-23T11:52:02.009Z</time>
      </trkpt>
      <trkpt lat="42.73086" lon="1.45229">
        <ele>1164</ele>
        <time>2018-09-23T11:52:06.009Z</time>
      </trkpt>
      <trkpt lat="42.73094" lon="1.45238">
        <ele>1164</ele>
        <time>2018-09-23T11:52:10.009Z</time>
      </trkpt>
      <trkpt lat="42.731" lon="1.4525">
        <ele>1164</ele>
        <time>2018-09-23T11:52:13.009Z</time>
      </trkpt>
      <trkpt lat="42.73107" lon="1.45261">
        <ele>1164</ele>
        <time>2018-09-23T11:52:16.009Z</time>
      </trkpt>
      <trkpt lat="42.73116" lon="1.45274">
        <ele>1164</ele>
        <time>2018-09-23T11:52:20.009Z</time>
      </trkpt>
      <trkpt lat="42.73124" lon="1.45284">
        <ele>1164</ele>
        <time>2018-09-23T11:52:24.009Z</time>
      </trkpt>
      <trkpt lat="42.73132" lon="1.45294">
        <ele>1164</ele>
        <time>2018-09-23T11:52:28.009Z</time>
      </trkpt>
      <trkpt lat="42.73141" lon="1.45304">
        <ele>1163</ele>
        <time>2018-09-23T11:52:32.009Z</time>
      </trkpt>
      <trkpt lat="42.73148" lon="1.45312">
        <ele>1163</ele>
        <time>2018-09-23T11:52:35.009Z</time>
      </trkpt>
      <trkpt lat="42.73156" lon="1.45319">
        <ele>1163</ele>
        <time>2018-09-23T11:52:38.009Z</time>
      </trkpt>
      <trkpt lat="42.73167" lon="1.45325">
        <ele>1164</ele>
        <time>2018-09-23T11:52:42.009Z</time>
      </trkpt>
      <trkpt lat="42.73177" lon="1.45335">
        <ele>1164</ele>
        <time>2018-09-23T11:52:47.009Z</time>
      </trkpt>
      <trkpt lat="42.73186" lon="1.45343">
        <ele>1164</ele>
        <time>2018-09-23T11:52:51.009Z</time>
      </trkpt>
      <trkpt lat="42.73196" lon="1.45354">
        <ele>1164</ele>
        <time>2018-09-23T11:52:55.009Z</time>
      </trkpt>
      <trkpt lat="42.73202" lon="1.45365">
        <ele>1164</ele>
        <time>2018-09-23T11:52:58.009Z</time>
      </trkpt>
      <trkpt lat="42.73213" lon="1.45374">
        <ele>1164</ele>
        <time>2018-09-23T11:53:02.009Z</time>
      </trkpt>
      <trkpt lat="42.73223" lon="1.4538">
        <ele>1164</ele>
        <time>2018-09-23T11:53:06.009Z</time>
      </trkpt>
      <trkpt lat="42.73234" lon="1.45383">
        <ele>1164</ele>
        <time>2018-09-23T11:53:10.009Z</time>
      </trkpt>
      <trkpt lat="42.73246" lon="1.45381">
        <ele>1164</ele>
        <time>2018-09-23T11:53:14.009Z</time>
      </trkpt>
      <trkpt lat="42.73257" lon="1.45381">
        <ele>1164</ele>
        <time>2018-09-23T11:53:18.009Z</time>
      </trkpt>
      <trkpt lat="42.73268" lon="1.45378">
        <ele>1163</ele>
        <time>2018-09-23T11:53:22.009Z</time>
      </trkpt>
      <trkpt lat="42.73278" lon="1.4537">
        <ele>1163</ele>
        <time>2018-09-23T11:53:26.009Z</time>
      </trkpt>
      <trkpt lat="42.73288" lon="1.45358">
        <ele>1163</ele>
        <time>2018-09-23T11:53:30.009Z</time>
      </trkpt>
      <trkpt lat="42.73297" lon="1.45347">
        <ele>1163</ele>
        <time>2018-09-23T11:53:34.009Z</time>
      </trkpt>
      <trkpt lat="42.73303" lon="1.45333">
        <ele>1163</ele>
        <time>2018-09-23T11:53:39.009Z</time>
      </trkpt>
      <trkpt lat="42.73309" lon="1.4532">
        <ele>1162</ele>
        <time>2018-09-23T11:53:43.009Z</time>
      </trkpt>
      <trkpt lat="42.73317" lon="1.45308">
        <ele>1162</ele>
        <time>2018-09-23T11:53:47.009Z</time>
      </trkpt>
      <trkpt lat="42.73324" lon="1.45297">
        <ele>1162</ele>
        <time>2018-09-23T11:53:50.009Z</time>
      </trkpt>
      <trkpt lat="42.7333" lon="1.45281">
        <ele>1162</ele>
        <time>2018-09-23T11:53:54.009Z</time>
      </trkpt>
      <trkpt lat="42.73331" lon="1.45264">
        <ele>1162</ele>
        <time>2018-09-23T11:53:58.009Z</time>
      </trkpt>
      <trkpt lat="42.73328" lon="1.45248">
        <ele>1162</ele>
        <time>2018-09-23T11:54:02.009Z</time>
      </trkpt>
      <trkpt lat="42.73328" lon="1.45233">
        <ele>1162</ele>
        <time>2018-09-23T11:54:06.009Z</time>
      </trkpt>
      <trkpt lat="42.73329" lon="1.45217">
        <ele>1162</ele>
        <time>2018-09-23T11:54:10.009Z</time>
      </trkpt>
      <trkpt lat="42.73332" lon="1.45201">
        <ele>1162</ele>
        <time>2018-09-23T11:54:14.009Z</time>
      </trkpt>
      <trkpt lat="42.73332" lon="1.45186">
        <ele>1162</ele>
        <time>2018-09-23T11:54:18.009Z</time>
      </trkpt>
      <trkpt lat="42.73342" lon="1.45192">
        <ele>1162</ele>
        <time>2018-09-23T11:54:32.009Z</time>
      </trkpt>
      <trkpt lat="42.7335" lon="1.45201">
        <ele>1162</ele>
        <time>2018-09-23T11:54:36.009Z</time>
      </trkpt>
      <trkpt lat="42.73359" lon="1.45211">
        <ele>1162</ele>
        <time>2018-09-23T11:54:40.009Z</time>
      </trkpt>
      <trkpt lat="42.73371" lon="1.45217">
        <ele>1162</ele>
        <time>2018-09-23T11:54:44.009Z</time>
      </trkpt>
      <trkpt lat="42.73381" lon="1.45216">
        <ele>1162</ele>
        <time>2018-09-23T11:54:47.009Z</time>
      </trkpt>
      <trkpt lat="42.73392" lon="1.45218">
        <ele>1162</ele>
        <time>2018-09-23T11:54:51.009Z</time>
      </trkpt>
      <trkpt lat="42.73403" lon="1.45222">
        <ele>1162</ele>
        <time>2018-09-23T11:54:55.009Z</time>
      </trkpt>
      <trkpt lat="42.73415" lon="1.45224">
        <ele>1162</ele>
        <time>2018-09-23T11:54:59.009Z</time>
      </trkpt>
      <trkpt lat="42.73426" lon="1.45229">
        <ele>1160</ele>
        <time>2018-09-23T11:55:03.009Z</time>
      </trkpt>
      <trkpt lat="42.73436" lon="1.45235">
        <ele>1160</ele>
        <time>2018-09-23T11:55:07.009Z</time>
      </trkpt>
      <trkpt lat="42.73447" lon="1.45243">
        <ele>1160.5789952</ele>
        <time>2018-09-23T11:55:11.009Z</time>
      </trkpt>
      <trkpt lat="42.73456" lon="1.45252">
        <ele>1161</ele>
        <time>2018-09-23T11:55:15.009Z</time>
      </trkpt>
      <trkpt lat="42.73468" lon="1.45257">
        <ele>1161</ele>
        <time>2018-09-23T11:55:19.009Z</time>
      </trkpt>
      <trkpt lat="42.7348" lon="1.45258">
        <ele>1161</ele>
        <time>2018-09-23T11:55:23.009Z</time>
      </trkpt>
      <trkpt lat="42.73492" lon="1.45251">
        <ele>1161</ele>
        <time>2018-09-23T11:55:27.009Z</time>
      </trkpt>
      <trkpt lat="42.73501" lon="1.45243">
        <ele>1161</ele>
        <time>2018-09-23T11:55:31.009Z</time>
      </trkpt>
      <trkpt lat="42.73511" lon="1.45236">
        <ele>1161</ele>
        <time>2018-09-23T11:55:35.009Z</time>
      </trkpt>
      <trkpt lat="42.73521" lon="1.45232">
        <ele>1161</ele>
        <time>2018-09-23T11:55:39.009Z</time>
      </trkpt>
      <trkpt lat="42.73533" lon="1.45229">
        <ele>1161</ele>
        <time>2018-09-23T11:55:43.009Z</time>
      </trkpt>
      <trkpt lat="42.73544" lon="1.45223">
        <ele>1161</ele>
        <time>2018-09-23T11:55:47.009Z</time>
      </trkpt>
      <trkpt lat="42.73553" lon="1.4522">
        <ele>1161</ele>
        <time>2018-09-23T11:55:51.009Z</time>
      </trkpt>
      <trkpt lat="42.73564" lon="1.45217">
        <ele>1161</ele>
        <time>2018-09-23T11:55:54.009Z</time>
      </trkpt>
      <trkpt lat="42.73576" lon="1.45216">
        <ele>1161</ele>
        <time>2018-09-23T11:55:58.009Z</time>
      </trkpt>
      <trkpt lat="42.73586" lon="1.45213">
        <ele>1161</ele>
        <time>2018-09-23T11:56:02.009Z</time>
      </trkpt>
      <trkpt lat="42.73596" lon="1.45212">
        <ele>1161</ele>
        <time>2018-09-23T11:56:06.009Z</time>
      </trkpt>
      <trkpt lat="42.73608" lon="1.45211">
        <ele>1161</ele>
        <time>2018-09-23T11:56:10.009Z</time>
      </trkpt>
      <trkpt lat="42.7362" lon="1.45207">
        <ele>1162</ele>
        <time>2018-09-23T11:56:14.009Z</time>
      </trkpt>
      <trkpt lat="42.73631" lon="1.45199">
        <ele>1162</ele>
        <time>2018-09-23T11:56:18.009Z</time>
      </trkpt>
      <trkpt lat="42.73641" lon="1.45191">
        <ele>1162</ele>
        <time>2018-09-23T11:56:23.009Z</time>
      </trkpt>
      <trkpt lat="42.73651" lon="1.45184">
        <ele>1162</ele>
        <time>2018-09-23T11:56:29.009Z</time>
      </trkpt>
      <trkpt lat="42.73662" lon="1.45187">
        <ele>1161</ele>
        <time>2018-09-23T11:56:37.009Z</time>
      </trkpt>
      <trkpt lat="42.73666" lon="1.45203">
        <ele>1162</ele>
        <time>2018-09-23T11:56:42.009Z</time>
      </trkpt>
      <trkpt lat="42.73673" lon="1.45213">
        <ele>1162</ele>
        <time>2018-09-23T11:56:46.009Z</time>
      </trkpt>
      <trkpt lat="42.73683" lon="1.45219">
        <ele>1162</ele>
        <time>2018-09-23T11:56:50.009Z</time>
      </trkpt>
      <trkpt lat="42.73694" lon="1.45217">
        <ele>1162</ele>
        <time>2018-09-23T11:56:53.009Z</time>
      </trkpt>
      <trkpt lat="42.73704" lon="1.45216">
        <ele>1162</ele>
        <time>2018-09-23T11:56:56.009Z</time>
      </trkpt>
      <trkpt lat="42.73715" lon="1.45216">
        <ele>1161</ele>
        <time>2018-09-23T11:57:04.009Z</time>
      </trkpt>
      <trkpt lat="42.73724" lon="1.45212">
        <ele>1161</ele>
        <time>2018-09-23T11:57:10.009Z</time>
      </trkpt>
      <trkpt lat="42.73732" lon="1.45203">
        <ele>1161</ele>
        <time>2018-09-23T11:57:14.009Z</time>
      </trkpt>
      <trkpt lat="42.73739" lon="1.45193">
        <ele>1161</ele>
        <time>2018-09-23T11:57:17.009Z</time>
      </trkpt>
      <trkpt lat="42.73748" lon="1.45185">
        <ele>1161</ele>
        <time>2018-09-23T11:57:20.009Z</time>
      </trkpt>
      <trkpt lat="42.73757" lon="1.4518">
        <ele>1161</ele>
        <time>2018-09-23T11:57:23.009Z</time>
      </trkpt>
      <trkpt lat="42.73767" lon="1.45175">
        <ele>1161</ele>
        <time>2018-09-23T11:57:26.009Z</time>
      </trkpt>
      <trkpt lat="42.73773" lon="1.45171">
        <ele>1161</ele>
        <time>2018-09-23T11:57:29.009Z</time>
      </trkpt>
      <trkpt lat="42.73779" lon="1.45166">
        <ele>1161</ele>
        <time>2018-09-23T11:57:32.009Z</time>
      </trkpt>
      <trkpt lat="42.73788" lon="1.45159">
        <ele>1161</ele>
        <time>2018-09-23T11:57:36.009Z</time>
      </trkpt>
      <trkpt lat="42.738" lon="1.45155">
        <ele>1162.1465287811</ele>
        <time>2018-09-23T11:57:41.009Z</time>
      </trkpt>
      <trkpt lat="42.7381" lon="1.45158">
        <ele>1163</ele>
        <time>2018-09-23T11:57:45.009Z</time>
      </trkpt>
      <trkpt lat="42.73809" lon="1.45172">
        <ele>1163</ele>
        <time>2018-09-23T11:57:49.009Z</time>
      </trkpt>
      <trkpt lat="42.73804" lon="1.45188">
        <ele>1163</ele>
        <time>2018-09-23T11:57:53.009Z</time>
      </trkpt>
      <trkpt lat="42.73802" lon="1.45203">
        <ele>1163</ele>
        <time>2018-09-23T11:57:56.009Z</time>
      </trkpt>
      <trkpt lat="42.73803" lon="1.45215">
        <ele>1163</ele>
        <time>2018-09-23T11:57:59.009Z</time>
      </trkpt>
      <trkpt lat="42.73808" lon="1.45228">
        <ele>1160</ele>
        <time>2018-09-23T11:58:03.009Z</time>
      </trkpt>
      <trkpt lat="42.73815" lon="1.45239">
        <ele>1160</ele>
        <time>2018-09-23T11:58:07.009Z</time>
      </trkpt>
      <trkpt lat="42.73822" lon="1.45251">
        <ele>1160</ele>
        <time>2018-09-23T11:58:11.009Z</time>
      </trkpt>
      <trkpt lat="42.73831" lon="1.45263">
        <ele>1160</ele>
        <time>2018-09-23T11:58:15.009Z</time>
      </trkpt>
      <trkpt lat="42.7384" lon="1.45273">
        <ele>1160</ele>
        <time>2018-09-23T11:58:19.009Z</time>
      </trkpt>
      <trkpt lat="42.73849" lon="1.45284">
        <ele>1161</ele>
        <time>2018-09-23T11:58:24.009Z</time>
      </trkpt>
      <trkpt lat="42.73859" lon="1.45293">
        <ele>1161</ele>
        <time>2018-09-23T11:58:28.009Z</time>
      </trkpt>
      <trkpt lat="42.73869" lon="1.453">
        <ele>1161</ele>
        <time>2018-09-23T11:58:32.009Z</time>
      </trkpt>
      <trkpt lat="42.7388" lon="1.45306">
        <ele>1161</ele>
        <time>2018-09-23T11:58:36.009Z</time>
      </trkpt>
      <trkpt lat="42.73891" lon="1.4531">
        <ele>1161</ele>
        <time>2018-09-23T11:58:40.009Z</time>
      </trkpt>
      <trkpt lat="42.73902" lon="1.45314">
        <ele>1160</ele>
        <time>2018-09-23T11:58:44.009Z</time>
      </trkpt>
      <trkpt lat="42.73914" lon="1.4532">
        <ele>1160</ele>
        <time>2018-09-23T11:58:48.009Z</time>
      </trkpt>
      <trkpt lat="42.73924" lon="1.45324">
        <ele>1160.5789952</ele>
        <time>2018-09-23T11:58:51.009Z</time>
      </trkpt>
      <trkpt lat="42.73937" lon="1.45327">
        <ele>1161</ele>
        <time>2018-09-23T11:58:55.009Z</time>
      </trkpt>
      <trkpt lat="42.73947" lon="1.4533">
        <ele>1161</ele>
        <time>2018-09-23T11:58:58.009Z</time>
      </trkpt>
      <trkpt lat="42.73957" lon="1.45335">
        <ele>1160</ele>
        <time>2018-09-23T11:59:02.009Z</time>
      </trkpt>
      <trkpt lat="42.73969" lon="1.45342">
        <ele>1160</ele>
        <time>2018-09-23T11:59:06.009Z</time>
      </trkpt>
      <trkpt lat="42.73979" lon="1.4535">
        <ele>1160</ele>
        <time>2018-09-23T11:59:10.009Z</time>
      </trkpt>
      <trkpt lat="42.73988" lon="1.45357">
        <ele>1160</ele>
        <time>2018-09-23T11:59:14.009Z</time>
      </trkpt>
      <trkpt lat="42.73997" lon="1.45366">
        <ele>1160</ele>
        <time>2018-09-23T11:59:18.009Z</time>
      </trkpt>
      <trkpt lat="42.74007" lon="1.45373">
        <ele>1160</ele>
        <time>2018-09-23T11:59:22.009Z</time>
      </trkpt>
      <trkpt lat="42.74016" lon="1.45377">
        <ele>1160</ele>
        <time>2018-09-23T11:59:26.009Z</time>
      </trkpt>
      <trkpt lat="42.74027" lon="1.45379">
        <ele>1160</ele>
        <time>2018-09-23T11:59:30.009Z</time>
      </trkpt>
      <trkpt lat="42.74036" lon="1.4537">
        <ele>1161</ele>
        <time>2018-09-23T11:59:34.009Z</time>
      </trkpt>
      <trkpt lat="42.74045" lon="1.45361">
        <ele>1161</ele>
        <time>2018-09-23T11:59:38.009Z</time>
      </trkpt>
      <trkpt lat="42.74056" lon="1.45354">
        <ele>1161</ele>
        <time>2018-09-23T11:59:42.009Z</time>
      </trkpt>
      <trkpt lat="42.74066" lon="1.45348">
        <ele>1161</ele>
        <time>2018-09-23T11:59:46.009Z</time>
      </trkpt>
      <trkpt lat="42.74077" lon="1.45345">
        <ele>1161</ele>
        <time>2018-09-23T11:59:50.009Z</time>
      </trkpt>
      <trkpt lat="42.74088" lon="1.45347">
        <ele>1161</ele>
        <time>2018-09-23T11:59:54.009Z</time>
      </trkpt>
      <trkpt lat="42.741" lon="1.45352">
        <ele>1161</ele>
        <time>2018-09-23T11:59:58.009Z</time>
      </trkpt>
      <trkpt lat="42.74107" lon="1.45362">
        <ele>1159.8420096</ele>
        <time>2018-09-23T12:00:01.009Z</time>
      </trkpt>
      <trkpt lat="42.74111" lon="1.45378">
        <ele>1159</ele>
        <time>2018-09-23T12:00:05.009Z</time>
      </trkpt>
      <trkpt lat="42.74114" lon="1.4539">
        <ele>1159</ele>
        <time>2018-09-23T12:00:08.009Z</time>
      </trkpt>
      <trkpt lat="42.74118" lon="1.45404">
        <ele>1161</ele>
        <time>2018-09-23T12:00:12.009Z</time>
      </trkpt>
      <trkpt lat="42.74128" lon="1.45409">
        <ele>1161</ele>
        <time>2018-09-23T12:00:19.009Z</time>
      </trkpt>
      <trkpt lat="42.74139" lon="1.45407">
        <ele>1161</ele>
        <time>2018-09-23T12:00:23.009Z</time>
      </trkpt>
      <trkpt lat="42.74149" lon="1.45409">
        <ele>1161</ele>
        <time>2018-09-23T12:00:27.009Z</time>
      </trkpt>
      <trkpt lat="42.74155" lon="1.4542">
        <ele>1161</ele>
        <time>2018-09-23T12:00:32.009Z</time>
      </trkpt>
      <trkpt lat="42.74154" lon="1.45434">
        <ele>1161</ele>
        <time>2018-09-23T12:00:35.009Z</time>
      </trkpt>
      <trkpt lat="42.74153" lon="1.45451">
        <ele>1161</ele>
        <time>2018-09-23T12:00:39.009Z</time>
      </trkpt>
      <trkpt lat="42.74152" lon="1.45467">
        <ele>1162</ele>
        <time>2018-09-23T12:00:43.009Z</time>
      </trkpt>
      <trkpt lat="42.74155" lon="1.4548">
        <ele>1162</ele>
        <time>2018-09-23T12:00:47.009Z</time>
      </trkpt>
      <trkpt lat="42.74158" lon="1.45493">
        <ele>1162</ele>
        <time>2018-09-23T12:00:51.009Z</time>
      </trkpt>
      <trkpt lat="42.74163" lon="1.45481">
        <ele>1169</ele>
        <time>2018-09-23T12:01:24.009Z</time>
      </trkpt>
      <trkpt lat="42.74165" lon="1.45467">
        <ele>1176</ele>
        <time>2018-09-23T12:01:49.009Z</time>
      </trkpt>
      <trkpt lat="42.74175" lon="1.45468">
        <ele>1181</ele>
        <time>2018-09-23T12:02:05.009Z</time>
      </trkpt>
      <trkpt lat="42.74185" lon="1.45472">
        <ele>1181</ele>
        <time>2018-09-23T12:02:20.009Z</time>
      </trkpt>
      <trkpt lat="42.74195" lon="1.45476">
        <ele>1188</ele>
        <time>2018-09-23T12:02:33.009Z</time>
      </trkpt>
      <trkpt lat="42.74201" lon="1.45487">
        <ele>1191</ele>
        <time>2018-09-23T12:02:42.009Z</time>
      </trkpt>
      <trkpt lat="42.74206" lon="1.45475">
        <ele>1197</ele>
        <time>2018-09-23T12:03:16.009Z</time>
      </trkpt>
      <trkpt lat="42.74206" lon="1.45462">
        <ele>1202</ele>
        <time>2018-09-23T12:03:27.009Z</time>
      </trkpt>
      <trkpt lat="42.74204" lon="1.45448">
        <ele>1188.4210048</ele>
        <time>2018-09-23T12:03:35.009Z</time>
      </trkpt>
      <trkpt lat="42.74215" lon="1.4545">
        <ele>1191</ele>
        <time>2018-09-23T12:03:55.009Z</time>
      </trkpt>
      <trkpt lat="42.74222" lon="1.45459">
        <ele>1191</ele>
        <time>2018-09-23T12:04:04.009Z</time>
      </trkpt>
      <trkpt lat="42.74228" lon="1.45471">
        <ele>1191</ele>
        <time>2018-09-23T12:04:15.009Z</time>
      </trkpt>
      <trkpt lat="42.74235" lon="1.45461">
        <ele>1196</ele>
        <time>2018-09-23T12:04:50.009Z</time>
      </trkpt>
      <trkpt lat="42.74243" lon="1.45471">
        <ele>1196</ele>
        <time>2018-09-23T12:05:03.009Z</time>
      </trkpt>
      <trkpt lat="42.74248" lon="1.45483">
        <ele>1196</ele>
        <time>2018-09-23T12:05:16.009Z</time>
      </trkpt>
      <trkpt lat="42.74253" lon="1.45472">
        <ele>1196</ele>
        <time>2018-09-23T12:05:39.009Z</time>
      </trkpt>
      <trkpt lat="42.74258" lon="1.4546">
        <ele>1195</ele>
        <time>2018-09-23T12:06:04.009Z</time>
      </trkpt>
      <trkpt lat="42.74258" lon="1.45446">
        <ele>1194</ele>
        <time>2018-09-23T12:06:15.009Z</time>
      </trkpt>
      <trkpt lat="42.74256" lon="1.45432">
        <ele>1193</ele>
        <time>2018-09-23T12:06:29.009Z</time>
      </trkpt>
      <trkpt lat="42.74261" lon="1.4542">
        <ele>1192</ele>
        <time>2018-09-23T12:06:40.009Z</time>
      </trkpt>
      <trkpt lat="42.74271" lon="1.45426">
        <ele>1201</ele>
        <time>2018-09-23T12:06:57.009Z</time>
      </trkpt>
      <trkpt lat="42.7428" lon="1.45431">
        <ele>1201</ele>
        <time>2018-09-23T12:07:14.009Z</time>
      </trkpt>
      <trkpt lat="42.74289" lon="1.45439">
        <ele>1201</ele>
        <time>2018-09-23T12:07:27.009Z</time>
      </trkpt>
      <trkpt lat="42.74298" lon="1.45446">
        <ele>1201</ele>
        <time>2018-09-23T12:07:38.009Z</time>
      </trkpt>
      <trkpt lat="42.74306" lon="1.45439">
        <ele>1201</ele>
        <time>2018-09-23T12:07:56.009Z</time>
      </trkpt>
      <trkpt lat="42.74301" lon="1.45426">
        <ele>1201</ele>
        <time>2018-09-23T12:08:09.009Z</time>
      </trkpt>
      <trkpt lat="42.74299" lon="1.45412">
        <ele>1201</ele>
        <time>2018-09-23T12:08:24.009Z</time>
      </trkpt>
      <trkpt lat="42.74298" lon="1.45398">
        <ele>1201</ele>
        <time>2018-09-23T12:08:38.009Z</time>
      </trkpt>
      <trkpt lat="42.74306" lon="1.4539">
        <ele>1205</ele>
        <time>2018-09-23T12:08:56.009Z</time>
      </trkpt>
      <trkpt lat="42.74316" lon="1.45393">
        <ele>1205</ele>
        <time>2018-09-23T12:09:10.009Z</time>
      </trkpt>
      <trkpt lat="42.74312" lon="1.45382">
        <ele>1205</ele>
        <time>2018-09-23T12:09:27.009Z</time>
      </trkpt>
      <trkpt lat="42.74311" lon="1.45368">
        <ele>1205</ele>
        <time>2018-09-23T12:09:39.009Z</time>
      </trkpt>
      <trkpt lat="42.74321" lon="1.45373">
        <ele>1204</ele>
        <time>2018-09-23T12:10:23.009Z</time>
      </trkpt>
      <trkpt lat="42.74331" lon="1.45373">
        <ele>1202</ele>
        <time>2018-09-23T12:10:37.009Z</time>
      </trkpt>
      <trkpt lat="42.74332" lon="1.45359">
        <ele>1200</ele>
        <time>2018-09-23T12:11:09.009Z</time>
      </trkpt>
      <trkpt lat="42.7433" lon="1.45346">
        <ele>1202</ele>
        <time>2018-09-23T12:11:20.009Z</time>
      </trkpt>
      <trkpt lat="42.74334" lon="1.45333">
        <ele>1202</ele>
        <time>2018-09-23T12:11:34.009Z</time>
      </trkpt>
      <trkpt lat="42.74345" lon="1.45334">
        <ele>1201</ele>
        <time>2018-09-23T12:11:53.009Z</time>
      </trkpt>
      <trkpt lat="42.74349" lon="1.45321">
        <ele>1197.5789952</ele>
        <time>2018-09-23T12:12:06.009Z</time>
      </trkpt>
      <trkpt lat="42.74351" lon="1.45309">
        <ele>1197</ele>
        <time>2018-09-23T12:12:15.009Z</time>
      </trkpt>
      <trkpt lat="42.74359" lon="1.45301">
        <ele>1232</ele>
        <time>2018-09-23T12:12:34.009Z</time>
      </trkpt>
      <trkpt lat="42.74363" lon="1.45291">
        <ele>1232</ele>
        <time>2018-09-23T12:12:54.009Z</time>
      </trkpt>
      <trkpt lat="42.74362" lon="1.45281">
        <ele>1232</ele>
        <time>2018-09-23T12:13:07.009Z</time>
      </trkpt>
      <trkpt lat="42.74371" lon="1.45282">
        <ele>1229</ele>
        <time>2018-09-23T12:13:23.009Z</time>
      </trkpt>
      <trkpt lat="42.74376" lon="1.45274">
        <ele>1229.3159808</ele>
        <time>2018-09-23T12:13:51.009Z</time>
      </trkpt>
      <trkpt lat="42.74385" lon="1.45277">
        <ele>1232</ele>
        <time>2018-09-23T12:14:10.009Z</time>
      </trkpt>
      <trkpt lat="42.74388" lon="1.45267">
        <ele>1247.5789952</ele>
        <time>2018-09-23T12:14:26.009Z</time>
      </trkpt>
      <trkpt lat="42.74388" lon="1.45258">
        <ele>1249</ele>
        <time>2018-09-23T12:14:35.009Z</time>
      </trkpt>
      <trkpt lat="42.74396" lon="1.45264">
        <ele>1249</ele>
        <time>2018-09-23T12:14:47.009Z</time>
      </trkpt>
      <trkpt lat="42.74401" lon="1.45257">
        <ele>1250</ele>
        <time>2018-09-23T12:15:05.009Z</time>
      </trkpt>
      <trkpt lat="42.74399" lon="1.45248">
        <ele>1250</ele>
        <time>2018-09-23T12:15:13.009Z</time>
      </trkpt>
      <trkpt lat="42.74398" lon="1.45238">
        <ele>1263.4210048</ele>
        <time>2018-09-23T12:15:23.009Z</time>
      </trkpt>
      <trkpt lat="42.74405" lon="1.45228">
        <ele>1259</ele>
        <time>2018-09-23T12:15:46.009Z</time>
      </trkpt>
      <trkpt lat="42.74409" lon="1.45219">
        <ele>1267.5789952</ele>
        <time>2018-09-23T12:16:05.009Z</time>
      </trkpt>
      <trkpt lat="42.74412" lon="1.45211">
        <ele>1280</ele>
        <time>2018-09-23T12:16:29.009Z</time>
      </trkpt>
      <trkpt lat="42.74411" lon="1.452">
        <ele>1293.7369856</ele>
        <time>2018-09-23T12:16:42.009Z</time>
      </trkpt>
      <trkpt lat="42.74409" lon="1.4519">
        <ele>1294</ele>
        <time>2018-09-23T12:16:53.009Z</time>
      </trkpt>
      <trkpt lat="42.7442" lon="1.45192">
        <ele>1293.4739712</ele>
        <time>2018-09-23T12:17:06.009Z</time>
      </trkpt>
      <trkpt lat="42.74429" lon="1.45199">
        <ele>1300</ele>
        <time>2018-09-23T12:17:19.009Z</time>
      </trkpt>
      <trkpt lat="42.74437" lon="1.45203">
        <ele>1301.5789952</ele>
        <time>2018-09-23T12:17:30.009Z</time>
      </trkpt>
      <trkpt lat="42.74435" lon="1.45195">
        <ele>1303.5789952</ele>
        <time>2018-09-23T12:17:40.009Z</time>
      </trkpt>
      <trkpt lat="42.74434" lon="1.45188">
        <ele>1310.1579904</ele>
        <time>2018-09-23T12:17:46.009Z</time>
      </trkpt>
      <trkpt lat="42.74431" lon="1.45181">
        <ele>1314.5789952</ele>
        <time>2018-09-23T12:17:52.009Z</time>
      </trkpt>
      <trkpt lat="42.74428" lon="1.45175">
        <ele>1316</ele>
        <time>2018-09-23T12:18:00.009Z</time>
      </trkpt>
      <trkpt lat="42.74425" lon="1.45168">
        <ele>1316</ele>
        <time>2018-09-23T12:18:07.009Z</time>
      </trkpt>
      <trkpt lat="42.74423" lon="1.45159">
        <ele>1318.5789952</ele>
        <time>2018-09-23T12:18:16.009Z</time>
      </trkpt>
      <trkpt lat="42.74419" lon="1.45149">
        <ele>1322</ele>
        <time>2018-09-23T12:18:26.009Z</time>
      </trkpt>
      <trkpt lat="42.74418" lon="1.45136">
        <ele>1325</ele>
        <time>2018-09-23T12:18:40.009Z</time>
      </trkpt>
      <trkpt lat="42.74429" lon="1.45138">
        <ele>1334.5789952</ele>
        <time>2018-09-23T12:18:52.009Z</time>
      </trkpt>
      <trkpt lat="42.74438" lon="1.45137">
        <ele>1336</ele>
        <time>2018-09-23T12:19:03.009Z</time>
      </trkpt>
      <trkpt lat="42.74448" lon="1.45134">
        <ele>1337</ele>
        <time>2018-09-23T12:19:15.009Z</time>
      </trkpt>
      <trkpt lat="42.74457" lon="1.45129">
        <ele>1342</ele>
        <time>2018-09-23T12:19:24.009Z</time>
      </trkpt>
      <trkpt lat="42.74464" lon="1.45124">
        <ele>1347.3159808</ele>
        <time>2018-09-23T12:19:31.009Z</time>
      </trkpt>
      <trkpt lat="42.74473" lon="1.45115">
        <ele>1361.5789952</ele>
        <time>2018-09-23T12:19:39.009Z</time>
      </trkpt>
      <trkpt lat="42.74478" lon="1.45102">
        <ele>1375.5789952</ele>
        <time>2018-09-23T12:19:50.009Z</time>
      </trkpt>
      <trkpt lat="42.74484" lon="1.45089">
        <ele>1378.4210048</ele>
        <time>2018-09-23T12:19:56.009Z</time>
      </trkpt>
      <trkpt lat="42.74492" lon="1.4508">
        <ele>1375.4210048</ele>
        <time>2018-09-23T12:20:01.009Z</time>
      </trkpt>
      <trkpt lat="42.74501" lon="1.45072">
        <ele>1375</ele>
        <time>2018-09-23T12:20:05.009Z</time>
      </trkpt>
      <trkpt lat="42.74508" lon="1.45063">
        <ele>1375</ele>
        <time>2018-09-23T12:20:09.009Z</time>
      </trkpt>
      <trkpt lat="42.74513" lon="1.4505">
        <ele>1376</ele>
        <time>2018-09-23T12:20:15.009Z</time>
      </trkpt>
      <trkpt lat="42.74514" lon="1.45036">
        <ele>1378.894976</ele>
        <time>2018-09-23T12:20:21.009Z</time>
      </trkpt>
      <trkpt lat="42.74522" lon="1.45024">
        <ele>1387.4210048</ele>
        <time>2018-09-23T12:20:27.009Z</time>
      </trkpt>
      <trkpt lat="42.7453" lon="1.45015">
        <ele>1389</ele>
        <time>2018-09-23T12:20:33.009Z</time>
      </trkpt>
      <trkpt lat="42.74538" lon="1.45007">
        <ele>1395.5789952</ele>
        <time>2018-09-23T12:20:39.009Z</time>
      </trkpt>
      <trkpt lat="42.74548" lon="1.44999">
        <ele>1401.5789952</ele>
        <time>2018-09-23T12:20:45.009Z</time>
      </trkpt>
      <trkpt lat="42.74555" lon="1.44988">
        <ele>1407.5789952</ele>
        <time>2018-09-23T12:20:52.009Z</time>
      </trkpt>
      <trkpt lat="42.74557" lon="1.44974">
        <ele>1411</ele>
        <time>2018-09-23T12:21:03.009Z</time>
      </trkpt>
      <trkpt lat="42.74562" lon="1.4496">
        <ele>1416</ele>
        <time>2018-09-23T12:21:19.009Z</time>
      </trkpt>
      <trkpt lat="42.74569" lon="1.44949">
        <ele>1416</ele>
        <time>2018-09-23T12:21:26.009Z</time>
      </trkpt>
      <trkpt lat="42.74577" lon="1.4494">
        <ele>1418</ele>
        <time>2018-09-23T12:21:36.009Z</time>
      </trkpt>
      <trkpt lat="42.74585" lon="1.44931">
        <ele>1420</ele>
        <time>2018-09-23T12:21:48.009Z</time>
      </trkpt>
      <trkpt lat="42.74594" lon="1.44922">
        <ele>1425.1579904</ele>
        <time>2018-09-23T12:21:56.009Z</time>
      </trkpt>
      <trkpt lat="42.74599" lon="1.4491">
        <ele>1432</ele>
        <time>2018-09-23T12:22:05.009Z</time>
      </trkpt>
      <trkpt lat="42.74605" lon="1.44898">
        <ele>1436</ele>
        <time>2018-09-23T12:22:17.009Z</time>
      </trkpt>
      <trkpt lat="42.74613" lon="1.44888">
        <ele>1437</ele>
        <time>2018-09-23T12:22:25.009Z</time>
      </trkpt>
      <trkpt lat="42.7462" lon="1.44879">
        <ele>1439</ele>
        <time>2018-09-23T12:22:32.009Z</time>
      </trkpt>
      <trkpt lat="42.74627" lon="1.44869">
        <ele>1441</ele>
        <time>2018-09-23T12:22:44.009Z</time>
      </trkpt>
      <trkpt lat="42.74634" lon="1.44859">
        <ele>1442</ele>
        <time>2018-09-23T12:22:53.009Z</time>
      </trkpt>
      <trkpt lat="42.74643" lon="1.44851">
        <ele>1445</ele>
        <time>2018-09-23T12:23:04.009Z</time>
      </trkpt>
      <trkpt lat="42.74652" lon="1.44845">
        <ele>1441</ele>
        <time>2018-09-23T12:23:13.009Z</time>
      </trkpt>
      <trkpt lat="42.74661" lon="1.4484">
        <ele>1440.5789952</ele>
        <time>2018-09-23T12:23:21.009Z</time>
      </trkpt>
      <trkpt lat="42.74669" lon="1.44835">
        <ele>1441</ele>
        <time>2018-09-23T12:23:27.009Z</time>
      </trkpt>
      <trkpt lat="42.74676" lon="1.44827">
        <ele>1445</ele>
        <time>2018-09-23T12:23:39.009Z</time>
      </trkpt>
      <trkpt lat="42.74686" lon="1.44822">
        <ele>1447</ele>
        <time>2018-09-23T12:23:50.009Z</time>
      </trkpt>
      <trkpt lat="42.74694" lon="1.4482">
        <ele>1448</ele>
        <time>2018-09-23T12:23:58.009Z</time>
      </trkpt>
      <trkpt lat="42.74703" lon="1.44812">
        <ele>1451</ele>
        <time>2018-09-23T12:24:08.009Z</time>
      </trkpt>
      <trkpt lat="42.74708" lon="1.448">
        <ele>1454.7369856</ele>
        <time>2018-09-23T12:24:21.009Z</time>
      </trkpt>
      <trkpt lat="42.74711" lon="1.44786">
        <ele>1457</ele>
        <time>2018-09-23T12:24:29.009Z</time>
      </trkpt>
      <trkpt lat="42.7472" lon="1.44778">
        <ele>1457</ele>
        <time>2018-09-23T12:24:41.009Z</time>
      </trkpt>
      <trkpt lat="42.74727" lon="1.44768">
        <ele>1457.5789952</ele>
        <time>2018-09-23T12:24:51.009Z</time>
      </trkpt>
      <trkpt lat="42.74732" lon="1.44756">
        <ele>1458</ele>
        <time>2018-09-23T12:24:58.009Z</time>
      </trkpt>
      <trkpt lat="42.74742" lon="1.44751">
        <ele>1465</ele>
        <time>2018-09-23T12:25:05.009Z</time>
      </trkpt>
      <trkpt lat="42.74752" lon="1.44746">
        <ele>1467</ele>
        <time>2018-09-23T12:25:13.009Z</time>
      </trkpt>
      <trkpt lat="42.7476" lon="1.44738">
        <ele>1471</ele>
        <time>2018-09-23T12:25:23.009Z</time>
      </trkpt>
      <trkpt lat="42.74765" lon="1.4473">
        <ele>1472.5789952</ele>
        <time>2018-09-23T12:25:31.009Z</time>
      </trkpt>
      <trkpt lat="42.7477" lon="1.44726">
        <ele>1473.5789952</ele>
        <time>2018-09-23T12:25:36.009Z</time>
      </trkpt>
      <trkpt lat="42.74777" lon="1.4472">
        <ele>1476</ele>
        <time>2018-09-23T12:25:42.009Z</time>
      </trkpt>
      <trkpt lat="42.74783" lon="1.44716">
        <ele>1479</ele>
        <time>2018-09-23T12:25:49.009Z</time>
      </trkpt>
      <trkpt lat="42.74786" lon="1.44709">
        <ele>1481</ele>
        <time>2018-09-23T12:25:58.009Z</time>
      </trkpt>
      <trkpt lat="42.74789" lon="1.44701">
        <ele>1480</ele>
        <time>2018-09-23T12:26:14.009Z</time>
      </trkpt>
      <trkpt lat="42.74797" lon="1.447">
        <ele>1480</ele>
        <time>2018-09-23T12:26:23.009Z</time>
      </trkpt>
      <trkpt lat="42.74803" lon="1.44693">
        <ele>1480</ele>
        <time>2018-09-23T12:26:36.009Z</time>
      </trkpt>
      <trkpt lat="42.74808" lon="1.44687">
        <ele>1482</ele>
        <time>2018-09-23T12:26:46.009Z</time>
      </trkpt>
      <trkpt lat="42.74812" lon="1.44679">
        <ele>1483</ele>
        <time>2018-09-23T12:26:58.009Z</time>
      </trkpt>
      <trkpt lat="42.74818" lon="1.44674">
        <ele>1476.4210048</ele>
        <time>2018-09-23T12:27:05.009Z</time>
      </trkpt>
      <trkpt lat="42.74822" lon="1.44667">
        <ele>1476</ele>
        <time>2018-09-23T12:27:18.009Z</time>
      </trkpt>
      <trkpt lat="42.74827" lon="1.44663">
        <ele>1475</ele>
        <time>2018-09-23T12:27:25.009Z</time>
      </trkpt>
      <trkpt lat="42.74831" lon="1.44658">
        <ele>1474.4210048</ele>
        <time>2018-09-23T12:27:31.009Z</time>
      </trkpt>
      <trkpt lat="42.74837" lon="1.44651">
        <ele>1475</ele>
        <time>2018-09-23T12:27:42.009Z</time>
      </trkpt>
      <trkpt lat="42.74843" lon="1.44644">
        <ele>1475.5789952</ele>
        <time>2018-09-23T12:27:52.009Z</time>
      </trkpt>
      <trkpt lat="42.74848" lon="1.44639">
        <ele>1477</ele>
        <time>2018-09-23T12:28:13.009Z</time>
      </trkpt>
      <trkpt lat="42.74856" lon="1.44635">
        <ele>1480</ele>
        <time>2018-09-23T12:28:23.009Z</time>
      </trkpt>
      <trkpt lat="42.74861" lon="1.44628">
        <ele>1487.5789952</ele>
        <time>2018-09-23T12:28:32.009Z</time>
      </trkpt>
      <trkpt lat="42.74867" lon="1.4462">
        <ele>1491</ele>
        <time>2018-09-23T12:28:48.009Z</time>
      </trkpt>
      <trkpt lat="42.7487" lon="1.44612">
        <ele>1493</ele>
        <time>2018-09-23T12:29:03.009Z</time>
      </trkpt>
      <trkpt lat="42.74877" lon="1.44605">
        <ele>1498</ele>
        <time>2018-09-23T12:29:12.009Z</time>
      </trkpt>
      <trkpt lat="42.74883" lon="1.44597">
        <ele>1506.1579904</ele>
        <time>2018-09-23T12:29:22.009Z</time>
      </trkpt>
      <trkpt lat="42.7489" lon="1.44593">
        <ele>1514.1579904</ele>
        <time>2018-09-23T12:29:29.009Z</time>
      </trkpt>
      <trkpt lat="42.74896" lon="1.44587">
        <ele>1528.1579904</ele>
        <time>2018-09-23T12:29:35.009Z</time>
      </trkpt>
      <trkpt lat="42.74901" lon="1.44581">
        <ele>1532</ele>
        <time>2018-09-23T12:29:41.009Z</time>
      </trkpt>
      <trkpt lat="42.74908" lon="1.44576">
        <ele>1532</ele>
        <time>2018-09-23T12:29:47.009Z</time>
      </trkpt>
      <trkpt lat="42.74916" lon="1.44571">
        <ele>1532</ele>
        <time>2018-09-23T12:29:53.009Z</time>
      </trkpt>
      <trkpt lat="42.74924" lon="1.44566">
        <ele>1532</ele>
        <time>2018-09-23T12:29:59.009Z</time>
      </trkpt>
      <trkpt lat="42.74931" lon="1.44559">
        <ele>1532</ele>
        <time>2018-09-23T12:30:08.009Z</time>
      </trkpt>
      <trkpt lat="42.74938" lon="1.44553">
        <ele>1532</ele>
        <time>2018-09-23T12:30:15.009Z</time>
      </trkpt>
      <trkpt lat="42.74944" lon="1.44548">
        <ele>1532</ele>
        <time>2018-09-23T12:30:20.009Z</time>
      </trkpt>
      <trkpt lat="42.74948" lon="1.44542">
        <ele>1533</ele>
        <time>2018-09-23T12:30:25.009Z</time>
      </trkpt>
      <trkpt lat="42.74955" lon="1.44534">
        <ele>1534</ele>
        <time>2018-09-23T12:30:32.009Z</time>
      </trkpt>
      <trkpt lat="42.74962" lon="1.44527">
        <ele>1534</ele>
        <time>2018-09-23T12:30:38.009Z</time>
      </trkpt>
      <trkpt lat="42.74968" lon="1.4452">
        <ele>1538</ele>
        <time>2018-09-23T12:30:45.009Z</time>
      </trkpt>
      <trkpt lat="42.74975" lon="1.44514">
        <ele>1537</ele>
        <time>2018-09-23T12:30:54.009Z</time>
      </trkpt>
      <trkpt lat="42.74982" lon="1.44507">
        <ele>1537</ele>
        <time>2018-09-23T12:31:00.009Z</time>
      </trkpt>
      <trkpt lat="42.7499" lon="1.44502">
        <ele>1542.5789952</ele>
        <time>2018-09-23T12:31:06.009Z</time>
      </trkpt>
      <trkpt lat="42.74996" lon="1.44491">
        <ele>1544</ele>
        <time>2018-09-23T12:31:15.009Z</time>
      </trkpt>
      <trkpt lat="42.75005" lon="1.44498">
        <ele>1542</ele>
        <time>2018-09-23T12:31:26.009Z</time>
      </trkpt>
      <trkpt lat="42.75013" lon="1.44493">
        <ele>1541</ele>
        <time>2018-09-23T12:31:34.009Z</time>
      </trkpt>
      <trkpt lat="42.75019" lon="1.44486">
        <ele>1541</ele>
        <time>2018-09-23T12:31:40.009Z</time>
      </trkpt>
      <trkpt lat="42.75028" lon="1.44486">
        <ele>1540</ele>
        <time>2018-09-23T12:31:47.009Z</time>
      </trkpt>
      <trkpt lat="42.75036" lon="1.44487">
        <ele>1538</ele>
        <time>2018-09-23T12:31:53.009Z</time>
      </trkpt>
      <trkpt lat="42.75046" lon="1.44488">
        <ele>1538</ele>
        <time>2018-09-23T12:32:00.009Z</time>
      </trkpt>
      <trkpt lat="42.75051" lon="1.44481">
        <ele>1537</ele>
        <time>2018-09-23T12:32:05.009Z</time>
      </trkpt>
      <trkpt lat="42.75056" lon="1.44475">
        <ele>1537</ele>
        <time>2018-09-23T12:32:10.009Z</time>
      </trkpt>
      <trkpt lat="42.7506" lon="1.4447">
        <ele>1535</ele>
        <time>2018-09-23T12:32:14.009Z</time>
      </trkpt>
      <trkpt lat="42.75067" lon="1.44468">
        <ele>1535</ele>
        <time>2018-09-23T12:32:19.009Z</time>
      </trkpt>
      <trkpt lat="42.75073" lon="1.4447">
        <ele>1531</ele>
        <time>2018-09-23T12:32:24.009Z</time>
      </trkpt>
      <trkpt lat="42.75082" lon="1.44474">
        <ele>1528.4210048</ele>
        <time>2018-09-23T12:32:31.009Z</time>
      </trkpt>
      <trkpt lat="42.75089" lon="1.44481">
        <ele>1524</ele>
        <time>2018-09-23T12:32:38.009Z</time>
      </trkpt>
      <trkpt lat="42.75099" lon="1.44486">
        <ele>1525</ele>
        <time>2018-09-23T12:32:48.009Z</time>
      </trkpt>
      <trkpt lat="42.75109" lon="1.44485">
        <ele>1527</ele>
        <time>2018-09-23T12:32:58.009Z</time>
      </trkpt>
      <trkpt lat="42.75119" lon="1.44483">
        <ele>1523</ele>
        <time>2018-09-23T12:33:04.009Z</time>
      </trkpt>
      <trkpt lat="42.75129" lon="1.44479">
        <ele>1517</ele>
        <time>2018-09-23T12:33:14.009Z</time>
      </trkpt>
      <trkpt lat="42.75139" lon="1.44474">
        <ele>1516</ele>
        <time>2018-09-23T12:33:24.009Z</time>
      </trkpt>
      <trkpt lat="42.75145" lon="1.44463">
        <ele>1514</ele>
        <time>2018-09-23T12:33:42.009Z</time>
      </trkpt>
      <trkpt lat="42.75155" lon="1.44456">
        <ele>1514</ele>
        <time>2018-09-23T12:33:52.009Z</time>
      </trkpt>
      <trkpt lat="42.75162" lon="1.44453">
        <ele>1514</ele>
        <time>2018-09-23T12:33:58.009Z</time>
      </trkpt>
      <trkpt lat="42.75168" lon="1.44443">
        <ele>1513</ele>
        <time>2018-09-23T12:34:10.009Z</time>
      </trkpt>
      <trkpt lat="42.75178" lon="1.44438">
        <ele>1513</ele>
        <time>2018-09-23T12:34:16.009Z</time>
      </trkpt>
      <trkpt lat="42.75183" lon="1.44427">
        <ele>1512</ele>
        <time>2018-09-23T12:34:24.009Z</time>
      </trkpt>
      <trkpt lat="42.7519" lon="1.44419">
        <ele>1512.5789952</ele>
        <time>2018-09-23T12:34:31.009Z</time>
      </trkpt>
      <trkpt lat="42.75194" lon="1.44417">
        <ele>1513</ele>
        <time>2018-09-23T12:34:34.009Z</time>
      </trkpt>
      <trkpt lat="42.75201" lon="1.44416">
        <ele>1513.5789952</ele>
        <time>2018-09-23T12:34:41.009Z</time>
      </trkpt>
      <trkpt lat="42.75206" lon="1.44415">
        <ele>1514</ele>
        <time>2018-09-23T12:34:49.009Z</time>
      </trkpt>
      <trkpt lat="42.75217" lon="1.44415">
        <ele>1512</ele>
        <time>2018-09-23T12:34:56.009Z</time>
      </trkpt>
      <trkpt lat="42.75225" lon="1.4441">
        <ele>1509</ele>
        <time>2018-09-23T12:35:04.009Z</time>
      </trkpt>
      <trkpt lat="42.75235" lon="1.44411">
        <ele>1509</ele>
        <time>2018-09-23T12:35:13.009Z</time>
      </trkpt>
      <trkpt lat="42.75244" lon="1.44403">
        <ele>1513.7369856</ele>
        <time>2018-09-23T12:35:26.009Z</time>
      </trkpt>
      <trkpt lat="42.75254" lon="1.44403">
        <ele>1515</ele>
        <time>2018-09-23T12:35:36.009Z</time>
      </trkpt>
      <trkpt lat="42.75263" lon="1.44396">
        <ele>1516</ele>
        <time>2018-09-23T12:35:50.009Z</time>
      </trkpt>
      <trkpt lat="42.75273" lon="1.44392">
        <ele>1519</ele>
        <time>2018-09-23T12:36:07.009Z</time>
      </trkpt>
      <trkpt lat="42.75279" lon="1.4439">
        <ele>1521</ele>
        <time>2018-09-23T12:36:19.009Z</time>
      </trkpt>
      <trkpt lat="42.7529" lon="1.44392">
        <ele>1525</ele>
        <time>2018-09-23T12:36:42.009Z</time>
      </trkpt>
      <trkpt lat="42.7529" lon="1.44378">
        <ele>1527</ele>
        <time>2018-09-23T12:37:00.009Z</time>
      </trkpt>
      <trkpt lat="42.753" lon="1.44381">
        <ele>1523</ele>
        <time>2018-09-23T12:37:17.009Z</time>
      </trkpt>
      <trkpt lat="42.75309" lon="1.44389">
        <ele>1522</ele>
        <time>2018-09-23T12:37:28.009Z</time>
      </trkpt>
      <trkpt lat="42.75316" lon="1.44399">
        <ele>1522</ele>
        <time>2018-09-23T12:37:38.009Z</time>
      </trkpt>
      <trkpt lat="42.75324" lon="1.44408">
        <ele>1520</ele>
        <time>2018-09-23T12:37:51.009Z</time>
      </trkpt>
      <trkpt lat="42.75333" lon="1.44416">
        <ele>1520.5789952</ele>
        <time>2018-09-23T12:38:02.009Z</time>
      </trkpt>
      <trkpt lat="42.7534" lon="1.44426">
        <ele>1521</ele>
        <time>2018-09-23T12:38:12.009Z</time>
      </trkpt>
      <trkpt lat="42.75346" lon="1.44437">
        <ele>1518.5789952</ele>
        <time>2018-09-23T12:38:23.009Z</time>
      </trkpt>
      <trkpt lat="42.75346" lon="1.44451">
        <ele>1515</ele>
        <time>2018-09-23T12:38:32.009Z</time>
      </trkpt>
      <trkpt lat="42.75345" lon="1.44461">
        <ele>1515</ele>
        <time>2018-09-23T12:38:41.009Z</time>
      </trkpt>
      <trkpt lat="42.75341" lon="1.44471">
        <ele>1515</ele>
        <time>2018-09-23T12:38:48.009Z</time>
      </trkpt>
      <trkpt lat="42.75345" lon="1.44479">
        <ele>1534</ele>
        <time>2018-09-23T12:39:15.009Z</time>
      </trkpt>
      <trkpt lat="42.75349" lon="1.44486">
        <ele>1533.2630144</ele>
        <time>2018-09-23T12:39:21.009Z</time>
      </trkpt>
      <trkpt lat="42.75351" lon="1.44497">
        <ele>1532</ele>
        <time>2018-09-23T12:39:27.009Z</time>
      </trkpt>
      <trkpt lat="42.75352" lon="1.44509">
        <ele>1533</ele>
        <time>2018-09-23T12:39:36.009Z</time>
      </trkpt>
      <trkpt lat="42.75353" lon="1.4452">
        <ele>1533</ele>
        <time>2018-09-23T12:39:44.009Z</time>
      </trkpt>
      <trkpt lat="42.75355" lon="1.44528">
        <ele>1533.4210048</ele>
        <time>2018-09-23T12:39:51.009Z</time>
      </trkpt>
      <trkpt lat="42.75359" lon="1.44534">
        <ele>1534</ele>
        <time>2018-09-23T12:39:59.009Z</time>
      </trkpt>
      <trkpt lat="42.75367" lon="1.44535">
        <ele>1533.5789952</ele>
        <time>2018-09-23T12:40:08.009Z</time>
      </trkpt>
      <trkpt lat="42.75371" lon="1.44523">
        <ele>1533.5789952</ele>
        <time>2018-09-23T12:40:19.009Z</time>
      </trkpt>
      <trkpt lat="42.75371" lon="1.44512">
        <ele>1530.4210048</ele>
        <time>2018-09-23T12:40:26.009Z</time>
      </trkpt>
      <trkpt lat="42.75374" lon="1.44501">
        <ele>1531</ele>
        <time>2018-09-23T12:40:33.009Z</time>
      </trkpt>
      <trkpt lat="42.75379" lon="1.44494">
        <ele>1532</ele>
        <time>2018-09-23T12:40:38.009Z</time>
      </trkpt>
      <trkpt lat="42.75383" lon="1.44487">
        <ele>1536</ele>
        <time>2018-09-23T12:40:42.009Z</time>
      </trkpt>
      <trkpt lat="42.75388" lon="1.44478">
        <ele>1543</ele>
        <time>2018-09-23T12:40:48.009Z</time>
      </trkpt>
      <trkpt lat="42.75389" lon="1.4447">
        <ele>1552</ele>
        <time>2018-09-23T12:40:53.009Z</time>
      </trkpt>
      <trkpt lat="42.75395" lon="1.44464">
        <ele>1555.5789952</ele>
        <time>2018-09-23T12:40:58.009Z</time>
      </trkpt>
      <trkpt lat="42.75402" lon="1.44464">
        <ele>1559.5789952</ele>
        <time>2018-09-23T12:41:03.009Z</time>
      </trkpt>
      <trkpt lat="42.75409" lon="1.44464">
        <ele>1560</ele>
        <time>2018-09-23T12:41:08.009Z</time>
      </trkpt>
      <trkpt lat="42.75415" lon="1.44464">
        <ele>1560</ele>
        <time>2018-09-23T12:41:13.009Z</time>
      </trkpt>
      <trkpt lat="42.75422" lon="1.44461">
        <ele>1560</ele>
        <time>2018-09-23T12:41:18.009Z</time>
      </trkpt>
      <trkpt lat="42.75432" lon="1.44461">
        <ele>1562</ele>
        <time>2018-09-23T12:41:25.009Z</time>
      </trkpt>
      <trkpt lat="42.75441" lon="1.44453">
        <ele>1567</ele>
        <time>2018-09-23T12:41:34.009Z</time>
      </trkpt>
      <trkpt lat="42.75447" lon="1.44443">
        <ele>1572.7369856</ele>
        <time>2018-09-23T12:41:41.009Z</time>
      </trkpt>
      <trkpt lat="42.75452" lon="1.44429">
        <ele>1579</ele>
        <time>2018-09-23T12:41:49.009Z</time>
      </trkpt>
      <trkpt lat="42.75457" lon="1.4442">
        <ele>1581.5789952</ele>
        <time>2018-09-23T12:41:54.009Z</time>
      </trkpt>
      <trkpt lat="42.75463" lon="1.44409">
        <ele>1589</ele>
        <time>2018-09-23T12:42:01.009Z</time>
      </trkpt>
      <trkpt lat="42.75468" lon="1.44396">
        <ele>1593</ele>
        <time>2018-09-23T12:42:08.009Z</time>
      </trkpt>
      <trkpt lat="42.75468" lon="1.44381">
        <ele>1599</ele>
        <time>2018-09-23T12:42:16.009Z</time>
      </trkpt>
      <trkpt lat="42.75471" lon="1.44369">
        <ele>1603</ele>
        <time>2018-09-23T12:42:23.009Z</time>
      </trkpt>
      <trkpt lat="42.75475" lon="1.44356">
        <ele>1609</ele>
        <time>2018-09-23T12:42:31.009Z</time>
      </trkpt>
      <trkpt lat="42.75479" lon="1.44341">
        <ele>1612.5789952</ele>
        <time>2018-09-23T12:42:38.009Z</time>
      </trkpt>
      <trkpt lat="42.75482" lon="1.44327">
        <ele>1613.4210048</ele>
        <time>2018-09-23T12:42:46.009Z</time>
      </trkpt>
      <trkpt lat="42.75488" lon="1.44314">
        <ele>1614</ele>
        <time>2018-09-23T12:42:53.009Z</time>
      </trkpt>
      <trkpt lat="42.75493" lon="1.443">
        <ele>1614</ele>
        <time>2018-09-23T12:43:00.009Z</time>
      </trkpt>
      <trkpt lat="42.75502" lon="1.44292">
        <ele>1615</ele>
        <time>2018-09-23T12:43:08.009Z</time>
      </trkpt>
      <trkpt lat="42.75512" lon="1.44289">
        <ele>1618</ele>
        <time>2018-09-23T12:43:15.009Z</time>
      </trkpt>
      <trkpt lat="42.7552" lon="1.4428">
        <ele>1619</ele>
        <time>2018-09-23T12:43:23.009Z</time>
      </trkpt>
      <trkpt lat="42.75527" lon="1.44271">
        <ele>1619</ele>
        <time>2018-09-23T12:43:30.009Z</time>
      </trkpt>
      <trkpt lat="42.75534" lon="1.44263">
        <ele>1624.7369856</ele>
        <time>2018-09-23T12:43:36.009Z</time>
      </trkpt>
      <trkpt lat="42.75539" lon="1.44259">
        <ele>1625.4210048</ele>
        <time>2018-09-23T12:43:41.009Z</time>
      </trkpt>
      <trkpt lat="42.7554" lon="1.44243">
        <ele>1625</ele>
        <time>2018-09-23T12:43:49.009Z</time>
      </trkpt>
      <trkpt lat="42.75542" lon="1.4423">
        <ele>1624</ele>
        <time>2018-09-23T12:43:57.009Z</time>
      </trkpt>
      <trkpt lat="42.75542" lon="1.44217">
        <ele>1622</ele>
        <time>2018-09-23T12:44:05.009Z</time>
      </trkpt>
      <trkpt lat="42.75546" lon="1.44205">
        <ele>1622</ele>
        <time>2018-09-23T12:44:13.009Z</time>
      </trkpt>
      <trkpt lat="42.75551" lon="1.44193">
        <ele>1622</ele>
        <time>2018-09-23T12:44:20.009Z</time>
      </trkpt>
      <trkpt lat="42.75555" lon="1.4418">
        <ele>1621</ele>
        <time>2018-09-23T12:44:27.009Z</time>
      </trkpt>
      <trkpt lat="42.75559" lon="1.44165">
        <ele>1620</ele>
        <time>2018-09-23T12:44:35.009Z</time>
      </trkpt>
      <trkpt lat="42.75566" lon="1.44154">
        <ele>1618</ele>
        <time>2018-09-23T12:44:43.009Z</time>
      </trkpt>
      <trkpt lat="42.75569" lon="1.44139">
        <ele>1617.4210048</ele>
        <time>2018-09-23T12:44:51.009Z</time>
      </trkpt>
      <trkpt lat="42.75574" lon="1.44129">
        <ele>1617</ele>
        <time>2018-09-23T12:44:57.009Z</time>
      </trkpt>
      <trkpt lat="42.75575" lon="1.44118">
        <ele>1612</ele>
        <time>2018-09-23T12:45:03.009Z</time>
      </trkpt>
      <trkpt lat="42.75579" lon="1.44105">
        <ele>1612</ele>
        <time>2018-09-23T12:45:10.009Z</time>
      </trkpt>
      <trkpt lat="42.75586" lon="1.44098">
        <ele>1612</ele>
        <time>2018-09-23T12:45:16.009Z</time>
      </trkpt>
      <trkpt lat="42.75591" lon="1.44087">
        <ele>1610</ele>
        <time>2018-09-23T12:45:22.009Z</time>
      </trkpt>
      <trkpt lat="42.75598" lon="1.44078">
        <ele>1610</ele>
        <time>2018-09-23T12:45:29.009Z</time>
      </trkpt>
      <trkpt lat="42.75604" lon="1.4407">
        <ele>1608</ele>
        <time>2018-09-23T12:45:35.009Z</time>
      </trkpt>
      <trkpt lat="42.75612" lon="1.4406">
        <ele>1607</ele>
        <time>2018-09-23T12:45:42.009Z</time>
      </trkpt>
      <trkpt lat="42.75618" lon="1.4405">
        <ele>1607</ele>
        <time>2018-09-23T12:45:49.009Z</time>
      </trkpt>
      <trkpt lat="42.75619" lon="1.44036">
        <ele>1605</ele>
        <time>2018-09-23T12:45:57.009Z</time>
      </trkpt>
      <trkpt lat="42.75624" lon="1.44024">
        <ele>1605</ele>
        <time>2018-09-23T12:46:04.009Z</time>
      </trkpt>
      <trkpt lat="42.75628" lon="1.44015">
        <ele>1605</ele>
        <time>2018-09-23T12:46:09.009Z</time>
      </trkpt>
      <trkpt lat="42.75636" lon="1.44008">
        <ele>1605</ele>
        <time>2018-09-23T12:46:15.009Z</time>
      </trkpt>
      <trkpt lat="42.75642" lon="1.44">
        <ele>1603.8420096</ele>
        <time>2018-09-23T12:46:21.009Z</time>
      </trkpt>
      <trkpt lat="42.75646" lon="1.4399">
        <ele>1603</ele>
        <time>2018-09-23T12:46:28.009Z</time>
      </trkpt>
      <trkpt lat="42.75654" lon="1.43981">
        <ele>1603</ele>
        <time>2018-09-23T12:46:36.009Z</time>
      </trkpt>
      <trkpt lat="42.75663" lon="1.43974">
        <ele>1605</ele>
        <time>2018-09-23T12:46:43.009Z</time>
      </trkpt>
      <trkpt lat="42.75669" lon="1.43966">
        <ele>1604</ele>
        <time>2018-09-23T12:46:49.009Z</time>
      </trkpt>
      <trkpt lat="42.75676" lon="1.43959">
        <ele>1614</ele>
        <time>2018-09-23T12:46:55.009Z</time>
      </trkpt>
      <trkpt lat="42.75681" lon="1.43952">
        <ele>1616.5789952</ele>
        <time>2018-09-23T12:47:01.009Z</time>
      </trkpt>
      <trkpt lat="42.75687" lon="1.4394">
        <ele>1613.4210048</ele>
        <time>2018-09-23T12:47:09.009Z</time>
      </trkpt>
      <trkpt lat="42.7569" lon="1.43928">
        <ele>1613</ele>
        <time>2018-09-23T12:47:15.009Z</time>
      </trkpt>
      <trkpt lat="42.75693" lon="1.43919">
        <ele>1608.8420096</ele>
        <time>2018-09-23T12:47:21.009Z</time>
      </trkpt>
      <trkpt lat="42.75697" lon="1.43907">
        <ele>1607</ele>
        <time>2018-09-23T12:47:27.009Z</time>
      </trkpt>
      <trkpt lat="42.75705" lon="1.439">
        <ele>1609</ele>
        <time>2018-09-23T12:47:33.009Z</time>
      </trkpt>
      <trkpt lat="42.75711" lon="1.43888">
        <ele>1607.8420096</ele>
        <time>2018-09-23T12:47:41.009Z</time>
      </trkpt>
      <trkpt lat="42.75712" lon="1.43879">
        <ele>1607</ele>
        <time>2018-09-23T12:47:46.009Z</time>
      </trkpt>
      <trkpt lat="42.75714" lon="1.43872">
        <ele>1602.3680384</ele>
        <time>2018-09-23T12:47:51.009Z</time>
      </trkpt>
      <trkpt lat="42.75717" lon="1.43863">
        <ele>1592</ele>
        <time>2018-09-23T12:47:58.009Z</time>
      </trkpt>
      <trkpt lat="42.75721" lon="1.43855">
        <ele>1588.4210048</ele>
        <time>2018-09-23T12:48:04.009Z</time>
      </trkpt>
      <trkpt lat="42.75725" lon="1.43846">
        <ele>1585</ele>
        <time>2018-09-23T12:48:10.009Z</time>
      </trkpt>
      <trkpt lat="42.75732" lon="1.43841">
        <ele>1584</ele>
        <time>2018-09-23T12:48:16.009Z</time>
      </trkpt>
      <trkpt lat="42.75737" lon="1.43836">
        <ele>1586.5789952</ele>
        <time>2018-09-23T12:48:21.009Z</time>
      </trkpt>
      <trkpt lat="42.75745" lon="1.43835">
        <ele>1589</ele>
        <time>2018-09-23T12:48:27.009Z</time>
      </trkpt>
      <trkpt lat="42.75748" lon="1.43827">
        <ele>1590.5789952</ele>
        <time>2018-09-23T12:48:32.009Z</time>
      </trkpt>
      <trkpt lat="42.75749" lon="1.43821">
        <ele>1591</ele>
        <time>2018-09-23T12:48:35.009Z</time>
      </trkpt>
      <trkpt lat="42.75752" lon="1.43812">
        <ele>1591</ele>
        <time>2018-09-23T12:48:40.009Z</time>
      </trkpt>
      <trkpt lat="42.75759" lon="1.43809">
        <ele>1595.7369856</ele>
        <time>2018-09-23T12:48:46.009Z</time>
      </trkpt>
      <trkpt lat="42.75765" lon="1.43804">
        <ele>1603.7369856</ele>
        <time>2018-09-23T12:48:52.009Z</time>
      </trkpt>
      <trkpt lat="42.75769" lon="1.43796">
        <ele>1609</ele>
        <time>2018-09-23T12:48:57.009Z</time>
      </trkpt>
      <trkpt lat="42.75775" lon="1.43787">
        <ele>1609</ele>
        <time>2018-09-23T12:49:02.009Z</time>
      </trkpt>
      <trkpt lat="42.75781" lon="1.4378">
        <ele>1608.4210048</ele>
        <time>2018-09-23T12:49:07.009Z</time>
      </trkpt>
      <trkpt lat="42.75788" lon="1.43776">
        <ele>1609</ele>
        <time>2018-09-23T12:49:12.009Z</time>
      </trkpt>
      <trkpt lat="42.75796" lon="1.43767">
        <ele>1609</ele>
        <time>2018-09-23T12:49:19.009Z</time>
      </trkpt>
      <trkpt lat="42.75804" lon="1.43762">
        <ele>1613</ele>
        <time>2018-09-23T12:49:26.009Z</time>
      </trkpt>
      <trkpt lat="42.75806" lon="1.4375">
        <ele>1610</ele>
        <time>2018-09-23T12:49:34.009Z</time>
      </trkpt>
      <trkpt lat="42.7581" lon="1.43742">
        <ele>1608</ele>
        <time>2018-09-23T12:49:40.009Z</time>
      </trkpt>
      <trkpt lat="42.75816" lon="1.43732">
        <ele>1609</ele>
        <time>2018-09-23T12:49:48.009Z</time>
      </trkpt>
      <trkpt lat="42.75821" lon="1.4372">
        <ele>1612</ele>
        <time>2018-09-23T12:49:55.009Z</time>
      </trkpt>
      <trkpt lat="42.75827" lon="1.43712">
        <ele>1614.7369856</ele>
        <time>2018-09-23T12:50:01.009Z</time>
      </trkpt>
      <trkpt lat="42.7583" lon="1.43706">
        <ele>1616</ele>
        <time>2018-09-23T12:50:05.009Z</time>
      </trkpt>
      <trkpt lat="42.75838" lon="1.43697">
        <ele>1615</ele>
        <time>2018-09-23T12:50:12.009Z</time>
      </trkpt>
      <trkpt lat="42.75845" lon="1.43689">
        <ele>1615</ele>
        <time>2018-09-23T12:50:20.009Z</time>
      </trkpt>
      <trkpt lat="42.75855" lon="1.43683">
        <ele>1613</ele>
        <time>2018-09-23T12:50:29.009Z</time>
      </trkpt>
      <trkpt lat="42.75863" lon="1.43673">
        <ele>1608.8505119983</ele>
        <time>2018-09-23T12:50:36.009Z</time>
      </trkpt>
      <trkpt lat="42.75869" lon="1.43662">
        <ele>1609</ele>
        <time>2018-09-23T12:50:43.009Z</time>
      </trkpt>
      <trkpt lat="42.75875" lon="1.43651">
        <ele>1609</ele>
        <time>2018-09-23T12:50:50.009Z</time>
      </trkpt>
      <trkpt lat="42.75881" lon="1.4364">
        <ele>1609</ele>
        <time>2018-09-23T12:50:57.009Z</time>
      </trkpt>
      <trkpt lat="42.75884" lon="1.4363">
        <ele>1604</ele>
        <time>2018-09-23T12:51:03.009Z</time>
      </trkpt>
      <trkpt lat="42.75887" lon="1.43618">
        <ele>1603</ele>
        <time>2018-09-23T12:51:10.009Z</time>
      </trkpt>
      <trkpt lat="42.75891" lon="1.43605">
        <ele>1602</ele>
        <time>2018-09-23T12:51:18.009Z</time>
      </trkpt>
      <trkpt lat="42.7589" lon="1.43592">
        <ele>1600</ele>
        <time>2018-09-23T12:51:26.009Z</time>
      </trkpt>
      <trkpt lat="42.75897" lon="1.43583">
        <ele>1599</ele>
        <time>2018-09-23T12:51:34.009Z</time>
      </trkpt>
      <trkpt lat="42.75904" lon="1.43573">
        <ele>1598.4210048</ele>
        <time>2018-09-23T12:51:41.009Z</time>
      </trkpt>
      <trkpt lat="42.7591" lon="1.43564">
        <ele>1598</ele>
        <time>2018-09-23T12:51:47.009Z</time>
      </trkpt>
      <trkpt lat="42.75911" lon="1.43551">
        <ele>1601</ele>
        <time>2018-09-23T12:51:54.009Z</time>
      </trkpt>
      <trkpt lat="42.75916" lon="1.43539">
        <ele>1603</ele>
        <time>2018-09-23T12:52:00.009Z</time>
      </trkpt>
      <trkpt lat="42.7592" lon="1.43527">
        <ele>1602</ele>
        <time>2018-09-23T12:52:07.009Z</time>
      </trkpt>
      <trkpt lat="42.75924" lon="1.43514">
        <ele>1603</ele>
        <time>2018-09-23T12:52:13.009Z</time>
      </trkpt>
      <trkpt lat="42.75928" lon="1.43501">
        <ele>1603</ele>
        <time>2018-09-23T12:52:20.009Z</time>
      </trkpt>
      <trkpt lat="42.75929" lon="1.43486">
        <ele>1603</ele>
        <time>2018-09-23T12:52:29.009Z</time>
      </trkpt>
      <trkpt lat="42.75932" lon="1.43472">
        <ele>1605</ele>
        <time>2018-09-23T12:52:38.009Z</time>
      </trkpt>
      <trkpt lat="42.75934" lon="1.43458">
        <ele>1607</ele>
        <time>2018-09-23T12:52:46.009Z</time>
      </trkpt>
      <trkpt lat="42.7594" lon="1.43447">
        <ele>1607</ele>
        <time>2018-09-23T12:52:54.009Z</time>
      </trkpt>
      <trkpt lat="42.75944" lon="1.43436">
        <ele>1608</ele>
        <time>2018-09-23T12:53:03.009Z</time>
      </trkpt>
      <trkpt lat="42.75946" lon="1.43424">
        <ele>1610</ele>
        <time>2018-09-23T12:53:12.009Z</time>
      </trkpt>
      <trkpt lat="42.75948" lon="1.43411">
        <ele>1608.8420096</ele>
        <time>2018-09-23T12:53:21.009Z</time>
      </trkpt>
      <trkpt lat="42.75951" lon="1.43398">
        <ele>1609</ele>
        <time>2018-09-23T12:53:33.009Z</time>
      </trkpt>
      <trkpt lat="42.75951" lon="1.43386">
        <ele>1609</ele>
        <time>2018-09-23T12:53:39.009Z</time>
      </trkpt>
      <trkpt lat="42.75953" lon="1.43373">
        <ele>1609</ele>
        <time>2018-09-23T12:53:47.009Z</time>
      </trkpt>
      <trkpt lat="42.75956" lon="1.4336">
        <ele>1607</ele>
        <time>2018-09-23T12:53:54.009Z</time>
      </trkpt>
      <trkpt lat="42.75961" lon="1.43345">
        <ele>1607</ele>
        <time>2018-09-23T12:54:02.009Z</time>
      </trkpt>
      <trkpt lat="42.75968" lon="1.43335">
        <ele>1607</ele>
        <time>2018-09-23T12:54:09.009Z</time>
      </trkpt>
      <trkpt lat="42.7597" lon="1.43322">
        <ele>1612</ele>
        <time>2018-09-23T12:54:17.009Z</time>
      </trkpt>
      <trkpt lat="42.75972" lon="1.43306">
        <ele>1610</ele>
        <time>2018-09-23T12:54:26.009Z</time>
      </trkpt>
      <trkpt lat="42.75973" lon="1.43292">
        <ele>1608</ele>
        <time>2018-09-23T12:54:34.009Z</time>
      </trkpt>
      <trkpt lat="42.75975" lon="1.43279">
        <ele>1603</ele>
        <time>2018-09-23T12:54:42.009Z</time>
      </trkpt>
      <trkpt lat="42.75983" lon="1.43271">
        <ele>1601</ele>
        <time>2018-09-23T12:54:50.009Z</time>
      </trkpt>
      <trkpt lat="42.75991" lon="1.43262">
        <ele>1600</ele>
        <time>2018-09-23T12:54:57.009Z</time>
      </trkpt>
      <trkpt lat="42.75998" lon="1.43254">
        <ele>1600</ele>
        <time>2018-09-23T12:55:03.009Z</time>
      </trkpt>
      <trkpt lat="42.76004" lon="1.43247">
        <ele>1600</ele>
        <time>2018-09-23T12:55:09.009Z</time>
      </trkpt>
      <trkpt lat="42.76011" lon="1.43246">
        <ele>1598</ele>
        <time>2018-09-23T12:55:14.009Z</time>
      </trkpt>
      <trkpt lat="42.76017" lon="1.43241">
        <ele>1599</ele>
        <time>2018-09-23T12:55:19.009Z</time>
      </trkpt>
      <trkpt lat="42.76023" lon="1.43234">
        <ele>1600</ele>
        <time>2018-09-23T12:55:25.009Z</time>
      </trkpt>
      <trkpt lat="42.76029" lon="1.43227">
        <ele>1600.5789952</ele>
        <time>2018-09-23T12:55:31.009Z</time>
      </trkpt>
      <trkpt lat="42.76034" lon="1.43222">
        <ele>1601</ele>
        <time>2018-09-23T12:55:37.009Z</time>
      </trkpt>
      <trkpt lat="42.76036" lon="1.43217">
        <ele>1605</ele>
        <time>2018-09-23T12:55:57.009Z</time>
      </trkpt>
      <trkpt lat="42.76043" lon="1.43213">
        <ele>1639.5789952</ele>
        <time>2018-09-23T13:00:35.009Z</time>
      </trkpt>
      <trkpt lat="42.7605" lon="1.4321">
        <ele>1641</ele>
        <time>2018-09-23T13:00:40.009Z</time>
      </trkpt>
      <trkpt lat="42.76057" lon="1.43207">
        <ele>1642</ele>
        <time>2018-09-23T13:00:46.009Z</time>
      </trkpt>
      <trkpt lat="42.76063" lon="1.43202">
        <ele>1641</ele>
        <time>2018-09-23T13:00:51.009Z</time>
      </trkpt>
      <trkpt lat="42.76068" lon="1.43199">
        <ele>1641</ele>
        <time>2018-09-23T13:00:55.009Z</time>
      </trkpt>
      <trkpt lat="42.76073" lon="1.43194">
        <ele>1641</ele>
        <time>2018-09-23T13:00:59.009Z</time>
      </trkpt>
      <trkpt lat="42.76077" lon="1.43191">
        <ele>1633</ele>
        <time>2018-09-23T13:01:25.009Z</time>
      </trkpt>
      <trkpt lat="42.76083" lon="1.43187">
        <ele>1633</ele>
        <time>2018-09-23T13:01:29.009Z</time>
      </trkpt>
      <trkpt lat="42.76089" lon="1.43182">
        <ele>1630</ele>
        <time>2018-09-23T13:01:33.009Z</time>
      </trkpt>
      <trkpt lat="42.76092" lon="1.43174">
        <ele>1630</ele>
        <time>2018-09-23T13:01:38.009Z</time>
      </trkpt>
      <trkpt lat="42.76091" lon="1.4316">
        <ele>1638</ele>
        <time>2018-09-23T13:01:45.009Z</time>
      </trkpt>
      <trkpt lat="42.76091" lon="1.4315">
        <ele>1639</ele>
        <time>2018-09-23T13:01:50.009Z</time>
      </trkpt>
      <trkpt lat="42.76092" lon="1.43139">
        <ele>1640</ele>
        <time>2018-09-23T13:01:55.009Z</time>
      </trkpt>
      <trkpt lat="42.76092" lon="1.43128">
        <ele>1642</ele>
        <time>2018-09-23T13:02:00.009Z</time>
      </trkpt>
      <trkpt lat="42.76097" lon="1.4312">
        <ele>1644</ele>
        <time>2018-09-23T13:02:04.009Z</time>
      </trkpt>
      <trkpt lat="42.76103" lon="1.43115">
        <ele>1645</ele>
        <time>2018-09-23T13:02:08.009Z</time>
      </trkpt>
      <trkpt lat="42.7611" lon="1.43111">
        <ele>1646</ele>
        <time>2018-09-23T13:02:12.009Z</time>
      </trkpt>
      <trkpt lat="42.76117" lon="1.43109">
        <ele>1647</ele>
        <time>2018-09-23T13:02:17.009Z</time>
      </trkpt>
      <trkpt lat="42.76123" lon="1.43108">
        <ele>1647.5789952</ele>
        <time>2018-09-23T13:02:21.009Z</time>
      </trkpt>
      <trkpt lat="42.76127" lon="1.43101">
        <ele>1648</ele>
        <time>2018-09-23T13:02:25.009Z</time>
      </trkpt>
      <trkpt lat="42.76132" lon="1.43094">
        <ele>1648</ele>
        <time>2018-09-23T13:02:28.009Z</time>
      </trkpt>
      <trkpt lat="42.76136" lon="1.43088">
        <ele>1661.0529664</ele>
        <time>2018-09-23T13:02:32.009Z</time>
      </trkpt>
      <trkpt lat="42.7614" lon="1.43082">
        <ele>1668.5789952</ele>
        <time>2018-09-23T13:02:36.009Z</time>
      </trkpt>
      <trkpt lat="42.76144" lon="1.43076">
        <ele>1670</ele>
        <time>2018-09-23T13:02:40.009Z</time>
      </trkpt>
      <trkpt lat="42.76148" lon="1.43067">
        <ele>1672</ele>
        <time>2018-09-23T13:02:45.009Z</time>
      </trkpt>
      <trkpt lat="42.76149" lon="1.43057">
        <ele>1671.4210048</ele>
        <time>2018-09-23T13:02:51.009Z</time>
      </trkpt>
      <trkpt lat="42.76153" lon="1.43048">
        <ele>1671</ele>
        <time>2018-09-23T13:02:55.009Z</time>
      </trkpt>
      <trkpt lat="42.76158" lon="1.4304">
        <ele>1671</ele>
        <time>2018-09-23T13:02:59.009Z</time>
      </trkpt>
      <trkpt lat="42.76164" lon="1.43029">
        <ele>1667</ele>
        <time>2018-09-23T13:03:06.009Z</time>
      </trkpt>
      <trkpt lat="42.76168" lon="1.43014">
        <ele>1669</ele>
        <time>2018-09-23T13:03:13.009Z</time>
      </trkpt>
      <trkpt lat="42.76173" lon="1.43003">
        <ele>1669</ele>
        <time>2018-09-23T13:03:19.009Z</time>
      </trkpt>
      <trkpt lat="42.76178" lon="1.42998">
        <ele>1678</ele>
        <time>2018-09-23T13:03:23.009Z</time>
      </trkpt>
      <trkpt lat="42.76183" lon="1.4299">
        <ele>1682</ele>
        <time>2018-09-23T13:03:28.009Z</time>
      </trkpt>
      <trkpt lat="42.76186" lon="1.42982">
        <ele>1685.1579904</ele>
        <time>2018-09-23T13:03:33.009Z</time>
      </trkpt>
      <trkpt lat="42.76191" lon="1.42968">
        <ele>1690.5789952</ele>
        <time>2018-09-23T13:03:41.009Z</time>
      </trkpt>
      <trkpt lat="42.76194" lon="1.42958">
        <ele>1695</ele>
        <time>2018-09-23T13:03:47.009Z</time>
      </trkpt>
      <trkpt lat="42.76196" lon="1.42953">
        <ele>1695</ele>
        <time>2018-09-23T13:03:50.009Z</time>
      </trkpt>
      <trkpt lat="42.76197" lon="1.42939">
        <ele>1694</ele>
        <time>2018-09-23T13:03:58.009Z</time>
      </trkpt>
      <trkpt lat="42.76201" lon="1.42927">
        <ele>1698</ele>
        <time>2018-09-23T13:04:05.009Z</time>
      </trkpt>
      <trkpt lat="42.76207" lon="1.42913">
        <ele>1699</ele>
        <time>2018-09-23T13:04:13.009Z</time>
      </trkpt>
      <trkpt lat="42.7621" lon="1.429">
        <ele>1699</ele>
        <time>2018-09-23T13:04:20.009Z</time>
      </trkpt>
      <trkpt lat="42.76216" lon="1.42889">
        <ele>1699</ele>
        <time>2018-09-23T13:04:27.009Z</time>
      </trkpt>
      <trkpt lat="42.76216" lon="1.42874">
        <ele>1695</ele>
        <time>2018-09-23T13:04:35.009Z</time>
      </trkpt>
      <trkpt lat="42.76218" lon="1.4286">
        <ele>1691</ele>
        <time>2018-09-23T13:04:44.009Z</time>
      </trkpt>
      <trkpt lat="42.76218" lon="1.42847">
        <ele>1687.2630144</ele>
        <time>2018-09-23T13:04:51.009Z</time>
      </trkpt>
      <trkpt lat="42.76215" lon="1.42837">
        <ele>1683</ele>
        <time>2018-09-23T13:04:57.009Z</time>
      </trkpt>
      <trkpt lat="42.76219" lon="1.42825">
        <ele>1675.4210048</ele>
        <time>2018-09-23T13:05:07.009Z</time>
      </trkpt>
      <trkpt lat="42.76227" lon="1.42817">
        <ele>1670</ele>
        <time>2018-09-23T13:05:16.009Z</time>
      </trkpt>
      <trkpt lat="42.76232" lon="1.42805">
        <ele>1672</ele>
        <time>2018-09-23T13:05:26.009Z</time>
      </trkpt>
      <trkpt lat="42.76237" lon="1.42792">
        <ele>1682</ele>
        <time>2018-09-23T13:05:34.009Z</time>
      </trkpt>
      <trkpt lat="42.76246" lon="1.42783">
        <ele>1683</ele>
        <time>2018-09-23T13:05:44.009Z</time>
      </trkpt>
      <trkpt lat="42.76254" lon="1.42773">
        <ele>1683</ele>
        <time>2018-09-23T13:05:54.009Z</time>
      </trkpt>
      <trkpt lat="42.76259" lon="1.42762">
        <ele>1688.2109568</ele>
        <time>2018-09-23T13:06:01.009Z</time>
      </trkpt>
      <trkpt lat="42.76265" lon="1.4275">
        <ele>1699.5789952</ele>
        <time>2018-09-23T13:06:09.009Z</time>
      </trkpt>
      <trkpt lat="42.76268" lon="1.42739">
        <ele>1708.5789952</ele>
        <time>2018-09-23T13:06:16.009Z</time>
      </trkpt>
      <trkpt lat="42.76273" lon="1.42732">
        <ele>1714.5789952</ele>
        <time>2018-09-23T13:06:22.009Z</time>
      </trkpt>
      <trkpt lat="42.76281" lon="1.42724">
        <ele>1719</ele>
        <time>2018-09-23T13:06:29.009Z</time>
      </trkpt>
      <trkpt lat="42.76288" lon="1.42719">
        <ele>1726.5789952</ele>
        <time>2018-09-23T13:06:37.009Z</time>
      </trkpt>
      <trkpt lat="42.76293" lon="1.42712">
        <ele>1727</ele>
        <time>2018-09-23T13:06:45.009Z</time>
      </trkpt>
      <trkpt lat="42.76297" lon="1.42701">
        <ele>1731</ele>
        <time>2018-09-23T13:06:54.009Z</time>
      </trkpt>
      <trkpt lat="42.763" lon="1.42697">
        <ele>1733</ele>
        <time>2018-09-23T13:06:57.009Z</time>
      </trkpt>
      <trkpt lat="42.76306" lon="1.42687">
        <ele>1732.8420096</ele>
        <time>2018-09-23T13:07:06.009Z</time>
      </trkpt>
      <trkpt lat="42.76314" lon="1.42677">
        <ele>1729</ele>
        <time>2018-09-23T13:07:15.009Z</time>
      </trkpt>
      <trkpt lat="42.76322" lon="1.42671">
        <ele>1724</ele>
        <time>2018-09-23T13:07:29.009Z</time>
      </trkpt>
      <trkpt lat="42.76331" lon="1.42664">
        <ele>1720.6840192</ele>
        <time>2018-09-23T13:07:51.009Z</time>
      </trkpt>
      <trkpt lat="42.76336" lon="1.42652">
        <ele>1717</ele>
        <time>2018-09-23T13:08:02.009Z</time>
      </trkpt>
      <trkpt lat="42.76343" lon="1.42648">
        <ele>1714</ele>
        <time>2018-09-23T13:08:15.009Z</time>
      </trkpt>
      <trkpt lat="42.76345" lon="1.42634">
        <ele>1712</ele>
        <time>2018-09-23T13:08:30.009Z</time>
      </trkpt>
      <trkpt lat="42.76348" lon="1.42619">
        <ele>1720</ele>
        <time>2018-09-23T13:08:38.009Z</time>
      </trkpt>
      <trkpt lat="42.7635" lon="1.42605">
        <ele>1737.1579904</ele>
        <time>2018-09-23T13:08:45.009Z</time>
      </trkpt>
      <trkpt lat="42.76357" lon="1.42596">
        <ele>1749</ele>
        <time>2018-09-23T13:08:53.009Z</time>
      </trkpt>
      <trkpt lat="42.76364" lon="1.42588">
        <ele>1755</ele>
        <time>2018-09-23T13:09:00.009Z</time>
      </trkpt>
      <trkpt lat="42.76366" lon="1.42575">
        <ele>1753</ele>
        <time>2018-09-23T13:09:08.009Z</time>
      </trkpt>
      <trkpt lat="42.76367" lon="1.42562">
        <ele>1750</ele>
        <time>2018-09-23T13:09:18.009Z</time>
      </trkpt>
      <trkpt lat="42.76372" lon="1.42554">
        <ele>1751</ele>
        <time>2018-09-23T13:09:26.009Z</time>
      </trkpt>
      <trkpt lat="42.76381" lon="1.42547">
        <ele>1760.5789952</ele>
        <time>2018-09-23T13:09:34.009Z</time>
      </trkpt>
      <trkpt lat="42.76388" lon="1.42539">
        <ele>1766.1579904</ele>
        <time>2018-09-23T13:09:44.009Z</time>
      </trkpt>
      <trkpt lat="42.76395" lon="1.42533">
        <ele>1773.5789952</ele>
        <time>2018-09-23T13:09:50.009Z</time>
      </trkpt>
      <trkpt lat="42.764" lon="1.42525">
        <ele>1773</ele>
        <time>2018-09-23T13:09:57.009Z</time>
      </trkpt>
      <trkpt lat="42.76405" lon="1.42516">
        <ele>1773</ele>
        <time>2018-09-23T13:10:09.009Z</time>
      </trkpt>
      <trkpt lat="42.76408" lon="1.42502">
        <ele>1775</ele>
        <time>2018-09-23T13:10:19.009Z</time>
      </trkpt>
      <trkpt lat="42.76411" lon="1.42487">
        <ele>1775</ele>
        <time>2018-09-23T13:10:29.009Z</time>
      </trkpt>
      <trkpt lat="42.76414" lon="1.42473">
        <ele>1790.5789952</ele>
        <time>2018-09-23T13:10:35.009Z</time>
      </trkpt>
      <trkpt lat="42.76412" lon="1.42463">
        <ele>1797</ele>
        <time>2018-09-23T13:10:42.009Z</time>
      </trkpt>
      <trkpt lat="42.76413" lon="1.42453">
        <ele>1797</ele>
        <time>2018-09-23T13:10:47.009Z</time>
      </trkpt>
      <trkpt lat="42.76414" lon="1.42441">
        <ele>1800</ele>
        <time>2018-09-23T13:10:54.009Z</time>
      </trkpt>
      <trkpt lat="42.76415" lon="1.42429">
        <ele>1804</ele>
        <time>2018-09-23T13:11:00.009Z</time>
      </trkpt>
      <trkpt lat="42.76415" lon="1.42419">
        <ele>1816.5789952</ele>
        <time>2018-09-23T13:11:06.009Z</time>
      </trkpt>
      <trkpt lat="42.76415" lon="1.42406">
        <ele>1815</ele>
        <time>2018-09-23T13:11:13.009Z</time>
      </trkpt>
      <trkpt lat="42.76416" lon="1.42391">
        <ele>1815</ele>
        <time>2018-09-23T13:11:20.009Z</time>
      </trkpt>
      <trkpt lat="42.76416" lon="1.42382">
        <ele>1817</ele>
        <time>2018-09-23T13:11:25.009Z</time>
      </trkpt>
      <trkpt lat="42.76413" lon="1.42369">
        <ele>1817</ele>
        <time>2018-09-23T13:11:34.009Z</time>
      </trkpt>
      <trkpt lat="42.76411" lon="1.42356">
        <ele>1818.1579904</ele>
        <time>2018-09-23T13:11:41.009Z</time>
      </trkpt>
      <trkpt lat="42.76411" lon="1.4235">
        <ele>1819</ele>
        <time>2018-09-23T13:11:45.009Z</time>
      </trkpt>
      <trkpt lat="42.76409" lon="1.42344">
        <ele>1819</ele>
        <time>2018-09-23T13:11:49.009Z</time>
      </trkpt>
      <trkpt lat="42.76408" lon="1.42338">
        <ele>1820</ele>
        <time>2018-09-23T13:11:53.009Z</time>
      </trkpt>
      <trkpt lat="42.76406" lon="1.4233">
        <ele>1820</ele>
        <time>2018-09-23T13:11:57.009Z</time>
      </trkpt>
      <trkpt lat="42.76404" lon="1.42323">
        <ele>1820.5789952</ele>
        <time>2018-09-23T13:12:01.009Z</time>
      </trkpt>
      <trkpt lat="42.76403" lon="1.42316">
        <ele>1821</ele>
        <time>2018-09-23T13:12:05.009Z</time>
      </trkpt>
      <trkpt lat="42.76403" lon="1.4231">
        <ele>1821</ele>
        <time>2018-09-23T13:12:08.009Z</time>
      </trkpt>
      <trkpt lat="42.76403" lon="1.42304">
        <ele>1821</ele>
        <time>2018-09-23T13:12:12.009Z</time>
      </trkpt>
      <trkpt lat="42.76404" lon="1.42298">
        <ele>1821</ele>
        <time>2018-09-23T13:12:15.009Z</time>
      </trkpt>
      <trkpt lat="42.76405" lon="1.42291">
        <ele>1823</ele>
        <time>2018-09-23T13:12:22.009Z</time>
      </trkpt>
      <trkpt lat="42.76407" lon="1.42285">
        <ele>1823</ele>
        <time>2018-09-23T13:12:25.009Z</time>
      </trkpt>
      <trkpt lat="42.7641" lon="1.42277">
        <ele>1823</ele>
        <time>2018-09-23T13:12:30.009Z</time>
      </trkpt>
      <trkpt lat="42.76412" lon="1.42271">
        <ele>1704</ele>
        <time>2018-09-23T13:12:33.009Z</time>
      </trkpt>
      <trkpt lat="42.76418" lon="1.42262">
        <ele>1703</ele>
        <time>2018-09-23T13:12:38.009Z</time>
      </trkpt>
      <trkpt lat="42.76425" lon="1.42249">
        <ele>1702</ele>
        <time>2018-09-23T13:12:45.009Z</time>
      </trkpt>
      <trkpt lat="42.76432" lon="1.42238">
        <ele>1702</ele>
        <time>2018-09-23T13:12:53.009Z</time>
      </trkpt>
      <trkpt lat="42.76441" lon="1.42231">
        <ele>1701.4267356095</ele>
        <time>2018-09-23T13:13:01.009Z</time>
      </trkpt>
      <trkpt lat="42.76441" lon="1.42218">
        <ele>1702</ele>
        <time>2018-09-23T13:13:12.009Z</time>
      </trkpt>
      <trkpt lat="42.7644" lon="1.42204">
        <ele>1702</ele>
        <time>2018-09-23T13:13:20.009Z</time>
      </trkpt>
      <trkpt lat="42.76439" lon="1.42191">
        <ele>1704</ele>
        <time>2018-09-23T13:13:27.009Z</time>
      </trkpt>
      <trkpt lat="42.76441" lon="1.42183">
        <ele>1704</ele>
        <time>2018-09-23T13:13:31.009Z</time>
      </trkpt>
      <trkpt lat="42.76447" lon="1.42174">
        <ele>1704</ele>
        <time>2018-09-23T13:13:37.009Z</time>
      </trkpt>
      <trkpt lat="42.76446" lon="1.42164">
        <ele>1704</ele>
        <time>2018-09-23T13:13:44.009Z</time>
      </trkpt>
      <trkpt lat="42.76445" lon="1.42157">
        <ele>1704</ele>
        <time>2018-09-23T13:13:48.009Z</time>
      </trkpt>
      <trkpt lat="42.76447" lon="1.42149">
        <ele>1704</ele>
        <time>2018-09-23T13:13:53.009Z</time>
      </trkpt>
      <trkpt lat="42.76447" lon="1.42139">
        <ele>1704</ele>
        <time>2018-09-23T13:13:58.009Z</time>
      </trkpt>
      <trkpt lat="42.76447" lon="1.42132">
        <ele>1702.8420096</ele>
        <time>2018-09-23T13:14:01.009Z</time>
      </trkpt>
      <trkpt lat="42.7645" lon="1.42126">
        <ele>1702</ele>
        <time>2018-09-23T13:14:04.009Z</time>
      </trkpt>
      <trkpt lat="42.76453" lon="1.42121">
        <ele>1702</ele>
        <time>2018-09-23T13:14:08.009Z</time>
      </trkpt>
      <trkpt lat="42.76456" lon="1.42116">
        <ele>1700.8420096</ele>
        <time>2018-09-23T13:14:11.009Z</time>
      </trkpt>
      <trkpt lat="42.76459" lon="1.42108">
        <ele>1700</ele>
        <time>2018-09-23T13:14:15.009Z</time>
      </trkpt>
      <trkpt lat="42.76466" lon="1.42098">
        <ele>1699</ele>
        <time>2018-09-23T13:14:22.009Z</time>
      </trkpt>
      <trkpt lat="42.76474" lon="1.42089">
        <ele>1699</ele>
        <time>2018-09-23T13:14:30.009Z</time>
      </trkpt>
      <trkpt lat="42.76481" lon="1.4208">
        <ele>1698</ele>
        <time>2018-09-23T13:14:38.009Z</time>
      </trkpt>
      <trkpt lat="42.7648" lon="1.4207">
        <ele>1697</ele>
        <time>2018-09-23T13:14:46.009Z</time>
      </trkpt>
      <trkpt lat="42.76484" lon="1.42062">
        <ele>1694</ele>
        <time>2018-09-23T13:14:53.009Z</time>
      </trkpt>
      <trkpt lat="42.76489" lon="1.42054">
        <ele>1694</ele>
        <time>2018-09-23T13:14:59.009Z</time>
      </trkpt>
      <trkpt lat="42.76493" lon="1.42046">
        <ele>1692</ele>
        <time>2018-09-23T13:15:06.009Z</time>
      </trkpt>
      <trkpt lat="42.76499" lon="1.42039">
        <ele>1693</ele>
        <time>2018-09-23T13:15:13.009Z</time>
      </trkpt>
      <trkpt lat="42.76502" lon="1.42028">
        <ele>1693</ele>
        <time>2018-09-23T13:15:22.009Z</time>
      </trkpt>
      <trkpt lat="42.76505" lon="1.4202">
        <ele>1693</ele>
        <time>2018-09-23T13:15:27.009Z</time>
      </trkpt>
      <trkpt lat="42.76508" lon="1.42012">
        <ele>1692</ele>
        <time>2018-09-23T13:15:32.009Z</time>
      </trkpt>
      <trkpt lat="42.7651" lon="1.42005">
        <ele>1692</ele>
        <time>2018-09-23T13:15:37.009Z</time>
      </trkpt>
      <trkpt lat="42.76509" lon="1.4199">
        <ele>1692</ele>
        <time>2018-09-23T13:15:45.009Z</time>
      </trkpt>
      <trkpt lat="42.76516" lon="1.41979">
        <ele>1693</ele>
        <time>2018-09-23T13:15:54.009Z</time>
      </trkpt>
      <trkpt lat="42.76521" lon="1.4197">
        <ele>1695</ele>
        <time>2018-09-23T13:16:04.009Z</time>
      </trkpt>
      <trkpt lat="42.76525" lon="1.41961">
        <ele>1695</ele>
        <time>2018-09-23T13:16:10.009Z</time>
      </trkpt>
      <trkpt lat="42.76527" lon="1.41953">
        <ele>1696</ele>
        <time>2018-09-23T13:16:15.009Z</time>
      </trkpt>
      <trkpt lat="42.76528" lon="1.41946">
        <ele>1696</ele>
        <time>2018-09-23T13:16:19.009Z</time>
      </trkpt>
      <trkpt lat="42.76531" lon="1.41939">
        <ele>1694</ele>
        <time>2018-09-23T13:16:24.009Z</time>
      </trkpt>
      <trkpt lat="42.76532" lon="1.4193">
        <ele>1693.4210048</ele>
        <time>2018-09-23T13:16:31.009Z</time>
      </trkpt>
      <trkpt lat="42.76537" lon="1.41922">
        <ele>1693</ele>
        <time>2018-09-23T13:16:37.009Z</time>
      </trkpt>
      <trkpt lat="42.76543" lon="1.41917">
        <ele>1692</ele>
        <time>2018-09-23T13:16:43.009Z</time>
      </trkpt>
      <trkpt lat="42.76548" lon="1.41909">
        <ele>1692</ele>
        <time>2018-09-23T13:16:49.009Z</time>
      </trkpt>
      <trkpt lat="42.76553" lon="1.41901">
        <ele>1693</ele>
        <time>2018-09-23T13:16:55.009Z</time>
      </trkpt>
      <trkpt lat="42.76557" lon="1.4189">
        <ele>1692</ele>
        <time>2018-09-23T13:17:02.009Z</time>
      </trkpt>
      <trkpt lat="42.76561" lon="1.41881">
        <ele>1692</ele>
        <time>2018-09-23T13:17:07.009Z</time>
      </trkpt>
      <trkpt lat="42.76566" lon="1.41874">
        <ele>1693</ele>
        <time>2018-09-23T13:17:12.009Z</time>
      </trkpt>
      <trkpt lat="42.76572" lon="1.41869">
        <ele>1693.1579904</ele>
        <time>2018-09-23T13:17:21.009Z</time>
      </trkpt>
      <trkpt lat="42.76578" lon="1.41867">
        <ele>1693</ele>
        <time>2018-09-23T13:17:27.009Z</time>
      </trkpt>
      <trkpt lat="42.76583" lon="1.41863">
        <ele>1693</ele>
        <time>2018-09-23T13:17:35.009Z</time>
      </trkpt>
      <trkpt lat="42.76587" lon="1.41862">
        <ele>1693.7369856</ele>
        <time>2018-09-23T13:17:41.009Z</time>
      </trkpt>
      <trkpt lat="42.76586" lon="1.41852">
        <ele>1696</ele>
        <time>2018-09-23T13:17:49.009Z</time>
      </trkpt>
      <trkpt lat="42.76591" lon="1.41845">
        <ele>1695</ele>
        <time>2018-09-23T13:17:55.009Z</time>
      </trkpt>
      <trkpt lat="42.76597" lon="1.41841">
        <ele>1694.5789952</ele>
        <time>2018-09-23T13:18:01.009Z</time>
      </trkpt>
      <trkpt lat="42.76602" lon="1.41835">
        <ele>1695</ele>
        <time>2018-09-23T13:18:07.009Z</time>
      </trkpt>
      <trkpt lat="42.76603" lon="1.4183">
        <ele>1694.5789952</ele>
        <time>2018-09-23T13:18:11.009Z</time>
      </trkpt>
      <trkpt lat="42.76603" lon="1.41825">
        <ele>1695</ele>
        <time>2018-09-23T13:18:14.009Z</time>
      </trkpt>
      <trkpt lat="42.76606" lon="1.41817">
        <ele>1694</ele>
        <time>2018-09-23T13:18:19.009Z</time>
      </trkpt>
      <trkpt lat="42.76609" lon="1.4181">
        <ele>1694</ele>
        <time>2018-09-23T13:18:23.009Z</time>
      </trkpt>
      <trkpt lat="42.76614" lon="1.41803">
        <ele>1693</ele>
        <time>2018-09-23T13:18:28.009Z</time>
      </trkpt>
      <trkpt lat="42.7662" lon="1.4179">
        <ele>1692</ele>
        <time>2018-09-23T13:18:37.009Z</time>
      </trkpt>
      <trkpt lat="42.76624" lon="1.41777">
        <ele>1691.4210048</ele>
        <time>2018-09-23T13:18:46.009Z</time>
      </trkpt>
      <trkpt lat="42.76625" lon="1.41766">
        <ele>1691</ele>
        <time>2018-09-23T13:18:52.009Z</time>
      </trkpt>
      <trkpt lat="42.76625" lon="1.4176">
        <ele>1691</ele>
        <time>2018-09-23T13:18:56.009Z</time>
      </trkpt>
      <trkpt lat="42.76622" lon="1.41752">
        <ele>1690</ele>
        <time>2018-09-23T13:19:02.009Z</time>
      </trkpt>
      <trkpt lat="42.76618" lon="1.41744">
        <ele>1689</ele>
        <time>2018-09-23T13:19:08.009Z</time>
      </trkpt>
      <trkpt lat="42.76614" lon="1.41735">
        <ele>1691</ele>
        <time>2018-09-23T13:19:14.009Z</time>
      </trkpt>
      <trkpt lat="42.76608" lon="1.41727">
        <ele>1689.4210048</ele>
        <time>2018-09-23T13:19:21.009Z</time>
      </trkpt>
      <trkpt lat="42.76604" lon="1.41718">
        <ele>1689</ele>
        <time>2018-09-23T13:19:26.009Z</time>
      </trkpt>
      <trkpt lat="42.766" lon="1.41711">
        <ele>1686.2630144</ele>
        <time>2018-09-23T13:19:31.009Z</time>
      </trkpt>
      <trkpt lat="42.76594" lon="1.41705">
        <ele>1684.4210048</ele>
        <time>2018-09-23T13:19:36.009Z</time>
      </trkpt>
      <trkpt lat="42.76592" lon="1.41696">
        <ele>1684</ele>
        <time>2018-09-23T13:19:41.009Z</time>
      </trkpt>
      <trkpt lat="42.7659" lon="1.41685">
        <ele>1684</ele>
        <time>2018-09-23T13:19:46.009Z</time>
      </trkpt>
      <trkpt lat="42.76589" lon="1.41675">
        <ele>1684</ele>
        <time>2018-09-23T13:19:51.009Z</time>
      </trkpt>
      <trkpt lat="42.76593" lon="1.41669">
        <ele>1683</ele>
        <time>2018-09-23T13:19:55.009Z</time>
      </trkpt>
      <trkpt lat="42.76596" lon="1.4166">
        <ele>1684.1579904</ele>
        <time>2018-09-23T13:20:01.009Z</time>
      </trkpt>
      <trkpt lat="42.766" lon="1.41654">
        <ele>1685</ele>
        <time>2018-09-23T13:20:06.009Z</time>
      </trkpt>
      <trkpt lat="42.76607" lon="1.41651">
        <ele>1686</ele>
        <time>2018-09-23T13:20:12.009Z</time>
      </trkpt>
      <trkpt lat="42.76612" lon="1.41647">
        <ele>1686</ele>
        <time>2018-09-23T13:20:17.009Z</time>
      </trkpt>
      <trkpt lat="42.76614" lon="1.41637">
        <ele>1685</ele>
        <time>2018-09-23T13:20:22.009Z</time>
      </trkpt>
      <trkpt lat="42.76617" lon="1.41632">
        <ele>1684</ele>
        <time>2018-09-23T13:20:25.009Z</time>
      </trkpt>
      <trkpt lat="42.76622" lon="1.41623">
        <ele>1684</ele>
        <time>2018-09-23T13:20:30.009Z</time>
      </trkpt>
      <trkpt lat="42.76625" lon="1.41615">
        <ele>1683</ele>
        <time>2018-09-23T13:20:34.009Z</time>
      </trkpt>
      <trkpt lat="42.76628" lon="1.41608">
        <ele>1683</ele>
        <time>2018-09-23T13:20:38.009Z</time>
      </trkpt>
      <trkpt lat="42.76631" lon="1.416">
        <ele>1681</ele>
        <time>2018-09-23T13:20:42.009Z</time>
      </trkpt>
      <trkpt lat="42.76633" lon="1.41591">
        <ele>1681</ele>
        <time>2018-09-23T13:20:47.009Z</time>
      </trkpt>
      <trkpt lat="42.76634" lon="1.4158">
        <ele>1680</ele>
        <time>2018-09-23T13:20:52.009Z</time>
      </trkpt>
      <trkpt lat="42.76632" lon="1.41572">
        <ele>1680</ele>
        <time>2018-09-23T13:20:56.009Z</time>
      </trkpt>
      <trkpt lat="42.76634" lon="1.41564">
        <ele>1679</ele>
        <time>2018-09-23T13:21:00.009Z</time>
      </trkpt>
      <trkpt lat="42.76635" lon="1.41557">
        <ele>1677</ele>
        <time>2018-09-23T13:21:05.009Z</time>
      </trkpt>
      <trkpt lat="42.76639" lon="1.4155">
        <ele>1677</ele>
        <time>2018-09-23T13:21:10.009Z</time>
      </trkpt>
      <trkpt lat="42.7664" lon="1.4154">
        <ele>1679</ele>
        <time>2018-09-23T13:21:15.009Z</time>
      </trkpt>
      <trkpt lat="42.76642" lon="1.4153">
        <ele>1679</ele>
        <time>2018-09-23T13:21:20.009Z</time>
      </trkpt>
      <trkpt lat="42.76646" lon="1.41525">
        <ele>1678</ele>
        <time>2018-09-23T13:21:23.009Z</time>
      </trkpt>
      <trkpt lat="42.7665" lon="1.41517">
        <ele>1678</ele>
        <time>2018-09-23T13:21:28.009Z</time>
      </trkpt>
      <trkpt lat="42.76654" lon="1.4151">
        <ele>1679</ele>
        <time>2018-09-23T13:21:34.009Z</time>
      </trkpt>
      <trkpt lat="42.76657" lon="1.415">
        <ele>1679</ele>
        <time>2018-09-23T13:21:40.009Z</time>
      </trkpt>
      <trkpt lat="42.76657" lon="1.41489">
        <ele>1679</ele>
        <time>2018-09-23T13:21:48.009Z</time>
      </trkpt>
      <trkpt lat="42.76657" lon="1.41481">
        <ele>1681</ele>
        <time>2018-09-23T13:21:58.009Z</time>
      </trkpt>
      <trkpt lat="42.76651" lon="1.41484">
        <ele>1679</ele>
        <time>2018-09-23T13:22:04.009Z</time>
      </trkpt>
      <trkpt lat="42.76644" lon="1.41484">
        <ele>1679</ele>
        <time>2018-09-23T13:22:09.009Z</time>
      </trkpt>
      <trkpt lat="42.7664" lon="1.41474">
        <ele>1679</ele>
        <time>2018-09-23T13:22:16.009Z</time>
      </trkpt>
      <trkpt lat="42.76636" lon="1.41465">
        <ele>1679</ele>
        <time>2018-09-23T13:22:22.009Z</time>
      </trkpt>
      <trkpt lat="42.76633" lon="1.41458">
        <ele>1678.4267356095</ele>
        <time>2018-09-23T13:22:26.009Z</time>
      </trkpt>
      <trkpt lat="42.76631" lon="1.41451">
        <ele>1678</ele>
        <time>2018-09-23T13:22:30.009Z</time>
      </trkpt>
      <trkpt lat="42.76629" lon="1.41442">
        <ele>1678</ele>
        <time>2018-09-23T13:22:35.009Z</time>
      </trkpt>
      <trkpt lat="42.76624" lon="1.41435">
        <ele>1678</ele>
        <time>2018-09-23T13:22:41.009Z</time>
      </trkpt>
      <trkpt lat="42.76618" lon="1.41429">
        <ele>1678</ele>
        <time>2018-09-23T13:22:48.009Z</time>
      </trkpt>
      <trkpt lat="42.7661" lon="1.4142">
        <ele>1675</ele>
        <time>2018-09-23T13:22:57.009Z</time>
      </trkpt>
      <trkpt lat="42.76605" lon="1.41411">
        <ele>1671</ele>
        <time>2018-09-23T13:23:04.009Z</time>
      </trkpt>
      <trkpt lat="42.76597" lon="1.41402">
        <ele>1670</ele>
        <time>2018-09-23T13:23:15.009Z</time>
      </trkpt>
      <trkpt lat="42.76588" lon="1.41395">
        <ele>1668</ele>
        <time>2018-09-23T13:23:23.009Z</time>
      </trkpt>
      <trkpt lat="42.76578" lon="1.41393">
        <ele>1668</ele>
        <time>2018-09-23T13:23:29.009Z</time>
      </trkpt>
      <trkpt lat="42.76569" lon="1.41388">
        <ele>1666</ele>
        <time>2018-09-23T13:23:36.009Z</time>
      </trkpt>
      <trkpt lat="42.7656" lon="1.41385">
        <ele>1666</ele>
        <time>2018-09-23T13:23:42.009Z</time>
      </trkpt>
      <trkpt lat="42.76552" lon="1.41382">
        <ele>1666</ele>
        <time>2018-09-23T13:23:48.009Z</time>
      </trkpt>
      <trkpt lat="42.76547" lon="1.41379">
        <ele>1665</ele>
        <time>2018-09-23T13:23:55.009Z</time>
      </trkpt>
      <trkpt lat="42.76541" lon="1.41372">
        <ele>1666</ele>
        <time>2018-09-23T13:24:04.009Z</time>
      </trkpt>
      <trkpt lat="42.76532" lon="1.41374">
        <ele>1667</ele>
        <time>2018-09-23T13:24:16.009Z</time>
      </trkpt>
      <trkpt lat="42.76526" lon="1.41369">
        <ele>1670</ele>
        <time>2018-09-23T13:24:23.009Z</time>
      </trkpt>
      <trkpt lat="42.76522" lon="1.4136">
        <ele>1670</ele>
        <time>2018-09-23T13:24:30.009Z</time>
      </trkpt>
      <trkpt lat="42.7652" lon="1.4135">
        <ele>1670</ele>
        <time>2018-09-23T13:24:37.009Z</time>
      </trkpt>
      <trkpt lat="42.76521" lon="1.41344">
        <ele>1671</ele>
        <time>2018-09-23T13:24:42.009Z</time>
      </trkpt>
      <trkpt lat="42.76522" lon="1.41339">
        <ele>1670</ele>
        <time>2018-09-23T13:24:47.009Z</time>
      </trkpt>
      <trkpt lat="42.7653" lon="1.41347">
        <ele>1671</ele>
        <time>2018-09-23T13:25:25.009Z</time>
      </trkpt>
      <trkpt lat="42.76519" lon="1.41348">
        <ele>1636</ele>
        <time>2018-09-23T13:27:12.009Z</time>
      </trkpt>
      <trkpt lat="42.76524" lon="1.4136">
        <ele>1636</ele>
        <time>2018-09-23T13:27:19.009Z</time>
      </trkpt>
      <trkpt lat="42.76531" lon="1.41371">
        <ele>1637</ele>
        <time>2018-09-23T13:27:28.009Z</time>
      </trkpt>
      <trkpt lat="42.76541" lon="1.41369">
        <ele>1637</ele>
        <time>2018-09-23T13:27:39.009Z</time>
      </trkpt>
      <trkpt lat="42.76547" lon="1.41377">
        <ele>1637</ele>
        <time>2018-09-23T13:27:46.009Z</time>
      </trkpt>
      <trkpt lat="42.76558" lon="1.41381">
        <ele>1638</ele>
        <time>2018-09-23T13:28:00.009Z</time>
      </trkpt>
      <trkpt lat="42.76569" lon="1.41383">
        <ele>1649.1579904</ele>
        <time>2018-09-23T13:28:07.009Z</time>
      </trkpt>
      <trkpt lat="42.76577" lon="1.41387">
        <ele>1652.5789952</ele>
        <time>2018-09-23T13:28:12.009Z</time>
      </trkpt>
      <trkpt lat="42.76587" lon="1.41392">
        <ele>1656.5789952</ele>
        <time>2018-09-23T13:28:19.009Z</time>
      </trkpt>
      <trkpt lat="42.76594" lon="1.41393">
        <ele>1659</ele>
        <time>2018-09-23T13:28:24.009Z</time>
      </trkpt>
      <trkpt lat="42.76599" lon="1.41403">
        <ele>1661</ele>
        <time>2018-09-23T13:28:33.009Z</time>
      </trkpt>
      <trkpt lat="42.76606" lon="1.41411">
        <ele>1662</ele>
        <time>2018-09-23T13:28:42.009Z</time>
      </trkpt>
      <trkpt lat="42.76613" lon="1.41421">
        <ele>1666</ele>
        <time>2018-09-23T13:28:54.009Z</time>
      </trkpt>
      <trkpt lat="42.76619" lon="1.41427">
        <ele>1672.5789952</ele>
        <time>2018-09-23T13:29:02.009Z</time>
      </trkpt>
      <trkpt lat="42.76628" lon="1.41436">
        <ele>1676</ele>
        <time>2018-09-23T13:29:12.009Z</time>
      </trkpt>
      <trkpt lat="42.76633" lon="1.41449">
        <ele>1678</ele>
        <time>2018-09-23T13:29:20.009Z</time>
      </trkpt>
      <trkpt lat="42.76638" lon="1.41462">
        <ele>1686.5789952</ele>
        <time>2018-09-23T13:29:27.009Z</time>
      </trkpt>
      <trkpt lat="42.76643" lon="1.41474">
        <ele>1691.5789952</ele>
        <time>2018-09-23T13:29:34.009Z</time>
      </trkpt>
      <trkpt lat="42.76645" lon="1.41484">
        <ele>1696.5789952</ele>
        <time>2018-09-23T13:29:42.009Z</time>
      </trkpt>
      <trkpt lat="42.76652" lon="1.41482">
        <ele>1700</ele>
        <time>2018-09-23T13:29:48.009Z</time>
      </trkpt>
      <trkpt lat="42.76659" lon="1.4148">
        <ele>1704.5789952</ele>
        <time>2018-09-23T13:29:53.009Z</time>
      </trkpt>
      <trkpt lat="42.76662" lon="1.41473">
        <ele>1707</ele>
        <time>2018-09-23T13:29:58.009Z</time>
      </trkpt>
      <trkpt lat="42.76668" lon="1.41466">
        <ele>1708.5789952</ele>
        <time>2018-09-23T13:30:04.009Z</time>
      </trkpt>
      <trkpt lat="42.76673" lon="1.41459">
        <ele>1710</ele>
        <time>2018-09-23T13:30:09.009Z</time>
      </trkpt>
      <trkpt lat="42.76679" lon="1.41456">
        <ele>1710</ele>
        <time>2018-09-23T13:30:14.009Z</time>
      </trkpt>
      <trkpt lat="42.76686" lon="1.41453">
        <ele>1710</ele>
        <time>2018-09-23T13:30:19.009Z</time>
      </trkpt>
      <trkpt lat="42.76692" lon="1.4145">
        <ele>1720</ele>
        <time>2018-09-23T13:30:24.009Z</time>
      </trkpt>
      <trkpt lat="42.76698" lon="1.41447">
        <ele>1724</ele>
        <time>2018-09-23T13:30:30.009Z</time>
      </trkpt>
      <trkpt lat="42.76705" lon="1.41447">
        <ele>1724</ele>
        <time>2018-09-23T13:30:39.009Z</time>
      </trkpt>
      <trkpt lat="42.76713" lon="1.41448">
        <ele>1727</ele>
        <time>2018-09-23T13:30:52.009Z</time>
      </trkpt>
      <trkpt lat="42.7672" lon="1.41453">
        <ele>1730</ele>
        <time>2018-09-23T13:31:03.009Z</time>
      </trkpt>
      <trkpt lat="42.76726" lon="1.41454">
        <ele>1730</ele>
        <time>2018-09-23T13:31:08.009Z</time>
      </trkpt>
      <trkpt lat="42.76732" lon="1.41451">
        <ele>1731</ele>
        <time>2018-09-23T13:31:14.009Z</time>
      </trkpt>
      <trkpt lat="42.76737" lon="1.41456">
        <ele>1733</ele>
        <time>2018-09-23T13:31:24.009Z</time>
      </trkpt>
      <trkpt lat="42.76743" lon="1.41453">
        <ele>1733</ele>
        <time>2018-09-23T13:31:30.009Z</time>
      </trkpt>
      <trkpt lat="42.7675" lon="1.41453">
        <ele>1733</ele>
        <time>2018-09-23T13:31:37.009Z</time>
      </trkpt>
      <trkpt lat="42.76758" lon="1.41457">
        <ele>1734</ele>
        <time>2018-09-23T13:31:47.009Z</time>
      </trkpt>
      <trkpt lat="42.76764" lon="1.4146">
        <ele>1734</ele>
        <time>2018-09-23T13:31:53.009Z</time>
      </trkpt>
      <trkpt lat="42.76768" lon="1.41451">
        <ele>1725.4210048</ele>
        <time>2018-09-23T13:32:10.009Z</time>
      </trkpt>
      <trkpt lat="42.76776" lon="1.41451">
        <ele>1723</ele>
        <time>2018-09-23T13:32:25.009Z</time>
      </trkpt>
      <trkpt lat="42.76781" lon="1.41458">
        <ele>1720</ele>
        <time>2018-09-23T13:32:34.009Z</time>
      </trkpt>
      <trkpt lat="42.76787" lon="1.41459">
        <ele>1719.4210048</ele>
        <time>2018-09-23T13:32:43.009Z</time>
      </trkpt>
      <trkpt lat="42.76796" lon="1.41464">
        <ele>1718</ele>
        <time>2018-09-23T13:32:55.009Z</time>
      </trkpt>
      <trkpt lat="42.768" lon="1.41456">
        <ele>1717</ele>
        <time>2018-09-23T13:33:08.009Z</time>
      </trkpt>
      <trkpt lat="42.76807" lon="1.41453">
        <ele>1713</ele>
        <time>2018-09-23T13:33:22.009Z</time>
      </trkpt>
      <trkpt lat="42.76811" lon="1.41446">
        <ele>1709</ele>
        <time>2018-09-23T13:33:29.009Z</time>
      </trkpt>
      <trkpt lat="42.76817" lon="1.41437">
        <ele>1703.4210048</ele>
        <time>2018-09-23T13:33:40.009Z</time>
      </trkpt>
      <trkpt lat="42.76823" lon="1.41429">
        <ele>1703</ele>
        <time>2018-09-23T13:33:52.009Z</time>
      </trkpt>
      <trkpt lat="42.76828" lon="1.41418">
        <ele>1701.2630144</ele>
        <time>2018-09-23T13:34:01.009Z</time>
      </trkpt>
      <trkpt lat="42.76834" lon="1.41411">
        <ele>1701</ele>
        <time>2018-09-23T13:34:10.009Z</time>
      </trkpt>
      <trkpt lat="42.76837" lon="1.41404">
        <ele>1707.3159808</ele>
        <time>2018-09-23T13:34:16.009Z</time>
      </trkpt>
      <trkpt lat="42.76847" lon="1.41405">
        <ele>1711</ele>
        <time>2018-09-23T13:34:28.009Z</time>
      </trkpt>
      <trkpt lat="42.76854" lon="1.41405">
        <ele>1719</ele>
        <time>2018-09-23T13:34:42.009Z</time>
      </trkpt>
      <trkpt lat="42.76857" lon="1.41398">
        <ele>1722.7369856</ele>
        <time>2018-09-23T13:34:51.009Z</time>
      </trkpt>
      <trkpt lat="42.76863" lon="1.41394">
        <ele>1724</ele>
        <time>2018-09-23T13:35:00.009Z</time>
      </trkpt>
      <trkpt lat="42.76868" lon="1.41389">
        <ele>1719</ele>
        <time>2018-09-23T13:35:15.009Z</time>
      </trkpt>
      <trkpt lat="42.76875" lon="1.4139">
        <ele>1712</ele>
        <time>2018-09-23T13:35:29.009Z</time>
      </trkpt>
      <trkpt lat="42.7688" lon="1.41394">
        <ele>1703</ele>
        <time>2018-09-23T13:35:44.009Z</time>
      </trkpt>
      <trkpt lat="42.76888" lon="1.414">
        <ele>1702</ele>
        <time>2018-09-23T13:36:05.009Z</time>
      </trkpt>
      <trkpt lat="42.76894" lon="1.41406">
        <ele>1702</ele>
        <time>2018-09-23T13:36:15.009Z</time>
      </trkpt>
      <trkpt lat="42.76901" lon="1.41401">
        <ele>1702</ele>
        <time>2018-09-23T13:36:34.009Z</time>
      </trkpt>
      <trkpt lat="42.76908" lon="1.41408">
        <ele>1701</ele>
        <time>2018-09-23T13:36:44.009Z</time>
      </trkpt>
      <trkpt lat="42.76917" lon="1.41413">
        <ele>1700</ele>
        <time>2018-09-23T13:36:58.009Z</time>
      </trkpt>
      <trkpt lat="42.76917" lon="1.41404">
        <ele>1701</ele>
        <time>2018-09-23T13:37:10.009Z</time>
      </trkpt>
      <trkpt lat="42.76917" lon="1.41397">
        <ele>1709</ele>
        <time>2018-09-23T13:37:17.009Z</time>
      </trkpt>
      <trkpt lat="42.76923" lon="1.41392">
        <ele>1708</ele>
        <time>2018-09-23T13:37:30.009Z</time>
      </trkpt>
      <trkpt lat="42.7693" lon="1.41394">
        <ele>1710</ele>
        <time>2018-09-23T13:37:40.009Z</time>
      </trkpt>
      <trkpt lat="42.76929" lon="1.41386">
        <ele>1713</ele>
        <time>2018-09-23T13:37:54.009Z</time>
      </trkpt>
      <trkpt lat="42.76933" lon="1.41378">
        <ele>1711</ele>
        <time>2018-09-23T13:38:26.009Z</time>
      </trkpt>
      <trkpt lat="42.76933" lon="1.41368">
        <ele>1709</ele>
        <time>2018-09-23T13:38:38.009Z</time>
      </trkpt>
      <trkpt lat="42.76935" lon="1.41359">
        <ele>1710</ele>
        <time>2018-09-23T13:38:49.009Z</time>
      </trkpt>
      <trkpt lat="42.76943" lon="1.41353">
        <ele>1707</ele>
        <time>2018-09-23T13:39:03.009Z</time>
      </trkpt>
      <trkpt lat="42.76945" lon="1.41343">
        <ele>1709</ele>
        <time>2018-09-23T13:39:17.009Z</time>
      </trkpt>
      <trkpt lat="42.76947" lon="1.41336">
        <ele>1714.7369856</ele>
        <time>2018-09-23T13:39:26.009Z</time>
      </trkpt>
      <trkpt lat="42.76947" lon="1.41328">
        <ele>1714</ele>
        <time>2018-09-23T13:39:36.009Z</time>
      </trkpt>
      <trkpt lat="42.76949" lon="1.41322">
        <ele>1711</ele>
        <time>2018-09-23T13:39:43.009Z</time>
      </trkpt>
      <trkpt lat="42.76952" lon="1.41317">
        <ele>1708</ele>
        <time>2018-09-23T13:39:50.009Z</time>
      </trkpt>
      <trkpt lat="42.76954" lon="1.41308">
        <ele>1704</ele>
        <time>2018-09-23T13:39:59.009Z</time>
      </trkpt>
      <trkpt lat="42.76958" lon="1.413">
        <ele>1698</ele>
        <time>2018-09-23T13:40:10.009Z</time>
      </trkpt>
      <trkpt lat="42.76959" lon="1.4129">
        <ele>1695</ele>
        <time>2018-09-23T13:40:23.009Z</time>
      </trkpt>
      <trkpt lat="42.7696" lon="1.4128">
        <ele>1694</ele>
        <time>2018-09-23T13:40:32.009Z</time>
      </trkpt>
      <trkpt lat="42.76958" lon="1.41273">
        <ele>1694</ele>
        <time>2018-09-23T13:40:38.009Z</time>
      </trkpt>
      <trkpt lat="42.76963" lon="1.41265">
        <ele>1693</ele>
        <time>2018-09-23T13:40:48.009Z</time>
      </trkpt>
      <trkpt lat="42.76968" lon="1.41256">
        <ele>1694</ele>
        <time>2018-09-23T13:41:00.009Z</time>
      </trkpt>
      <trkpt lat="42.76973" lon="1.41252">
        <ele>1689</ele>
        <time>2018-09-23T13:41:08.009Z</time>
      </trkpt>
      <trkpt lat="42.76976" lon="1.41247">
        <ele>1686</ele>
        <time>2018-09-23T13:41:17.009Z</time>
      </trkpt>
      <trkpt lat="42.76979" lon="1.41242">
        <ele>1684</ele>
        <time>2018-09-23T13:41:24.009Z</time>
      </trkpt>
      <trkpt lat="42.76981" lon="1.41236">
        <ele>1681.8420096</ele>
        <time>2018-09-23T13:41:31.009Z</time>
      </trkpt>
      <trkpt lat="42.76984" lon="1.4123">
        <ele>1680</ele>
        <time>2018-09-23T13:41:39.009Z</time>
      </trkpt>
      <trkpt lat="42.76987" lon="1.41225">
        <ele>1676</ele>
        <time>2018-09-23T13:41:49.009Z</time>
      </trkpt>
      <trkpt lat="42.76989" lon="1.41219">
        <ele>1676</ele>
        <time>2018-09-23T13:41:55.009Z</time>
      </trkpt>
      <trkpt lat="42.7699" lon="1.41212">
        <ele>1675</ele>
        <time>2018-09-23T13:42:04.009Z</time>
      </trkpt>
      <trkpt lat="42.76994" lon="1.41209">
        <ele>1673.8505119983</ele>
        <time>2018-09-23T13:42:11.009Z</time>
      </trkpt>
      <trkpt lat="42.76999" lon="1.41207">
        <ele>1673</ele>
        <time>2018-09-23T13:42:20.009Z</time>
      </trkpt>
      <trkpt lat="42.77002" lon="1.41211">
        <ele>1767</ele>
        <time>2018-09-23T13:42:27.009Z</time>
      </trkpt>
      <trkpt lat="42.77004" lon="1.41214">
        <ele>1763.4210048</ele>
        <time>2018-09-23T13:42:32.009Z</time>
      </trkpt>
      <trkpt lat="42.77009" lon="1.41218">
        <ele>1762</ele>
        <time>2018-09-23T13:42:47.009Z</time>
      </trkpt>
      <trkpt lat="42.77011" lon="1.41222">
        <ele>1760.8420096</ele>
        <time>2018-09-23T13:42:51.009Z</time>
      </trkpt>
      <trkpt lat="42.77012" lon="1.41225">
        <ele>1760</ele>
        <time>2018-09-23T13:42:56.009Z</time>
      </trkpt>
      <trkpt lat="42.77015" lon="1.41224">
        <ele>1758</ele>
        <time>2018-09-23T13:43:03.009Z</time>
      </trkpt>
      <trkpt lat="42.77016" lon="1.4122">
        <ele>1758</ele>
        <time>2018-09-23T13:43:07.009Z</time>
      </trkpt>
      <trkpt lat="42.77019" lon="1.41219">
        <ele>1756</ele>
        <time>2018-09-23T13:43:18.009Z</time>
      </trkpt>
      <trkpt lat="42.7702" lon="1.41216">
        <ele>1753</ele>
        <time>2018-09-23T13:43:22.009Z</time>
      </trkpt>
      <trkpt lat="42.77022" lon="1.41214">
        <ele>1752.4210048</ele>
        <time>2018-09-23T13:43:26.009Z</time>
      </trkpt>
      <trkpt lat="42.77025" lon="1.41213">
        <ele>1751</ele>
        <time>2018-09-23T13:43:33.009Z</time>
      </trkpt>
      <trkpt lat="42.77028" lon="1.41212">
        <ele>1751</ele>
        <time>2018-09-23T13:43:38.009Z</time>
      </trkpt>
      <trkpt lat="42.77028" lon="1.41216">
        <ele>1752.5789952</ele>
        <time>2018-09-23T13:43:42.009Z</time>
      </trkpt>
      <trkpt lat="42.77029" lon="1.41225">
        <ele>1756</ele>
        <time>2018-09-23T13:43:50.009Z</time>
      </trkpt>
      <trkpt lat="42.77034" lon="1.41228">
        <ele>1758</ele>
        <time>2018-09-23T13:43:59.009Z</time>
      </trkpt>
      <trkpt lat="42.7704" lon="1.41232">
        <ele>1758</ele>
        <time>2018-09-23T13:44:06.009Z</time>
      </trkpt>
      <trkpt lat="42.77044" lon="1.41238">
        <ele>1758.5789952</ele>
        <time>2018-09-23T13:44:15.009Z</time>
      </trkpt>
      <trkpt lat="42.77046" lon="1.41242">
        <ele>1759.4210048</ele>
        <time>2018-09-23T13:44:21.009Z</time>
      </trkpt>
      <trkpt lat="42.77047" lon="1.41246">
        <ele>1761.5789952</ele>
        <time>2018-09-23T13:44:28.009Z</time>
      </trkpt>
      <trkpt lat="42.77047" lon="1.41251">
        <ele>1759</ele>
        <time>2018-09-23T13:44:33.009Z</time>
      </trkpt>
      <trkpt lat="42.7705" lon="1.4126">
        <ele>1758</ele>
        <time>2018-09-23T13:44:40.009Z</time>
      </trkpt>
      <trkpt lat="42.77055" lon="1.41265">
        <ele>1757</ele>
        <time>2018-09-23T13:44:47.009Z</time>
      </trkpt>
      <trkpt lat="42.77064" lon="1.41265">
        <ele>1752</ele>
        <time>2018-09-23T13:45:07.009Z</time>
      </trkpt>
      <trkpt lat="42.77069" lon="1.41272">
        <ele>1750</ele>
        <time>2018-09-23T13:45:17.009Z</time>
      </trkpt>
      <trkpt lat="42.77073" lon="1.41267">
        <ele>1747.8420096</ele>
        <time>2018-09-23T13:45:31.009Z</time>
      </trkpt>
      <trkpt lat="42.77074" lon="1.41257">
        <ele>1744</ele>
        <time>2018-09-23T13:45:43.009Z</time>
      </trkpt>
      <trkpt lat="42.7708" lon="1.41253">
        <ele>1743</ele>
        <time>2018-09-23T13:45:56.009Z</time>
      </trkpt>
      <trkpt lat="42.77081" lon="1.41244">
        <ele>1777</ele>
        <time>2018-09-23T13:46:06.009Z</time>
      </trkpt>
      <trkpt lat="42.7708" lon="1.41236">
        <ele>1777.5789952</ele>
        <time>2018-09-23T13:46:16.009Z</time>
      </trkpt>
      <trkpt lat="42.77082" lon="1.41231">
        <ele>1779</ele>
        <time>2018-09-23T13:46:21.009Z</time>
      </trkpt>
      <trkpt lat="42.77088" lon="1.41229">
        <ele>1783.1579904</ele>
        <time>2018-09-23T13:46:31.009Z</time>
      </trkpt>
      <trkpt lat="42.77093" lon="1.41227">
        <ele>1786</ele>
        <time>2018-09-23T13:46:38.009Z</time>
      </trkpt>
      <trkpt lat="42.77095" lon="1.41221">
        <ele>1792</ele>
        <time>2018-09-23T13:46:45.009Z</time>
      </trkpt>
      <trkpt lat="42.77101" lon="1.41216">
        <ele>1796</ele>
        <time>2018-09-23T13:46:52.009Z</time>
      </trkpt>
      <trkpt lat="42.77106" lon="1.41212">
        <ele>1797.5789952</ele>
        <time>2018-09-23T13:46:57.009Z</time>
      </trkpt>
      <trkpt lat="42.7711" lon="1.41208">
        <ele>1799</ele>
        <time>2018-09-23T13:47:02.009Z</time>
      </trkpt>
      <trkpt lat="42.77115" lon="1.41206">
        <ele>1800</ele>
        <time>2018-09-23T13:47:06.009Z</time>
      </trkpt>
      <trkpt lat="42.7712" lon="1.41206">
        <ele>1801.5789952</ele>
        <time>2018-09-23T13:47:11.009Z</time>
      </trkpt>
      <trkpt lat="42.77125" lon="1.41209">
        <ele>1803.5789952</ele>
        <time>2018-09-23T13:47:17.009Z</time>
      </trkpt>
      <trkpt lat="42.7713" lon="1.41207">
        <ele>1808</ele>
        <time>2018-09-23T13:47:22.009Z</time>
      </trkpt>
      <trkpt lat="42.77135" lon="1.41208">
        <ele>1812</ele>
        <time>2018-09-23T13:47:28.009Z</time>
      </trkpt>
      <trkpt lat="42.77138" lon="1.41207">
        <ele>1819.7369856</ele>
        <time>2018-09-23T13:47:32.009Z</time>
      </trkpt>
      <trkpt lat="42.77143" lon="1.41209">
        <ele>1826.5789952</ele>
        <time>2018-09-23T13:47:37.009Z</time>
      </trkpt>
      <trkpt lat="42.77145" lon="1.41209">
        <ele>1829</ele>
        <time>2018-09-23T13:47:40.009Z</time>
      </trkpt>
      <trkpt lat="42.77148" lon="1.41209">
        <ele>1832</ele>
        <time>2018-09-23T13:47:44.009Z</time>
      </trkpt>
      <trkpt lat="42.77155" lon="1.41213">
        <ele>1835</ele>
        <time>2018-09-23T13:47:53.009Z</time>
      </trkpt>
      <trkpt lat="42.77161" lon="1.41212">
        <ele>1835.4210048</ele>
        <time>2018-09-23T13:48:01.009Z</time>
      </trkpt>
      <trkpt lat="42.77165" lon="1.41208">
        <ele>1837</ele>
        <time>2018-09-23T13:48:08.009Z</time>
      </trkpt>
      <trkpt lat="42.77169" lon="1.41204">
        <ele>1840</ele>
        <time>2018-09-23T13:48:14.009Z</time>
      </trkpt>
      <trkpt lat="42.77177" lon="1.41199">
        <ele>1843</ele>
        <time>2018-09-23T13:48:28.009Z</time>
      </trkpt>
      <trkpt lat="42.77183" lon="1.41193">
        <ele>1843</ele>
        <time>2018-09-23T13:48:41.009Z</time>
      </trkpt>
      <trkpt lat="42.77188" lon="1.41195">
        <ele>1843</ele>
        <time>2018-09-23T13:48:48.009Z</time>
      </trkpt>
      <trkpt lat="42.77189" lon="1.41189">
        <ele>1841</ele>
        <time>2018-09-23T13:48:57.009Z</time>
      </trkpt>
      <trkpt lat="42.77194" lon="1.41186">
        <ele>1841</ele>
        <time>2018-09-23T13:49:08.009Z</time>
      </trkpt>
      <trkpt lat="42.77199" lon="1.41181">
        <ele>1843</ele>
        <time>2018-09-23T13:49:17.009Z</time>
      </trkpt>
      <trkpt lat="42.77205" lon="1.41181">
        <ele>1846</ele>
        <time>2018-09-23T13:49:26.009Z</time>
      </trkpt>
      <trkpt lat="42.77213" lon="1.4118">
        <ele>1846</ele>
        <time>2018-09-23T13:49:33.009Z</time>
      </trkpt>
      <trkpt lat="42.7722" lon="1.41177">
        <ele>1849</ele>
        <time>2018-09-23T13:49:43.009Z</time>
      </trkpt>
      <trkpt lat="42.77227" lon="1.41174">
        <ele>1853.7369856</ele>
        <time>2018-09-23T13:49:51.009Z</time>
      </trkpt>
      <trkpt lat="42.77236" lon="1.41173">
        <ele>1861.5789952</ele>
        <time>2018-09-23T13:50:01.009Z</time>
      </trkpt>
      <trkpt lat="42.7724" lon="1.41173">
        <ele>1865.5789952</ele>
        <time>2018-09-23T13:50:05.009Z</time>
      </trkpt>
      <trkpt lat="42.77245" lon="1.41172">
        <ele>1867.5789952</ele>
        <time>2018-09-23T13:50:10.009Z</time>
      </trkpt>
      <trkpt lat="42.77249" lon="1.4117">
        <ele>1870</ele>
        <time>2018-09-23T13:50:15.009Z</time>
      </trkpt>
      <trkpt lat="42.77253" lon="1.41171">
        <ele>1876.5789952</ele>
        <time>2018-09-23T13:50:24.009Z</time>
      </trkpt>
      <trkpt lat="42.7725" lon="1.41171">
        <ele>1887</ele>
        <time>2018-09-23T13:51:38.009Z</time>
      </trkpt>
      <trkpt lat="42.77248" lon="1.41166">
        <ele>1889</ele>
        <time>2018-09-23T13:51:43.009Z</time>
      </trkpt>
      <trkpt lat="42.77246" lon="1.41161">
        <ele>1892</ele>
        <time>2018-09-23T13:51:47.009Z</time>
      </trkpt>
      <trkpt lat="42.77245" lon="1.41155">
        <ele>1893.1579904</ele>
        <time>2018-09-23T13:51:51.009Z</time>
      </trkpt>
      <trkpt lat="42.77244" lon="1.4115">
        <ele>1896.894976</ele>
        <time>2018-09-23T13:51:56.009Z</time>
      </trkpt>
      <trkpt lat="42.77244" lon="1.41143">
        <ele>1902</ele>
        <time>2018-09-23T13:52:03.009Z</time>
      </trkpt>
      <trkpt lat="42.77243" lon="1.41136">
        <ele>1903</ele>
        <time>2018-09-23T13:52:09.009Z</time>
      </trkpt>
      <trkpt lat="42.77241" lon="1.41131">
        <ele>1903</ele>
        <time>2018-09-23T13:52:15.009Z</time>
      </trkpt>
      <trkpt lat="42.77241" lon="1.41127">
        <ele>1906</ele>
        <time>2018-09-23T13:52:59.009Z</time>
      </trkpt>
      <trkpt lat="42.7724" lon="1.4112">
        <ele>1917</ele>
        <time>2018-09-23T13:53:32.009Z</time>
      </trkpt>
      <trkpt lat="42.77239" lon="1.41114">
        <ele>1917</ele>
        <time>2018-09-23T13:53:36.009Z</time>
      </trkpt>
      <trkpt lat="42.77241" lon="1.41108">
        <ele>1917.5789952</ele>
        <time>2018-09-23T13:53:41.009Z</time>
      </trkpt>
      <trkpt lat="42.77239" lon="1.41103">
        <ele>1918</ele>
        <time>2018-09-23T13:53:45.009Z</time>
      </trkpt>
      <trkpt lat="42.77238" lon="1.41097">
        <ele>1918</ele>
        <time>2018-09-23T13:53:49.009Z</time>
      </trkpt>
      <trkpt lat="42.77238" lon="1.41091">
        <ele>1921</ele>
        <time>2018-09-23T13:53:53.009Z</time>
      </trkpt>
      <trkpt lat="42.77238" lon="1.41085">
        <ele>1922.1579904</ele>
        <time>2018-09-23T13:53:56.009Z</time>
      </trkpt>
      <trkpt lat="42.77235" lon="1.4108">
        <ele>1924.1579904</ele>
        <time>2018-09-23T13:54:01.009Z</time>
      </trkpt>
      <trkpt lat="42.77231" lon="1.41077">
        <ele>1925</ele>
        <time>2018-09-23T13:54:06.009Z</time>
      </trkpt>
      <trkpt lat="42.77228" lon="1.41075">
        <ele>1925</ele>
        <time>2018-09-23T13:54:10.009Z</time>
      </trkpt>
      <trkpt lat="42.77225" lon="1.41072">
        <ele>1927</ele>
        <time>2018-09-23T13:54:13.009Z</time>
      </trkpt>
      <trkpt lat="42.77222" lon="1.41068">
        <ele>1927</ele>
        <time>2018-09-23T13:54:17.009Z</time>
      </trkpt>
      <trkpt lat="42.77219" lon="1.41064">
        <ele>1927</ele>
        <time>2018-09-23T13:54:20.009Z</time>
      </trkpt>
      <trkpt lat="42.77217" lon="1.4106">
        <ele>1929</ele>
        <time>2018-09-23T13:54:24.009Z</time>
      </trkpt>
      <trkpt lat="42.77215" lon="1.41056">
        <ele>1929</ele>
        <time>2018-09-23T13:54:27.009Z</time>
      </trkpt>
      <trkpt lat="42.77213" lon="1.41052">
        <ele>1929</ele>
        <time>2018-09-23T13:54:30.009Z</time>
      </trkpt>
      <trkpt lat="42.77209" lon="1.41049">
        <ele>1929</ele>
        <time>2018-09-23T13:54:35.009Z</time>
      </trkpt>
      <trkpt lat="42.77207" lon="1.41041">
        <ele>1929</ele>
        <time>2018-09-23T13:54:40.009Z</time>
      </trkpt>
      <trkpt lat="42.77203" lon="1.41039">
        <ele>1931</ele>
        <time>2018-09-23T13:54:44.009Z</time>
      </trkpt>
      <trkpt lat="42.77199" lon="1.41039">
        <ele>1931</ele>
        <time>2018-09-23T13:54:48.009Z</time>
      </trkpt>
      <trkpt lat="42.77195" lon="1.41036">
        <ele>1935</ele>
        <time>2018-09-23T13:54:52.009Z</time>
      </trkpt>
      <trkpt lat="42.77193" lon="1.41032">
        <ele>1936.7369856</ele>
        <time>2018-09-23T13:54:56.009Z</time>
      </trkpt>
      <trkpt lat="42.77191" lon="1.41027">
        <ele>1938</ele>
        <time>2018-09-23T13:55:02.009Z</time>
      </trkpt>
      <trkpt lat="42.7719" lon="1.41023">
        <ele>1938</ele>
        <time>2018-09-23T13:55:05.009Z</time>
      </trkpt>
      <trkpt lat="42.7719" lon="1.41018">
        <ele>1939</ele>
        <time>2018-09-23T13:55:08.009Z</time>
      </trkpt>
      <trkpt lat="42.77188" lon="1.41012">
        <ele>1940</ele>
        <time>2018-09-23T13:55:12.009Z</time>
      </trkpt>
      <trkpt lat="42.77188" lon="1.41006">
        <ele>1940</ele>
        <time>2018-09-23T13:55:16.009Z</time>
      </trkpt>
      <trkpt lat="42.7719" lon="1.40999">
        <ele>1940</ele>
        <time>2018-09-23T13:55:20.009Z</time>
      </trkpt>
      <trkpt lat="42.7719" lon="1.40993">
        <ele>1943</ele>
        <time>2018-09-23T13:55:23.009Z</time>
      </trkpt>
      <trkpt lat="42.77189" lon="1.40989">
        <ele>1943.5789952</ele>
        <time>2018-09-23T13:55:26.009Z</time>
      </trkpt>
      <trkpt lat="42.77189" lon="1.40983">
        <ele>1944</ele>
        <time>2018-09-23T13:55:29.009Z</time>
      </trkpt>
      <trkpt lat="42.7719" lon="1.40977">
        <ele>1945</ele>
        <time>2018-09-23T13:55:32.009Z</time>
      </trkpt>
      <trkpt lat="42.77188" lon="1.40971">
        <ele>1945</ele>
        <time>2018-09-23T13:55:35.009Z</time>
      </trkpt>
      <trkpt lat="42.77187" lon="1.40966">
        <ele>1945</ele>
        <time>2018-09-23T13:55:39.009Z</time>
      </trkpt>
      <trkpt lat="42.77188" lon="1.4096">
        <ele>1945</ele>
        <time>2018-09-23T13:55:44.009Z</time>
      </trkpt>
      <trkpt lat="42.77188" lon="1.40955">
        <ele>1944.4210048</ele>
        <time>2018-09-23T13:55:51.009Z</time>
      </trkpt>
      <trkpt lat="42.7719" lon="1.40948">
        <ele>1944</ele>
        <time>2018-09-23T13:55:56.009Z</time>
      </trkpt>
      <trkpt lat="42.77188" lon="1.40943">
        <ele>1944</ele>
        <time>2018-09-23T13:56:01.009Z</time>
      </trkpt>
      <trkpt lat="42.77187" lon="1.40938">
        <ele>1944</ele>
        <time>2018-09-23T13:56:04.009Z</time>
      </trkpt>
      <trkpt lat="42.77187" lon="1.40934">
        <ele>1944</ele>
        <time>2018-09-23T13:56:07.009Z</time>
      </trkpt>
      <trkpt lat="42.77187" lon="1.40929">
        <ele>1944</ele>
        <time>2018-09-23T13:56:10.009Z</time>
      </trkpt>
      <trkpt lat="42.77183" lon="1.40921">
        <ele>1946</ele>
        <time>2018-09-23T13:56:15.009Z</time>
      </trkpt>
      <trkpt lat="42.77176" lon="1.40919">
        <ele>1946</ele>
        <time>2018-09-23T13:56:20.009Z</time>
      </trkpt>
      <trkpt lat="42.77169" lon="1.40914">
        <ele>1947</ele>
        <time>2018-09-23T13:56:26.009Z</time>
      </trkpt>
      <trkpt lat="42.77168" lon="1.40906">
        <ele>1946</ele>
        <time>2018-09-23T13:56:32.009Z</time>
      </trkpt>
      <trkpt lat="42.77169" lon="1.409">
        <ele>1946</ele>
        <time>2018-09-23T13:56:35.009Z</time>
      </trkpt>
      <trkpt lat="42.7717" lon="1.40894">
        <ele>1946</ele>
        <time>2018-09-23T13:56:38.009Z</time>
      </trkpt>
      <trkpt lat="42.77172" lon="1.4089">
        <ele>1945.4210048</ele>
        <time>2018-09-23T13:56:41.009Z</time>
      </trkpt>
      <trkpt lat="42.77174" lon="1.40884">
        <ele>1945</ele>
        <time>2018-09-23T13:56:45.009Z</time>
      </trkpt>
      <trkpt lat="42.77176" lon="1.40878">
        <ele>1945</ele>
        <time>2018-09-23T13:56:49.009Z</time>
      </trkpt>
      <trkpt lat="42.77179" lon="1.40873">
        <ele>1947</ele>
        <time>2018-09-23T13:56:54.009Z</time>
      </trkpt>
      <trkpt lat="42.77181" lon="1.40869">
        <ele>1947</ele>
        <time>2018-09-23T13:56:57.009Z</time>
      </trkpt>
      <trkpt lat="42.77181" lon="1.40864">
        <ele>1947</ele>
        <time>2018-09-23T13:57:00.009Z</time>
      </trkpt>
      <trkpt lat="42.77183" lon="1.40858">
        <ele>1947</ele>
        <time>2018-09-23T13:57:04.009Z</time>
      </trkpt>
      <trkpt lat="42.77185" lon="1.40851">
        <ele>1947</ele>
        <time>2018-09-23T13:57:09.009Z</time>
      </trkpt>
      <trkpt lat="42.77182" lon="1.40845">
        <ele>1947</ele>
        <time>2018-09-23T13:57:16.009Z</time>
      </trkpt>
      <trkpt lat="42.77181" lon="1.40839">
        <ele>1947</ele>
        <time>2018-09-23T13:57:20.009Z</time>
      </trkpt>
      <trkpt lat="42.7718" lon="1.40834">
        <ele>1945</ele>
        <time>2018-09-23T13:57:23.009Z</time>
      </trkpt>
      <trkpt lat="42.77176" lon="1.4083">
        <ele>1945</ele>
        <time>2018-09-23T13:57:28.009Z</time>
      </trkpt>
      <trkpt lat="42.7717" lon="1.40827">
        <ele>1944</ele>
        <time>2018-09-23T13:57:35.009Z</time>
      </trkpt>
      <trkpt lat="42.77165" lon="1.40824">
        <ele>1944</ele>
        <time>2018-09-23T13:57:40.009Z</time>
      </trkpt>
      <trkpt lat="42.77162" lon="1.40819">
        <ele>1944</ele>
        <time>2018-09-23T13:57:45.009Z</time>
      </trkpt>
      <trkpt lat="42.77162" lon="1.40812">
        <ele>1944.5789952</ele>
        <time>2018-09-23T13:57:50.009Z</time>
      </trkpt>
      <trkpt lat="42.77162" lon="1.40806">
        <ele>1943</ele>
        <time>2018-09-23T13:57:55.009Z</time>
      </trkpt>
      <trkpt lat="42.77157" lon="1.40801">
        <ele>1943.4210048</ele>
        <time>2018-09-23T13:58:01.009Z</time>
      </trkpt>
      <trkpt lat="42.77156" lon="1.40795">
        <ele>1944</ele>
        <time>2018-09-23T13:58:05.009Z</time>
      </trkpt>
      <trkpt lat="42.77154" lon="1.4079">
        <ele>1944</ele>
        <time>2018-09-23T13:58:08.009Z</time>
      </trkpt>
      <trkpt lat="42.77152" lon="1.40786">
        <ele>1945</ele>
        <time>2018-09-23T13:58:12.009Z</time>
      </trkpt>
      <trkpt lat="42.77148" lon="1.40783">
        <ele>1945</ele>
        <time>2018-09-23T13:58:15.009Z</time>
      </trkpt>
      <trkpt lat="42.77143" lon="1.40776">
        <ele>1945.4210048</ele>
        <time>2018-09-23T13:58:21.009Z</time>
      </trkpt>
      <trkpt lat="42.7714" lon="1.40768">
        <ele>1946</ele>
        <time>2018-09-23T13:58:30.009Z</time>
      </trkpt>
      <trkpt lat="42.77141" lon="1.40758">
        <ele>1946</ele>
        <time>2018-09-23T13:58:40.009Z</time>
      </trkpt>
      <trkpt lat="42.77143" lon="1.40748">
        <ele>1948</ele>
        <time>2018-09-23T13:58:52.009Z</time>
      </trkpt>
      <trkpt lat="42.77136" lon="1.40744">
        <ele>1949</ele>
        <time>2018-09-23T13:59:07.009Z</time>
      </trkpt>
      <trkpt lat="42.77133" lon="1.40739">
        <ele>1950</ele>
        <time>2018-09-23T13:59:12.009Z</time>
      </trkpt>
      <trkpt lat="42.77133" lon="1.40731">
        <ele>1950</ele>
        <time>2018-09-23T13:59:17.009Z</time>
      </trkpt>
      <trkpt lat="42.77135" lon="1.40725">
        <ele>1950</ele>
        <time>2018-09-23T13:59:22.009Z</time>
      </trkpt>
      <trkpt lat="42.77134" lon="1.40716">
        <ele>1950.5789952</ele>
        <time>2018-09-23T13:59:30.009Z</time>
      </trkpt>
      <trkpt lat="42.7713" lon="1.40709">
        <ele>1950</ele>
        <time>2018-09-23T13:59:37.009Z</time>
      </trkpt>
      <trkpt lat="42.77127" lon="1.40702">
        <ele>1950</ele>
        <time>2018-09-23T13:59:45.009Z</time>
      </trkpt>
      <trkpt lat="42.77124" lon="1.40699">
        <ele>1951</ele>
        <time>2018-09-23T13:59:49.009Z</time>
      </trkpt>
      <trkpt lat="42.77121" lon="1.40693">
        <ele>1951</ele>
        <time>2018-09-23T13:59:53.009Z</time>
      </trkpt>
      <trkpt lat="42.77116" lon="1.40688">
        <ele>1951.5789952</ele>
        <time>2018-09-23T13:59:58.009Z</time>
      </trkpt>
      <trkpt lat="42.77113" lon="1.40683">
        <ele>1951</ele>
        <time>2018-09-23T14:00:02.009Z</time>
      </trkpt>
      <trkpt lat="42.77111" lon="1.4068">
        <ele>1951</ele>
        <time>2018-09-23T14:00:08.009Z</time>
      </trkpt>
      <trkpt lat="42.77107" lon="1.40676">
        <ele>1952</ele>
        <time>2018-09-23T14:00:13.009Z</time>
      </trkpt>
      <trkpt lat="42.771" lon="1.40671">
        <ele>1952.5789952</ele>
        <time>2018-09-23T14:00:20.009Z</time>
      </trkpt>
      <trkpt lat="42.77098" lon="1.40661">
        <ele>1953</ele>
        <time>2018-09-23T14:00:29.009Z</time>
      </trkpt>
      <trkpt lat="42.77094" lon="1.4066">
        <ele>1957</ele>
        <time>2018-09-23T14:00:33.009Z</time>
      </trkpt>
      <trkpt lat="42.77093" lon="1.40657">
        <ele>1958.5789952</ele>
        <time>2018-09-23T14:00:36.009Z</time>
      </trkpt>
      <trkpt lat="42.77089" lon="1.40655">
        <ele>1961</ele>
        <time>2018-09-23T14:00:43.009Z</time>
      </trkpt>
      <trkpt lat="42.77084" lon="1.40649">
        <ele>1963</ele>
        <time>2018-09-23T14:00:47.009Z</time>
      </trkpt>
      <trkpt lat="42.77081" lon="1.40643">
        <ele>1964.1579904</ele>
        <time>2018-09-23T14:00:51.009Z</time>
      </trkpt>
      <trkpt lat="42.77076" lon="1.40639">
        <ele>1965</ele>
        <time>2018-09-23T14:00:55.009Z</time>
      </trkpt>
      <trkpt lat="42.77069" lon="1.40635">
        <ele>1972.4739712</ele>
        <time>2018-09-23T14:01:01.009Z</time>
      </trkpt>
      <trkpt lat="42.77064" lon="1.40631">
        <ele>1978</ele>
        <time>2018-09-23T14:01:06.009Z</time>
      </trkpt>
      <trkpt lat="42.77061" lon="1.40626">
        <ele>1977</ele>
        <time>2018-09-23T14:01:10.009Z</time>
      </trkpt>
      <trkpt lat="42.77052" lon="1.40618">
        <ele>1977</ele>
        <time>2018-09-23T14:01:17.009Z</time>
      </trkpt>
      <trkpt lat="42.77049" lon="1.40614">
        <ele>1977</ele>
        <time>2018-09-23T14:01:20.009Z</time>
      </trkpt>
      <trkpt lat="42.77047" lon="1.4061">
        <ele>1981</ele>
        <time>2018-09-23T14:01:23.009Z</time>
      </trkpt>
      <trkpt lat="42.77042" lon="1.40607">
        <ele>1984</ele>
        <time>2018-09-23T14:01:27.009Z</time>
      </trkpt>
      <trkpt lat="42.77036" lon="1.40603">
        <ele>1985.7369856</ele>
        <time>2018-09-23T14:01:31.009Z</time>
      </trkpt>
      <trkpt lat="42.77031" lon="1.40599">
        <ele>1989</ele>
        <time>2018-09-23T14:01:36.009Z</time>
      </trkpt>
      <trkpt lat="42.77025" lon="1.40593">
        <ele>1990.5789952</ele>
        <time>2018-09-23T14:01:41.009Z</time>
      </trkpt>
      <trkpt lat="42.77019" lon="1.40591">
        <ele>1992.1579904</ele>
        <time>2018-09-23T14:01:46.009Z</time>
      </trkpt>
      <trkpt lat="42.77009" lon="1.4059">
        <ele>1995</ele>
        <time>2018-09-23T14:01:52.009Z</time>
      </trkpt>
      <trkpt lat="42.77" lon="1.40588">
        <ele>1996</ele>
        <time>2018-09-23T14:01:58.009Z</time>
      </trkpt>
      <trkpt lat="42.76989" lon="1.40584">
        <ele>1999.1579904</ele>
        <time>2018-09-23T14:02:06.009Z</time>
      </trkpt>
      <trkpt lat="42.76982" lon="1.40576">
        <ele>2004.5789952</ele>
        <time>2018-09-23T14:02:12.009Z</time>
      </trkpt>
      <trkpt lat="42.76975" lon="1.40571">
        <ele>2006</ele>
        <time>2018-09-23T14:02:18.009Z</time>
      </trkpt>
      <trkpt lat="42.76968" lon="1.40566">
        <ele>2008</ele>
        <time>2018-09-23T14:02:25.009Z</time>
      </trkpt>
      <trkpt lat="42.7696" lon="1.40569">
        <ele>2010</ele>
        <time>2018-09-23T14:02:33.009Z</time>
      </trkpt>
      <trkpt lat="42.76954" lon="1.40567">
        <ele>2012.3159808</ele>
        <time>2018-09-23T14:02:41.009Z</time>
      </trkpt>
      <trkpt lat="42.76948" lon="1.40563">
        <ele>2015</ele>
        <time>2018-09-23T14:02:47.009Z</time>
      </trkpt>
      <trkpt lat="42.76944" lon="1.40559">
        <ele>2016</ele>
        <time>2018-09-23T14:02:53.009Z</time>
      </trkpt>
      <trkpt lat="42.7694" lon="1.40553">
        <ele>2016</ele>
        <time>2018-09-23T14:02:59.009Z</time>
      </trkpt>
      <trkpt lat="42.76933" lon="1.40546">
        <ele>2019</ele>
        <time>2018-09-23T14:03:09.009Z</time>
      </trkpt>
      <trkpt lat="42.76928" lon="1.40539">
        <ele>2019</ele>
        <time>2018-09-23T14:03:13.009Z</time>
      </trkpt>
      <trkpt lat="42.76923" lon="1.40537">
        <ele>2019</ele>
        <time>2018-09-23T14:03:17.009Z</time>
      </trkpt>
      <trkpt lat="42.76916" lon="1.40532">
        <ele>2021</ele>
        <time>2018-09-23T14:03:23.009Z</time>
      </trkpt>
      <trkpt lat="42.7691" lon="1.40526">
        <ele>2021</ele>
        <time>2018-09-23T14:03:28.009Z</time>
      </trkpt>
      <trkpt lat="42.76906" lon="1.40521">
        <ele>2025</ele>
        <time>2018-09-23T14:03:32.009Z</time>
      </trkpt>
      <trkpt lat="42.76902" lon="1.40519">
        <ele>2025</ele>
        <time>2018-09-23T14:03:35.009Z</time>
      </trkpt>
      <trkpt lat="42.76897" lon="1.40514">
        <ele>2029</ele>
        <time>2018-09-23T14:03:42.009Z</time>
      </trkpt>
      <trkpt lat="42.7689" lon="1.4051">
        <ele>2031</ele>
        <time>2018-09-23T14:03:49.009Z</time>
      </trkpt>
      <trkpt lat="42.76886" lon="1.40505">
        <ele>2034</ele>
        <time>2018-09-23T14:03:54.009Z</time>
      </trkpt>
      <trkpt lat="42.76882" lon="1.40502">
        <ele>2036</ele>
        <time>2018-09-23T14:03:59.009Z</time>
      </trkpt>
      <trkpt lat="42.76878" lon="1.40499">
        <ele>2036</ele>
        <time>2018-09-23T14:04:03.009Z</time>
      </trkpt>
      <trkpt lat="42.76873" lon="1.40495">
        <ele>2036</ele>
        <time>2018-09-23T14:04:08.009Z</time>
      </trkpt>
      <trkpt lat="42.7687" lon="1.40492">
        <ele>2036.5789952</ele>
        <time>2018-09-23T14:04:11.009Z</time>
      </trkpt>
      <trkpt lat="42.76866" lon="1.40491">
        <ele>2037</ele>
        <time>2018-09-23T14:04:15.009Z</time>
      </trkpt>
      <trkpt lat="42.76862" lon="1.40489">
        <ele>2037</ele>
        <time>2018-09-23T14:04:18.009Z</time>
      </trkpt>
      <trkpt lat="42.76858" lon="1.40489">
        <ele>2035.8420096</ele>
        <time>2018-09-23T14:04:21.009Z</time>
      </trkpt>
      <trkpt lat="42.76854" lon="1.40489">
        <ele>2035</ele>
        <time>2018-09-23T14:04:24.009Z</time>
      </trkpt>
      <trkpt lat="42.76849" lon="1.40488">
        <ele>2035</ele>
        <time>2018-09-23T14:04:27.009Z</time>
      </trkpt>
      <trkpt lat="42.76845" lon="1.40487">
        <ele>2035</ele>
        <time>2018-09-23T14:04:30.009Z</time>
      </trkpt>
      <trkpt lat="42.7684" lon="1.40487">
        <ele>2031</ele>
        <time>2018-09-23T14:04:33.009Z</time>
      </trkpt>
      <trkpt lat="42.76836" lon="1.40486">
        <ele>2029.8420096</ele>
        <time>2018-09-23T14:04:36.009Z</time>
      </trkpt>
      <trkpt lat="42.76832" lon="1.40485">
        <ele>2029</ele>
        <time>2018-09-23T14:04:39.009Z</time>
      </trkpt>
      <trkpt lat="42.76828" lon="1.40484">
        <ele>2028</ele>
        <time>2018-09-23T14:04:42.009Z</time>
      </trkpt>
      <trkpt lat="42.76823" lon="1.40483">
        <ele>2028</ele>
        <time>2018-09-23T14:04:45.009Z</time>
      </trkpt>
      <trkpt lat="42.76818" lon="1.40482">
        <ele>2027</ele>
        <time>2018-09-23T14:04:48.009Z</time>
      </trkpt>
      <trkpt lat="42.76814" lon="1.4048">
        <ele>2025.8420096</ele>
        <time>2018-09-23T14:04:51.009Z</time>
      </trkpt>
      <trkpt lat="42.76809" lon="1.40478">
        <ele>2025</ele>
        <time>2018-09-23T14:04:54.009Z</time>
      </trkpt>
      <trkpt lat="42.76805" lon="1.40477">
        <ele>2024</ele>
        <time>2018-09-23T14:04:57.009Z</time>
      </trkpt>
      <trkpt lat="42.76801" lon="1.40474">
        <ele>2024</ele>
        <time>2018-09-23T14:05:00.009Z</time>
      </trkpt>
      <trkpt lat="42.76797" lon="1.40473">
        <ele>2023</ele>
        <time>2018-09-23T14:05:03.009Z</time>
      </trkpt>
      <trkpt lat="42.76793" lon="1.40471">
        <ele>2023</ele>
        <time>2018-09-23T14:05:06.009Z</time>
      </trkpt>
      <trkpt lat="42.76789" lon="1.4047">
        <ele>2023</ele>
        <time>2018-09-23T14:05:09.009Z</time>
      </trkpt>
      <trkpt lat="42.76784" lon="1.40468">
        <ele>2023</ele>
        <time>2018-09-23T14:05:13.009Z</time>
      </trkpt>
      <trkpt lat="42.76779" lon="1.40467">
        <ele>2023</ele>
        <time>2018-09-23T14:05:16.009Z</time>
      </trkpt>
      <trkpt lat="42.76774" lon="1.40465">
        <ele>2023</ele>
        <time>2018-09-23T14:05:19.009Z</time>
      </trkpt>
      <trkpt lat="42.76771" lon="1.40462">
        <ele>2021.4210048</ele>
        <time>2018-09-23T14:05:22.009Z</time>
      </trkpt>
      <trkpt lat="42.76768" lon="1.40459">
        <ele>2020.4210048</ele>
        <time>2018-09-23T14:05:25.009Z</time>
      </trkpt>
      <trkpt lat="42.76765" lon="1.40455">
        <ele>2019.4210048</ele>
        <time>2018-09-23T14:05:28.009Z</time>
      </trkpt>
      <trkpt lat="42.76762" lon="1.40452">
        <ele>2018.4210048</ele>
        <time>2018-09-23T14:05:31.009Z</time>
      </trkpt>
      <trkpt lat="42.76757" lon="1.40448">
        <ele>2016.4210048</ele>
        <time>2018-09-23T14:05:35.009Z</time>
      </trkpt>
      <trkpt lat="42.76753" lon="1.40445">
        <ele>2016</ele>
        <time>2018-09-23T14:05:38.009Z</time>
      </trkpt>
      <trkpt lat="42.76749" lon="1.40441">
        <ele>2015.5789952</ele>
        <time>2018-09-23T14:05:41.009Z</time>
      </trkpt>
      <trkpt lat="42.76747" lon="1.40437">
        <ele>2015</ele>
        <time>2018-09-23T14:05:44.009Z</time>
      </trkpt>
      <trkpt lat="42.76742" lon="1.40436">
        <ele>2014</ele>
        <time>2018-09-23T14:05:47.009Z</time>
      </trkpt>
      <trkpt lat="42.76738" lon="1.40435">
        <ele>2013</ele>
        <time>2018-09-23T14:05:50.009Z</time>
      </trkpt>
      <trkpt lat="42.76734" lon="1.40434">
        <ele>2013.4210048</ele>
        <time>2018-09-23T14:05:53.009Z</time>
      </trkpt>
      <trkpt lat="42.7673" lon="1.40431">
        <ele>2012</ele>
        <time>2018-09-23T14:05:58.009Z</time>
      </trkpt>
      <trkpt lat="42.76726" lon="1.40426">
        <ele>2011</ele>
        <time>2018-09-23T14:06:02.009Z</time>
      </trkpt>
      <trkpt lat="42.76723" lon="1.40422">
        <ele>2010</ele>
        <time>2018-09-23T14:06:05.009Z</time>
      </trkpt>
      <trkpt lat="42.76719" lon="1.4042">
        <ele>2010.1579904</ele>
        <time>2018-09-23T14:06:11.009Z</time>
      </trkpt>
      <trkpt lat="42.76713" lon="1.40418">
        <ele>2009.4210048</ele>
        <time>2018-09-23T14:06:16.009Z</time>
      </trkpt>
      <trkpt lat="42.76708" lon="1.4042">
        <ele>2008.4210048</ele>
        <time>2018-09-23T14:06:20.009Z</time>
      </trkpt>
      <trkpt lat="42.76704" lon="1.40417">
        <ele>2008</ele>
        <time>2018-09-23T14:06:25.009Z</time>
      </trkpt>
      <trkpt lat="42.76701" lon="1.40412">
        <ele>2007</ele>
        <time>2018-09-23T14:06:32.009Z</time>
      </trkpt>
      <trkpt lat="42.76699" lon="1.40407">
        <ele>2006</ele>
        <time>2018-09-23T14:06:37.009Z</time>
      </trkpt>
      <trkpt lat="42.76696" lon="1.40403">
        <ele>2008</ele>
        <time>2018-09-23T14:06:42.009Z</time>
      </trkpt>
      <trkpt lat="42.76691" lon="1.40405">
        <ele>2010.4210048</ele>
        <time>2018-09-23T14:06:52.009Z</time>
      </trkpt>
      <trkpt lat="42.76687" lon="1.40409">
        <ele>2012</ele>
        <time>2018-09-23T14:06:59.009Z</time>
      </trkpt>
      <trkpt lat="42.76682" lon="1.40408">
        <ele>2014</ele>
        <time>2018-09-23T14:07:04.009Z</time>
      </trkpt>
      <trkpt lat="42.76681" lon="1.40401">
        <ele>2013.4210048</ele>
        <time>2018-09-23T14:07:15.009Z</time>
      </trkpt>
      <trkpt lat="42.76678" lon="1.40399">
        <ele>2012.4210048</ele>
        <time>2018-09-23T14:07:21.009Z</time>
      </trkpt>
      <trkpt lat="42.76675" lon="1.40393">
        <ele>2010.4210048</ele>
        <time>2018-09-23T14:07:29.009Z</time>
      </trkpt>
      <trkpt lat="42.76676" lon="1.40386">
        <ele>2010</ele>
        <time>2018-09-23T14:07:35.009Z</time>
      </trkpt>
      <trkpt lat="42.76672" lon="1.40381">
        <ele>2009</ele>
        <time>2018-09-23T14:07:40.009Z</time>
      </trkpt>
      <trkpt lat="42.76667" lon="1.4038">
        <ele>2010</ele>
        <time>2018-09-23T14:07:45.009Z</time>
      </trkpt>
      <trkpt lat="42.76663" lon="1.40379">
        <ele>2010</ele>
        <time>2018-09-23T14:07:49.009Z</time>
      </trkpt>
      <trkpt lat="42.76659" lon="1.40373">
        <ele>2009</ele>
        <time>2018-09-23T14:07:55.009Z</time>
      </trkpt>
      <trkpt lat="42.76655" lon="1.4037">
        <ele>2009</ele>
        <time>2018-09-23T14:08:00.009Z</time>
      </trkpt>
      <trkpt lat="42.7665" lon="1.40364">
        <ele>2010</ele>
        <time>2018-09-23T14:08:07.009Z</time>
      </trkpt>
      <trkpt lat="42.76647" lon="1.40359">
        <ele>2011</ele>
        <time>2018-09-23T14:08:12.009Z</time>
      </trkpt>
      <trkpt lat="42.76644" lon="1.40355">
        <ele>2011</ele>
        <time>2018-09-23T14:08:16.009Z</time>
      </trkpt>
      <trkpt lat="42.76639" lon="1.40354">
        <ele>2011.1579904</ele>
        <time>2018-09-23T14:08:21.009Z</time>
      </trkpt>
      <trkpt lat="42.76635" lon="1.40351">
        <ele>2012</ele>
        <time>2018-09-23T14:08:26.009Z</time>
      </trkpt>
      <trkpt lat="42.76632" lon="1.40345">
        <ele>2011</ele>
        <time>2018-09-23T14:08:30.009Z</time>
      </trkpt>
      <trkpt lat="42.76628" lon="1.40341">
        <ele>2013</ele>
        <time>2018-09-23T14:08:34.009Z</time>
      </trkpt>
      <trkpt lat="42.76624" lon="1.40337">
        <ele>2012</ele>
        <time>2018-09-23T14:08:38.009Z</time>
      </trkpt>
      <trkpt lat="42.76621" lon="1.40333">
        <ele>2013.1579904</ele>
        <time>2018-09-23T14:08:41.009Z</time>
      </trkpt>
      <trkpt lat="42.76618" lon="1.4033">
        <ele>2014</ele>
        <time>2018-09-23T14:08:44.009Z</time>
      </trkpt>
      <trkpt lat="42.76615" lon="1.40327">
        <ele>2013.4210048</ele>
        <time>2018-09-23T14:08:47.009Z</time>
      </trkpt>
      <trkpt lat="42.76612" lon="1.40321">
        <ele>2015</ele>
        <time>2018-09-23T14:08:52.009Z</time>
      </trkpt>
      <trkpt lat="42.76609" lon="1.40316">
        <ele>2015</ele>
        <time>2018-09-23T14:08:56.009Z</time>
      </trkpt>
      <trkpt lat="42.76606" lon="1.40311">
        <ele>2014</ele>
        <time>2018-09-23T14:09:00.009Z</time>
      </trkpt>
      <trkpt lat="42.76603" lon="1.40304">
        <ele>2014</ele>
        <time>2018-09-23T14:09:07.009Z</time>
      </trkpt>
      <trkpt lat="42.76597" lon="1.40302">
        <ele>2015</ele>
        <time>2018-09-23T14:09:16.009Z</time>
      </trkpt>
      <trkpt lat="42.76595" lon="1.40297">
        <ele>2016</ele>
        <time>2018-09-23T14:09:22.009Z</time>
      </trkpt>
      <trkpt lat="42.76591" lon="1.40292">
        <ele>2016</ele>
        <time>2018-09-23T14:09:28.009Z</time>
      </trkpt>
      <trkpt lat="42.76587" lon="1.40288">
        <ele>2018</ele>
        <time>2018-09-23T14:09:32.009Z</time>
      </trkpt>
      <trkpt lat="42.76585" lon="1.40284">
        <ele>2018</ele>
        <time>2018-09-23T14:09:35.009Z</time>
      </trkpt>
      <trkpt lat="42.76581" lon="1.40279">
        <ele>2018</ele>
        <time>2018-09-23T14:09:39.009Z</time>
      </trkpt>
      <trkpt lat="42.76577" lon="1.40277">
        <ele>2020</ele>
        <time>2018-09-23T14:09:42.009Z</time>
      </trkpt>
      <trkpt lat="42.76572" lon="1.40274">
        <ele>2021.1579904</ele>
        <time>2018-09-23T14:09:46.009Z</time>
      </trkpt>
      <trkpt lat="42.76569" lon="1.40271">
        <ele>2022</ele>
        <time>2018-09-23T14:09:49.009Z</time>
      </trkpt>
      <trkpt lat="42.76567" lon="1.40267">
        <ele>2023</ele>
        <time>2018-09-23T14:09:52.009Z</time>
      </trkpt>
      <trkpt lat="42.76566" lon="1.40262">
        <ele>2022.5789952</ele>
        <time>2018-09-23T14:09:56.009Z</time>
      </trkpt>
      <trkpt lat="42.76565" lon="1.40258">
        <ele>2023</ele>
        <time>2018-09-23T14:10:00.009Z</time>
      </trkpt>
      <trkpt lat="42.76561" lon="1.40253">
        <ele>2024</ele>
        <time>2018-09-23T14:10:04.009Z</time>
      </trkpt>
      <trkpt lat="42.76559" lon="1.40249">
        <ele>2023</ele>
        <time>2018-09-23T14:10:07.009Z</time>
      </trkpt>
      <trkpt lat="42.76558" lon="1.40243">
        <ele>2024.1579904</ele>
        <time>2018-09-23T14:10:11.009Z</time>
      </trkpt>
      <trkpt lat="42.76554" lon="1.4024">
        <ele>2025</ele>
        <time>2018-09-23T14:10:15.009Z</time>
      </trkpt>
      <trkpt lat="42.76552" lon="1.40234">
        <ele>2024</ele>
        <time>2018-09-23T14:10:20.009Z</time>
      </trkpt>
      <trkpt lat="42.76549" lon="1.40229">
        <ele>2024</ele>
        <time>2018-09-23T14:10:25.009Z</time>
      </trkpt>
      <trkpt lat="42.76545" lon="1.40226">
        <ele>2024</ele>
        <time>2018-09-23T14:10:30.009Z</time>
      </trkpt>
      <trkpt lat="42.76543" lon="1.4022">
        <ele>2023</ele>
        <time>2018-09-23T14:10:36.009Z</time>
      </trkpt>
      <trkpt lat="42.7654" lon="1.40216">
        <ele>2023.5789952</ele>
        <time>2018-09-23T14:10:41.009Z</time>
      </trkpt>
      <trkpt lat="42.76539" lon="1.4021">
        <ele>2024</ele>
        <time>2018-09-23T14:10:45.009Z</time>
      </trkpt>
      <trkpt lat="42.76538" lon="1.40206">
        <ele>2024</ele>
        <time>2018-09-23T14:10:48.009Z</time>
      </trkpt>
      <trkpt lat="42.76536" lon="1.40202">
        <ele>2024</ele>
        <time>2018-09-23T14:10:51.009Z</time>
      </trkpt>
      <trkpt lat="42.76534" lon="1.40196">
        <ele>2024</ele>
        <time>2018-09-23T14:10:55.009Z</time>
      </trkpt>
      <trkpt lat="42.76532" lon="1.40192">
        <ele>2023.4210048</ele>
        <time>2018-09-23T14:11:00.009Z</time>
      </trkpt>
      <trkpt lat="42.7653" lon="1.40186">
        <ele>2025</ele>
        <time>2018-09-23T14:11:04.009Z</time>
      </trkpt>
      <trkpt lat="42.76529" lon="1.40182">
        <ele>2025</ele>
        <time>2018-09-23T14:11:08.009Z</time>
      </trkpt>
      <trkpt lat="42.76526" lon="1.40177">
        <ele>2026</ele>
        <time>2018-09-23T14:11:12.009Z</time>
      </trkpt>
      <trkpt lat="42.76522" lon="1.40175">
        <ele>2025</ele>
        <time>2018-09-23T14:11:24.009Z</time>
      </trkpt>
      <trkpt lat="42.76518" lon="1.4017">
        <ele>2025</ele>
        <time>2018-09-23T14:11:28.009Z</time>
      </trkpt>
      <trkpt lat="42.76515" lon="1.40166">
        <ele>2025</ele>
        <time>2018-09-23T14:11:32.009Z</time>
      </trkpt>
      <trkpt lat="42.76512" lon="1.40162">
        <ele>2025</ele>
        <time>2018-09-23T14:11:36.009Z</time>
      </trkpt>
      <trkpt lat="42.7651" lon="1.40157">
        <ele>2025</ele>
        <time>2018-09-23T14:11:40.009Z</time>
      </trkpt>
      <trkpt lat="42.76508" lon="1.40152">
        <ele>2025</ele>
        <time>2018-09-23T14:11:44.009Z</time>
      </trkpt>
      <trkpt lat="42.76504" lon="1.40148">
        <ele>2025</ele>
        <time>2018-09-23T14:11:48.009Z</time>
      </trkpt>
      <trkpt lat="42.76502" lon="1.40144">
        <ele>2024</ele>
        <time>2018-09-23T14:11:52.009Z</time>
      </trkpt>
      <trkpt lat="42.76498" lon="1.40139">
        <ele>2024</ele>
        <time>2018-09-23T14:11:58.009Z</time>
      </trkpt>
      <trkpt lat="42.76495" lon="1.40137">
        <ele>2023</ele>
        <time>2018-09-23T14:12:02.009Z</time>
      </trkpt>
      <trkpt lat="42.76494" lon="1.4013">
        <ele>2023</ele>
        <time>2018-09-23T14:12:10.009Z</time>
      </trkpt>
      <trkpt lat="42.76495" lon="1.40125">
        <ele>2024</ele>
        <time>2018-09-23T14:12:15.009Z</time>
      </trkpt>
      <trkpt lat="42.76495" lon="1.40119">
        <ele>2024</ele>
        <time>2018-09-23T14:12:23.009Z</time>
      </trkpt>
      <trkpt lat="42.76497" lon="1.40114">
        <ele>2024</ele>
        <time>2018-09-23T14:12:28.009Z</time>
      </trkpt>
      <trkpt lat="42.76498" lon="1.40109">
        <ele>2023</ele>
        <time>2018-09-23T14:12:38.009Z</time>
      </trkpt>
      <trkpt lat="42.76495" lon="1.40105">
        <ele>2022</ele>
        <time>2018-09-23T14:12:44.009Z</time>
      </trkpt>
      <trkpt lat="42.76492" lon="1.40098">
        <ele>2021.4210048</ele>
        <time>2018-09-23T14:12:51.009Z</time>
      </trkpt>
      <trkpt lat="42.76489" lon="1.40092">
        <ele>2021</ele>
        <time>2018-09-23T14:12:58.009Z</time>
      </trkpt>
      <trkpt lat="42.76486" lon="1.40086">
        <ele>2020</ele>
        <time>2018-09-23T14:13:04.009Z</time>
      </trkpt>
      <trkpt lat="42.76483" lon="1.40083">
        <ele>2020</ele>
        <time>2018-09-23T14:13:09.009Z</time>
      </trkpt>
      <trkpt lat="42.76479" lon="1.40079">
        <ele>2019</ele>
        <time>2018-09-23T14:13:16.009Z</time>
      </trkpt>
      <trkpt lat="42.76474" lon="1.40074">
        <ele>2018</ele>
        <time>2018-09-23T14:13:27.009Z</time>
      </trkpt>
      <trkpt lat="42.76474" lon="1.40069">
        <ele>2018</ele>
        <time>2018-09-23T14:13:30.009Z</time>
      </trkpt>
      <trkpt lat="42.76474" lon="1.40063">
        <ele>2017</ele>
        <time>2018-09-23T14:13:34.009Z</time>
      </trkpt>
      <trkpt lat="42.76472" lon="1.40058">
        <ele>2017</ele>
        <time>2018-09-23T14:13:39.009Z</time>
      </trkpt>
      <trkpt lat="42.76472" lon="1.40052">
        <ele>2018</ele>
        <time>2018-09-23T14:13:44.009Z</time>
      </trkpt>
      <trkpt lat="42.76472" lon="1.40046">
        <ele>2019</ele>
        <time>2018-09-23T14:13:48.009Z</time>
      </trkpt>
      <trkpt lat="42.76471" lon="1.40041">
        <ele>2021</ele>
        <time>2018-09-23T14:13:52.009Z</time>
      </trkpt>
      <trkpt lat="42.76469" lon="1.40037">
        <ele>2021</ele>
        <time>2018-09-23T14:13:56.009Z</time>
      </trkpt>
      <trkpt lat="42.76465" lon="1.40032">
        <ele>2026</ele>
        <time>2018-09-23T14:14:02.009Z</time>
      </trkpt>
      <trkpt lat="42.76462" lon="1.40027">
        <ele>2026.5789952</ele>
        <time>2018-09-23T14:14:09.009Z</time>
      </trkpt>
      <trkpt lat="42.76461" lon="1.40021">
        <ele>2027</ele>
        <time>2018-09-23T14:14:13.009Z</time>
      </trkpt>
      <trkpt lat="42.76462" lon="1.40017">
        <ele>2027</ele>
        <time>2018-09-23T14:14:17.009Z</time>
      </trkpt>
      <trkpt lat="42.76462" lon="1.40011">
        <ele>2027.5789952</ele>
        <time>2018-09-23T14:14:21.009Z</time>
      </trkpt>
      <trkpt lat="42.76459" lon="1.40006">
        <ele>2028</ele>
        <time>2018-09-23T14:14:29.009Z</time>
      </trkpt>
      <trkpt lat="42.76455" lon="1.40001">
        <ele>2032</ele>
        <time>2018-09-23T14:14:37.009Z</time>
      </trkpt>
      <trkpt lat="42.76452" lon="1.39997">
        <ele>2033</ele>
        <time>2018-09-23T14:14:44.009Z</time>
      </trkpt>
      <trkpt lat="42.76448" lon="1.39991">
        <ele>2034</ele>
        <time>2018-09-23T14:14:52.009Z</time>
      </trkpt>
      <trkpt lat="42.76447" lon="1.39986">
        <ele>2034</ele>
        <time>2018-09-23T14:14:55.009Z</time>
      </trkpt>
      <trkpt lat="42.76445" lon="1.3998">
        <ele>2034</ele>
        <time>2018-09-23T14:15:00.009Z</time>
      </trkpt>
      <trkpt lat="42.76443" lon="1.39975">
        <ele>2036</ele>
        <time>2018-09-23T14:15:04.009Z</time>
      </trkpt>
      <trkpt lat="42.76441" lon="1.39971">
        <ele>2036</ele>
        <time>2018-09-23T14:15:09.009Z</time>
      </trkpt>
      <trkpt lat="42.76439" lon="1.39966">
        <ele>2041</ele>
        <time>2018-09-23T14:15:15.009Z</time>
      </trkpt>
      <trkpt lat="42.76436" lon="1.39963">
        <ele>2057</ele>
        <time>2018-09-23T14:15:33.009Z</time>
      </trkpt>
      <trkpt lat="42.76433" lon="1.3997">
        <ele>2101</ele>
        <time>2018-09-23T14:19:37.009Z</time>
      </trkpt>
      <trkpt lat="42.76433" lon="1.39975">
        <ele>2096</ele>
        <time>2018-09-23T14:19:47.009Z</time>
      </trkpt>
      <trkpt lat="42.76433" lon="1.39979">
        <ele>2095</ele>
        <time>2018-09-23T14:19:52.009Z</time>
      </trkpt>
      <trkpt lat="42.76431" lon="1.39988">
        <ele>2093</ele>
        <time>2018-09-23T14:20:00.009Z</time>
      </trkpt>
      <trkpt lat="42.76427" lon="1.39992">
        <ele>2093</ele>
        <time>2018-09-23T14:20:04.009Z</time>
      </trkpt>
      <trkpt lat="42.76422" lon="1.39992">
        <ele>2092.4210048</ele>
        <time>2018-09-23T14:20:07.009Z</time>
      </trkpt>
      <trkpt lat="42.76414" lon="1.39993">
        <ele>2092</ele>
        <time>2018-09-23T14:20:12.009Z</time>
      </trkpt>
      <trkpt lat="42.76407" lon="1.39992">
        <ele>2092</ele>
        <time>2018-09-23T14:20:16.009Z</time>
      </trkpt>
      <trkpt lat="42.764" lon="1.39991">
        <ele>2091.4210048</ele>
        <time>2018-09-23T14:20:20.009Z</time>
      </trkpt>
      <trkpt lat="42.76392" lon="1.39992">
        <ele>2090</ele>
        <time>2018-09-23T14:20:25.009Z</time>
      </trkpt>
      <trkpt lat="42.76386" lon="1.39991">
        <ele>2090</ele>
        <time>2018-09-23T14:20:29.009Z</time>
      </trkpt>
      <trkpt lat="42.7638" lon="1.39991">
        <ele>2088</ele>
        <time>2018-09-23T14:20:33.009Z</time>
      </trkpt>
      <trkpt lat="42.76374" lon="1.39989">
        <ele>2088</ele>
        <time>2018-09-23T14:20:37.009Z</time>
      </trkpt>
      <trkpt lat="42.76368" lon="1.39983">
        <ele>2090</ele>
        <time>2018-09-23T14:20:42.009Z</time>
      </trkpt>
      <trkpt lat="42.76361" lon="1.39981">
        <ele>2089</ele>
        <time>2018-09-23T14:20:48.009Z</time>
      </trkpt>
      <trkpt lat="42.76355" lon="1.3998">
        <ele>2090</ele>
        <time>2018-09-23T14:20:54.009Z</time>
      </trkpt>
      <trkpt lat="42.76348" lon="1.39981">
        <ele>2089</ele>
        <time>2018-09-23T14:20:59.009Z</time>
      </trkpt>
      <trkpt lat="42.76341" lon="1.39982">
        <ele>2089</ele>
        <time>2018-09-23T14:21:06.009Z</time>
      </trkpt>
      <trkpt lat="42.76335" lon="1.39983">
        <ele>2089</ele>
        <time>2018-09-23T14:21:12.009Z</time>
      </trkpt>
      <trkpt lat="42.76328" lon="1.39981">
        <ele>2088</ele>
        <time>2018-09-23T14:21:17.009Z</time>
      </trkpt>
      <trkpt lat="42.76321" lon="1.39983">
        <ele>2085</ele>
        <time>2018-09-23T14:21:24.009Z</time>
      </trkpt>
      <trkpt lat="42.76314" lon="1.39984">
        <ele>2083</ele>
        <time>2018-09-23T14:21:30.009Z</time>
      </trkpt>
      <trkpt lat="42.76308" lon="1.39985">
        <ele>2080.4210048</ele>
        <time>2018-09-23T14:21:36.009Z</time>
      </trkpt>
      <trkpt lat="42.76302" lon="1.39986">
        <ele>2079</ele>
        <time>2018-09-23T14:21:44.009Z</time>
      </trkpt>
      <trkpt lat="42.76296" lon="1.39986">
        <ele>2078</ele>
        <time>2018-09-23T14:21:48.009Z</time>
      </trkpt>
      <trkpt lat="42.76289" lon="1.39983">
        <ele>2077</ele>
        <time>2018-09-23T14:21:55.009Z</time>
      </trkpt>
      <trkpt lat="42.76283" lon="1.39979">
        <ele>2075</ele>
        <time>2018-09-23T14:22:00.009Z</time>
      </trkpt>
      <trkpt lat="42.76276" lon="1.39976">
        <ele>2074</ele>
        <time>2018-09-23T14:22:06.009Z</time>
      </trkpt>
      <trkpt lat="42.76272" lon="1.39975">
        <ele>2074</ele>
        <time>2018-09-23T14:22:09.009Z</time>
      </trkpt>
      <trkpt lat="42.76265" lon="1.39973">
        <ele>2074</ele>
        <time>2018-09-23T14:22:14.009Z</time>
      </trkpt>
      <trkpt lat="42.7626" lon="1.39971">
        <ele>2073</ele>
        <time>2018-09-23T14:22:19.009Z</time>
      </trkpt>
      <trkpt lat="42.76253" lon="1.39972">
        <ele>2073</ele>
        <time>2018-09-23T14:22:24.009Z</time>
      </trkpt>
      <trkpt lat="42.76246" lon="1.3997">
        <ele>2071.4210048</ele>
        <time>2018-09-23T14:22:32.009Z</time>
      </trkpt>
      <trkpt lat="42.76239" lon="1.3997">
        <ele>2071</ele>
        <time>2018-09-23T14:22:37.009Z</time>
      </trkpt>
      <trkpt lat="42.76233" lon="1.39972">
        <ele>2070</ele>
        <time>2018-09-23T14:22:42.009Z</time>
      </trkpt>
      <trkpt lat="42.76225" lon="1.39973">
        <ele>2070</ele>
        <time>2018-09-23T14:22:49.009Z</time>
      </trkpt>
      <trkpt lat="42.76217" lon="1.39973">
        <ele>2067.4210048</ele>
        <time>2018-09-23T14:22:56.009Z</time>
      </trkpt>
      <trkpt lat="42.76212" lon="1.3997">
        <ele>2066</ele>
        <time>2018-09-23T14:23:00.009Z</time>
      </trkpt>
      <trkpt lat="42.76205" lon="1.39972">
        <ele>2066</ele>
        <time>2018-09-23T14:23:06.009Z</time>
      </trkpt>
      <trkpt lat="42.76197" lon="1.39974">
        <ele>2066</ele>
        <time>2018-09-23T14:23:14.009Z</time>
      </trkpt>
      <trkpt lat="42.7619" lon="1.39974">
        <ele>2066</ele>
        <time>2018-09-23T14:23:20.009Z</time>
      </trkpt>
      <trkpt lat="42.76185" lon="1.3997">
        <ele>2065</ele>
        <time>2018-09-23T14:23:25.009Z</time>
      </trkpt>
      <trkpt lat="42.76179" lon="1.39969">
        <ele>2064</ele>
        <time>2018-09-23T14:23:29.009Z</time>
      </trkpt>
      <trkpt lat="42.76171" lon="1.39969">
        <ele>2065</ele>
        <time>2018-09-23T14:23:35.009Z</time>
      </trkpt>
      <trkpt lat="42.76163" lon="1.39969">
        <ele>2066.1579904</ele>
        <time>2018-09-23T14:23:41.009Z</time>
      </trkpt>
      <trkpt lat="42.76156" lon="1.39969">
        <ele>2067.5789952</ele>
        <time>2018-09-23T14:23:46.009Z</time>
      </trkpt>
      <trkpt lat="42.7615" lon="1.39968">
        <ele>2067.4210048</ele>
        <time>2018-09-23T14:23:50.009Z</time>
      </trkpt>
      <trkpt lat="42.76143" lon="1.39965">
        <ele>2068</ele>
        <time>2018-09-23T14:23:55.009Z</time>
      </trkpt>
      <trkpt lat="42.76137" lon="1.39964">
        <ele>2070</ele>
        <time>2018-09-23T14:23:59.009Z</time>
      </trkpt>
      <trkpt lat="42.76132" lon="1.3996">
        <ele>2070</ele>
        <time>2018-09-23T14:24:04.009Z</time>
      </trkpt>
      <trkpt lat="42.76125" lon="1.39957">
        <ele>2071</ele>
        <time>2018-09-23T14:24:11.009Z</time>
      </trkpt>
      <trkpt lat="42.76119" lon="1.39954">
        <ele>2073</ele>
        <time>2018-09-23T14:24:18.009Z</time>
      </trkpt>
      <trkpt lat="42.76112" lon="1.39951">
        <ele>2086</ele>
        <time>2018-09-23T14:25:01.009Z</time>
      </trkpt>
      <trkpt lat="42.76104" lon="1.39948">
        <ele>2088</ele>
        <time>2018-09-23T14:25:07.009Z</time>
      </trkpt>
      <trkpt lat="42.76097" lon="1.39947">
        <ele>2089</ele>
        <time>2018-09-23T14:25:12.009Z</time>
      </trkpt>
      <trkpt lat="42.7609" lon="1.39946">
        <ele>2089</ele>
        <time>2018-09-23T14:25:16.009Z</time>
      </trkpt>
      <trkpt lat="42.76085" lon="1.39945">
        <ele>2089</ele>
        <time>2018-09-23T14:25:19.009Z</time>
      </trkpt>
      <trkpt lat="42.76077" lon="1.39943">
        <ele>2090</ele>
        <time>2018-09-23T14:25:24.009Z</time>
      </trkpt>
      <trkpt lat="42.76071" lon="1.39942">
        <ele>2090</ele>
        <time>2018-09-23T14:25:28.009Z</time>
      </trkpt>
      <trkpt lat="42.76063" lon="1.39941">
        <ele>2092</ele>
        <time>2018-09-23T14:25:33.009Z</time>
      </trkpt>
      <trkpt lat="42.76056" lon="1.39939">
        <ele>2091</ele>
        <time>2018-09-23T14:25:38.009Z</time>
      </trkpt>
      <trkpt lat="42.76049" lon="1.39938">
        <ele>2093</ele>
        <time>2018-09-23T14:25:43.009Z</time>
      </trkpt>
      <trkpt lat="42.76041" lon="1.39938">
        <ele>2093</ele>
        <time>2018-09-23T14:25:49.009Z</time>
      </trkpt>
      <trkpt lat="42.76035" lon="1.39937">
        <ele>2094</ele>
        <time>2018-09-23T14:25:53.009Z</time>
      </trkpt>
      <trkpt lat="42.76029" lon="1.39935">
        <ele>2093</ele>
        <time>2018-09-23T14:25:58.009Z</time>
      </trkpt>
      <trkpt lat="42.76022" lon="1.39936">
        <ele>2094</ele>
        <time>2018-09-23T14:26:03.009Z</time>
      </trkpt>
      <trkpt lat="42.76014" lon="1.39935">
        <ele>2093</ele>
        <time>2018-09-23T14:26:09.009Z</time>
      </trkpt>
      <trkpt lat="42.76006" lon="1.39932">
        <ele>2095.1579904</ele>
        <time>2018-09-23T14:26:16.009Z</time>
      </trkpt>
      <trkpt lat="42.76001" lon="1.39933">
        <ele>2097.1579904</ele>
        <time>2018-09-23T14:26:21.009Z</time>
      </trkpt>
      <trkpt lat="42.75993" lon="1.39933">
        <ele>2097</ele>
        <time>2018-09-23T14:26:27.009Z</time>
      </trkpt>
      <trkpt lat="42.75987" lon="1.39932">
        <ele>2099</ele>
        <time>2018-09-23T14:26:32.009Z</time>
      </trkpt>
      <trkpt lat="42.7598" lon="1.39931">
        <ele>2098</ele>
        <time>2018-09-23T14:26:38.009Z</time>
      </trkpt>
      <trkpt lat="42.75972" lon="1.39931">
        <ele>2099</ele>
        <time>2018-09-23T14:26:44.009Z</time>
      </trkpt>
      <trkpt lat="42.75964" lon="1.39931">
        <ele>2099</ele>
        <time>2018-09-23T14:26:51.009Z</time>
      </trkpt>
      <trkpt lat="42.75959" lon="1.39932">
        <ele>2099</ele>
        <time>2018-09-23T14:26:56.009Z</time>
      </trkpt>
      <trkpt lat="42.7595" lon="1.39931">
        <ele>2099</ele>
        <time>2018-09-23T14:27:02.009Z</time>
      </trkpt>
      <trkpt lat="42.75942" lon="1.3993">
        <ele>2099</ele>
        <time>2018-09-23T14:27:08.009Z</time>
      </trkpt>
      <trkpt lat="42.75933" lon="1.39926">
        <ele>2099</ele>
        <time>2018-09-23T14:27:15.009Z</time>
      </trkpt>
      <trkpt lat="42.75925" lon="1.39925">
        <ele>2099</ele>
        <time>2018-09-23T14:27:21.009Z</time>
      </trkpt>
      <trkpt lat="42.75918" lon="1.39923">
        <ele>2098</ele>
        <time>2018-09-23T14:27:26.009Z</time>
      </trkpt>
      <trkpt lat="42.75909" lon="1.39919">
        <ele>2098</ele>
        <time>2018-09-23T14:27:32.009Z</time>
      </trkpt>
      <trkpt lat="42.75901" lon="1.39915">
        <ele>2098</ele>
        <time>2018-09-23T14:27:38.009Z</time>
      </trkpt>
      <trkpt lat="42.75895" lon="1.39911">
        <ele>2099</ele>
        <time>2018-09-23T14:27:43.009Z</time>
      </trkpt>
      <trkpt lat="42.75889" lon="1.39906">
        <ele>2098.4210048</ele>
        <time>2018-09-23T14:27:48.009Z</time>
      </trkpt>
      <trkpt lat="42.75883" lon="1.399">
        <ele>2100</ele>
        <time>2018-09-23T14:27:53.009Z</time>
      </trkpt>
      <trkpt lat="42.75875" lon="1.39897">
        <ele>2100</ele>
        <time>2018-09-23T14:27:59.009Z</time>
      </trkpt>
      <trkpt lat="42.75866" lon="1.39891">
        <ele>2099</ele>
        <time>2018-09-23T14:28:06.009Z</time>
      </trkpt>
      <trkpt lat="42.75859" lon="1.39885">
        <ele>2100</ele>
        <time>2018-09-23T14:28:12.009Z</time>
      </trkpt>
      <trkpt lat="42.75853" lon="1.39881">
        <ele>2100</ele>
        <time>2018-09-23T14:28:17.009Z</time>
      </trkpt>
      <trkpt lat="42.75846" lon="1.39876">
        <ele>2099</ele>
        <time>2018-09-23T14:28:23.009Z</time>
      </trkpt>
      <trkpt lat="42.75839" lon="1.3987">
        <ele>2099</ele>
        <time>2018-09-23T14:28:29.009Z</time>
      </trkpt>
      <trkpt lat="42.75833" lon="1.39865">
        <ele>2100</ele>
        <time>2018-09-23T14:28:35.009Z</time>
      </trkpt>
      <trkpt lat="42.75828" lon="1.39859">
        <ele>2100</ele>
        <time>2018-09-23T14:28:40.009Z</time>
      </trkpt>
      <trkpt lat="42.75823" lon="1.39854">
        <ele>2102</ele>
        <time>2018-09-23T14:28:45.009Z</time>
      </trkpt>
      <trkpt lat="42.75818" lon="1.39849">
        <ele>2102</ele>
        <time>2018-09-23T14:28:50.009Z</time>
      </trkpt>
      <trkpt lat="42.75814" lon="1.39844">
        <ele>2104</ele>
        <time>2018-09-23T14:28:54.009Z</time>
      </trkpt>
      <trkpt lat="42.75809" lon="1.39837">
        <ele>2105</ele>
        <time>2018-09-23T14:28:59.009Z</time>
      </trkpt>
      <trkpt lat="42.75806" lon="1.39829">
        <ele>2105</ele>
        <time>2018-09-23T14:29:04.009Z</time>
      </trkpt>
      <trkpt lat="42.75801" lon="1.39821">
        <ele>2104</ele>
        <time>2018-09-23T14:29:10.009Z</time>
      </trkpt>
      <trkpt lat="42.75798" lon="1.39812">
        <ele>2107</ele>
        <time>2018-09-23T14:29:18.009Z</time>
      </trkpt>
      <trkpt lat="42.75797" lon="1.39801">
        <ele>2107</ele>
        <time>2018-09-23T14:29:27.009Z</time>
      </trkpt>
      <trkpt lat="42.75791" lon="1.39797">
        <ele>2108</ele>
        <time>2018-09-23T14:29:39.009Z</time>
      </trkpt>
      <trkpt lat="42.75782" lon="1.39799">
        <ele>2110</ele>
        <time>2018-09-23T14:29:47.009Z</time>
      </trkpt>
      <trkpt lat="42.75776" lon="1.39792">
        <ele>2109</ele>
        <time>2018-09-23T14:29:54.009Z</time>
      </trkpt>
      <trkpt lat="42.75772" lon="1.39788">
        <ele>2109</ele>
        <time>2018-09-23T14:29:58.009Z</time>
      </trkpt>
      <trkpt lat="42.75766" lon="1.39785">
        <ele>2111</ele>
        <time>2018-09-23T14:30:03.009Z</time>
      </trkpt>
      <trkpt lat="42.75762" lon="1.39777">
        <ele>2112</ele>
        <time>2018-09-23T14:30:11.009Z</time>
      </trkpt>
      <trkpt lat="42.75759" lon="1.39768">
        <ele>2113.1579904</ele>
        <time>2018-09-23T14:30:21.009Z</time>
      </trkpt>
      <trkpt lat="42.75751" lon="1.39763">
        <ele>2115</ele>
        <time>2018-09-23T14:30:30.009Z</time>
      </trkpt>
      <trkpt lat="42.75744" lon="1.3976">
        <ele>2113</ele>
        <time>2018-09-23T14:30:37.009Z</time>
      </trkpt>
      <trkpt lat="42.7574" lon="1.39755">
        <ele>2113</ele>
        <time>2018-09-23T14:30:41.009Z</time>
      </trkpt>
      <trkpt lat="42.75734" lon="1.39748">
        <ele>2113</ele>
        <time>2018-09-23T14:30:48.009Z</time>
      </trkpt>
      <trkpt lat="42.75728" lon="1.39741">
        <ele>2114</ele>
        <time>2018-09-23T14:30:56.009Z</time>
      </trkpt>
      <trkpt lat="42.75723" lon="1.39736">
        <ele>2114</ele>
        <time>2018-09-23T14:31:01.009Z</time>
      </trkpt>
      <trkpt lat="42.7572" lon="1.39728">
        <ele>2114</ele>
        <time>2018-09-23T14:31:10.009Z</time>
      </trkpt>
      <trkpt lat="42.75716" lon="1.3972">
        <ele>2116</ele>
        <time>2018-09-23T14:31:19.009Z</time>
      </trkpt>
      <trkpt lat="42.75713" lon="1.39712">
        <ele>2116</ele>
        <time>2018-09-23T14:31:29.009Z</time>
      </trkpt>
      <trkpt lat="42.75708" lon="1.39703">
        <ele>2119</ele>
        <time>2018-09-23T14:31:40.009Z</time>
      </trkpt>
      <trkpt lat="42.75701" lon="1.39697">
        <ele>2120.1579904</ele>
        <time>2018-09-23T14:31:51.009Z</time>
      </trkpt>
      <trkpt lat="42.75698" lon="1.39691">
        <ele>2121</ele>
        <time>2018-09-23T14:32:02.009Z</time>
      </trkpt>
      <trkpt lat="42.75694" lon="1.39682">
        <ele>2123</ele>
        <time>2018-09-23T14:32:14.009Z</time>
      </trkpt>
      <trkpt lat="42.75695" lon="1.39672">
        <ele>2124</ele>
        <time>2018-09-23T14:32:27.009Z</time>
      </trkpt>
      <trkpt lat="42.75692" lon="1.39664">
        <ele>2125</ele>
        <time>2018-09-23T14:32:37.009Z</time>
      </trkpt>
      <trkpt lat="42.75686" lon="1.39658">
        <ele>2126</ele>
        <time>2018-09-23T14:32:45.009Z</time>
      </trkpt>
      <trkpt lat="42.75678" lon="1.39658">
        <ele>2127</ele>
        <time>2018-09-23T14:32:55.009Z</time>
      </trkpt>
      <trkpt lat="42.75672" lon="1.39657">
        <ele>2130</ele>
        <time>2018-09-23T14:33:03.009Z</time>
      </trkpt>
      <trkpt lat="42.75664" lon="1.39658">
        <ele>2131</ele>
        <time>2018-09-23T14:33:12.009Z</time>
      </trkpt>
      <trkpt lat="42.75657" lon="1.39658">
        <ele>2131</ele>
        <time>2018-09-23T14:33:18.009Z</time>
      </trkpt>
      <trkpt lat="42.7565" lon="1.39654">
        <ele>2132</ele>
        <time>2018-09-23T14:33:25.009Z</time>
      </trkpt>
      <trkpt lat="42.75642" lon="1.39653">
        <ele>2132.5789952</ele>
        <time>2018-09-23T14:33:31.009Z</time>
      </trkpt>
      <trkpt lat="42.75634" lon="1.39656">
        <ele>2133</ele>
        <time>2018-09-23T14:33:39.009Z</time>
      </trkpt>
      <trkpt lat="42.75627" lon="1.39659">
        <ele>2133</ele>
        <time>2018-09-23T14:33:47.009Z</time>
      </trkpt>
      <trkpt lat="42.7562" lon="1.39664">
        <ele>2132</ele>
        <time>2018-09-23T14:33:56.009Z</time>
      </trkpt>
      <trkpt lat="42.75611" lon="1.39666">
        <ele>2128</ele>
        <time>2018-09-23T14:34:02.009Z</time>
      </trkpt>
      <trkpt lat="42.75605" lon="1.39664">
        <ele>2128</ele>
        <time>2018-09-23T14:34:11.009Z</time>
      </trkpt>
      <trkpt lat="42.75596" lon="1.39666">
        <ele>2128</ele>
        <time>2018-09-23T14:34:19.009Z</time>
      </trkpt>
      <trkpt lat="42.75589" lon="1.39668">
        <ele>2128</ele>
        <time>2018-09-23T14:34:24.009Z</time>
      </trkpt>
      <trkpt lat="42.75582" lon="1.39673">
        <ele>2128</ele>
        <time>2018-09-23T14:34:30.009Z</time>
      </trkpt>
      <trkpt lat="42.75576" lon="1.39676">
        <ele>2127</ele>
        <time>2018-09-23T14:34:35.009Z</time>
      </trkpt>
      <trkpt lat="42.75569" lon="1.39673">
        <ele>2129</ele>
        <time>2018-09-23T14:34:42.009Z</time>
      </trkpt>
      <trkpt lat="42.75562" lon="1.39674">
        <ele>2129</ele>
        <time>2018-09-23T14:34:50.009Z</time>
      </trkpt>
      <trkpt lat="42.75555" lon="1.39674">
        <ele>2132</ele>
        <time>2018-09-23T14:34:59.009Z</time>
      </trkpt>
      <trkpt lat="42.7555" lon="1.39672">
        <ele>2132.5789952</ele>
        <time>2018-09-23T14:35:11.009Z</time>
      </trkpt>
      <trkpt lat="42.75544" lon="1.39674">
        <ele>2133.5789952</ele>
        <time>2018-09-23T14:35:18.009Z</time>
      </trkpt>
      <trkpt lat="42.75537" lon="1.39678">
        <ele>2135</ele>
        <time>2018-09-23T14:35:28.009Z</time>
      </trkpt>
      <trkpt lat="42.75531" lon="1.39674">
        <ele>2137</ele>
        <time>2018-09-23T14:35:37.009Z</time>
      </trkpt>
      <trkpt lat="42.75525" lon="1.39672">
        <ele>2138</ele>
        <time>2018-09-23T14:35:43.009Z</time>
      </trkpt>
      <trkpt lat="42.75519" lon="1.39667">
        <ele>2139.5789952</ele>
        <time>2018-09-23T14:35:51.009Z</time>
      </trkpt>
      <trkpt lat="42.7551" lon="1.39666">
        <ele>2140.5789952</ele>
        <time>2018-09-23T14:36:01.009Z</time>
      </trkpt>
      <trkpt lat="42.75503" lon="1.39663">
        <ele>2141</ele>
        <time>2018-09-23T14:36:09.009Z</time>
      </trkpt>
      <trkpt lat="42.75496" lon="1.39663">
        <ele>2145</ele>
        <time>2018-09-23T14:36:19.009Z</time>
      </trkpt>
      <trkpt lat="42.75488" lon="1.39664">
        <ele>2146.5789952</ele>
        <time>2018-09-23T14:36:26.009Z</time>
      </trkpt>
      <trkpt lat="42.75481" lon="1.39669">
        <ele>2147</ele>
        <time>2018-09-23T14:36:32.009Z</time>
      </trkpt>
      <trkpt lat="42.75474" lon="1.39669">
        <ele>2147</ele>
        <time>2018-09-23T14:36:40.009Z</time>
      </trkpt>
      <trkpt lat="42.75467" lon="1.3967">
        <ele>2148</ele>
        <time>2018-09-23T14:36:47.009Z</time>
      </trkpt>
      <trkpt lat="42.75459" lon="1.39674">
        <ele>2150</ele>
        <time>2018-09-23T14:36:55.009Z</time>
      </trkpt>
      <trkpt lat="42.75451" lon="1.39673">
        <ele>2151</ele>
        <time>2018-09-23T14:37:05.009Z</time>
      </trkpt>
      <trkpt lat="42.75443" lon="1.39675">
        <ele>2152</ele>
        <time>2018-09-23T14:37:14.009Z</time>
      </trkpt>
      <trkpt lat="42.75436" lon="1.39678">
        <ele>2152</ele>
        <time>2018-09-23T14:37:21.009Z</time>
      </trkpt>
      <trkpt lat="42.75428" lon="1.39681">
        <ele>2152</ele>
        <time>2018-09-23T14:37:30.009Z</time>
      </trkpt>
      <trkpt lat="42.75421" lon="1.39679">
        <ele>2153</ele>
        <time>2018-09-23T14:37:39.009Z</time>
      </trkpt>
      <trkpt lat="42.75414" lon="1.39675">
        <ele>2155.5789952</ele>
        <time>2018-09-23T14:37:46.009Z</time>
      </trkpt>
      <trkpt lat="42.75409" lon="1.3967">
        <ele>2158</ele>
        <time>2018-09-23T14:37:54.009Z</time>
      </trkpt>
      <trkpt lat="42.75402" lon="1.39667">
        <ele>2159</ele>
        <time>2018-09-23T14:38:05.009Z</time>
      </trkpt>
      <trkpt lat="42.75395" lon="1.39664">
        <ele>2160</ele>
        <time>2018-09-23T14:38:15.009Z</time>
      </trkpt>
      <trkpt lat="42.75389" lon="1.39661">
        <ele>2161.7197931716</ele>
        <time>2018-09-23T14:38:21.009Z</time>
      </trkpt>
      <trkpt lat="42.75386" lon="1.39656">
        <ele>2164</ele>
        <time>2018-09-23T14:38:28.009Z</time>
      </trkpt>
      <trkpt lat="42.75379" lon="1.39652">
        <ele>2164</ele>
        <time>2018-09-23T14:38:36.009Z</time>
      </trkpt>
      <trkpt lat="42.75376" lon="1.39648">
        <ele>2165.1579904</ele>
        <time>2018-09-23T14:38:41.009Z</time>
      </trkpt>
      <trkpt lat="42.75372" lon="1.39643">
        <ele>2169</ele>
        <time>2018-09-23T14:38:50.009Z</time>
      </trkpt>
      <trkpt lat="42.75367" lon="1.39642">
        <ele>2170</ele>
        <time>2018-09-23T14:38:58.009Z</time>
      </trkpt>
      <trkpt lat="42.75362" lon="1.39641">
        <ele>2171</ele>
        <time>2018-09-23T14:39:02.009Z</time>
      </trkpt>
      <trkpt lat="42.75357" lon="1.39639">
        <ele>2172</ele>
        <time>2018-09-23T14:39:09.009Z</time>
      </trkpt>
      <trkpt lat="42.7535" lon="1.39634">
        <ele>2175</ele>
        <time>2018-09-23T14:39:19.009Z</time>
      </trkpt>
      <trkpt lat="42.75346" lon="1.39628">
        <ele>2175</ele>
        <time>2018-09-23T14:39:26.009Z</time>
      </trkpt>
      <trkpt lat="42.75341" lon="1.39625">
        <ele>2175</ele>
        <time>2018-09-23T14:39:30.009Z</time>
      </trkpt>
      <trkpt lat="42.75336" lon="1.39622">
        <ele>2178.5789952</ele>
        <time>2018-09-23T14:39:36.009Z</time>
      </trkpt>
      <trkpt lat="42.7533" lon="1.39621">
        <ele>2179</ele>
        <time>2018-09-23T14:39:40.009Z</time>
      </trkpt>
      <trkpt lat="42.75325" lon="1.39617">
        <ele>2181</ele>
        <time>2018-09-23T14:39:48.009Z</time>
      </trkpt>
      <trkpt lat="42.75321" lon="1.39614">
        <ele>2181</ele>
        <time>2018-09-23T14:39:52.009Z</time>
      </trkpt>
      <trkpt lat="42.75317" lon="1.39611">
        <ele>2181</ele>
        <time>2018-09-23T14:39:58.009Z</time>
      </trkpt>
      <trkpt lat="42.75313" lon="1.39607">
        <ele>2182</ele>
        <time>2018-09-23T14:40:02.009Z</time>
      </trkpt>
      <trkpt lat="42.75308" lon="1.39601">
        <ele>2184</ele>
        <time>2018-09-23T14:40:14.009Z</time>
      </trkpt>
      <trkpt lat="42.75305" lon="1.39599">
        <ele>2184</ele>
        <time>2018-09-23T14:40:18.009Z</time>
      </trkpt>
      <trkpt lat="42.753" lon="1.39597">
        <ele>2185</ele>
        <time>2018-09-23T14:40:22.009Z</time>
      </trkpt>
      <trkpt lat="42.75291" lon="1.39593">
        <ele>2185.5789952</ele>
        <time>2018-09-23T14:40:30.009Z</time>
      </trkpt>
      <trkpt lat="42.75285" lon="1.39591">
        <ele>2187</ele>
        <time>2018-09-23T14:40:36.009Z</time>
      </trkpt>
      <trkpt lat="42.7528" lon="1.39586">
        <ele>2187</ele>
        <time>2018-09-23T14:40:42.009Z</time>
      </trkpt>
      <trkpt lat="42.75273" lon="1.39585">
        <ele>2187</ele>
        <time>2018-09-23T14:40:49.009Z</time>
      </trkpt>
      <trkpt lat="42.75266" lon="1.39585">
        <ele>2188</ele>
        <time>2018-09-23T14:40:56.009Z</time>
      </trkpt>
      <trkpt lat="42.75258" lon="1.39583">
        <ele>2192</ele>
        <time>2018-09-23T14:41:03.009Z</time>
      </trkpt>
      <trkpt lat="42.75254" lon="1.3958">
        <ele>2192</ele>
        <time>2018-09-23T14:41:08.009Z</time>
      </trkpt>
      <trkpt lat="42.75249" lon="1.39577">
        <ele>2192</ele>
        <time>2018-09-23T14:41:16.009Z</time>
      </trkpt>
      <trkpt lat="42.75243" lon="1.39576">
        <ele>2194</ele>
        <time>2018-09-23T14:41:22.009Z</time>
      </trkpt>
      <trkpt lat="42.75235" lon="1.39574">
        <ele>2196</ele>
        <time>2018-09-23T14:41:29.009Z</time>
      </trkpt>
      <trkpt lat="42.75226" lon="1.39571">
        <ele>2196</ele>
        <time>2018-09-23T14:41:35.009Z</time>
      </trkpt>
      <trkpt lat="42.75218" lon="1.39564">
        <ele>2196</ele>
        <time>2018-09-23T14:41:43.009Z</time>
      </trkpt>
      <trkpt lat="42.7521" lon="1.39562">
        <ele>2196</ele>
        <time>2018-09-23T14:41:50.009Z</time>
      </trkpt>
      <trkpt lat="42.75201" lon="1.3956">
        <ele>2197</ele>
        <time>2018-09-23T14:41:58.009Z</time>
      </trkpt>
      <trkpt lat="42.75194" lon="1.3955">
        <ele>2198</ele>
        <time>2018-09-23T14:42:07.009Z</time>
      </trkpt>
      <trkpt lat="42.75188" lon="1.3954">
        <ele>2201</ele>
        <time>2018-09-23T14:42:16.009Z</time>
      </trkpt>
      <trkpt lat="42.75181" lon="1.39535">
        <ele>2201</ele>
        <time>2018-09-23T14:42:22.009Z</time>
      </trkpt>
      <trkpt lat="42.75174" lon="1.39524">
        <ele>2201</ele>
        <time>2018-09-23T14:42:36.009Z</time>
      </trkpt>
      <trkpt lat="42.75168" lon="1.39512">
        <ele>2206</ele>
        <time>2018-09-23T14:42:50.009Z</time>
      </trkpt>
      <trkpt lat="42.75163" lon="1.39507">
        <ele>2208.5789952</ele>
        <time>2018-09-23T14:43:01.009Z</time>
      </trkpt>
      <trkpt lat="42.75156" lon="1.39504">
        <ele>2210.5789952</ele>
        <time>2018-09-23T14:43:11.009Z</time>
      </trkpt>
      <trkpt lat="42.75148" lon="1.39499">
        <ele>2213</ele>
        <time>2018-09-23T14:43:27.009Z</time>
      </trkpt>
      <trkpt lat="42.75144" lon="1.39494">
        <ele>2214</ele>
        <time>2018-09-23T14:43:37.009Z</time>
      </trkpt>
      <trkpt lat="42.7514" lon="1.3949">
        <ele>2216</ele>
        <time>2018-09-23T14:43:42.009Z</time>
      </trkpt>
      <trkpt lat="42.75135" lon="1.39486">
        <ele>2218</ele>
        <time>2018-09-23T14:43:48.009Z</time>
      </trkpt>
      <trkpt lat="42.75131" lon="1.3948">
        <ele>2218</ele>
        <time>2018-09-23T14:43:52.009Z</time>
      </trkpt>
      <trkpt lat="42.75126" lon="1.39477">
        <ele>2218</ele>
        <time>2018-09-23T14:43:56.009Z</time>
      </trkpt>
      <trkpt lat="42.75123" lon="1.39474">
        <ele>2218</ele>
        <time>2018-09-23T14:43:59.009Z</time>
      </trkpt>
      <trkpt lat="42.75118" lon="1.3947">
        <ele>2217</ele>
        <time>2018-09-23T14:44:03.009Z</time>
      </trkpt>
      <trkpt lat="42.75113" lon="1.39463">
        <ele>2218</ele>
        <time>2018-09-23T14:44:10.009Z</time>
      </trkpt>
      <trkpt lat="42.75108" lon="1.39456">
        <ele>2221</ele>
        <time>2018-09-23T14:44:18.009Z</time>
      </trkpt>
      <trkpt lat="42.75098" lon="1.39455">
        <ele>2221</ele>
        <time>2018-09-23T14:44:29.009Z</time>
      </trkpt>
      <trkpt lat="42.75089" lon="1.39457">
        <ele>2223</ele>
        <time>2018-09-23T14:44:37.009Z</time>
      </trkpt>
      <trkpt lat="42.75081" lon="1.39459">
        <ele>2224</ele>
        <time>2018-09-23T14:44:45.009Z</time>
      </trkpt>
      <trkpt lat="42.75073" lon="1.3946">
        <ele>2224</ele>
        <time>2018-09-23T14:44:54.009Z</time>
      </trkpt>
      <trkpt lat="42.75065" lon="1.39454">
        <ele>2226</ele>
        <time>2018-09-23T14:45:05.009Z</time>
      </trkpt>
      <trkpt lat="42.75059" lon="1.39447">
        <ele>2226</ele>
        <time>2018-09-23T14:45:13.009Z</time>
      </trkpt>
      <trkpt lat="42.75053" lon="1.39444">
        <ele>2226</ele>
        <time>2018-09-23T14:45:19.009Z</time>
      </trkpt>
      <trkpt lat="42.75047" lon="1.39439">
        <ele>2227</ele>
        <time>2018-09-23T14:45:27.009Z</time>
      </trkpt>
      <trkpt lat="42.75039" lon="1.39436">
        <ele>2229</ele>
        <time>2018-09-23T14:45:33.009Z</time>
      </trkpt>
      <trkpt lat="42.75034" lon="1.3943">
        <ele>2229</ele>
        <time>2018-09-23T14:45:40.009Z</time>
      </trkpt>
      <trkpt lat="42.7503" lon="1.39426">
        <ele>2231</ele>
        <time>2018-09-23T14:45:45.009Z</time>
      </trkpt>
      <trkpt lat="42.75029" lon="1.39419">
        <ele>2232</ele>
        <time>2018-09-23T14:45:52.009Z</time>
      </trkpt>
      <trkpt lat="42.75029" lon="1.39413">
        <ele>2232</ele>
        <time>2018-09-23T14:45:59.009Z</time>
      </trkpt>
      <trkpt lat="42.75027" lon="1.39406">
        <ele>2233</ele>
        <time>2018-09-23T14:46:08.009Z</time>
      </trkpt>
      <trkpt lat="42.75023" lon="1.39403">
        <ele>2234</ele>
        <time>2018-09-23T14:46:13.009Z</time>
      </trkpt>
      <trkpt lat="42.75018" lon="1.394">
        <ele>2234</ele>
        <time>2018-09-23T14:46:19.009Z</time>
      </trkpt>
      <trkpt lat="42.75013" lon="1.39396">
        <ele>2234</ele>
        <time>2018-09-23T14:46:23.009Z</time>
      </trkpt>
      <trkpt lat="42.75007" lon="1.39389">
        <ele>2235</ele>
        <time>2018-09-23T14:46:28.009Z</time>
      </trkpt>
      <trkpt lat="42.75005" lon="1.39384">
        <ele>2235</ele>
        <time>2018-09-23T14:46:33.009Z</time>
      </trkpt>
      <trkpt lat="42.75" lon="1.39376">
        <ele>2236</ele>
        <time>2018-09-23T14:46:46.009Z</time>
      </trkpt>
      <trkpt lat="42.74997" lon="1.39369">
        <ele>2236</ele>
        <time>2018-09-23T14:46:50.009Z</time>
      </trkpt>
      <trkpt lat="42.74994" lon="1.39363">
        <ele>2237</ele>
        <time>2018-09-23T14:46:56.009Z</time>
      </trkpt>
      <trkpt lat="42.74989" lon="1.39358">
        <ele>2238.5789952</ele>
        <time>2018-09-23T14:47:01.009Z</time>
      </trkpt>
      <trkpt lat="42.74986" lon="1.39355">
        <ele>2239</ele>
        <time>2018-09-23T14:47:05.009Z</time>
      </trkpt>
      <trkpt lat="42.74983" lon="1.39351">
        <ele>2239</ele>
        <time>2018-09-23T14:47:09.009Z</time>
      </trkpt>
      <trkpt lat="42.74979" lon="1.39347">
        <ele>2239</ele>
        <time>2018-09-23T14:47:14.009Z</time>
      </trkpt>
      <trkpt lat="42.74976" lon="1.39344">
        <ele>2240</ele>
        <time>2018-09-23T14:47:18.009Z</time>
      </trkpt>
      <trkpt lat="42.74973" lon="1.39341">
        <ele>2240</ele>
        <time>2018-09-23T14:47:22.009Z</time>
      </trkpt>
      <trkpt lat="42.74966" lon="1.39335">
        <ele>2241.1579904</ele>
        <time>2018-09-23T14:47:31.009Z</time>
      </trkpt>
      <trkpt lat="42.74963" lon="1.39329">
        <ele>2242</ele>
        <time>2018-09-23T14:47:39.009Z</time>
      </trkpt>
      <trkpt lat="42.7496" lon="1.39329">
        <ele>2242</ele>
        <time>2018-09-23T14:47:41.009Z</time>
      </trkpt>
      <trkpt lat="42.74956" lon="1.39326">
        <ele>2242</ele>
        <time>2018-09-23T14:47:45.009Z</time>
      </trkpt>
      <trkpt lat="42.7495" lon="1.39324">
        <ele>2243.5789952</ele>
        <time>2018-09-23T14:47:51.009Z</time>
      </trkpt>
      <trkpt lat="42.74946" lon="1.3932">
        <ele>2244</ele>
        <time>2018-09-23T14:47:56.009Z</time>
      </trkpt>
      <trkpt lat="42.74941" lon="1.39319">
        <ele>2244</ele>
        <time>2018-09-23T14:47:59.009Z</time>
      </trkpt>
      <trkpt lat="42.74936" lon="1.39316">
        <ele>2242</ele>
        <time>2018-09-23T14:48:03.009Z</time>
      </trkpt>
      <trkpt lat="42.7493" lon="1.39311">
        <ele>2244</ele>
        <time>2018-09-23T14:48:08.009Z</time>
      </trkpt>
      <trkpt lat="42.74925" lon="1.39305">
        <ele>2245</ele>
        <time>2018-09-23T14:48:13.009Z</time>
      </trkpt>
      <trkpt lat="42.74918" lon="1.39301">
        <ele>2245.4210048</ele>
        <time>2018-09-23T14:48:21.009Z</time>
      </trkpt>
      <trkpt lat="42.74914" lon="1.39297">
        <ele>2245</ele>
        <time>2018-09-23T14:48:26.009Z</time>
      </trkpt>
      <trkpt lat="42.74909" lon="1.39293">
        <ele>2245</ele>
        <time>2018-09-23T14:48:30.009Z</time>
      </trkpt>
      <trkpt lat="42.74905" lon="1.39289">
        <ele>2245</ele>
        <time>2018-09-23T14:48:35.009Z</time>
      </trkpt>
      <trkpt lat="42.749" lon="1.39288">
        <ele>2246</ele>
        <time>2018-09-23T14:48:40.009Z</time>
      </trkpt>
      <trkpt lat="42.74896" lon="1.39284">
        <ele>2247</ele>
        <time>2018-09-23T14:48:46.009Z</time>
      </trkpt>
      <trkpt lat="42.74891" lon="1.3928">
        <ele>2247</ele>
        <time>2018-09-23T14:48:50.009Z</time>
      </trkpt>
      <trkpt lat="42.74887" lon="1.39277">
        <ele>2248</ele>
        <time>2018-09-23T14:48:56.009Z</time>
      </trkpt>
      <trkpt lat="42.74882" lon="1.39274">
        <ele>2248</ele>
        <time>2018-09-23T14:49:03.009Z</time>
      </trkpt>
      <trkpt lat="42.74877" lon="1.39273">
        <ele>2248</ele>
        <time>2018-09-23T14:49:07.009Z</time>
      </trkpt>
      <trkpt lat="42.7487" lon="1.39268">
        <ele>2249</ele>
        <time>2018-09-23T14:49:17.009Z</time>
      </trkpt>
      <trkpt lat="42.74865" lon="1.39267">
        <ele>2248.4210048</ele>
        <time>2018-09-23T14:49:21.009Z</time>
      </trkpt>
      <trkpt lat="42.7486" lon="1.39266">
        <ele>2248</ele>
        <time>2018-09-23T14:49:25.009Z</time>
      </trkpt>
      <trkpt lat="42.74856" lon="1.39258">
        <ele>2249</ele>
        <time>2018-09-23T14:49:32.009Z</time>
      </trkpt>
      <trkpt lat="42.74851" lon="1.39252">
        <ele>2249</ele>
        <time>2018-09-23T14:49:40.009Z</time>
      </trkpt>
      <trkpt lat="42.74845" lon="1.39248">
        <ele>2250</ele>
        <time>2018-09-23T14:49:48.009Z</time>
      </trkpt>
      <trkpt lat="42.74841" lon="1.39244">
        <ele>2251</ele>
        <time>2018-09-23T14:49:54.009Z</time>
      </trkpt>
      <trkpt lat="42.74836" lon="1.39242">
        <ele>2252</ele>
        <time>2018-09-23T14:49:59.009Z</time>
      </trkpt>
      <trkpt lat="42.74832" lon="1.39239">
        <ele>2251</ele>
        <time>2018-09-23T14:50:04.009Z</time>
      </trkpt>
      <trkpt lat="42.74827" lon="1.39238">
        <ele>2251.5789952</ele>
        <time>2018-09-23T14:50:09.009Z</time>
      </trkpt>
      <trkpt lat="42.74822" lon="1.39237">
        <ele>2252</ele>
        <time>2018-09-23T14:50:12.009Z</time>
      </trkpt>
      <trkpt lat="42.74817" lon="1.39234">
        <ele>2252</ele>
        <time>2018-09-23T14:50:18.009Z</time>
      </trkpt>
      <trkpt lat="42.74813" lon="1.39234">
        <ele>2251.4210048</ele>
        <time>2018-09-23T14:50:21.009Z</time>
      </trkpt>
      <trkpt lat="42.74807" lon="1.39236">
        <ele>2252</ele>
        <time>2018-09-23T14:50:27.009Z</time>
      </trkpt>
      <trkpt lat="42.74801" lon="1.39235">
        <ele>2253.5789952</ele>
        <time>2018-09-23T14:50:34.009Z</time>
      </trkpt>
      <trkpt lat="42.74798" lon="1.39232">
        <ele>2254</ele>
        <time>2018-09-23T14:50:39.009Z</time>
      </trkpt>
      <trkpt lat="42.74793" lon="1.39228">
        <ele>2255</ele>
        <time>2018-09-23T14:50:49.009Z</time>
      </trkpt>
      <trkpt lat="42.7479" lon="1.39224">
        <ele>2255</ele>
        <time>2018-09-23T14:50:57.009Z</time>
      </trkpt>
      <trkpt lat="42.74785" lon="1.3922">
        <ele>2264</ele>
        <time>2018-09-23T14:51:04.009Z</time>
      </trkpt>
      <trkpt lat="42.74781" lon="1.39218">
        <ele>2266</ele>
        <time>2018-09-23T14:51:10.009Z</time>
      </trkpt>
      <trkpt lat="42.74776" lon="1.39217">
        <ele>2266</ele>
        <time>2018-09-23T14:51:16.009Z</time>
      </trkpt>
      <trkpt lat="42.7477" lon="1.39216">
        <ele>2266.5789952</ele>
        <time>2018-09-23T14:51:21.009Z</time>
      </trkpt>
      <trkpt lat="42.74766" lon="1.39212">
        <ele>2268</ele>
        <time>2018-09-23T14:51:28.009Z</time>
      </trkpt>
      <trkpt lat="42.74761" lon="1.39211">
        <ele>2269</ele>
        <time>2018-09-23T14:51:33.009Z</time>
      </trkpt>
      <trkpt lat="42.74754" lon="1.39207">
        <ele>2272</ele>
        <time>2018-09-23T14:51:45.009Z</time>
      </trkpt>
      <trkpt lat="42.74747" lon="1.39204">
        <ele>2275</ele>
        <time>2018-09-23T14:51:55.009Z</time>
      </trkpt>
      <trkpt lat="42.7474" lon="1.392">
        <ele>2277</ele>
        <time>2018-09-23T14:52:05.009Z</time>
      </trkpt>
      <trkpt lat="42.74734" lon="1.39198">
        <ele>2277</ele>
        <time>2018-09-23T14:52:10.009Z</time>
      </trkpt>
      <trkpt lat="42.74729" lon="1.39195">
        <ele>2278</ele>
        <time>2018-09-23T14:52:14.009Z</time>
      </trkpt>
      <trkpt lat="42.7472" lon="1.39194">
        <ele>2278.5789952</ele>
        <time>2018-09-23T14:52:21.009Z</time>
      </trkpt>
      <trkpt lat="42.74715" lon="1.39192">
        <ele>2279</ele>
        <time>2018-09-23T14:52:25.009Z</time>
      </trkpt>
      <trkpt lat="42.7471" lon="1.3919">
        <ele>2279</ele>
        <time>2018-09-23T14:52:30.009Z</time>
      </trkpt>
      <trkpt lat="42.74705" lon="1.39187">
        <ele>2279.5789952</ele>
        <time>2018-09-23T14:52:35.009Z</time>
      </trkpt>
      <trkpt lat="42.74697" lon="1.39188">
        <ele>2281</ele>
        <time>2018-09-23T14:52:43.009Z</time>
      </trkpt>
      <trkpt lat="42.74691" lon="1.39187">
        <ele>2283</ele>
        <time>2018-09-23T14:52:56.009Z</time>
      </trkpt>
      <trkpt lat="42.74686" lon="1.39181">
        <ele>2284</ele>
        <time>2018-09-23T14:53:07.009Z</time>
      </trkpt>
      <trkpt lat="42.74678" lon="1.39183">
        <ele>2284</ele>
        <time>2018-09-23T14:53:19.009Z</time>
      </trkpt>
      <trkpt lat="42.74673" lon="1.39183">
        <ele>2288</ele>
        <time>2018-09-23T14:53:28.009Z</time>
      </trkpt>
      <trkpt lat="42.74667" lon="1.39183">
        <ele>2288</ele>
        <time>2018-09-23T14:53:40.009Z</time>
      </trkpt>
      <trkpt lat="42.74662" lon="1.39183">
        <ele>2290</ele>
        <time>2018-09-23T14:53:49.009Z</time>
      </trkpt>
      <trkpt lat="42.74656" lon="1.39179">
        <ele>2294</ele>
        <time>2018-09-23T14:54:15.009Z</time>
      </trkpt>
      <trkpt lat="42.74647" lon="1.39182">
        <ele>2300</ele>
        <time>2018-09-23T14:54:42.009Z</time>
      </trkpt>
      <trkpt lat="42.7464" lon="1.39182">
        <ele>2301.7369856</ele>
        <time>2018-09-23T14:54:51.009Z</time>
      </trkpt>
      <trkpt lat="42.74636" lon="1.39179">
        <ele>2304.5789952</ele>
        <time>2018-09-23T14:55:01.009Z</time>
      </trkpt>
      <trkpt lat="42.74627" lon="1.39178">
        <ele>2308</ele>
        <time>2018-09-23T14:55:13.009Z</time>
      </trkpt>
      <trkpt lat="42.74621" lon="1.39175">
        <ele>2311</ele>
        <time>2018-09-23T14:55:28.009Z</time>
      </trkpt>
      <trkpt lat="42.74613" lon="1.39174">
        <ele>2314</ele>
        <time>2018-09-23T14:55:43.009Z</time>
      </trkpt>
      <trkpt lat="42.74609" lon="1.39176">
        <ele>2315</ele>
        <time>2018-09-23T14:55:49.009Z</time>
      </trkpt>
      <trkpt lat="42.74603" lon="1.39182">
        <ele>2318</ele>
        <time>2018-09-23T14:55:57.009Z</time>
      </trkpt>
      <trkpt lat="42.74596" lon="1.39189">
        <ele>2318</ele>
        <time>2018-09-23T14:56:03.009Z</time>
      </trkpt>
      <trkpt lat="42.7459" lon="1.39188">
        <ele>2319.1579904</ele>
        <time>2018-09-23T14:56:11.009Z</time>
      </trkpt>
      <trkpt lat="42.74585" lon="1.39191">
        <ele>2320.5789952</ele>
        <time>2018-09-23T14:56:17.009Z</time>
      </trkpt>
      <trkpt lat="42.74577" lon="1.39195">
        <ele>2322</ele>
        <time>2018-09-23T14:56:25.009Z</time>
      </trkpt>
      <trkpt lat="42.7457" lon="1.39195">
        <ele>2322</ele>
        <time>2018-09-23T14:56:30.009Z</time>
      </trkpt>
      <trkpt lat="42.74562" lon="1.39194">
        <ele>2323</ele>
        <time>2018-09-23T14:56:37.009Z</time>
      </trkpt>
      <trkpt lat="42.74557" lon="1.39196">
        <ele>2325.1579904</ele>
        <time>2018-09-23T14:56:41.009Z</time>
      </trkpt>
      <trkpt lat="42.7455" lon="1.39196">
        <ele>2326</ele>
        <time>2018-09-23T14:56:46.009Z</time>
      </trkpt>
      <trkpt lat="42.74545" lon="1.39197">
        <ele>2326</ele>
        <time>2018-09-23T14:56:50.009Z</time>
      </trkpt>
      <trkpt lat="42.7454" lon="1.39197">
        <ele>2327.5789952</ele>
        <time>2018-09-23T14:56:54.009Z</time>
      </trkpt>
      <trkpt lat="42.74536" lon="1.39197">
        <ele>2328</ele>
        <time>2018-09-23T14:56:58.009Z</time>
      </trkpt>
      <trkpt lat="42.74529" lon="1.39196">
        <ele>2330</ele>
        <time>2018-09-23T14:57:08.009Z</time>
      </trkpt>
      <trkpt lat="42.74525" lon="1.39192">
        <ele>2332.5789952</ele>
        <time>2018-09-23T14:57:16.009Z</time>
      </trkpt>
      <trkpt lat="42.7452" lon="1.39192">
        <ele>2335</ele>
        <time>2018-09-23T14:57:22.009Z</time>
      </trkpt>
      <trkpt lat="42.74514" lon="1.39193">
        <ele>2335</ele>
        <time>2018-09-23T14:57:30.009Z</time>
      </trkpt>
      <trkpt lat="42.74509" lon="1.39193">
        <ele>2337</ele>
        <time>2018-09-23T14:57:35.009Z</time>
      </trkpt>
      <trkpt lat="42.74504" lon="1.39193">
        <ele>2338</ele>
        <time>2018-09-23T14:57:43.009Z</time>
      </trkpt>
      <trkpt lat="42.74497" lon="1.39192">
        <ele>2340</ele>
        <time>2018-09-23T14:57:56.009Z</time>
      </trkpt>
      <trkpt lat="42.74491" lon="1.39188">
        <ele>2344</ele>
        <time>2018-09-23T14:58:05.009Z</time>
      </trkpt>
      <trkpt lat="42.74483" lon="1.39191">
        <ele>2345</ele>
        <time>2018-09-23T14:58:12.009Z</time>
      </trkpt>
      <trkpt lat="42.74478" lon="1.39196">
        <ele>2345</ele>
        <time>2018-09-23T14:58:18.009Z</time>
      </trkpt>
      <trkpt lat="42.74472" lon="1.39194">
        <ele>2348</ele>
        <time>2018-09-23T14:58:26.009Z</time>
      </trkpt>
      <trkpt lat="42.74467" lon="1.39194">
        <ele>2350</ele>
        <time>2018-09-23T14:58:33.009Z</time>
      </trkpt>
      <trkpt lat="42.74462" lon="1.39196">
        <ele>2352</ele>
        <time>2018-09-23T14:58:46.009Z</time>
      </trkpt>
      <trkpt lat="42.74456" lon="1.39197">
        <ele>2354.1579904</ele>
        <time>2018-09-23T14:58:51.009Z</time>
      </trkpt>
      <trkpt lat="42.74452" lon="1.39198">
        <ele>2355.5789952</ele>
        <time>2018-09-23T14:58:56.009Z</time>
      </trkpt>
      <trkpt lat="42.74448" lon="1.39201">
        <ele>2357</ele>
        <time>2018-09-23T14:59:01.009Z</time>
      </trkpt>
      <trkpt lat="42.74445" lon="1.39206">
        <ele>2357</ele>
        <time>2018-09-23T14:59:07.009Z</time>
      </trkpt>
      <trkpt lat="42.74444" lon="1.39211">
        <ele>2358.5789952</ele>
        <time>2018-09-23T14:59:14.009Z</time>
      </trkpt>
      <trkpt lat="42.7444" lon="1.39216">
        <ele>2360</ele>
        <time>2018-09-23T14:59:23.009Z</time>
      </trkpt>
      <trkpt lat="42.74436" lon="1.39221">
        <ele>2360</ele>
        <time>2018-09-23T14:59:28.009Z</time>
      </trkpt>
      <trkpt lat="42.7443" lon="1.39225">
        <ele>2361</ele>
        <time>2018-09-23T14:59:35.009Z</time>
      </trkpt>
      <trkpt lat="42.74423" lon="1.39226">
        <ele>2362</ele>
        <time>2018-09-23T14:59:42.009Z</time>
      </trkpt>
      <trkpt lat="42.74416" lon="1.39224">
        <ele>2362.5789952</ele>
        <time>2018-09-23T14:59:48.009Z</time>
      </trkpt>
      <trkpt lat="42.74412" lon="1.39221">
        <ele>2364</ele>
        <time>2018-09-23T14:59:54.009Z</time>
      </trkpt>
      <trkpt lat="42.74409" lon="1.39216">
        <ele>2364</ele>
        <time>2018-09-23T14:59:59.009Z</time>
      </trkpt>
      <trkpt lat="42.74405" lon="1.39214">
        <ele>2364</ele>
        <time>2018-09-23T15:00:03.009Z</time>
      </trkpt>
      <trkpt lat="42.74401" lon="1.39212">
        <ele>2364</ele>
        <time>2018-09-23T15:00:06.009Z</time>
      </trkpt>
      <trkpt lat="42.74399" lon="1.3921">
        <ele>2365</ele>
        <time>2018-09-23T15:00:08.009Z</time>
      </trkpt>
      <trkpt lat="42.74395" lon="1.39207">
        <ele>2367</ele>
        <time>2018-09-23T15:00:13.009Z</time>
      </trkpt>
      <trkpt lat="42.74393" lon="1.39204">
        <ele>2368</ele>
        <time>2018-09-23T15:00:17.009Z</time>
      </trkpt>
      <trkpt lat="42.74392" lon="1.39201">
        <ele>2370</ele>
        <time>2018-09-23T15:00:22.009Z</time>
      </trkpt>
      <trkpt lat="42.7439" lon="1.39199">
        <ele>2371</ele>
        <time>2018-09-23T15:00:25.009Z</time>
      </trkpt>
      <trkpt lat="42.74389" lon="1.39197">
        <ele>2373</ele>
        <time>2018-09-23T15:00:28.009Z</time>
      </trkpt>
      <trkpt lat="42.74387" lon="1.39194">
        <ele>2374.1579904</ele>
        <time>2018-09-23T15:00:31.009Z</time>
      </trkpt>
      <trkpt lat="42.74386" lon="1.39192">
        <ele>2375</ele>
        <time>2018-09-23T15:00:33.009Z</time>
      </trkpt>
      <trkpt lat="42.74384" lon="1.3919">
        <ele>2375.5747440008</ele>
        <time>2018-09-23T15:00:36.009Z</time>
      </trkpt>
      <trkpt lat="42.74382" lon="1.39189">
        <ele>2376</ele>
        <time>2018-09-23T15:00:38.009Z</time>
      </trkpt>
      <trkpt lat="42.7438" lon="1.39188">
        <ele>2376</ele>
        <time>2018-09-23T15:00:40.009Z</time>
      </trkpt>
      <trkpt lat="42.74377" lon="1.39186">
        <ele>2377</ele>
        <time>2018-09-23T15:00:43.009Z</time>
      </trkpt>
      <trkpt lat="42.74375" lon="1.39184">
        <ele>2377</ele>
        <time>2018-09-23T15:00:46.009Z</time>
      </trkpt>
      <trkpt lat="42.74372" lon="1.39183">
        <ele>2377</ele>
        <time>2018-09-23T15:00:49.009Z</time>
      </trkpt>
      <trkpt lat="42.74371" lon="1.39182">
        <ele>2378.1579904</ele>
        <time>2018-09-23T15:00:51.009Z</time>
      </trkpt>
      <trkpt lat="42.74369" lon="1.39182">
        <ele>2379</ele>
        <time>2018-09-23T15:00:53.009Z</time>
      </trkpt>
      <trkpt lat="42.74367" lon="1.39179">
        <ele>2380.7369856</ele>
        <time>2018-09-23T15:00:56.009Z</time>
      </trkpt>
      <trkpt lat="42.74366" lon="1.39176">
        <ele>2382</ele>
        <time>2018-09-23T15:01:00.009Z</time>
      </trkpt>
      <trkpt lat="42.74359" lon="1.39175">
        <ele>2381</ele>
        <time>2018-09-23T15:01:06.009Z</time>
      </trkpt>
      <trkpt lat="42.74356" lon="1.39175">
        <ele>2381</ele>
        <time>2018-09-23T15:01:09.009Z</time>
      </trkpt>
      <trkpt lat="42.74355" lon="1.39171">
        <ele>2383.5789952</ele>
        <time>2018-09-23T15:01:15.009Z</time>
      </trkpt>
      <trkpt lat="42.74352" lon="1.39169">
        <ele>2384</ele>
        <time>2018-09-23T15:01:19.009Z</time>
      </trkpt>
      <trkpt lat="42.7435" lon="1.3917">
        <ele>2386</ele>
        <time>2018-09-23T15:01:24.009Z</time>
      </trkpt>
      <trkpt lat="42.74351" lon="1.39175">
        <ele>2385.5789952</ele>
        <time>2018-09-23T15:01:31.009Z</time>
      </trkpt>
      <trkpt lat="42.7435" lon="1.39178">
        <ele>2386</ele>
        <time>2018-09-23T15:01:34.009Z</time>
      </trkpt>
      <trkpt lat="42.74348" lon="1.39178">
        <ele>2386</ele>
        <time>2018-09-23T15:01:37.009Z</time>
      </trkpt>
      <trkpt lat="42.74346" lon="1.39176">
        <ele>2387</ele>
        <time>2018-09-23T15:01:40.009Z</time>
      </trkpt>
      <trkpt lat="42.74344" lon="1.39173">
        <ele>2388</ele>
        <time>2018-09-23T15:01:42.009Z</time>
      </trkpt>
      <trkpt lat="42.74342" lon="1.39169">
        <ele>2388</ele>
        <time>2018-09-23T15:01:47.009Z</time>
      </trkpt>
      <trkpt lat="42.74342" lon="1.39162">
        <ele>2388</ele>
        <time>2018-09-23T15:01:53.009Z</time>
      </trkpt>
      <trkpt lat="42.74338" lon="1.3916">
        <ele>2389</ele>
        <time>2018-09-23T15:02:04.009Z</time>
      </trkpt>
      <trkpt lat="42.74335" lon="1.39155">
        <ele>2389</ele>
        <time>2018-09-23T15:02:11.009Z</time>
      </trkpt>
      <trkpt lat="42.74334" lon="1.3915">
        <ele>2389</ele>
        <time>2018-09-23T15:02:17.009Z</time>
      </trkpt>
      <trkpt lat="42.7433" lon="1.39148">
        <ele>2390</ele>
        <time>2018-09-23T15:02:28.009Z</time>
      </trkpt>
      <trkpt lat="42.74327" lon="1.39146">
        <ele>2391</ele>
        <time>2018-09-23T15:02:35.009Z</time>
      </trkpt>
      <trkpt lat="42.74324" lon="1.39142">
        <ele>2392</ele>
        <time>2018-09-23T15:02:43.009Z</time>
      </trkpt>
      <trkpt lat="42.74319" lon="1.3914">
        <ele>2392</ele>
        <time>2018-09-23T15:02:50.009Z</time>
      </trkpt>
      <trkpt lat="42.74314" lon="1.39136">
        <ele>2393</ele>
        <time>2018-09-23T15:02:57.009Z</time>
      </trkpt>
      <trkpt lat="42.74312" lon="1.39132">
        <ele>2397.0529664</ele>
        <time>2018-09-23T15:03:01.009Z</time>
      </trkpt>
      <trkpt lat="42.74311" lon="1.39126">
        <ele>2402</ele>
        <time>2018-09-23T15:03:08.009Z</time>
      </trkpt>
      <trkpt lat="42.74309" lon="1.39122">
        <ele>2402</ele>
        <time>2018-09-23T15:03:13.009Z</time>
      </trkpt>
      <trkpt lat="42.74305" lon="1.3912">
        <ele>2404</ele>
        <time>2018-09-23T15:03:17.009Z</time>
      </trkpt>
      <trkpt lat="42.74302" lon="1.39118">
        <ele>2405.7369856</ele>
        <time>2018-09-23T15:03:21.009Z</time>
      </trkpt>
      <trkpt lat="42.74299" lon="1.39114">
        <ele>2408.1579904</ele>
        <time>2018-09-23T15:03:26.009Z</time>
      </trkpt>
      <trkpt lat="42.74297" lon="1.39109">
        <ele>2411</ele>
        <time>2018-09-23T15:03:32.009Z</time>
      </trkpt>
      <trkpt lat="42.74293" lon="1.39108">
        <ele>2413</ele>
        <time>2018-09-23T15:03:38.009Z</time>
      </trkpt>
      <trkpt lat="42.74289" lon="1.39107">
        <ele>2415</ele>
        <time>2018-09-23T15:03:42.009Z</time>
      </trkpt>
      <trkpt lat="42.74282" lon="1.39102">
        <ele>2416</ele>
        <time>2018-09-23T15:03:49.009Z</time>
      </trkpt>
      <trkpt lat="42.74275" lon="1.39098">
        <ele>2416</ele>
        <time>2018-09-23T15:03:57.009Z</time>
      </trkpt>
      <trkpt lat="42.74268" lon="1.39096">
        <ele>2418</ele>
        <time>2018-09-23T15:04:05.009Z</time>
      </trkpt>
      <trkpt lat="42.74259" lon="1.39095">
        <ele>2419</ele>
        <time>2018-09-23T15:04:13.009Z</time>
      </trkpt>
      <trkpt lat="42.74251" lon="1.39093">
        <ele>2419</ele>
        <time>2018-09-23T15:04:19.009Z</time>
      </trkpt>
      <trkpt lat="42.74243" lon="1.39093">
        <ele>2420</ele>
        <time>2018-09-23T15:04:26.009Z</time>
      </trkpt>
      <trkpt lat="42.74236" lon="1.39089">
        <ele>2422</ele>
        <time>2018-09-23T15:04:33.009Z</time>
      </trkpt>
      <trkpt lat="42.7423" lon="1.39086">
        <ele>2424</ele>
        <time>2018-09-23T15:04:38.009Z</time>
      </trkpt>
      <trkpt lat="42.74225" lon="1.3908">
        <ele>2428</ele>
        <time>2018-09-23T15:04:47.009Z</time>
      </trkpt>
      <trkpt lat="42.7422" lon="1.39074">
        <ele>2428</ele>
        <time>2018-09-23T15:04:53.009Z</time>
      </trkpt>
      <trkpt lat="42.74216" lon="1.39069">
        <ele>2428</ele>
        <time>2018-09-23T15:05:00.009Z</time>
      </trkpt>
      <trkpt lat="42.74212" lon="1.39064">
        <ele>2429</ele>
        <time>2018-09-23T15:05:07.009Z</time>
      </trkpt>
      <trkpt lat="42.74206" lon="1.3906">
        <ele>2429</ele>
        <time>2018-09-23T15:05:19.009Z</time>
      </trkpt>
      <trkpt lat="42.74201" lon="1.39056">
        <ele>2441.5789952</ele>
        <time>2018-09-23T15:05:26.009Z</time>
      </trkpt>
      <trkpt lat="42.74197" lon="1.3905">
        <ele>2445</ele>
        <time>2018-09-23T15:05:41.009Z</time>
      </trkpt>
      <trkpt lat="42.74191" lon="1.39046">
        <ele>2445</ele>
        <time>2018-09-23T15:05:47.009Z</time>
      </trkpt>
      <trkpt lat="42.74186" lon="1.39045">
        <ele>2447</ele>
        <time>2018-09-23T15:05:53.009Z</time>
      </trkpt>
      <trkpt lat="42.74181" lon="1.39044">
        <ele>2448</ele>
        <time>2018-09-23T15:05:58.009Z</time>
      </trkpt>
      <trkpt lat="42.74175" lon="1.39044">
        <ele>2449</ele>
        <time>2018-09-23T15:06:05.009Z</time>
      </trkpt>
      <trkpt lat="42.74169" lon="1.39043">
        <ele>2450</ele>
        <time>2018-09-23T15:06:11.009Z</time>
      </trkpt>
      <trkpt lat="42.74164" lon="1.39044">
        <ele>2450</ele>
        <time>2018-09-23T15:06:20.009Z</time>
      </trkpt>
      <trkpt lat="42.74161" lon="1.39041">
        <ele>2453</ele>
        <time>2018-09-23T15:06:27.009Z</time>
      </trkpt>
      <trkpt lat="42.74157" lon="1.39043">
        <ele>2455</ele>
        <time>2018-09-23T15:06:33.009Z</time>
      </trkpt>
      <trkpt lat="42.74153" lon="1.39043">
        <ele>2455</ele>
        <time>2018-09-23T15:06:37.009Z</time>
      </trkpt>
      <trkpt lat="42.74148" lon="1.39042">
        <ele>2458</ele>
        <time>2018-09-23T15:06:42.009Z</time>
      </trkpt>
      <trkpt lat="42.74145" lon="1.39041">
        <ele>2458</ele>
        <time>2018-09-23T15:06:47.009Z</time>
      </trkpt>
      <trkpt lat="42.74141" lon="1.39044">
        <ele>2458</ele>
        <time>2018-09-23T15:06:50.009Z</time>
      </trkpt>
      <trkpt lat="42.74134" lon="1.39044">
        <ele>2459</ele>
        <time>2018-09-23T15:07:00.009Z</time>
      </trkpt>
      <trkpt lat="42.74124" lon="1.39045">
        <ele>2463</ele>
        <time>2018-09-23T15:07:12.009Z</time>
      </trkpt>
      <trkpt lat="42.74116" lon="1.39047">
        <ele>2464</ele>
        <time>2018-09-23T15:07:24.009Z</time>
      </trkpt>
      <trkpt lat="42.74109" lon="1.39044">
        <ele>2466.1579904</ele>
        <time>2018-09-23T15:07:41.009Z</time>
      </trkpt>
      <trkpt lat="42.74101" lon="1.39045">
        <ele>2468</ele>
        <time>2018-09-23T15:07:50.009Z</time>
      </trkpt>
      <trkpt lat="42.74093" lon="1.39049">
        <ele>2468</ele>
        <time>2018-09-23T15:07:57.009Z</time>
      </trkpt>
      <trkpt lat="42.74088" lon="1.39056">
        <ele>2470</ele>
        <time>2018-09-23T15:08:05.009Z</time>
      </trkpt>
      <trkpt lat="42.74083" lon="1.39062">
        <ele>2472</ele>
        <time>2018-09-23T15:08:12.009Z</time>
      </trkpt>
      <trkpt lat="42.74074" lon="1.3906">
        <ele>2475.1579904</ele>
        <time>2018-09-23T15:08:31.009Z</time>
      </trkpt>
      <trkpt lat="42.74067" lon="1.39059">
        <ele>2477.1579904</ele>
        <time>2018-09-23T15:08:41.009Z</time>
      </trkpt>
      <trkpt lat="42.74059" lon="1.39064">
        <ele>2480.1579904</ele>
        <time>2018-09-23T15:08:51.009Z</time>
      </trkpt>
      <trkpt lat="42.74051" lon="1.39064">
        <ele>2482</ele>
        <time>2018-09-23T15:09:02.009Z</time>
      </trkpt>
      <trkpt lat="42.74045" lon="1.39066">
        <ele>2482</ele>
        <time>2018-09-23T15:09:10.009Z</time>
      </trkpt>
      <trkpt lat="42.74037" lon="1.39069">
        <ele>2483.5789952</ele>
        <time>2018-09-23T15:09:21.009Z</time>
      </trkpt>
      <trkpt lat="42.74029" lon="1.39068">
        <ele>2486</ele>
        <time>2018-09-23T15:09:32.009Z</time>
      </trkpt>
      <trkpt lat="42.74021" lon="1.39065">
        <ele>2488</ele>
        <time>2018-09-23T15:09:44.009Z</time>
      </trkpt>
      <trkpt lat="42.74018" lon="1.39066">
        <ele>2488</ele>
        <time>2018-09-23T15:09:48.009Z</time>
      </trkpt>
      <trkpt lat="42.74015" lon="1.39066">
        <ele>2488.5789952</ele>
        <time>2018-09-23T15:09:51.009Z</time>
      </trkpt>
      <trkpt lat="42.74006" lon="1.39067">
        <ele>2489.1579904</ele>
        <time>2018-09-23T15:10:01.009Z</time>
      </trkpt>
      <trkpt lat="42.73999" lon="1.39066">
        <ele>2489</ele>
        <time>2018-09-23T15:10:08.009Z</time>
      </trkpt>
      <trkpt lat="42.73991" lon="1.39068">
        <ele>2490</ele>
        <time>2018-09-23T15:10:18.009Z</time>
      </trkpt>
      <trkpt lat="42.73982" lon="1.39067">
        <ele>2493</ele>
        <time>2018-09-23T15:10:28.009Z</time>
      </trkpt>
      <trkpt lat="42.73979" lon="1.3907">
        <ele>2493.5789952</ele>
        <time>2018-09-23T15:10:31.009Z</time>
      </trkpt>
      <trkpt lat="42.73975" lon="1.39071">
        <ele>2494</ele>
        <time>2018-09-23T15:10:34.009Z</time>
      </trkpt>
      <trkpt lat="42.73967" lon="1.39072">
        <ele>2494</ele>
        <time>2018-09-23T15:10:41.009Z</time>
      </trkpt>
      <trkpt lat="42.73962" lon="1.39072">
        <ele>2494</ele>
        <time>2018-09-23T15:10:45.009Z</time>
      </trkpt>
      <trkpt lat="42.73956" lon="1.3907">
        <ele>2494</ele>
        <time>2018-09-23T15:10:49.009Z</time>
      </trkpt>
      <trkpt lat="42.7395" lon="1.39068">
        <ele>2495</ele>
        <time>2018-09-23T15:10:56.009Z</time>
      </trkpt>
      <trkpt lat="42.73942" lon="1.39067">
        <ele>2495</ele>
        <time>2018-09-23T15:11:04.009Z</time>
      </trkpt>
      <trkpt lat="42.73936" lon="1.39063">
        <ele>2496.1579904</ele>
        <time>2018-09-23T15:11:11.009Z</time>
      </trkpt>
      <trkpt lat="42.73933" lon="1.39057">
        <ele>2497</ele>
        <time>2018-09-23T15:11:18.009Z</time>
      </trkpt>
      <trkpt lat="42.73928" lon="1.39054">
        <ele>2498</ele>
        <time>2018-09-23T15:11:24.009Z</time>
      </trkpt>
      <trkpt lat="42.73922" lon="1.39053">
        <ele>2498.5789952</ele>
        <time>2018-09-23T15:11:31.009Z</time>
      </trkpt>
      <trkpt lat="42.73914" lon="1.39053">
        <ele>2499</ele>
        <time>2018-09-23T15:11:45.009Z</time>
      </trkpt>
      <trkpt lat="42.73905" lon="1.39058">
        <ele>2501</ele>
        <time>2018-09-23T15:11:58.009Z</time>
      </trkpt>
      <trkpt lat="42.73896" lon="1.3906">
        <ele>2503</ele>
        <time>2018-09-23T15:12:13.009Z</time>
      </trkpt>
      <trkpt lat="42.73887" lon="1.39062">
        <ele>2504</ele>
        <time>2018-09-23T15:12:22.009Z</time>
      </trkpt>
      <trkpt lat="42.7388" lon="1.39066">
        <ele>2504</ele>
        <time>2018-09-23T15:12:29.009Z</time>
      </trkpt>
      <trkpt lat="42.73872" lon="1.39067">
        <ele>2504</ele>
        <time>2018-09-23T15:12:36.009Z</time>
      </trkpt>
      <trkpt lat="42.73864" lon="1.39068">
        <ele>2508</ele>
        <time>2018-09-23T15:12:47.009Z</time>
      </trkpt>
      <trkpt lat="42.73855" lon="1.39071">
        <ele>2509.5789952</ele>
        <time>2018-09-23T15:13:01.009Z</time>
      </trkpt>
      <trkpt lat="42.73848" lon="1.39075">
        <ele>2513</ele>
        <time>2018-09-23T15:13:12.009Z</time>
      </trkpt>
      <trkpt lat="42.7384" lon="1.39072">
        <ele>2513</ele>
        <time>2018-09-23T15:13:21.009Z</time>
      </trkpt>
      <trkpt lat="42.73832" lon="1.39071">
        <ele>2513</ele>
        <time>2018-09-23T15:13:27.009Z</time>
      </trkpt>
      <trkpt lat="42.73827" lon="1.39066">
        <ele>2513</ele>
        <time>2018-09-23T15:13:34.009Z</time>
      </trkpt>
      <trkpt lat="42.7382" lon="1.39062">
        <ele>2513.5789952</ele>
        <time>2018-09-23T15:13:41.009Z</time>
      </trkpt>
      <trkpt lat="42.7381" lon="1.3906">
        <ele>2514</ele>
        <time>2018-09-23T15:13:49.009Z</time>
      </trkpt>
      <trkpt lat="42.73802" lon="1.3906">
        <ele>2515</ele>
        <time>2018-09-23T15:13:56.009Z</time>
      </trkpt>
      <trkpt lat="42.73795" lon="1.39057">
        <ele>2517</ele>
        <time>2018-09-23T15:14:04.009Z</time>
      </trkpt>
      <trkpt lat="42.73788" lon="1.39058">
        <ele>2518</ele>
        <time>2018-09-23T15:14:12.009Z</time>
      </trkpt>
      <trkpt lat="42.73779" lon="1.39058">
        <ele>2521</ele>
        <time>2018-09-23T15:14:27.009Z</time>
      </trkpt>
      <trkpt lat="42.73771" lon="1.3906">
        <ele>2522.5789952</ele>
        <time>2018-09-23T15:14:41.009Z</time>
      </trkpt>
      <trkpt lat="42.73764" lon="1.39061">
        <ele>2523</ele>
        <time>2018-09-23T15:14:50.009Z</time>
      </trkpt>
      <trkpt lat="42.73759" lon="1.39056">
        <ele>2527</ele>
        <time>2018-09-23T15:15:05.009Z</time>
      </trkpt>
      <trkpt lat="42.73752" lon="1.39055">
        <ele>2529.1579904</ele>
        <time>2018-09-23T15:15:21.009Z</time>
      </trkpt>
      <trkpt lat="42.73745" lon="1.39061">
        <ele>2533</ele>
        <time>2018-09-23T15:15:34.009Z</time>
      </trkpt>
      <trkpt lat="42.73736" lon="1.39065">
        <ele>2536</ele>
        <time>2018-09-23T15:15:50.009Z</time>
      </trkpt>
      <trkpt lat="42.7373" lon="1.39072">
        <ele>2538.5789952</ele>
        <time>2018-09-23T15:16:11.009Z</time>
      </trkpt>
      <trkpt lat="42.73723" lon="1.39078">
        <ele>2542</ele>
        <time>2018-09-23T15:16:27.009Z</time>
      </trkpt>
      <trkpt lat="42.7372" lon="1.39085">
        <ele>2544</ele>
        <time>2018-09-23T15:16:35.009Z</time>
      </trkpt>
      <trkpt lat="42.73716" lon="1.39098">
        <ele>2544</ele>
        <time>2018-09-23T15:16:46.009Z</time>
      </trkpt>
      <trkpt lat="42.7371" lon="1.39104">
        <ele>2545</ele>
        <time>2018-09-23T15:16:58.009Z</time>
      </trkpt>
      <trkpt lat="42.73703" lon="1.39113">
        <ele>2551</ele>
        <time>2018-09-23T15:17:23.009Z</time>
      </trkpt>
      <trkpt lat="42.73697" lon="1.39118">
        <ele>2553</ele>
        <time>2018-09-23T15:17:40.009Z</time>
      </trkpt>
      <trkpt lat="42.73694" lon="1.39111">
        <ele>2555</ele>
        <time>2018-09-23T15:17:48.009Z</time>
      </trkpt>
      <trkpt lat="42.73689" lon="1.39103">
        <ele>2559.1579904</ele>
        <time>2018-09-23T15:18:11.009Z</time>
      </trkpt>
      <trkpt lat="42.73682" lon="1.39108">
        <ele>2565.5789952</ele>
        <time>2018-09-23T15:18:31.009Z</time>
      </trkpt>
      <trkpt lat="42.73676" lon="1.39113">
        <ele>2568</ele>
        <time>2018-09-23T15:18:46.009Z</time>
      </trkpt>
      <trkpt lat="42.73668" lon="1.3911">
        <ele>2571</ele>
        <time>2018-09-23T15:19:07.009Z</time>
      </trkpt>
      <trkpt lat="42.7366" lon="1.39112">
        <ele>2574</ele>
        <time>2018-09-23T15:19:23.009Z</time>
      </trkpt>
      <trkpt lat="42.73655" lon="1.39121">
        <ele>2575</ele>
        <time>2018-09-23T15:19:37.009Z</time>
      </trkpt>
      <trkpt lat="42.73648" lon="1.39126">
        <ele>2577</ele>
        <time>2018-09-23T15:19:54.009Z</time>
      </trkpt>
      <trkpt lat="42.73642" lon="1.39135">
        <ele>2580</ele>
        <time>2018-09-23T15:20:04.009Z</time>
      </trkpt>
      <trkpt lat="42.73635" lon="1.39142">
        <ele>2582</ele>
        <time>2018-09-23T15:20:24.009Z</time>
      </trkpt>
      <trkpt lat="42.73629" lon="1.39146">
        <ele>2583</ele>
        <time>2018-09-23T15:20:38.009Z</time>
      </trkpt>
      <trkpt lat="42.73621" lon="1.39144">
        <ele>2585</ele>
        <time>2018-09-23T15:20:55.009Z</time>
      </trkpt>
      <trkpt lat="42.73613" lon="1.39145">
        <ele>2586.5789952</ele>
        <time>2018-09-23T15:21:11.009Z</time>
      </trkpt>
      <trkpt lat="42.73604" lon="1.39148">
        <ele>2589.1579904</ele>
        <time>2018-09-23T15:21:31.009Z</time>
      </trkpt>
      <trkpt lat="42.73598" lon="1.39141">
        <ele>2591</ele>
        <time>2018-09-23T15:21:43.009Z</time>
      </trkpt>
      <trkpt lat="42.73593" lon="1.39148">
        <ele>2592</ele>
        <time>2018-09-23T15:21:55.009Z</time>
      </trkpt>
      <trkpt lat="42.73587" lon="1.39154">
        <ele>2593</ele>
        <time>2018-09-23T15:22:05.009Z</time>
      </trkpt>
      <trkpt lat="42.73581" lon="1.39163">
        <ele>2596</ele>
        <time>2018-09-23T15:22:21.009Z</time>
      </trkpt>
      <trkpt lat="42.73573" lon="1.39164">
        <ele>2596</ele>
        <time>2018-09-23T15:22:38.009Z</time>
      </trkpt>
      <trkpt lat="42.73566" lon="1.3917">
        <ele>2599</ele>
        <time>2018-09-23T15:22:49.009Z</time>
      </trkpt>
      <trkpt lat="42.7356" lon="1.39175">
        <ele>2600</ele>
        <time>2018-09-23T15:23:04.009Z</time>
      </trkpt>
      <trkpt lat="42.73553" lon="1.39176">
        <ele>2601</ele>
        <time>2018-09-23T15:23:18.009Z</time>
      </trkpt>
      <trkpt lat="42.73551" lon="1.39172">
        <ele>2602</ele>
        <time>2018-09-23T15:23:22.009Z</time>
      </trkpt>
      <trkpt lat="42.73543" lon="1.39175">
        <ele>2603</ele>
        <time>2018-09-23T15:23:38.009Z</time>
      </trkpt>
      <trkpt lat="42.73538" lon="1.39171">
        <ele>2603</ele>
        <time>2018-09-23T15:23:48.009Z</time>
      </trkpt>
      <trkpt lat="42.7353" lon="1.3917">
        <ele>2604</ele>
        <time>2018-09-23T15:24:00.009Z</time>
      </trkpt>
      <trkpt lat="42.73523" lon="1.39164">
        <ele>2605</ele>
        <time>2018-09-23T15:24:15.009Z</time>
      </trkpt>
      <trkpt lat="42.73513" lon="1.39163">
        <ele>2605</ele>
        <time>2018-09-23T15:24:27.009Z</time>
      </trkpt>
      <trkpt lat="42.73506" lon="1.3916">
        <ele>2606</ele>
        <time>2018-09-23T15:24:45.009Z</time>
      </trkpt>
      <trkpt lat="42.73496" lon="1.39161">
        <ele>2607</ele>
        <time>2018-09-23T15:25:00.009Z</time>
      </trkpt>
      <trkpt lat="42.73489" lon="1.39164">
        <ele>2608</ele>
        <time>2018-09-23T15:25:13.009Z</time>
      </trkpt>
      <trkpt lat="42.73486" lon="1.39169">
        <ele>2608</ele>
        <time>2018-09-23T15:25:20.009Z</time>
      </trkpt>
      <trkpt lat="42.73483" lon="1.39175">
        <ele>2608</ele>
        <time>2018-09-23T15:25:28.009Z</time>
      </trkpt>
      <trkpt lat="42.7348" lon="1.39174">
        <ele>2627</ele>
        <time>2018-09-23T15:27:13.009Z</time>
      </trkpt>
      <trkpt lat="42.7348" lon="1.39165">
        <ele>2646.5789952</ele>
        <time>2018-09-23T15:38:21.009Z</time>
      </trkpt>
      <trkpt lat="42.73479" lon="1.39154">
        <ele>2652</ele>
        <time>2018-09-23T15:38:32.009Z</time>
      </trkpt>
      <trkpt lat="42.73475" lon="1.39146">
        <ele>2653.5789952</ele>
        <time>2018-09-23T15:38:39.009Z</time>
      </trkpt>
      <trkpt lat="42.73475" lon="1.39139">
        <ele>2656</ele>
        <time>2018-09-23T15:38:44.009Z</time>
      </trkpt>
      <trkpt lat="42.73472" lon="1.3913">
        <ele>2658</ele>
        <time>2018-09-23T15:38:53.009Z</time>
      </trkpt>
      <trkpt lat="42.7347" lon="1.39122">
        <ele>2662</ele>
        <time>2018-09-23T15:39:00.009Z</time>
      </trkpt>
      <trkpt lat="42.73468" lon="1.39117">
        <ele>2665</ele>
        <time>2018-09-23T15:39:05.009Z</time>
      </trkpt>
      <trkpt lat="42.73464" lon="1.39114">
        <ele>2668</ele>
        <time>2018-09-23T15:39:17.009Z</time>
      </trkpt>
      <trkpt lat="42.73467" lon="1.39121">
        <ele>2678</ele>
        <time>2018-09-23T15:40:07.009Z</time>
      </trkpt>
      <trkpt lat="42.7347" lon="1.39127">
        <ele>2678</ele>
        <time>2018-09-23T15:40:15.009Z</time>
      </trkpt>
      <trkpt lat="42.73473" lon="1.39132">
        <ele>2678</ele>
        <time>2018-09-23T15:40:20.009Z</time>
      </trkpt>
      <trkpt lat="42.73476" lon="1.39143">
        <ele>2679</ele>
        <time>2018-09-23T15:40:27.009Z</time>
      </trkpt>
      <trkpt lat="42.73477" lon="1.39149">
        <ele>2680</ele>
        <time>2018-09-23T15:40:35.009Z</time>
      </trkpt>
      <trkpt lat="42.7348" lon="1.39161">
        <ele>2683.1579904</ele>
        <time>2018-09-23T15:40:46.009Z</time>
      </trkpt>
      <trkpt lat="42.73481" lon="1.39167">
        <ele>2685</ele>
        <time>2018-09-23T15:40:52.009Z</time>
      </trkpt>
      <trkpt lat="42.7348" lon="1.39174">
        <ele>2684</ele>
        <time>2018-09-23T15:41:02.009Z</time>
      </trkpt>
      <trkpt lat="42.73484" lon="1.39176">
        <ele>2735</ele>
        <time>2018-09-23T15:48:52.009Z</time>
      </trkpt>
      <trkpt lat="42.73487" lon="1.39179">
        <ele>2734.4210048</ele>
        <time>2018-09-23T15:48:57.009Z</time>
      </trkpt>
      <trkpt lat="42.73489" lon="1.39187">
        <ele>2733</ele>
        <time>2018-09-23T15:49:06.009Z</time>
      </trkpt>
      <trkpt lat="42.73485" lon="1.39188">
        <ele>2733.5789952</ele>
        <time>2018-09-23T15:49:11.009Z</time>
      </trkpt>
      <trkpt lat="42.73475" lon="1.39186">
        <ele>2732</ele>
        <time>2018-09-23T15:49:25.009Z</time>
      </trkpt>
      <trkpt lat="42.73474" lon="1.39199">
        <ele>2731</ele>
        <time>2018-09-23T15:49:59.009Z</time>
      </trkpt>
      <trkpt lat="42.73466" lon="1.392">
        <ele>2731</ele>
        <time>2018-09-23T15:50:22.009Z</time>
      </trkpt>
      <trkpt lat="42.73462" lon="1.39204">
        <ele>2730</ele>
        <time>2018-09-23T15:50:36.009Z</time>
      </trkpt>
      <trkpt lat="42.73458" lon="1.39217">
        <ele>2728</ele>
        <time>2018-09-23T15:51:05.009Z</time>
      </trkpt>
      <trkpt lat="42.73454" lon="1.39227">
        <ele>2727</ele>
        <time>2018-09-23T15:51:22.009Z</time>
      </trkpt>
      <trkpt lat="42.73444" lon="1.39231">
        <ele>2725</ele>
        <time>2018-09-23T15:51:47.009Z</time>
      </trkpt>
      <trkpt lat="42.73436" lon="1.3923">
        <ele>2723</ele>
        <time>2018-09-23T15:52:01.009Z</time>
      </trkpt>
      <trkpt lat="42.73432" lon="1.39243">
        <ele>2724.5789952</ele>
        <time>2018-09-23T15:52:21.009Z</time>
      </trkpt>
      <trkpt lat="42.73429" lon="1.39254">
        <ele>2725</ele>
        <time>2018-09-23T15:52:37.009Z</time>
      </trkpt>
      <trkpt lat="42.73427" lon="1.39269">
        <ele>2724</ele>
        <time>2018-09-23T15:52:48.009Z</time>
      </trkpt>
      <trkpt lat="42.73421" lon="1.3928">
        <ele>2722</ele>
        <time>2018-09-23T15:53:07.009Z</time>
      </trkpt>
      <trkpt lat="42.73411" lon="1.39278">
        <ele>2722</ele>
        <time>2018-09-23T15:53:22.009Z</time>
      </trkpt>
      <trkpt lat="42.73401" lon="1.39281">
        <ele>2723</ele>
        <time>2018-09-23T15:53:45.009Z</time>
      </trkpt>
      <trkpt lat="42.7339" lon="1.39284">
        <ele>2727</ele>
        <time>2018-09-23T15:55:18.009Z</time>
      </trkpt>
      <trkpt lat="42.7338" lon="1.39285">
        <ele>2728.1579904</ele>
        <time>2018-09-23T15:55:31.009Z</time>
      </trkpt>
      <trkpt lat="42.7337" lon="1.39288">
        <ele>2732</ele>
        <time>2018-09-23T15:55:40.009Z</time>
      </trkpt>
      <trkpt lat="42.7336" lon="1.39282">
        <ele>2732</ele>
        <time>2018-09-23T15:55:53.009Z</time>
      </trkpt>
      <trkpt lat="42.73349" lon="1.39282">
        <ele>2732</ele>
        <time>2018-09-23T15:56:03.009Z</time>
      </trkpt>
      <trkpt lat="42.7334" lon="1.39286">
        <ele>2735</ele>
        <time>2018-09-23T15:56:12.009Z</time>
      </trkpt>
      <trkpt lat="42.73332" lon="1.39278">
        <ele>2735</ele>
        <time>2018-09-23T15:56:27.009Z</time>
      </trkpt>
      <trkpt lat="42.73324" lon="1.39285">
        <ele>2736</ele>
        <time>2018-09-23T15:56:48.009Z</time>
      </trkpt>
      <trkpt lat="42.7332" lon="1.393">
        <ele>2734</ele>
        <time>2018-09-23T15:57:13.009Z</time>
      </trkpt>
      <trkpt lat="42.73318" lon="1.39314">
        <ele>2734</ele>
        <time>2018-09-23T15:57:24.009Z</time>
      </trkpt>
      <trkpt lat="42.73309" lon="1.39322">
        <ele>2734</ele>
        <time>2018-09-23T15:57:33.009Z</time>
      </trkpt>
      <trkpt lat="42.73301" lon="1.39331">
        <ele>2735</ele>
        <time>2018-09-23T15:57:43.009Z</time>
      </trkpt>
      <trkpt lat="42.73292" lon="1.39328">
        <ele>2739.4210048</ele>
        <time>2018-09-23T15:58:01.009Z</time>
      </trkpt>
      <trkpt lat="42.73282" lon="1.39327">
        <ele>2740</ele>
        <time>2018-09-23T15:58:15.009Z</time>
      </trkpt>
      <trkpt lat="42.73273" lon="1.39322">
        <ele>2739</ele>
        <time>2018-09-23T15:58:29.009Z</time>
      </trkpt>
      <trkpt lat="42.73263" lon="1.39321">
        <ele>2740</ele>
        <time>2018-09-23T15:58:40.009Z</time>
      </trkpt>
      <trkpt lat="42.73253" lon="1.3932">
        <ele>2740</ele>
        <time>2018-09-23T15:58:52.009Z</time>
      </trkpt>
      <trkpt lat="42.73246" lon="1.39313">
        <ele>2740</ele>
        <time>2018-09-23T15:59:01.009Z</time>
      </trkpt>
      <trkpt lat="42.73238" lon="1.39308">
        <ele>2736.4210048</ele>
        <time>2018-09-23T15:59:16.009Z</time>
      </trkpt>
      <trkpt lat="42.73228" lon="1.39305">
        <ele>2733.1579904</ele>
        <time>2018-09-23T15:59:31.009Z</time>
      </trkpt>
      <trkpt lat="42.7322" lon="1.39312">
        <ele>2730.4210048</ele>
        <time>2018-09-23T15:59:42.009Z</time>
      </trkpt>
      <trkpt lat="42.73219" lon="1.39322">
        <ele>2725.4210048</ele>
        <time>2018-09-23T15:59:53.009Z</time>
      </trkpt>
      <trkpt lat="42.73223" lon="1.39332">
        <ele>2722.4210048</ele>
        <time>2018-09-23T16:00:00.009Z</time>
      </trkpt>
      <trkpt lat="42.73227" lon="1.39338">
        <ele>2713.4210048</ele>
        <time>2018-09-23T16:00:15.009Z</time>
      </trkpt>
      <trkpt lat="42.7323" lon="1.39348">
        <ele>2711.5789952</ele>
        <time>2018-09-23T16:00:21.009Z</time>
      </trkpt>
      <trkpt lat="42.73229" lon="1.39357">
        <ele>2710</ele>
        <time>2018-09-23T16:00:26.009Z</time>
      </trkpt>
      <trkpt lat="42.73224" lon="1.39364">
        <ele>2708</ele>
        <time>2018-09-23T16:00:31.009Z</time>
      </trkpt>
      <trkpt lat="42.73226" lon="1.39371">
        <ele>2705</ele>
        <time>2018-09-23T16:00:37.009Z</time>
      </trkpt>
      <trkpt lat="42.73222" lon="1.39384">
        <ele>2701</ele>
        <time>2018-09-23T16:00:50.009Z</time>
      </trkpt>
      <trkpt lat="42.73212" lon="1.39387">
        <ele>2694.4210048</ele>
        <time>2018-09-23T16:01:04.009Z</time>
      </trkpt>
      <trkpt lat="42.73202" lon="1.39389">
        <ele>2687</ele>
        <time>2018-09-23T16:01:23.009Z</time>
      </trkpt>
      <trkpt lat="42.73196" lon="1.3939">
        <ele>2686</ele>
        <time>2018-09-23T16:01:28.009Z</time>
      </trkpt>
      <trkpt lat="42.73188" lon="1.3939">
        <ele>2681.4210048</ele>
        <time>2018-09-23T16:01:34.009Z</time>
      </trkpt>
      <trkpt lat="42.7318" lon="1.39391">
        <ele>2677.4210048</ele>
        <time>2018-09-23T16:01:41.009Z</time>
      </trkpt>
      <trkpt lat="42.73172" lon="1.39394">
        <ele>2676</ele>
        <time>2018-09-23T16:01:52.009Z</time>
      </trkpt>
      <trkpt lat="42.73166" lon="1.394">
        <ele>2673</ele>
        <time>2018-09-23T16:02:07.009Z</time>
      </trkpt>
      <trkpt lat="42.73161" lon="1.39401">
        <ele>2673</ele>
        <time>2018-09-23T16:02:19.009Z</time>
      </trkpt>
      <trkpt lat="42.73154" lon="1.39401">
        <ele>2670</ele>
        <time>2018-09-23T16:02:37.009Z</time>
      </trkpt>
      <trkpt lat="42.7315" lon="1.39409">
        <ele>2669</ele>
        <time>2018-09-23T16:02:54.009Z</time>
      </trkpt>
      <trkpt lat="42.73141" lon="1.39414">
        <ele>2666</ele>
        <time>2018-09-23T16:03:14.009Z</time>
      </trkpt>
      <trkpt lat="42.73131" lon="1.39416">
        <ele>2665</ele>
        <time>2018-09-23T16:03:24.009Z</time>
      </trkpt>
      <trkpt lat="42.73124" lon="1.39421">
        <ele>2662</ele>
        <time>2018-09-23T16:03:34.009Z</time>
      </trkpt>
      <trkpt lat="42.73119" lon="1.39428">
        <ele>2661</ele>
        <time>2018-09-23T16:03:42.009Z</time>
      </trkpt>
      <trkpt lat="42.73111" lon="1.3943">
        <ele>2658</ele>
        <time>2018-09-23T16:04:03.009Z</time>
      </trkpt>
      <trkpt lat="42.73102" lon="1.39438">
        <ele>2658</ele>
        <time>2018-09-23T16:04:19.009Z</time>
      </trkpt>
      <trkpt lat="42.73094" lon="1.39443">
        <ele>2657</ele>
        <time>2018-09-23T16:04:30.009Z</time>
      </trkpt>
      <trkpt lat="42.73086" lon="1.3944">
        <ele>2654</ele>
        <time>2018-09-23T16:04:45.009Z</time>
      </trkpt>
      <trkpt lat="42.73077" lon="1.39443">
        <ele>2649</ele>
        <time>2018-09-23T16:04:59.009Z</time>
      </trkpt>
      <trkpt lat="42.73071" lon="1.39445">
        <ele>2641.4210048</ele>
        <time>2018-09-23T16:05:41.009Z</time>
      </trkpt>
      <trkpt lat="42.7307" lon="1.39458">
        <ele>2637</ele>
        <time>2018-09-23T16:05:57.009Z</time>
      </trkpt>
      <trkpt lat="42.73065" lon="1.39464">
        <ele>2635</ele>
        <time>2018-09-23T16:06:03.009Z</time>
      </trkpt>
      <trkpt lat="42.73056" lon="1.3947">
        <ele>2632</ele>
        <time>2018-09-23T16:06:13.009Z</time>
      </trkpt>
      <trkpt lat="42.73047" lon="1.39476">
        <ele>2624</ele>
        <time>2018-09-23T16:06:26.009Z</time>
      </trkpt>
      <trkpt lat="42.73041" lon="1.39489">
        <ele>2610.8420096</ele>
        <time>2018-09-23T16:06:46.009Z</time>
      </trkpt>
      <trkpt lat="42.73037" lon="1.39503">
        <ele>2604.4210048</ele>
        <time>2018-09-23T16:06:56.009Z</time>
      </trkpt>
      <trkpt lat="42.73034" lon="1.39516">
        <ele>2599</ele>
        <time>2018-09-23T16:07:04.009Z</time>
      </trkpt>
      <trkpt lat="42.73029" lon="1.39525">
        <ele>2594.4210048</ele>
        <time>2018-09-23T16:07:14.009Z</time>
      </trkpt>
      <trkpt lat="42.73025" lon="1.39534">
        <ele>2588</ele>
        <time>2018-09-23T16:07:27.009Z</time>
      </trkpt>
      <trkpt lat="42.73017" lon="1.39534">
        <ele>2582</ele>
        <time>2018-09-23T16:07:35.009Z</time>
      </trkpt>
      <trkpt lat="42.73011" lon="1.39533">
        <ele>2577</ele>
        <time>2018-09-23T16:07:42.009Z</time>
      </trkpt>
      <trkpt lat="42.73005" lon="1.39535">
        <ele>2572</ele>
        <time>2018-09-23T16:07:51.009Z</time>
      </trkpt>
      <trkpt lat="42.73001" lon="1.39541">
        <ele>2562.4210048</ele>
        <time>2018-09-23T16:08:07.009Z</time>
      </trkpt>
      <trkpt lat="42.72994" lon="1.39545">
        <ele>2560</ele>
        <time>2018-09-23T16:08:14.009Z</time>
      </trkpt>
      <trkpt lat="42.72983" lon="1.39547">
        <ele>2560</ele>
        <time>2018-09-23T16:08:26.009Z</time>
      </trkpt>
      <trkpt lat="42.7298" lon="1.39556">
        <ele>2559</ele>
        <time>2018-09-23T16:08:36.009Z</time>
      </trkpt>
      <trkpt lat="42.72975" lon="1.39562">
        <ele>2559.5789952</ele>
        <time>2018-09-23T16:08:41.009Z</time>
      </trkpt>
      <trkpt lat="42.7297" lon="1.39574">
        <ele>2560</ele>
        <time>2018-09-23T16:08:54.009Z</time>
      </trkpt>
      <trkpt lat="42.72964" lon="1.39586">
        <ele>2559</ele>
        <time>2018-09-23T16:09:04.009Z</time>
      </trkpt>
      <trkpt lat="42.72955" lon="1.39593">
        <ele>2559</ele>
        <time>2018-09-23T16:09:14.009Z</time>
      </trkpt>
      <trkpt lat="42.72947" lon="1.39599">
        <ele>2559</ele>
        <time>2018-09-23T16:09:21.009Z</time>
      </trkpt>
      <trkpt lat="42.72939" lon="1.39609">
        <ele>2557</ele>
        <time>2018-09-23T16:09:34.009Z</time>
      </trkpt>
      <trkpt lat="42.72932" lon="1.39615">
        <ele>2556</ele>
        <time>2018-09-23T16:09:44.009Z</time>
      </trkpt>
      <trkpt lat="42.72926" lon="1.39623">
        <ele>2555</ele>
        <time>2018-09-23T16:09:55.009Z</time>
      </trkpt>
      <trkpt lat="42.7292" lon="1.39626">
        <ele>2553</ele>
        <time>2018-09-23T16:10:03.009Z</time>
      </trkpt>
      <trkpt lat="42.72919" lon="1.3964">
        <ele>2547</ele>
        <time>2018-09-23T16:10:16.009Z</time>
      </trkpt>
      <trkpt lat="42.72918" lon="1.39654">
        <ele>2540</ele>
        <time>2018-09-23T16:10:30.009Z</time>
      </trkpt>
      <trkpt lat="42.72914" lon="1.39667">
        <ele>2530.4210048</ele>
        <time>2018-09-23T16:10:42.009Z</time>
      </trkpt>
      <trkpt lat="42.72911" lon="1.39677">
        <ele>2525</ele>
        <time>2018-09-23T16:10:58.009Z</time>
      </trkpt>
      <trkpt lat="42.72906" lon="1.3968">
        <ele>2517.8420096</ele>
        <time>2018-09-23T16:11:11.009Z</time>
      </trkpt>
      <trkpt lat="42.72899" lon="1.39688">
        <ele>2510</ele>
        <time>2018-09-23T16:11:22.009Z</time>
      </trkpt>
      <trkpt lat="42.72889" lon="1.3969">
        <ele>2497</ele>
        <time>2018-09-23T16:12:04.009Z</time>
      </trkpt>
      <trkpt lat="42.72879" lon="1.39694">
        <ele>2495</ele>
        <time>2018-09-23T16:12:15.009Z</time>
      </trkpt>
      <trkpt lat="42.72871" lon="1.39703">
        <ele>2491</ele>
        <time>2018-09-23T16:12:27.009Z</time>
      </trkpt>
      <trkpt lat="42.72861" lon="1.39708">
        <ele>2485</ele>
        <time>2018-09-23T16:12:37.009Z</time>
      </trkpt>
      <trkpt lat="42.72853" lon="1.39713">
        <ele>2482</ele>
        <time>2018-09-23T16:12:49.009Z</time>
      </trkpt>
      <trkpt lat="42.72846" lon="1.39721">
        <ele>2480</ele>
        <time>2018-09-23T16:13:00.009Z</time>
      </trkpt>
      <trkpt lat="42.72839" lon="1.39731">
        <ele>2477</ele>
        <time>2018-09-23T16:13:13.009Z</time>
      </trkpt>
      <trkpt lat="42.72829" lon="1.39736">
        <ele>2474.4210048</ele>
        <time>2018-09-23T16:13:26.009Z</time>
      </trkpt>
      <trkpt lat="42.7282" lon="1.39743">
        <ele>2468</ele>
        <time>2018-09-23T16:13:43.009Z</time>
      </trkpt>
      <trkpt lat="42.72811" lon="1.39747">
        <ele>2465</ele>
        <time>2018-09-23T16:13:57.009Z</time>
      </trkpt>
      <trkpt lat="42.72803" lon="1.39754">
        <ele>2462</ele>
        <time>2018-09-23T16:14:08.009Z</time>
      </trkpt>
      <trkpt lat="42.72793" lon="1.39759">
        <ele>2458</ele>
        <time>2018-09-23T16:14:22.009Z</time>
      </trkpt>
      <trkpt lat="42.72784" lon="1.39765">
        <ele>2455</ele>
        <time>2018-09-23T16:14:35.009Z</time>
      </trkpt>
      <trkpt lat="42.72774" lon="1.39768">
        <ele>2452</ele>
        <time>2018-09-23T16:14:47.009Z</time>
      </trkpt>
      <trkpt lat="42.72766" lon="1.39778">
        <ele>2451</ele>
        <time>2018-09-23T16:14:56.009Z</time>
      </trkpt>
      <trkpt lat="42.72759" lon="1.39788">
        <ele>2450</ele>
        <time>2018-09-23T16:15:05.009Z</time>
      </trkpt>
      <trkpt lat="42.72753" lon="1.39799">
        <ele>2450</ele>
        <time>2018-09-23T16:15:18.009Z</time>
      </trkpt>
      <trkpt lat="42.72745" lon="1.39808">
        <ele>2329</ele>
        <time>2018-09-23T16:15:34.009Z</time>
      </trkpt>
      <trkpt lat="42.72734" lon="1.39812">
        <ele>2326.5789952</ele>
        <time>2018-09-23T16:15:49.009Z</time>
      </trkpt>
      <trkpt lat="42.72731" lon="1.39825">
        <ele>2325</ele>
        <time>2018-09-23T16:16:02.009Z</time>
      </trkpt>
      <trkpt lat="42.7272" lon="1.39827">
        <ele>2324</ele>
        <time>2018-09-23T16:16:16.009Z</time>
      </trkpt>
      <trkpt lat="42.72711" lon="1.39822">
        <ele>2320</ele>
        <time>2018-09-23T16:16:32.009Z</time>
      </trkpt>
      <trkpt lat="42.72703" lon="1.39831">
        <ele>2318</ele>
        <time>2018-09-23T16:16:45.009Z</time>
      </trkpt>
      <trkpt lat="42.72699" lon="1.39842">
        <ele>2318</ele>
        <time>2018-09-23T16:16:53.009Z</time>
      </trkpt>
      <trkpt lat="42.7269" lon="1.39848">
        <ele>2314</ele>
        <time>2018-09-23T16:17:07.009Z</time>
      </trkpt>
      <trkpt lat="42.72686" lon="1.39856">
        <ele>2313</ele>
        <time>2018-09-23T16:17:18.009Z</time>
      </trkpt>
      <trkpt lat="42.72681" lon="1.39865">
        <ele>2311</ele>
        <time>2018-09-23T16:17:25.009Z</time>
      </trkpt>
      <trkpt lat="42.72675" lon="1.39873">
        <ele>2310</ele>
        <time>2018-09-23T16:17:34.009Z</time>
      </trkpt>
      <trkpt lat="42.72668" lon="1.39877">
        <ele>2306</ele>
        <time>2018-09-23T16:17:53.009Z</time>
      </trkpt>
      <trkpt lat="42.72664" lon="1.3988">
        <ele>2304</ele>
        <time>2018-09-23T16:18:10.009Z</time>
      </trkpt>
      <trkpt lat="42.72657" lon="1.39883">
        <ele>2303</ele>
        <time>2018-09-23T16:18:27.009Z</time>
      </trkpt>
      <trkpt lat="42.72648" lon="1.39889">
        <ele>2302</ele>
        <time>2018-09-23T16:18:38.009Z</time>
      </trkpt>
      <trkpt lat="42.7264" lon="1.39889">
        <ele>2302</ele>
        <time>2018-09-23T16:18:43.009Z</time>
      </trkpt>
      <trkpt lat="42.72631" lon="1.39897">
        <ele>2302</ele>
        <time>2018-09-23T16:18:53.009Z</time>
      </trkpt>
      <trkpt lat="42.72624" lon="1.39899">
        <ele>2301</ele>
        <time>2018-09-23T16:19:04.009Z</time>
      </trkpt>
      <trkpt lat="42.72614" lon="1.399">
        <ele>2300</ele>
        <time>2018-09-23T16:19:14.009Z</time>
      </trkpt>
      <trkpt lat="42.72606" lon="1.39897">
        <ele>2298.8420096</ele>
        <time>2018-09-23T16:19:21.009Z</time>
      </trkpt>
      <trkpt lat="42.72599" lon="1.39895">
        <ele>2297</ele>
        <time>2018-09-23T16:19:30.009Z</time>
      </trkpt>
      <trkpt lat="42.72593" lon="1.39899">
        <ele>2295</ele>
        <time>2018-09-23T16:19:39.009Z</time>
      </trkpt>
      <trkpt lat="42.72589" lon="1.399">
        <ele>2294</ele>
        <time>2018-09-23T16:19:45.009Z</time>
      </trkpt>
      <trkpt lat="42.72582" lon="1.39904">
        <ele>2287</ele>
        <time>2018-09-23T16:19:58.009Z</time>
      </trkpt>
      <trkpt lat="42.72574" lon="1.39899">
        <ele>2282.5789952</ele>
        <time>2018-09-23T16:20:10.009Z</time>
      </trkpt>
      <trkpt lat="42.72569" lon="1.39907">
        <ele>2282</ele>
        <time>2018-09-23T16:20:19.009Z</time>
      </trkpt>
      <trkpt lat="42.72564" lon="1.39914">
        <ele>2278</ele>
        <time>2018-09-23T16:20:29.009Z</time>
      </trkpt>
      <trkpt lat="42.72555" lon="1.39919">
        <ele>2271.8420096</ele>
        <time>2018-09-23T16:20:46.009Z</time>
      </trkpt>
      <trkpt lat="42.72547" lon="1.39922">
        <ele>2270</ele>
        <time>2018-09-23T16:20:53.009Z</time>
      </trkpt>
      <trkpt lat="42.72541" lon="1.39927">
        <ele>2266</ele>
        <time>2018-09-23T16:21:02.009Z</time>
      </trkpt>
      <trkpt lat="42.72538" lon="1.39927">
        <ele>2264</ele>
        <time>2018-09-23T16:21:07.009Z</time>
      </trkpt>
      <trkpt lat="42.7253" lon="1.39928">
        <ele>2262</ele>
        <time>2018-09-23T16:21:19.009Z</time>
      </trkpt>
      <trkpt lat="42.72526" lon="1.39928">
        <ele>2260</ele>
        <time>2018-09-23T16:21:24.009Z</time>
      </trkpt>
      <trkpt lat="42.7252" lon="1.39929">
        <ele>2256.8420096</ele>
        <time>2018-09-23T16:21:31.009Z</time>
      </trkpt>
      <trkpt lat="42.72517" lon="1.3994">
        <ele>2227</ele>
        <time>2018-09-23T16:22:38.009Z</time>
      </trkpt>
      <trkpt lat="42.72517" lon="1.39945">
        <ele>2224.4210048</ele>
        <time>2018-09-23T16:22:42.009Z</time>
      </trkpt>
      <trkpt lat="42.72515" lon="1.39955">
        <ele>2218</ele>
        <time>2018-09-23T16:22:58.009Z</time>
      </trkpt>
      <trkpt lat="42.72513" lon="1.3996">
        <ele>2212</ele>
        <time>2018-09-23T16:23:09.009Z</time>
      </trkpt>
      <trkpt lat="42.72511" lon="1.39963">
        <ele>2210</ele>
        <time>2018-09-23T16:23:12.009Z</time>
      </trkpt>
      <trkpt lat="42.72509" lon="1.39967">
        <ele>2209.4210048</ele>
        <time>2018-09-23T16:23:17.009Z</time>
      </trkpt>
      <trkpt lat="42.72505" lon="1.39969">
        <ele>2205.2630144</ele>
        <time>2018-09-23T16:23:26.009Z</time>
      </trkpt>
      <trkpt lat="42.72503" lon="1.39976">
        <ele>2203.4210048</ele>
        <time>2018-09-23T16:23:31.009Z</time>
      </trkpt>
      <trkpt lat="42.725" lon="1.39983">
        <ele>2199.8420096</ele>
        <time>2018-09-23T16:23:41.009Z</time>
      </trkpt>
      <trkpt lat="42.72498" lon="1.39988">
        <ele>2196</ele>
        <time>2018-09-23T16:23:47.009Z</time>
      </trkpt>
      <trkpt lat="42.72496" lon="1.39994">
        <ele>2192.4210048</ele>
        <time>2018-09-23T16:23:55.009Z</time>
      </trkpt>
      <trkpt lat="42.72492" lon="1.39999">
        <ele>2190</ele>
        <time>2018-09-23T16:24:03.009Z</time>
      </trkpt>
      <trkpt lat="42.72488" lon="1.40004">
        <ele>2190</ele>
        <time>2018-09-23T16:24:10.009Z</time>
      </trkpt>
      <trkpt lat="42.72486" lon="1.4001">
        <ele>2185</ele>
        <time>2018-09-23T16:24:17.009Z</time>
      </trkpt>
      <trkpt lat="42.72483" lon="1.40014">
        <ele>2184</ele>
        <time>2018-09-23T16:24:24.009Z</time>
      </trkpt>
      <trkpt lat="42.72479" lon="1.40017">
        <ele>2182</ele>
        <time>2018-09-23T16:24:34.009Z</time>
      </trkpt>
      <trkpt lat="42.72474" lon="1.4002">
        <ele>2184.1579904</ele>
        <time>2018-09-23T16:24:41.009Z</time>
      </trkpt>
      <trkpt lat="42.72469" lon="1.40023">
        <ele>2188</ele>
        <time>2018-09-23T16:24:48.009Z</time>
      </trkpt>
      <trkpt lat="42.72465" lon="1.40028">
        <ele>2188</ele>
        <time>2018-09-23T16:24:55.009Z</time>
      </trkpt>
      <trkpt lat="42.72459" lon="1.40029">
        <ele>2185.5789952</ele>
        <time>2018-09-23T16:25:01.009Z</time>
      </trkpt>
      <trkpt lat="42.72455" lon="1.40032">
        <ele>2186</ele>
        <time>2018-09-23T16:25:08.009Z</time>
      </trkpt>
      <trkpt lat="42.72451" lon="1.40035">
        <ele>2182</ele>
        <time>2018-09-23T16:25:17.009Z</time>
      </trkpt>
      <trkpt lat="42.72447" lon="1.40039">
        <ele>2180</ele>
        <time>2018-09-23T16:25:24.009Z</time>
      </trkpt>
      <trkpt lat="42.72443" lon="1.40043">
        <ele>2178</ele>
        <time>2018-09-23T16:25:32.009Z</time>
      </trkpt>
      <trkpt lat="42.72439" lon="1.40045">
        <ele>2178</ele>
        <time>2018-09-23T16:25:42.009Z</time>
      </trkpt>
      <trkpt lat="42.72436" lon="1.40049">
        <ele>2178</ele>
        <time>2018-09-23T16:25:50.009Z</time>
      </trkpt>
      <trkpt lat="42.72432" lon="1.4005">
        <ele>2177</ele>
        <time>2018-09-23T16:25:58.009Z</time>
      </trkpt>
      <trkpt lat="42.72429" lon="1.40054">
        <ele>2176</ele>
        <time>2018-09-23T16:26:03.009Z</time>
      </trkpt>
      <trkpt lat="42.72424" lon="1.40057">
        <ele>2176</ele>
        <time>2018-09-23T16:26:09.009Z</time>
      </trkpt>
      <trkpt lat="42.72419" lon="1.40056">
        <ele>2175</ele>
        <time>2018-09-23T16:26:16.009Z</time>
      </trkpt>
      <trkpt lat="42.72414" lon="1.40053">
        <ele>2173</ele>
        <time>2018-09-23T16:26:23.009Z</time>
      </trkpt>
      <trkpt lat="42.72409" lon="1.40052">
        <ele>2170</ele>
        <time>2018-09-23T16:26:34.009Z</time>
      </trkpt>
      <trkpt lat="42.72405" lon="1.40051">
        <ele>2169</ele>
        <time>2018-09-23T16:26:40.009Z</time>
      </trkpt>
      <trkpt lat="42.724" lon="1.40051">
        <ele>2167</ele>
        <time>2018-09-23T16:26:49.009Z</time>
      </trkpt>
      <trkpt lat="42.72396" lon="1.40056">
        <ele>2162</ele>
        <time>2018-09-23T16:27:02.009Z</time>
      </trkpt>
      <trkpt lat="42.7239" lon="1.40056">
        <ele>2160</ele>
        <time>2018-09-23T16:27:09.009Z</time>
      </trkpt>
      <trkpt lat="42.72383" lon="1.40059">
        <ele>2158</ele>
        <time>2018-09-23T16:27:18.009Z</time>
      </trkpt>
      <trkpt lat="42.72377" lon="1.40061">
        <ele>2155</ele>
        <time>2018-09-23T16:27:25.009Z</time>
      </trkpt>
      <trkpt lat="42.7237" lon="1.40062">
        <ele>2150.8420096</ele>
        <time>2018-09-23T16:27:36.009Z</time>
      </trkpt>
      <trkpt lat="42.72363" lon="1.40057">
        <ele>2145</ele>
        <time>2018-09-23T16:27:50.009Z</time>
      </trkpt>
      <trkpt lat="42.72355" lon="1.40055">
        <ele>2132.4210048</ele>
        <time>2018-09-23T16:28:06.009Z</time>
      </trkpt>
      <trkpt lat="42.72352" lon="1.40059">
        <ele>2129.4210048</ele>
        <time>2018-09-23T16:28:12.009Z</time>
      </trkpt>
      <trkpt lat="42.72348" lon="1.40061">
        <ele>2124.4210048</ele>
        <time>2018-09-23T16:28:20.009Z</time>
      </trkpt>
      <trkpt lat="42.72345" lon="1.40067">
        <ele>2112</ele>
        <time>2018-09-23T16:28:34.009Z</time>
      </trkpt>
      <trkpt lat="42.72338" lon="1.4007">
        <ele>2103.4210048</ele>
        <time>2018-09-23T16:28:47.009Z</time>
      </trkpt>
      <trkpt lat="42.72334" lon="1.40065">
        <ele>2098.4210048</ele>
        <time>2018-09-23T16:28:58.009Z</time>
      </trkpt>
      <trkpt lat="42.72328" lon="1.40058">
        <ele>2092.4210048</ele>
        <time>2018-09-23T16:29:09.009Z</time>
      </trkpt>
      <trkpt lat="42.72323" lon="1.40063">
        <ele>2079.4210048</ele>
        <time>2018-09-23T16:29:22.009Z</time>
      </trkpt>
      <trkpt lat="42.72318" lon="1.40065">
        <ele>2070.4210048</ele>
        <time>2018-09-23T16:29:32.009Z</time>
      </trkpt>
      <trkpt lat="42.72312" lon="1.40068">
        <ele>2058.4210048</ele>
        <time>2018-09-23T16:29:47.009Z</time>
      </trkpt>
      <trkpt lat="42.72308" lon="1.40064">
        <ele>2048</ele>
        <time>2018-09-23T16:29:57.009Z</time>
      </trkpt>
      <trkpt lat="42.72303" lon="1.40061">
        <ele>2041.4210048</ele>
        <time>2018-09-23T16:30:05.009Z</time>
      </trkpt>
      <trkpt lat="42.72297" lon="1.4006">
        <ele>2032</ele>
        <time>2018-09-23T16:30:14.009Z</time>
      </trkpt>
      <trkpt lat="42.72291" lon="1.40062">
        <ele>2024.4210048</ele>
        <time>2018-09-23T16:30:24.009Z</time>
      </trkpt>
      <trkpt lat="42.72286" lon="1.40066">
        <ele>2016</ele>
        <time>2018-09-23T16:30:33.009Z</time>
      </trkpt>
      <trkpt lat="42.7228" lon="1.40063">
        <ele>2008.4210048</ele>
        <time>2018-09-23T16:30:43.009Z</time>
      </trkpt>
      <trkpt lat="42.72274" lon="1.40062">
        <ele>1998.4210048</ele>
        <time>2018-09-23T16:30:55.009Z</time>
      </trkpt>
      <trkpt lat="42.72268" lon="1.40061">
        <ele>1990.4210048</ele>
        <time>2018-09-23T16:31:05.009Z</time>
      </trkpt>
      <trkpt lat="42.7226" lon="1.4006">
        <ele>1980</ele>
        <time>2018-09-23T16:31:16.009Z</time>
      </trkpt>
      <trkpt lat="42.72255" lon="1.4006">
        <ele>1966.4210048</ele>
        <time>2018-09-23T16:31:29.009Z</time>
      </trkpt>
      <trkpt lat="42.7225" lon="1.40059">
        <ele>1955.4210048</ele>
        <time>2018-09-23T16:31:44.009Z</time>
      </trkpt>
      <trkpt lat="42.72243" lon="1.40058">
        <ele>1946.4210048</ele>
        <time>2018-09-23T16:31:56.009Z</time>
      </trkpt>
      <trkpt lat="42.72237" lon="1.4006">
        <ele>1939.4210048</ele>
        <time>2018-09-23T16:32:06.009Z</time>
      </trkpt>
      <trkpt lat="42.72235" lon="1.40062">
        <ele>1923.4210048</ele>
        <time>2018-09-23T16:32:28.009Z</time>
      </trkpt>
      <trkpt lat="42.72231" lon="1.40067">
        <ele>1906</ele>
        <time>2018-09-23T16:32:53.009Z</time>
      </trkpt>
      <trkpt lat="42.72228" lon="1.40063">
        <ele>1901.4210048</ele>
        <time>2018-09-23T16:32:59.009Z</time>
      </trkpt>
      <trkpt lat="42.72221" lon="1.40066">
        <ele>1891.4210048</ele>
        <time>2018-09-23T16:33:13.009Z</time>
      </trkpt>
      <trkpt lat="42.72214" lon="1.40065">
        <ele>1884.4210048</ele>
        <time>2018-09-23T16:33:21.009Z</time>
      </trkpt>
      <trkpt lat="42.72208" lon="1.40065">
        <ele>1876.8420096</ele>
        <time>2018-09-23T16:33:29.009Z</time>
      </trkpt>
      <trkpt lat="42.72202" lon="1.4007">
        <ele>1864.4210048</ele>
        <time>2018-09-23T16:33:44.009Z</time>
      </trkpt>
      <trkpt lat="42.72195" lon="1.40078">
        <ele>1853.4210048</ele>
        <time>2018-09-23T16:34:00.009Z</time>
      </trkpt>
      <trkpt lat="42.72192" lon="1.40085">
        <ele>1845</ele>
        <time>2018-09-23T16:34:17.009Z</time>
      </trkpt>
      <trkpt lat="42.72189" lon="1.40095">
        <ele>1841</ele>
        <time>2018-09-23T16:34:28.009Z</time>
      </trkpt>
      <trkpt lat="42.72184" lon="1.40103">
        <ele>1834.4210048</ele>
        <time>2018-09-23T16:34:37.009Z</time>
      </trkpt>
      <trkpt lat="42.72179" lon="1.40103">
        <ele>1832</ele>
        <time>2018-09-23T16:34:42.009Z</time>
      </trkpt>
      <trkpt lat="42.72175" lon="1.40103">
        <ele>1828</ele>
        <time>2018-09-23T16:34:49.009Z</time>
      </trkpt>
      <trkpt lat="42.72171" lon="1.40105">
        <ele>1823</ele>
        <time>2018-09-23T16:34:59.009Z</time>
      </trkpt>
      <trkpt lat="42.72167" lon="1.40105">
        <ele>1820</ele>
        <time>2018-09-23T16:35:05.009Z</time>
      </trkpt>
      <trkpt lat="42.72164" lon="1.40106">
        <ele>1816</ele>
        <time>2018-09-23T16:35:13.009Z</time>
      </trkpt>
      <trkpt lat="42.72161" lon="1.40108">
        <ele>1814</ele>
        <time>2018-09-23T16:35:19.009Z</time>
      </trkpt>
      <trkpt lat="42.72156" lon="1.40102">
        <ele>1811.8420096</ele>
        <time>2018-09-23T16:35:26.009Z</time>
      </trkpt>
      <trkpt lat="42.72153" lon="1.40104">
        <ele>1809</ele>
        <time>2018-09-23T16:35:38.009Z</time>
      </trkpt>
      <trkpt lat="42.72151" lon="1.40108">
        <ele>1804.2630144</ele>
        <time>2018-09-23T16:35:46.009Z</time>
      </trkpt>
      <trkpt lat="42.72148" lon="1.40106">
        <ele>1791</ele>
        <time>2018-09-23T16:37:03.009Z</time>
      </trkpt>
      <trkpt lat="42.72144" lon="1.40104">
        <ele>1791</ele>
        <time>2018-09-23T16:37:08.009Z</time>
      </trkpt>
      <trkpt lat="42.72139" lon="1.40106">
        <ele>1789.8420096</ele>
        <time>2018-09-23T16:37:21.009Z</time>
      </trkpt>
      <trkpt lat="42.72135" lon="1.40111">
        <ele>1789</ele>
        <time>2018-09-23T16:37:28.009Z</time>
      </trkpt>
      <trkpt lat="42.72135" lon="1.40117">
        <ele>1784</ele>
        <time>2018-09-23T16:37:37.009Z</time>
      </trkpt>
      <trkpt lat="42.72132" lon="1.40121">
        <ele>1781</ele>
        <time>2018-09-23T16:37:53.009Z</time>
      </trkpt>
      <trkpt lat="42.72126" lon="1.40125">
        <ele>1780</ele>
        <time>2018-09-23T16:38:08.009Z</time>
      </trkpt>
      <trkpt lat="42.72123" lon="1.40134">
        <ele>1778</ele>
        <time>2018-09-23T16:38:22.009Z</time>
      </trkpt>
      <trkpt lat="42.72116" lon="1.40145">
        <ele>1775</ele>
        <time>2018-09-23T16:38:43.009Z</time>
      </trkpt>
      <trkpt lat="42.72108" lon="1.40139">
        <ele>1768.2630144</ele>
        <time>2018-09-23T16:39:01.009Z</time>
      </trkpt>
      <trkpt lat="42.72102" lon="1.40136">
        <ele>1767</ele>
        <time>2018-09-23T16:39:10.009Z</time>
      </trkpt>
      <trkpt lat="42.72095" lon="1.40133">
        <ele>1763</ele>
        <time>2018-09-23T16:39:21.009Z</time>
      </trkpt>
      <trkpt lat="42.72087" lon="1.40135">
        <ele>1763</ele>
        <time>2018-09-23T16:39:29.009Z</time>
      </trkpt>
      <trkpt lat="42.72076" lon="1.40135">
        <ele>1761</ele>
        <time>2018-09-23T16:39:40.009Z</time>
      </trkpt>
      <trkpt lat="42.72065" lon="1.40137">
        <ele>1755</ele>
        <time>2018-09-23T16:39:53.009Z</time>
      </trkpt>
      <trkpt lat="42.72057" lon="1.4014">
        <ele>1752</ele>
        <time>2018-09-23T16:40:04.009Z</time>
      </trkpt>
      <trkpt lat="42.72053" lon="1.40148">
        <ele>1748.2630144</ele>
        <time>2018-09-23T16:40:21.009Z</time>
      </trkpt>
      <trkpt lat="42.72051" lon="1.40154">
        <ele>1745</ele>
        <time>2018-09-23T16:40:37.009Z</time>
      </trkpt>
      <trkpt lat="42.72046" lon="1.4016">
        <ele>1745</ele>
        <time>2018-09-23T16:40:48.009Z</time>
      </trkpt>
      <trkpt lat="42.72039" lon="1.40164">
        <ele>1743</ele>
        <time>2018-09-23T16:40:55.009Z</time>
      </trkpt>
      <trkpt lat="42.72033" lon="1.4017">
        <ele>1740</ele>
        <time>2018-09-23T16:41:03.009Z</time>
      </trkpt>
      <trkpt lat="42.72024" lon="1.40176">
        <ele>1740</ele>
        <time>2018-09-23T16:41:11.009Z</time>
      </trkpt>
      <trkpt lat="42.7202" lon="1.40185">
        <ele>1740</ele>
        <time>2018-09-23T16:41:20.009Z</time>
      </trkpt>
      <trkpt lat="42.72015" lon="1.40193">
        <ele>1742</ele>
        <time>2018-09-23T16:41:30.009Z</time>
      </trkpt>
      <trkpt lat="42.72012" lon="1.40196">
        <ele>1736</ele>
        <time>2018-09-23T16:41:56.009Z</time>
      </trkpt>
      <trkpt lat="42.72002" lon="1.40193">
        <ele>1735</ele>
        <time>2018-09-23T16:42:07.009Z</time>
      </trkpt>
      <trkpt lat="42.71993" lon="1.4019">
        <ele>1736</ele>
        <time>2018-09-23T16:42:16.009Z</time>
      </trkpt>
      <trkpt lat="42.71983" lon="1.40192">
        <ele>1735</ele>
        <time>2018-09-23T16:42:25.009Z</time>
      </trkpt>
      <trkpt lat="42.7199" lon="1.4019">
        <ele>1722</ele>
        <time>2018-09-23T16:44:10.009Z</time>
      </trkpt>
      <trkpt lat="42.71998" lon="1.40189">
        <ele>1727.5789952</ele>
        <time>2018-09-23T16:44:53.009Z</time>
      </trkpt>
      <trkpt lat="42.72006" lon="1.40192">
        <ele>1732</ele>
        <time>2018-09-23T16:45:28.009Z</time>
      </trkpt>
      <trkpt lat="42.72012" lon="1.40195">
        <ele>1734</ele>
        <time>2018-09-23T16:45:44.009Z</time>
      </trkpt>
      <trkpt lat="42.72016" lon="1.40184">
        <ele>1737.5747440008</ele>
        <time>2018-09-23T16:46:01.009Z</time>
      </trkpt>
      <trkpt lat="42.72021" lon="1.40174">
        <ele>1738</ele>
        <time>2018-09-23T16:46:09.009Z</time>
      </trkpt>
      <trkpt lat="42.72027" lon="1.40168">
        <ele>1741</ele>
        <time>2018-09-23T16:46:17.009Z</time>
      </trkpt>
      <trkpt lat="42.72036" lon="1.40161">
        <ele>1743</ele>
        <time>2018-09-23T16:46:26.009Z</time>
      </trkpt>
      <trkpt lat="42.72039" lon="1.40158">
        <ele>1743</ele>
        <time>2018-09-23T16:46:37.009Z</time>
      </trkpt>
      <trkpt lat="42.72034" lon="1.40167">
        <ele>1743.1579904</ele>
        <time>2018-09-23T16:47:01.009Z</time>
      </trkpt>
      <trkpt lat="42.72027" lon="1.40172">
        <ele>1744</ele>
        <time>2018-09-23T16:47:10.009Z</time>
      </trkpt>
      <trkpt lat="42.72021" lon="1.40183">
        <ele>1744</ele>
        <time>2018-09-23T16:47:24.009Z</time>
      </trkpt>
      <trkpt lat="42.72016" lon="1.40189">
        <ele>1744.4210048</ele>
        <time>2018-09-23T16:47:31.009Z</time>
      </trkpt>
      <trkpt lat="42.72013" lon="1.40199">
        <ele>1746</ele>
        <time>2018-09-23T16:47:43.009Z</time>
      </trkpt>
      <trkpt lat="42.72008" lon="1.40196">
        <ele>1745</ele>
        <time>2018-09-23T16:47:53.009Z</time>
      </trkpt>
      <trkpt lat="42.71999" lon="1.4019">
        <ele>1744</ele>
        <time>2018-09-23T16:48:02.009Z</time>
      </trkpt>
      <trkpt lat="42.71989" lon="1.4019">
        <ele>1744</ele>
        <time>2018-09-23T16:48:12.009Z</time>
      </trkpt>
      <trkpt lat="42.7198" lon="1.40193">
        <ele>1741.6840192</ele>
        <time>2018-09-23T16:48:21.009Z</time>
      </trkpt>
      <trkpt lat="42.71976" lon="1.40204">
        <ele>1740</ele>
        <time>2018-09-23T16:48:29.009Z</time>
      </trkpt>
      <trkpt lat="42.71971" lon="1.40211">
        <ele>1740</ele>
        <time>2018-09-23T16:48:35.009Z</time>
      </trkpt>
      <trkpt lat="42.71964" lon="1.40214">
        <ele>1741</ele>
        <time>2018-09-23T16:48:42.009Z</time>
      </trkpt>
      <trkpt lat="42.71965" lon="1.40203">
        <ele>1739.8420096</ele>
        <time>2018-09-23T16:48:51.009Z</time>
      </trkpt>
      <trkpt lat="42.71966" lon="1.4019">
        <ele>1737.2630144</ele>
        <time>2018-09-23T16:49:01.009Z</time>
      </trkpt>
      <trkpt lat="42.7197" lon="1.40176">
        <ele>1736</ele>
        <time>2018-09-23T16:49:12.009Z</time>
      </trkpt>
      <trkpt lat="42.71978" lon="1.4017">
        <ele>1735</ele>
        <time>2018-09-23T16:49:22.009Z</time>
      </trkpt>
      <trkpt lat="42.71986" lon="1.40165">
        <ele>1733.2630144</ele>
        <time>2018-09-23T16:49:31.009Z</time>
      </trkpt>
      <trkpt lat="42.71994" lon="1.40163">
        <ele>1733</ele>
        <time>2018-09-23T16:49:42.009Z</time>
      </trkpt>
      <trkpt lat="42.71995" lon="1.4015">
        <ele>1731.2630144</ele>
        <time>2018-09-23T16:50:01.009Z</time>
      </trkpt>
      <trkpt lat="42.71995" lon="1.40138">
        <ele>1730</ele>
        <time>2018-09-23T16:50:10.009Z</time>
      </trkpt>
      <trkpt lat="42.71995" lon="1.40123">
        <ele>1729</ele>
        <time>2018-09-23T16:50:19.009Z</time>
      </trkpt>
      <trkpt lat="42.72" lon="1.40112">
        <ele>1728</ele>
        <time>2018-09-23T16:50:28.009Z</time>
      </trkpt>
      <trkpt lat="42.72006" lon="1.401">
        <ele>1727</ele>
        <time>2018-09-23T16:50:40.009Z</time>
      </trkpt>
      <trkpt lat="42.72009" lon="1.40088">
        <ele>1723</ele>
        <time>2018-09-23T16:50:48.009Z</time>
      </trkpt>
      <trkpt lat="42.72002" lon="1.40098">
        <ele>1720</ele>
        <time>2018-09-23T16:51:03.009Z</time>
      </trkpt>
      <trkpt lat="42.71991" lon="1.40104">
        <ele>1720</ele>
        <time>2018-09-23T16:51:13.009Z</time>
      </trkpt>
      <trkpt lat="42.71983" lon="1.40108">
        <ele>1720</ele>
        <time>2018-09-23T16:51:22.009Z</time>
      </trkpt>
      <trkpt lat="42.71983" lon="1.40097">
        <ele>1718.8420096</ele>
        <time>2018-09-23T16:51:31.009Z</time>
      </trkpt>
      <trkpt lat="42.71989" lon="1.40086">
        <ele>1718</ele>
        <time>2018-09-23T16:51:40.009Z</time>
      </trkpt>
      <trkpt lat="42.71993" lon="1.40074">
        <ele>1716</ele>
        <time>2018-09-23T16:51:49.009Z</time>
      </trkpt>
      <trkpt lat="42.72" lon="1.40072">
        <ele>1715</ele>
        <time>2018-09-23T16:51:57.009Z</time>
      </trkpt>
      <trkpt lat="42.72004" lon="1.40064">
        <ele>1710</ele>
        <time>2018-09-23T16:52:05.009Z</time>
      </trkpt>
      <trkpt lat="42.72008" lon="1.40058">
        <ele>1710</ele>
        <time>2018-09-23T16:52:12.009Z</time>
      </trkpt>
      <trkpt lat="42.72007" lon="1.40051">
        <ele>1710</ele>
        <time>2018-09-23T16:52:21.009Z</time>
      </trkpt>
      <trkpt lat="42.72005" lon="1.40047">
        <ele>1710</ele>
        <time>2018-09-23T16:52:24.009Z</time>
      </trkpt>
      <trkpt lat="42.72002" lon="1.4004">
        <ele>1710</ele>
        <time>2018-09-23T16:52:29.009Z</time>
      </trkpt>
      <trkpt lat="42.72003" lon="1.40034">
        <ele>1710</ele>
        <time>2018-09-23T16:52:32.009Z</time>
      </trkpt>
      <trkpt lat="42.72004" lon="1.4003">
        <ele>1710</ele>
        <time>2018-09-23T16:52:35.009Z</time>
      </trkpt>
      <trkpt lat="42.72005" lon="1.40027">
        <ele>1710</ele>
        <time>2018-09-23T16:52:37.009Z</time>
      </trkpt>
      <trkpt lat="42.72006" lon="1.40024">
        <ele>1710</ele>
        <time>2018-09-23T16:52:39.009Z</time>
      </trkpt>
      <trkpt lat="42.72011" lon="1.40012">
        <ele>1708</ele>
        <time>2018-09-23T16:52:47.009Z</time>
      </trkpt>
      <trkpt lat="42.72004" lon="1.40004">
        <ele>1706</ele>
        <time>2018-09-23T16:52:56.009Z</time>
      </trkpt>
      <trkpt lat="42.71997" lon="1.39998">
        <ele>1702</ele>
        <time>2018-09-23T16:53:04.009Z</time>
      </trkpt>
      <trkpt lat="42.7199" lon="1.40003">
        <ele>1699</ele>
        <time>2018-09-23T16:53:14.009Z</time>
      </trkpt>
      <trkpt lat="42.71986" lon="1.40011">
        <ele>1697</ele>
        <time>2018-09-23T16:53:28.009Z</time>
      </trkpt>
      <trkpt lat="42.71983" lon="1.40016">
        <ele>1695</ele>
        <time>2018-09-23T16:53:32.009Z</time>
      </trkpt>
      <trkpt lat="42.71981" lon="1.40025">
        <ele>1693.4210048</ele>
        <time>2018-09-23T16:53:51.009Z</time>
      </trkpt>
      <trkpt lat="42.71981" lon="1.40034">
        <ele>1693</ele>
        <time>2018-09-23T16:53:59.009Z</time>
      </trkpt>
      <trkpt lat="42.71978" lon="1.40043">
        <ele>1688</ele>
        <time>2018-09-23T16:54:12.009Z</time>
      </trkpt>
      <trkpt lat="42.71968" lon="1.40047">
        <ele>1686</ele>
        <time>2018-09-23T16:54:25.009Z</time>
      </trkpt>
      <trkpt lat="42.71958" lon="1.40052">
        <ele>1686</ele>
        <time>2018-09-23T16:54:36.009Z</time>
      </trkpt>
      <trkpt lat="42.7195" lon="1.40059">
        <ele>1686</ele>
        <time>2018-09-23T16:54:45.009Z</time>
      </trkpt>
      <trkpt lat="42.71941" lon="1.40063">
        <ele>1685</ele>
        <time>2018-09-23T16:54:54.009Z</time>
      </trkpt>
      <trkpt lat="42.71936" lon="1.40075">
        <ele>1680</ele>
        <time>2018-09-23T16:55:04.009Z</time>
      </trkpt>
      <trkpt lat="42.71937" lon="1.40089">
        <ele>1677</ele>
        <time>2018-09-23T16:55:15.009Z</time>
      </trkpt>
      <trkpt lat="42.71934" lon="1.40102">
        <ele>1675</ele>
        <time>2018-09-23T16:55:27.009Z</time>
      </trkpt>
      <trkpt lat="42.71924" lon="1.40108">
        <ele>1675</ele>
        <time>2018-09-23T16:55:37.009Z</time>
      </trkpt>
      <trkpt lat="42.71918" lon="1.40112">
        <ele>1674</ele>
        <time>2018-09-23T16:55:43.009Z</time>
      </trkpt>
      <trkpt lat="42.7191" lon="1.40116">
        <ele>1671</ele>
        <time>2018-09-23T16:55:54.009Z</time>
      </trkpt>
      <trkpt lat="42.71901" lon="1.40123">
        <ele>1672</ele>
        <time>2018-09-23T16:56:02.009Z</time>
      </trkpt>
      <trkpt lat="42.71893" lon="1.40126">
        <ele>1672</ele>
        <time>2018-09-23T16:56:10.009Z</time>
      </trkpt>
      <trkpt lat="42.71889" lon="1.40133">
        <ele>1672</ele>
        <time>2018-09-23T16:56:16.009Z</time>
      </trkpt>
      <trkpt lat="42.71884" lon="1.4014">
        <ele>1670.2630144</ele>
        <time>2018-09-23T16:56:21.009Z</time>
      </trkpt>
      <trkpt lat="42.71875" lon="1.40145">
        <ele>1668</ele>
        <time>2018-09-23T16:56:29.009Z</time>
      </trkpt>
      <trkpt lat="42.71867" lon="1.40155">
        <ele>1667</ele>
        <time>2018-09-23T16:56:40.009Z</time>
      </trkpt>
      <trkpt lat="42.71862" lon="1.40165">
        <ele>1665.8420096</ele>
        <time>2018-09-23T16:56:51.009Z</time>
      </trkpt>
      <trkpt lat="42.71855" lon="1.40171">
        <ele>1665</ele>
        <time>2018-09-23T16:56:59.009Z</time>
      </trkpt>
      <trkpt lat="42.71847" lon="1.40177">
        <ele>1663</ele>
        <time>2018-09-23T16:57:07.009Z</time>
      </trkpt>
      <trkpt lat="42.71844" lon="1.40179">
        <ele>1663</ele>
        <time>2018-09-23T16:57:10.009Z</time>
      </trkpt>
      <trkpt lat="42.71834" lon="1.40187">
        <ele>1663</ele>
        <time>2018-09-23T16:57:18.009Z</time>
      </trkpt>
      <trkpt lat="42.71826" lon="1.40196">
        <ele>1658.8420096</ele>
        <time>2018-09-23T16:57:26.009Z</time>
      </trkpt>
      <trkpt lat="42.7182" lon="1.40202">
        <ele>1658</ele>
        <time>2018-09-23T16:57:31.009Z</time>
      </trkpt>
      <trkpt lat="42.71811" lon="1.40206">
        <ele>1656.8420096</ele>
        <time>2018-09-23T16:57:41.009Z</time>
      </trkpt>
      <trkpt lat="42.71816" lon="1.40192">
        <ele>1655</ele>
        <time>2018-09-23T16:58:03.009Z</time>
      </trkpt>
      <trkpt lat="42.7182" lon="1.40179">
        <ele>1655</ele>
        <time>2018-09-23T16:58:10.009Z</time>
      </trkpt>
      <trkpt lat="42.71823" lon="1.40171">
        <ele>1654</ele>
        <time>2018-09-23T16:58:14.009Z</time>
      </trkpt>
      <trkpt lat="42.71828" lon="1.40165">
        <ele>1654</ele>
        <time>2018-09-23T16:58:19.009Z</time>
      </trkpt>
      <trkpt lat="42.71832" lon="1.40158">
        <ele>1652</ele>
        <time>2018-09-23T16:58:24.009Z</time>
      </trkpt>
      <trkpt lat="42.71836" lon="1.40151">
        <ele>1652</ele>
        <time>2018-09-23T16:58:29.009Z</time>
      </trkpt>
      <trkpt lat="42.71839" lon="1.40144">
        <ele>1650</ele>
        <time>2018-09-23T16:58:34.009Z</time>
      </trkpt>
      <trkpt lat="42.71839" lon="1.40134">
        <ele>1647</ele>
        <time>2018-09-23T16:58:42.009Z</time>
      </trkpt>
      <trkpt lat="42.71841" lon="1.40125">
        <ele>1646</ele>
        <time>2018-09-23T16:58:48.009Z</time>
      </trkpt>
      <trkpt lat="42.71849" lon="1.40117">
        <ele>1643</ele>
        <time>2018-09-23T16:59:03.009Z</time>
      </trkpt>
      <trkpt lat="42.71851" lon="1.40104">
        <ele>1643</ele>
        <time>2018-09-23T16:59:13.009Z</time>
      </trkpt>
      <trkpt lat="42.71853" lon="1.40099">
        <ele>1643</ele>
        <time>2018-09-23T16:59:17.009Z</time>
      </trkpt>
      <trkpt lat="42.71855" lon="1.40093">
        <ele>1641</ele>
        <time>2018-09-23T16:59:23.009Z</time>
      </trkpt>
      <trkpt lat="42.71859" lon="1.40089">
        <ele>1641</ele>
        <time>2018-09-23T16:59:28.009Z</time>
      </trkpt>
      <trkpt lat="42.71862" lon="1.40086">
        <ele>1639.8420096</ele>
        <time>2018-09-23T16:59:31.009Z</time>
      </trkpt>
      <trkpt lat="42.71866" lon="1.40082">
        <ele>1639</ele>
        <time>2018-09-23T16:59:34.009Z</time>
      </trkpt>
      <trkpt lat="42.71869" lon="1.40073">
        <ele>1636</ele>
        <time>2018-09-23T16:59:42.009Z</time>
      </trkpt>
      <trkpt lat="42.71863" lon="1.40079">
        <ele>1634</ele>
        <time>2018-09-23T16:59:48.009Z</time>
      </trkpt>
      <trkpt lat="42.71856" lon="1.40083">
        <ele>1635</ele>
        <time>2018-09-23T16:59:54.009Z</time>
      </trkpt>
      <trkpt lat="42.71848" lon="1.40088">
        <ele>1633</ele>
        <time>2018-09-23T17:00:02.009Z</time>
      </trkpt>
      <trkpt lat="42.71843" lon="1.40093">
        <ele>1633</ele>
        <time>2018-09-23T17:00:07.009Z</time>
      </trkpt>
      <trkpt lat="42.71836" lon="1.401">
        <ele>1633</ele>
        <time>2018-09-23T17:00:14.009Z</time>
      </trkpt>
      <trkpt lat="42.7183" lon="1.40111">
        <ele>1633</ele>
        <time>2018-09-23T17:00:23.009Z</time>
      </trkpt>
      <trkpt lat="42.71824" lon="1.40116">
        <ele>1633</ele>
        <time>2018-09-23T17:00:29.009Z</time>
      </trkpt>
      <trkpt lat="42.71819" lon="1.40126">
        <ele>1631</ele>
        <time>2018-09-23T17:00:36.009Z</time>
      </trkpt>
      <trkpt lat="42.71812" lon="1.40132">
        <ele>1630</ele>
        <time>2018-09-23T17:00:42.009Z</time>
      </trkpt>
      <trkpt lat="42.71801" lon="1.40138">
        <ele>1630</ele>
        <time>2018-09-23T17:00:50.009Z</time>
      </trkpt>
      <trkpt lat="42.71795" lon="1.40147">
        <ele>1630</ele>
        <time>2018-09-23T17:00:57.009Z</time>
      </trkpt>
      <trkpt lat="42.71791" lon="1.40153">
        <ele>1628</ele>
        <time>2018-09-23T17:01:02.009Z</time>
      </trkpt>
      <trkpt lat="42.71787" lon="1.40162">
        <ele>1628</ele>
        <time>2018-09-23T17:01:07.009Z</time>
      </trkpt>
      <trkpt lat="42.71781" lon="1.40174">
        <ele>1628</ele>
        <time>2018-09-23T17:01:16.009Z</time>
      </trkpt>
      <trkpt lat="42.71784" lon="1.40161">
        <ele>1623</ele>
        <time>2018-09-23T17:01:51.009Z</time>
      </trkpt>
      <trkpt lat="42.71787" lon="1.40147">
        <ele>1620</ele>
        <time>2018-09-23T17:02:02.009Z</time>
      </trkpt>
      <trkpt lat="42.71792" lon="1.40135">
        <ele>1618</ele>
        <time>2018-09-23T17:02:12.009Z</time>
      </trkpt>
      <trkpt lat="42.71798" lon="1.40123">
        <ele>1618</ele>
        <time>2018-09-23T17:02:20.009Z</time>
      </trkpt>
      <trkpt lat="42.71805" lon="1.40112">
        <ele>1617</ele>
        <time>2018-09-23T17:02:28.009Z</time>
      </trkpt>
      <trkpt lat="42.71811" lon="1.401">
        <ele>1617</ele>
        <time>2018-09-23T17:02:36.009Z</time>
      </trkpt>
      <trkpt lat="42.71813" lon="1.40087">
        <ele>1616</ele>
        <time>2018-09-23T17:02:45.009Z</time>
      </trkpt>
      <trkpt lat="42.71819" lon="1.40076">
        <ele>1615</ele>
        <time>2018-09-23T17:02:53.009Z</time>
      </trkpt>
      <trkpt lat="42.71825" lon="1.40065">
        <ele>1615</ele>
        <time>2018-09-23T17:03:00.009Z</time>
      </trkpt>
      <trkpt lat="42.71828" lon="1.4005">
        <ele>1612</ele>
        <time>2018-09-23T17:03:08.009Z</time>
      </trkpt>
      <trkpt lat="42.71828" lon="1.40036">
        <ele>1611</ele>
        <time>2018-09-23T17:03:17.009Z</time>
      </trkpt>
      <trkpt lat="42.71823" lon="1.40042">
        <ele>1607</ele>
        <time>2018-09-23T17:03:32.009Z</time>
      </trkpt>
      <trkpt lat="42.71819" lon="1.40052">
        <ele>1606</ele>
        <time>2018-09-23T17:03:39.009Z</time>
      </trkpt>
      <trkpt lat="42.7181" lon="1.40061">
        <ele>1606</ele>
        <time>2018-09-23T17:03:46.009Z</time>
      </trkpt>
      <trkpt lat="42.71802" lon="1.40063">
        <ele>1605</ele>
        <time>2018-09-23T17:03:53.009Z</time>
      </trkpt>
      <trkpt lat="42.71793" lon="1.40069">
        <ele>1599</ele>
        <time>2018-09-23T17:04:02.009Z</time>
      </trkpt>
      <trkpt lat="42.71787" lon="1.40077">
        <ele>1597</ele>
        <time>2018-09-23T17:04:09.009Z</time>
      </trkpt>
      <trkpt lat="42.71781" lon="1.40083">
        <ele>1597</ele>
        <time>2018-09-23T17:04:14.009Z</time>
      </trkpt>
      <trkpt lat="42.71777" lon="1.4009">
        <ele>1597</ele>
        <time>2018-09-23T17:04:20.009Z</time>
      </trkpt>
      <trkpt lat="42.71771" lon="1.40095">
        <ele>1596</ele>
        <time>2018-09-23T17:04:25.009Z</time>
      </trkpt>
      <trkpt lat="42.71766" lon="1.401">
        <ele>1596</ele>
        <time>2018-09-23T17:04:30.009Z</time>
      </trkpt>
      <trkpt lat="42.71764" lon="1.40109">
        <ele>1595</ele>
        <time>2018-09-23T17:04:35.009Z</time>
      </trkpt>
      <trkpt lat="42.7176" lon="1.40122">
        <ele>1592</ele>
        <time>2018-09-23T17:04:45.009Z</time>
      </trkpt>
      <trkpt lat="42.71751" lon="1.40129">
        <ele>1589</ele>
        <time>2018-09-23T17:04:55.009Z</time>
      </trkpt>
      <trkpt lat="42.7174" lon="1.40132">
        <ele>1587</ele>
        <time>2018-09-23T17:05:05.009Z</time>
      </trkpt>
      <trkpt lat="42.71729" lon="1.40133">
        <ele>1587</ele>
        <time>2018-09-23T17:05:13.009Z</time>
      </trkpt>
      <trkpt lat="42.71719" lon="1.40131">
        <ele>1587</ele>
        <time>2018-09-23T17:05:20.009Z</time>
      </trkpt>
      <trkpt lat="42.71713" lon="1.40133">
        <ele>1585</ele>
        <time>2018-09-23T17:05:27.009Z</time>
      </trkpt>
      <trkpt lat="42.71705" lon="1.40142">
        <ele>1581.4210048</ele>
        <time>2018-09-23T17:05:36.009Z</time>
      </trkpt>
      <trkpt lat="42.71697" lon="1.4015">
        <ele>1580</ele>
        <time>2018-09-23T17:05:47.009Z</time>
      </trkpt>
      <trkpt lat="42.71688" lon="1.40157">
        <ele>1579</ele>
        <time>2018-09-23T17:05:55.009Z</time>
      </trkpt>
      <trkpt lat="42.71677" lon="1.40159">
        <ele>1577</ele>
        <time>2018-09-23T17:06:04.009Z</time>
      </trkpt>
      <trkpt lat="42.71668" lon="1.40164">
        <ele>1577</ele>
        <time>2018-09-23T17:06:13.009Z</time>
      </trkpt>
      <trkpt lat="42.71659" lon="1.40173">
        <ele>1577</ele>
        <time>2018-09-23T17:06:20.009Z</time>
      </trkpt>
      <trkpt lat="42.71648" lon="1.40176">
        <ele>1575</ele>
        <time>2018-09-23T17:06:30.009Z</time>
      </trkpt>
      <trkpt lat="42.71638" lon="1.4018">
        <ele>1573</ele>
        <time>2018-09-23T17:06:40.009Z</time>
      </trkpt>
      <trkpt lat="42.71628" lon="1.40183">
        <ele>1572</ele>
        <time>2018-09-23T17:06:49.009Z</time>
      </trkpt>
      <trkpt lat="42.71618" lon="1.40186">
        <ele>1570</ele>
        <time>2018-09-23T17:06:57.009Z</time>
      </trkpt>
      <trkpt lat="42.71609" lon="1.40191">
        <ele>1565.4210048</ele>
        <time>2018-09-23T17:07:11.009Z</time>
      </trkpt>
      <trkpt lat="42.71601" lon="1.40201">
        <ele>1563</ele>
        <time>2018-09-23T17:07:24.009Z</time>
      </trkpt>
      <trkpt lat="42.71592" lon="1.40206">
        <ele>1560</ele>
        <time>2018-09-23T17:07:33.009Z</time>
      </trkpt>
      <trkpt lat="42.71582" lon="1.40205">
        <ele>1557</ele>
        <time>2018-09-23T17:07:44.009Z</time>
      </trkpt>
      <trkpt lat="42.71585" lon="1.40192">
        <ele>1554</ele>
        <time>2018-09-23T17:07:55.009Z</time>
      </trkpt>
      <trkpt lat="42.71592" lon="1.40181">
        <ele>1551</ele>
        <time>2018-09-23T17:08:04.009Z</time>
      </trkpt>
      <trkpt lat="42.71599" lon="1.40171">
        <ele>1550</ele>
        <time>2018-09-23T17:08:12.009Z</time>
      </trkpt>
      <trkpt lat="42.71605" lon="1.40163">
        <ele>1550</ele>
        <time>2018-09-23T17:08:18.009Z</time>
      </trkpt>
      <trkpt lat="42.71612" lon="1.40152">
        <ele>1549</ele>
        <time>2018-09-23T17:08:26.009Z</time>
      </trkpt>
      <trkpt lat="42.71618" lon="1.40141">
        <ele>1548</ele>
        <time>2018-09-23T17:08:35.009Z</time>
      </trkpt>
      <trkpt lat="42.71626" lon="1.40131">
        <ele>1547</ele>
        <time>2018-09-23T17:08:43.009Z</time>
      </trkpt>
      <trkpt lat="42.71634" lon="1.40126">
        <ele>1547</ele>
        <time>2018-09-23T17:08:50.009Z</time>
      </trkpt>
      <trkpt lat="42.7164" lon="1.40117">
        <ele>1545</ele>
        <time>2018-09-23T17:08:56.009Z</time>
      </trkpt>
      <trkpt lat="42.71645" lon="1.40105">
        <ele>1541</ele>
        <time>2018-09-23T17:09:04.009Z</time>
      </trkpt>
      <trkpt lat="42.71651" lon="1.40093">
        <ele>1539</ele>
        <time>2018-09-23T17:09:13.009Z</time>
      </trkpt>
      <trkpt lat="42.71654" lon="1.4008">
        <ele>1538.4210048</ele>
        <time>2018-09-23T17:09:21.009Z</time>
      </trkpt>
      <trkpt lat="42.71656" lon="1.40071">
        <ele>1538</ele>
        <time>2018-09-23T17:09:28.009Z</time>
      </trkpt>
      <trkpt lat="42.71645" lon="1.40071">
        <ele>1536</ele>
        <time>2018-09-23T17:09:38.009Z</time>
      </trkpt>
      <trkpt lat="42.71636" lon="1.40073">
        <ele>1530</ele>
        <time>2018-09-23T17:09:47.009Z</time>
      </trkpt>
      <trkpt lat="42.71625" lon="1.40071">
        <ele>1527</ele>
        <time>2018-09-23T17:09:57.009Z</time>
      </trkpt>
      <trkpt lat="42.71616" lon="1.40079">
        <ele>1524.4210048</ele>
        <time>2018-09-23T17:10:06.009Z</time>
      </trkpt>
      <trkpt lat="42.71606" lon="1.40079">
        <ele>1523</ele>
        <time>2018-09-23T17:10:15.009Z</time>
      </trkpt>
      <trkpt lat="42.71596" lon="1.40084">
        <ele>1521</ele>
        <time>2018-09-23T17:10:23.009Z</time>
      </trkpt>
      <trkpt lat="42.71586" lon="1.40086">
        <ele>1519.2630144</ele>
        <time>2018-09-23T17:10:31.009Z</time>
      </trkpt>
      <trkpt lat="42.71577" lon="1.40095">
        <ele>1516</ele>
        <time>2018-09-23T17:10:40.009Z</time>
      </trkpt>
      <trkpt lat="42.7157" lon="1.40106">
        <ele>1514</ele>
        <time>2018-09-23T17:10:50.009Z</time>
      </trkpt>
      <trkpt lat="42.71563" lon="1.40116">
        <ele>1513</ele>
        <time>2018-09-23T17:10:58.009Z</time>
      </trkpt>
      <trkpt lat="42.71555" lon="1.40123">
        <ele>1510</ele>
        <time>2018-09-23T17:11:10.009Z</time>
      </trkpt>
      <trkpt lat="42.71546" lon="1.40132">
        <ele>1509</ele>
        <time>2018-09-23T17:11:19.009Z</time>
      </trkpt>
      <trkpt lat="42.71536" lon="1.40137">
        <ele>1505</ele>
        <time>2018-09-23T17:11:33.009Z</time>
      </trkpt>
      <trkpt lat="42.71527" lon="1.40142">
        <ele>1503</ele>
        <time>2018-09-23T17:11:43.009Z</time>
      </trkpt>
      <trkpt lat="42.71517" lon="1.40147">
        <ele>1500</ele>
        <time>2018-09-23T17:11:52.009Z</time>
      </trkpt>
      <trkpt lat="42.71511" lon="1.40159">
        <ele>1496.8420096</ele>
        <time>2018-09-23T17:12:01.009Z</time>
      </trkpt>
      <trkpt lat="42.71505" lon="1.40171">
        <ele>1494</ele>
        <time>2018-09-23T17:12:09.009Z</time>
      </trkpt>
      <trkpt lat="42.71498" lon="1.40181">
        <ele>1492</ele>
        <time>2018-09-23T17:12:18.009Z</time>
      </trkpt>
      <trkpt lat="42.71489" lon="1.40187">
        <ele>1491</ele>
        <time>2018-09-23T17:12:27.009Z</time>
      </trkpt>
      <trkpt lat="42.71482" lon="1.40198">
        <ele>1490</ele>
        <time>2018-09-23T17:12:38.009Z</time>
      </trkpt>
      <trkpt lat="42.71471" lon="1.40201">
        <ele>1489</ele>
        <time>2018-09-23T17:12:45.009Z</time>
      </trkpt>
      <trkpt lat="42.71461" lon="1.40207">
        <ele>1487</ele>
        <time>2018-09-23T17:12:54.009Z</time>
      </trkpt>
      <trkpt lat="42.71451" lon="1.40213">
        <ele>1482.5789952</ele>
        <time>2018-09-23T17:13:06.009Z</time>
      </trkpt>
      <trkpt lat="42.71442" lon="1.40217">
        <ele>1483</ele>
        <time>2018-09-23T17:13:15.009Z</time>
      </trkpt>
      <trkpt lat="42.71432" lon="1.40221">
        <ele>1481</ele>
        <time>2018-09-23T17:13:27.009Z</time>
      </trkpt>
      <trkpt lat="42.71422" lon="1.40222">
        <ele>1479</ele>
        <time>2018-09-23T17:13:38.009Z</time>
      </trkpt>
      <trkpt lat="42.71412" lon="1.40219">
        <ele>1475.2630144</ele>
        <time>2018-09-23T17:13:46.009Z</time>
      </trkpt>
      <trkpt lat="42.71401" lon="1.40221">
        <ele>1471.4210048</ele>
        <time>2018-09-23T17:13:56.009Z</time>
      </trkpt>
      <trkpt lat="42.7139" lon="1.40223">
        <ele>1468</ele>
        <time>2018-09-23T17:14:04.009Z</time>
      </trkpt>
      <trkpt lat="42.7138" lon="1.40228">
        <ele>1467</ele>
        <time>2018-09-23T17:14:12.009Z</time>
      </trkpt>
      <trkpt lat="42.71372" lon="1.40236">
        <ele>1467</ele>
        <time>2018-09-23T17:14:20.009Z</time>
      </trkpt>
      <trkpt lat="42.71362" lon="1.40243">
        <ele>1461</ele>
        <time>2018-09-23T17:14:29.009Z</time>
      </trkpt>
      <trkpt lat="42.71353" lon="1.40249">
        <ele>1457</ele>
        <time>2018-09-23T17:14:37.009Z</time>
      </trkpt>
      <trkpt lat="42.71342" lon="1.40247">
        <ele>1454.4210048</ele>
        <time>2018-09-23T17:14:46.009Z</time>
      </trkpt>
      <trkpt lat="42.71333" lon="1.4025">
        <ele>1449.2630144</ele>
        <time>2018-09-23T17:14:56.009Z</time>
      </trkpt>
      <trkpt lat="42.71325" lon="1.40249">
        <ele>1445.4210048</ele>
        <time>2018-09-23T17:15:03.009Z</time>
      </trkpt>
      <trkpt lat="42.71321" lon="1.40251">
        <ele>1443</ele>
        <time>2018-09-23T17:15:06.009Z</time>
      </trkpt>
      <trkpt lat="42.71311" lon="1.40254">
        <ele>1442</ele>
        <time>2018-09-23T17:15:14.009Z</time>
      </trkpt>
      <trkpt lat="42.71301" lon="1.40259">
        <ele>1435.5789952</ele>
        <time>2018-09-23T17:15:26.009Z</time>
      </trkpt>
      <trkpt lat="42.7129" lon="1.4026">
        <ele>1434</ele>
        <time>2018-09-23T17:15:33.009Z</time>
      </trkpt>
      <trkpt lat="42.7128" lon="1.40265">
        <ele>1434</ele>
        <time>2018-09-23T17:15:40.009Z</time>
      </trkpt>
      <trkpt lat="42.71271" lon="1.4027">
        <ele>1432</ele>
        <time>2018-09-23T17:15:49.009Z</time>
      </trkpt>
      <trkpt lat="42.71266" lon="1.40272">
        <ele>1430</ele>
        <time>2018-09-23T17:15:53.009Z</time>
      </trkpt>
      <trkpt lat="42.71262" lon="1.40274">
        <ele>1428</ele>
        <time>2018-09-23T17:15:58.009Z</time>
      </trkpt>
      <trkpt lat="42.71256" lon="1.40262">
        <ele>1426</ele>
        <time>2018-09-23T17:16:10.009Z</time>
      </trkpt>
      <trkpt lat="42.71253" lon="1.40276">
        <ele>1423</ele>
        <time>2018-09-23T17:16:24.009Z</time>
      </trkpt>
      <trkpt lat="42.71253" lon="1.40283">
        <ele>1420</ele>
        <time>2018-09-23T17:16:35.009Z</time>
      </trkpt>
      <trkpt lat="42.71244" lon="1.4029">
        <ele>1415</ele>
        <time>2018-09-23T17:17:05.009Z</time>
      </trkpt>
      <trkpt lat="42.71235" lon="1.40299">
        <ele>1407</ele>
        <time>2018-09-23T17:18:27.009Z</time>
      </trkpt>
      <trkpt lat="42.71228" lon="1.40308">
        <ele>1407</ele>
        <time>2018-09-23T17:18:31.009Z</time>
      </trkpt>
      <trkpt lat="42.71219" lon="1.40317">
        <ele>1407</ele>
        <time>2018-09-23T17:18:35.009Z</time>
      </trkpt>
      <trkpt lat="42.71209" lon="1.40322">
        <ele>1407</ele>
        <time>2018-09-23T17:18:39.009Z</time>
      </trkpt>
      <trkpt lat="42.712" lon="1.4033">
        <ele>1407</ele>
        <time>2018-09-23T17:18:44.009Z</time>
      </trkpt>
      <trkpt lat="42.71191" lon="1.40337">
        <ele>1407</ele>
        <time>2018-09-23T17:18:49.009Z</time>
      </trkpt>
      <trkpt lat="42.71182" lon="1.40346">
        <ele>1406</ele>
        <time>2018-09-23T17:18:54.009Z</time>
      </trkpt>
      <trkpt lat="42.71174" lon="1.40355">
        <ele>1406</ele>
        <time>2018-09-23T17:18:59.009Z</time>
      </trkpt>
      <trkpt lat="42.71165" lon="1.40366">
        <ele>1406</ele>
        <time>2018-09-23T17:19:04.009Z</time>
      </trkpt>
      <trkpt lat="42.71159" lon="1.40376">
        <ele>1406</ele>
        <time>2018-09-23T17:19:09.009Z</time>
      </trkpt>
      <trkpt lat="42.71151" lon="1.40386">
        <ele>1406</ele>
        <time>2018-09-23T17:19:17.009Z</time>
      </trkpt>
      <trkpt lat="42.71148" lon="1.40392">
        <ele>1405</ele>
        <time>2018-09-23T17:19:24.009Z</time>
      </trkpt>
      <trkpt lat="42.71144" lon="1.40405">
        <ele>1406</ele>
        <time>2018-09-23T17:19:36.009Z</time>
      </trkpt>
      <trkpt lat="42.71144" lon="1.40414">
        <ele>1408</ele>
        <time>2018-09-23T17:19:42.009Z</time>
      </trkpt>
      <trkpt lat="42.71141" lon="1.40427">
        <ele>1409.1579904</ele>
        <time>2018-09-23T17:19:51.009Z</time>
      </trkpt>
      <trkpt lat="42.71137" lon="1.4044">
        <ele>1410.5789952</ele>
        <time>2018-09-23T17:20:01.009Z</time>
      </trkpt>
      <trkpt lat="42.71135" lon="1.40454">
        <ele>1411</ele>
        <time>2018-09-23T17:20:10.009Z</time>
      </trkpt>
      <trkpt lat="42.71129" lon="1.40467">
        <ele>1413</ele>
        <time>2018-09-23T17:20:19.009Z</time>
      </trkpt>
      <trkpt lat="42.71126" lon="1.40478">
        <ele>1416.5789952</ele>
        <time>2018-09-23T17:20:26.009Z</time>
      </trkpt>
      <trkpt lat="42.71125" lon="1.40493">
        <ele>1419</ele>
        <time>2018-09-23T17:20:35.009Z</time>
      </trkpt>
      <trkpt lat="42.71121" lon="1.40506">
        <ele>1421</ele>
        <time>2018-09-23T17:20:42.009Z</time>
      </trkpt>
      <trkpt lat="42.7112" lon="1.40521">
        <ele>1421</ele>
        <time>2018-09-23T17:20:50.009Z</time>
      </trkpt>
      <trkpt lat="42.7112" lon="1.40534">
        <ele>1423</ele>
        <time>2018-09-23T17:21:00.009Z</time>
      </trkpt>
      <trkpt lat="42.71121" lon="1.40549">
        <ele>1427</ele>
        <time>2018-09-23T17:21:10.009Z</time>
      </trkpt>
      <trkpt lat="42.7112" lon="1.40564">
        <ele>1428</ele>
        <time>2018-09-23T17:21:17.009Z</time>
      </trkpt>
      <trkpt lat="42.71121" lon="1.40578">
        <ele>1430</ele>
        <time>2018-09-23T17:21:25.009Z</time>
      </trkpt>
      <trkpt lat="42.71122" lon="1.40592">
        <ele>1431</ele>
        <time>2018-09-23T17:21:32.009Z</time>
      </trkpt>
      <trkpt lat="42.71121" lon="1.40606">
        <ele>1431</ele>
        <time>2018-09-23T17:21:39.009Z</time>
      </trkpt>
      <trkpt lat="42.71121" lon="1.40616">
        <ele>1434</ele>
        <time>2018-09-23T17:21:46.009Z</time>
      </trkpt>
      <trkpt lat="42.71119" lon="1.40631">
        <ele>1435</ele>
        <time>2018-09-23T17:21:54.009Z</time>
      </trkpt>
      <trkpt lat="42.71119" lon="1.40644">
        <ele>1435</ele>
        <time>2018-09-23T17:22:00.009Z</time>
      </trkpt>
      <trkpt lat="42.71123" lon="1.40658">
        <ele>1435</ele>
        <time>2018-09-23T17:22:05.009Z</time>
      </trkpt>
      <trkpt lat="42.71127" lon="1.40672">
        <ele>1435</ele>
        <time>2018-09-23T17:22:12.009Z</time>
      </trkpt>
      <trkpt lat="42.7113" lon="1.40687">
        <ele>1435</ele>
        <time>2018-09-23T17:22:19.009Z</time>
      </trkpt>
      <trkpt lat="42.71132" lon="1.407">
        <ele>1436</ele>
        <time>2018-09-23T17:22:27.009Z</time>
      </trkpt>
      <trkpt lat="42.71136" lon="1.40713">
        <ele>1437</ele>
        <time>2018-09-23T17:22:35.009Z</time>
      </trkpt>
      <trkpt lat="42.71138" lon="1.40728">
        <ele>1437</ele>
        <time>2018-09-23T17:22:41.009Z</time>
      </trkpt>
      <trkpt lat="42.71145" lon="1.40739">
        <ele>1437</ele>
        <time>2018-09-23T17:22:48.009Z</time>
      </trkpt>
      <trkpt lat="42.71153" lon="1.4075">
        <ele>1436</ele>
        <time>2018-09-23T17:22:56.009Z</time>
      </trkpt>
      <trkpt lat="42.71158" lon="1.40763">
        <ele>1436</ele>
        <time>2018-09-23T17:23:05.009Z</time>
      </trkpt>
      <trkpt lat="42.71164" lon="1.40775">
        <ele>1436</ele>
        <time>2018-09-23T17:23:14.009Z</time>
      </trkpt>
      <trkpt lat="42.7117" lon="1.40786">
        <ele>1435</ele>
        <time>2018-09-23T17:23:23.009Z</time>
      </trkpt>
      <trkpt lat="42.71176" lon="1.40798">
        <ele>1435</ele>
        <time>2018-09-23T17:23:30.009Z</time>
      </trkpt>
      <trkpt lat="42.7118" lon="1.40811">
        <ele>1435</ele>
        <time>2018-09-23T17:23:34.009Z</time>
      </trkpt>
      <trkpt lat="42.71186" lon="1.40823">
        <ele>1435</ele>
        <time>2018-09-23T17:23:38.009Z</time>
      </trkpt>
      <trkpt lat="42.71194" lon="1.40835">
        <ele>1434</ele>
        <time>2018-09-23T17:23:43.009Z</time>
      </trkpt>
      <trkpt lat="42.71199" lon="1.40847">
        <ele>1434</ele>
        <time>2018-09-23T17:23:47.009Z</time>
      </trkpt>
      <trkpt lat="42.71204" lon="1.40861">
        <ele>1433</ele>
        <time>2018-09-23T17:23:52.009Z</time>
      </trkpt>
      <trkpt lat="42.7121" lon="1.40872">
        <ele>1433</ele>
        <time>2018-09-23T17:23:56.009Z</time>
      </trkpt>
      <trkpt lat="42.71215" lon="1.40884">
        <ele>1433</ele>
        <time>2018-09-23T17:24:00.009Z</time>
      </trkpt>
      <trkpt lat="42.7122" lon="1.40897">
        <ele>1431</ele>
        <time>2018-09-23T17:24:04.009Z</time>
      </trkpt>
      <trkpt lat="42.71224" lon="1.4091">
        <ele>1431</ele>
        <time>2018-09-23T17:24:08.009Z</time>
      </trkpt>
      <trkpt lat="42.71228" lon="1.40926">
        <ele>1431</ele>
        <time>2018-09-23T17:24:13.009Z</time>
      </trkpt>
      <trkpt lat="42.71231" lon="1.4094">
        <ele>1431</ele>
        <time>2018-09-23T17:24:17.009Z</time>
      </trkpt>
      <trkpt lat="42.71236" lon="1.40953">
        <ele>1430.4210048</ele>
        <time>2018-09-23T17:24:21.009Z</time>
      </trkpt>
      <trkpt lat="42.71239" lon="1.40968">
        <ele>1430</ele>
        <time>2018-09-23T17:24:26.009Z</time>
      </trkpt>
      <trkpt lat="42.71244" lon="1.40981">
        <ele>1430</ele>
        <time>2018-09-23T17:24:30.009Z</time>
      </trkpt>
      <trkpt lat="42.7125" lon="1.40993">
        <ele>1432</ele>
        <time>2018-09-23T17:24:35.009Z</time>
      </trkpt>
      <trkpt lat="42.71257" lon="1.41006">
        <ele>1432</ele>
        <time>2018-09-23T17:24:40.009Z</time>
      </trkpt>
      <trkpt lat="42.71255" lon="1.41021">
        <ele>1433</ele>
        <time>2018-09-23T17:24:45.009Z</time>
      </trkpt>
      <trkpt lat="42.71247" lon="1.41032">
        <ele>1433</ele>
        <time>2018-09-23T17:24:50.009Z</time>
      </trkpt>
      <trkpt lat="42.71241" lon="1.41044">
        <ele>1431</ele>
        <time>2018-09-23T17:24:56.009Z</time>
      </trkpt>
      <trkpt lat="42.71238" lon="1.41058">
        <ele>1431</ele>
        <time>2018-09-23T17:25:01.009Z</time>
      </trkpt>
      <trkpt lat="42.71236" lon="1.41073">
        <ele>1431</ele>
        <time>2018-09-23T17:25:06.009Z</time>
      </trkpt>
      <trkpt lat="42.71238" lon="1.41087">
        <ele>1431</ele>
        <time>2018-09-23T17:25:10.009Z</time>
      </trkpt>
      <trkpt lat="42.71241" lon="1.41099">
        <ele>1432</ele>
        <time>2018-09-23T17:25:14.009Z</time>
      </trkpt>
      <trkpt lat="42.71245" lon="1.41113">
        <ele>1432</ele>
        <time>2018-09-23T17:25:19.009Z</time>
      </trkpt>
      <trkpt lat="42.71247" lon="1.41128">
        <ele>1431</ele>
        <time>2018-09-23T17:25:23.009Z</time>
      </trkpt>
      <trkpt lat="42.71249" lon="1.41141">
        <ele>1431</ele>
        <time>2018-09-23T17:25:27.009Z</time>
      </trkpt>
      <trkpt lat="42.71254" lon="1.41155">
        <ele>1430</ele>
        <time>2018-09-23T17:25:32.009Z</time>
      </trkpt>
      <trkpt lat="42.71261" lon="1.41165">
        <ele>1430</ele>
        <time>2018-09-23T17:25:36.009Z</time>
      </trkpt>
      <trkpt lat="42.71267" lon="1.41177">
        <ele>1428.8420096</ele>
        <time>2018-09-23T17:25:41.009Z</time>
      </trkpt>
      <trkpt lat="42.7127" lon="1.41187">
        <ele>1428</ele>
        <time>2018-09-23T17:25:46.009Z</time>
      </trkpt>
      <trkpt lat="42.71262" lon="1.41196">
        <ele>1428</ele>
        <time>2018-09-23T17:25:50.009Z</time>
      </trkpt>
      <trkpt lat="42.71257" lon="1.41199">
        <ele>1425</ele>
        <time>2018-09-23T17:25:52.009Z</time>
      </trkpt>
      <trkpt lat="42.71252" lon="1.41202">
        <ele>1425</ele>
        <time>2018-09-23T17:25:54.009Z</time>
      </trkpt>
      <trkpt lat="42.71243" lon="1.41209">
        <ele>1423</ele>
        <time>2018-09-23T17:25:58.009Z</time>
      </trkpt>
      <trkpt lat="42.71234" lon="1.41219">
        <ele>1421</ele>
        <time>2018-09-23T17:26:03.009Z</time>
      </trkpt>
      <trkpt lat="42.71227" lon="1.4123">
        <ele>1421</ele>
        <time>2018-09-23T17:26:07.009Z</time>
      </trkpt>
      <trkpt lat="42.71219" lon="1.41237">
        <ele>1421</ele>
        <time>2018-09-23T17:26:10.009Z</time>
      </trkpt>
      <trkpt lat="42.71211" lon="1.41246">
        <ele>1420</ele>
        <time>2018-09-23T17:26:14.009Z</time>
      </trkpt>
      <trkpt lat="42.71202" lon="1.41257">
        <ele>1420</ele>
        <time>2018-09-23T17:26:18.009Z</time>
      </trkpt>
      <trkpt lat="42.71195" lon="1.4127">
        <ele>1415</ele>
        <time>2018-09-23T17:26:23.009Z</time>
      </trkpt>
      <trkpt lat="42.71191" lon="1.41282">
        <ele>1412</ele>
        <time>2018-09-23T17:26:27.009Z</time>
      </trkpt>
      <trkpt lat="42.71189" lon="1.41298">
        <ele>1410.8420096</ele>
        <time>2018-09-23T17:26:31.009Z</time>
      </trkpt>
      <trkpt lat="42.71185" lon="1.41313">
        <ele>1408</ele>
        <time>2018-09-23T17:26:36.009Z</time>
      </trkpt>
      <trkpt lat="42.71182" lon="1.41328">
        <ele>1407.4210048</ele>
        <time>2018-09-23T17:26:40.009Z</time>
      </trkpt>
      <trkpt lat="42.71179" lon="1.41341">
        <ele>1406</ele>
        <time>2018-09-23T17:26:45.009Z</time>
      </trkpt>
      <trkpt lat="42.71177" lon="1.41356">
        <ele>1406</ele>
        <time>2018-09-23T17:26:50.009Z</time>
      </trkpt>
      <trkpt lat="42.71176" lon="1.41372">
        <ele>1406</ele>
        <time>2018-09-23T17:26:55.009Z</time>
      </trkpt>
      <trkpt lat="42.71175" lon="1.41386">
        <ele>1406</ele>
        <time>2018-09-23T17:26:59.009Z</time>
      </trkpt>
      <trkpt lat="42.71173" lon="1.41401">
        <ele>1405</ele>
        <time>2018-09-23T17:27:04.009Z</time>
      </trkpt>
      <trkpt lat="42.7117" lon="1.41415">
        <ele>1405</ele>
        <time>2018-09-23T17:27:08.009Z</time>
      </trkpt>
      <trkpt lat="42.71165" lon="1.41429">
        <ele>1407</ele>
        <time>2018-09-23T17:27:13.009Z</time>
      </trkpt>
      <trkpt lat="42.71159" lon="1.41443">
        <ele>1407</ele>
        <time>2018-09-23T17:27:18.009Z</time>
      </trkpt>
      <trkpt lat="42.71154" lon="1.41457">
        <ele>1407</ele>
        <time>2018-09-23T17:27:22.009Z</time>
      </trkpt>
      <trkpt lat="42.71151" lon="1.41471">
        <ele>1407</ele>
        <time>2018-09-23T17:27:26.009Z</time>
      </trkpt>
      <trkpt lat="42.71149" lon="1.41485">
        <ele>1407</ele>
        <time>2018-09-23T17:27:30.009Z</time>
      </trkpt>
      <trkpt lat="42.71149" lon="1.41499">
        <ele>1406</ele>
        <time>2018-09-23T17:27:35.009Z</time>
      </trkpt>
      <trkpt lat="42.71149" lon="1.41513">
        <ele>1406</ele>
        <time>2018-09-23T17:27:39.009Z</time>
      </trkpt>
      <trkpt lat="42.7115" lon="1.41527">
        <ele>1403</ele>
        <time>2018-09-23T17:27:43.009Z</time>
      </trkpt>
      <trkpt lat="42.7115" lon="1.41542">
        <ele>1401</ele>
        <time>2018-09-23T17:27:48.009Z</time>
      </trkpt>
      <trkpt lat="42.71153" lon="1.41557">
        <ele>1402</ele>
        <time>2018-09-23T17:27:52.009Z</time>
      </trkpt>
      <trkpt lat="42.71156" lon="1.41573">
        <ele>1402</ele>
        <time>2018-09-23T17:27:56.009Z</time>
      </trkpt>
      <trkpt lat="42.7116" lon="1.41587">
        <ele>1402</ele>
        <time>2018-09-23T17:28:00.009Z</time>
      </trkpt>
      <trkpt lat="42.71153" lon="1.41598">
        <ele>1398</ele>
        <time>2018-09-23T17:28:04.009Z</time>
      </trkpt>
      <trkpt lat="42.7115" lon="1.41613">
        <ele>1397</ele>
        <time>2018-09-23T17:28:09.009Z</time>
      </trkpt>
      <trkpt lat="42.71149" lon="1.41629">
        <ele>1395</ele>
        <time>2018-09-23T17:28:13.009Z</time>
      </trkpt>
      <trkpt lat="42.71148" lon="1.41647">
        <ele>1391</ele>
        <time>2018-09-23T17:28:17.009Z</time>
      </trkpt>
      <trkpt lat="42.71148" lon="1.41663">
        <ele>1388.6840192</ele>
        <time>2018-09-23T17:28:21.009Z</time>
      </trkpt>
      <trkpt lat="42.71149" lon="1.41678">
        <ele>1383.4210048</ele>
        <time>2018-09-23T17:28:25.009Z</time>
      </trkpt>
      <trkpt lat="42.71147" lon="1.41693">
        <ele>1381</ele>
        <time>2018-09-23T17:28:29.009Z</time>
      </trkpt>
      <trkpt lat="42.71146" lon="1.41707">
        <ele>1379.4210048</ele>
        <time>2018-09-23T17:28:33.009Z</time>
      </trkpt>
      <trkpt lat="42.71141" lon="1.41721">
        <ele>1378</ele>
        <time>2018-09-23T17:28:41.009Z</time>
      </trkpt>
      <trkpt lat="42.71136" lon="1.41733">
        <ele>1377</ele>
        <time>2018-09-23T17:28:49.009Z</time>
      </trkpt>
      <trkpt lat="42.71131" lon="1.41745">
        <ele>1375</ele>
        <time>2018-09-23T17:28:54.009Z</time>
      </trkpt>
      <trkpt lat="42.71127" lon="1.41759">
        <ele>1373</ele>
        <time>2018-09-23T17:28:58.009Z</time>
      </trkpt>
      <trkpt lat="42.71123" lon="1.41772">
        <ele>1369</ele>
        <time>2018-09-23T17:29:02.009Z</time>
      </trkpt>
      <trkpt lat="42.71119" lon="1.41786">
        <ele>1367.4210048</ele>
        <time>2018-09-23T17:29:07.009Z</time>
      </trkpt>
      <trkpt lat="42.71115" lon="1.41799">
        <ele>1365</ele>
        <time>2018-09-23T17:29:12.009Z</time>
      </trkpt>
      <trkpt lat="42.71111" lon="1.41813">
        <ele>1364</ele>
        <time>2018-09-23T17:29:17.009Z</time>
      </trkpt>
      <trkpt lat="42.71107" lon="1.41825">
        <ele>1362</ele>
        <time>2018-09-23T17:29:22.009Z</time>
      </trkpt>
      <trkpt lat="42.71102" lon="1.41839">
        <ele>1359</ele>
        <time>2018-09-23T17:29:27.009Z</time>
      </trkpt>
      <trkpt lat="42.71097" lon="1.41852">
        <ele>1357</ele>
        <time>2018-09-23T17:29:32.009Z</time>
      </trkpt>
      <trkpt lat="42.71093" lon="1.41865">
        <ele>1354</ele>
        <time>2018-09-23T17:29:39.009Z</time>
      </trkpt>
      <trkpt lat="42.71087" lon="1.41879">
        <ele>1347</ele>
        <time>2018-09-23T17:29:46.009Z</time>
      </trkpt>
      <trkpt lat="42.71081" lon="1.41891">
        <ele>1342.4210048</ele>
        <time>2018-09-23T17:29:52.009Z</time>
      </trkpt>
      <trkpt lat="42.71079" lon="1.41904">
        <ele>1338.4210048</ele>
        <time>2018-09-23T17:29:58.009Z</time>
      </trkpt>
      <trkpt lat="42.71077" lon="1.41919">
        <ele>1334</ele>
        <time>2018-09-23T17:30:05.009Z</time>
      </trkpt>
      <trkpt lat="42.71074" lon="1.41934">
        <ele>1332</ele>
        <time>2018-09-23T17:30:11.009Z</time>
      </trkpt>
      <trkpt lat="42.71072" lon="1.41948">
        <ele>1330</ele>
        <time>2018-09-23T17:30:17.009Z</time>
      </trkpt>
      <trkpt lat="42.71068" lon="1.41962">
        <ele>1329</ele>
        <time>2018-09-23T17:30:23.009Z</time>
      </trkpt>
      <trkpt lat="42.71064" lon="1.41976">
        <ele>1329</ele>
        <time>2018-09-23T17:30:29.009Z</time>
      </trkpt>
      <trkpt lat="42.71059" lon="1.41988">
        <ele>1328</ele>
        <time>2018-09-23T17:30:36.009Z</time>
      </trkpt>
      <trkpt lat="42.71056" lon="1.42004">
        <ele>1317.4210048</ele>
        <time>2018-09-23T17:30:43.009Z</time>
      </trkpt>
      <trkpt lat="42.71053" lon="1.42018">
        <ele>1313</ele>
        <time>2018-09-23T17:30:49.009Z</time>
      </trkpt>
      <trkpt lat="42.71049" lon="1.42032">
        <ele>1310</ele>
        <time>2018-09-23T17:30:54.009Z</time>
      </trkpt>
      <trkpt lat="42.71045" lon="1.42046">
        <ele>1306</ele>
        <time>2018-09-23T17:30:59.009Z</time>
      </trkpt>
      <trkpt lat="42.71043" lon="1.4206">
        <ele>1302</ele>
        <time>2018-09-23T17:31:04.009Z</time>
      </trkpt>
      <trkpt lat="42.7104" lon="1.42074">
        <ele>1300</ele>
        <time>2018-09-23T17:31:10.009Z</time>
      </trkpt>
      <trkpt lat="42.71039" lon="1.42089">
        <ele>1295.4210048</ele>
        <time>2018-09-23T17:31:16.009Z</time>
      </trkpt>
      <trkpt lat="42.71038" lon="1.42102">
        <ele>1294</ele>
        <time>2018-09-23T17:31:20.009Z</time>
      </trkpt>
      <trkpt lat="42.71039" lon="1.42118">
        <ele>1294</ele>
        <time>2018-09-23T17:31:25.009Z</time>
      </trkpt>
      <trkpt lat="42.71037" lon="1.42133">
        <ele>1291</ele>
        <time>2018-09-23T17:31:30.009Z</time>
      </trkpt>
      <trkpt lat="42.71033" lon="1.42146">
        <ele>1283.4210048</ele>
        <time>2018-09-23T17:31:35.009Z</time>
      </trkpt>
      <trkpt lat="42.71027" lon="1.4216">
        <ele>1279</ele>
        <time>2018-09-23T17:31:40.009Z</time>
      </trkpt>
      <trkpt lat="42.71024" lon="1.42174">
        <ele>1274.4210048</ele>
        <time>2018-09-23T17:31:46.009Z</time>
      </trkpt>
      <trkpt lat="42.71023" lon="1.42188">
        <ele>1270</ele>
        <time>2018-09-23T17:31:51.009Z</time>
      </trkpt>
      <trkpt lat="42.71021" lon="1.42202">
        <ele>1266.4210048</ele>
        <time>2018-09-23T17:31:56.009Z</time>
      </trkpt>
      <trkpt lat="42.71015" lon="1.42216">
        <ele>1262</ele>
        <time>2018-09-23T17:32:02.009Z</time>
      </trkpt>
      <trkpt lat="42.71012" lon="1.4223">
        <ele>1257.4210048</ele>
        <time>2018-09-23T17:32:08.009Z</time>
      </trkpt>
      <trkpt lat="42.71009" lon="1.42245">
        <ele>1254</ele>
        <time>2018-09-23T17:32:13.009Z</time>
      </trkpt>
      <trkpt lat="42.7101" lon="1.4226">
        <ele>1250.4210048</ele>
        <time>2018-09-23T17:32:19.009Z</time>
      </trkpt>
      <trkpt lat="42.71009" lon="1.42274">
        <ele>1247.4210048</ele>
        <time>2018-09-23T17:32:24.009Z</time>
      </trkpt>
      <trkpt lat="42.71011" lon="1.42287">
        <ele>1246</ele>
        <time>2018-09-23T17:32:28.009Z</time>
      </trkpt>
      <trkpt lat="42.71016" lon="1.42299">
        <ele>1244</ele>
        <time>2018-09-23T17:32:32.009Z</time>
      </trkpt>
      <trkpt lat="42.71021" lon="1.42311">
        <ele>1241</ele>
        <time>2018-09-23T17:32:38.009Z</time>
      </trkpt>
      <trkpt lat="42.7101" lon="1.42308">
        <ele>1234.4210048</ele>
        <time>2018-09-23T17:32:47.009Z</time>
      </trkpt>
      <trkpt lat="42.71001" lon="1.42303">
        <ele>1231</ele>
        <time>2018-09-23T17:32:51.009Z</time>
      </trkpt>
      <trkpt lat="42.70992" lon="1.42296">
        <ele>1228.5789952</ele>
        <time>2018-09-23T17:32:55.009Z</time>
      </trkpt>
      <trkpt lat="42.70987" lon="1.42281">
        <ele>1225.4210048</ele>
        <time>2018-09-23T17:33:00.009Z</time>
      </trkpt>
      <trkpt lat="42.70982" lon="1.42267">
        <ele>1223</ele>
        <time>2018-09-23T17:33:07.009Z</time>
      </trkpt>
      <trkpt lat="42.70979" lon="1.42253">
        <ele>1222</ele>
        <time>2018-09-23T17:33:13.009Z</time>
      </trkpt>
      <trkpt lat="42.70978" lon="1.4224">
        <ele>1222</ele>
        <time>2018-09-23T17:33:17.009Z</time>
      </trkpt>
      <trkpt lat="42.70977" lon="1.42225">
        <ele>1220.2630144</ele>
        <time>2018-09-23T17:33:21.009Z</time>
      </trkpt>
      <trkpt lat="42.70975" lon="1.42207">
        <ele>1219</ele>
        <time>2018-09-23T17:33:25.009Z</time>
      </trkpt>
      <trkpt lat="42.70973" lon="1.4219">
        <ele>1215</ele>
        <time>2018-09-23T17:33:29.009Z</time>
      </trkpt>
      <trkpt lat="42.7097" lon="1.42173">
        <ele>1211</ele>
        <time>2018-09-23T17:33:34.009Z</time>
      </trkpt>
      <trkpt lat="42.70966" lon="1.42158">
        <ele>1208.5789952</ele>
        <time>2018-09-23T17:33:40.009Z</time>
      </trkpt>
      <trkpt lat="42.70961" lon="1.42145">
        <ele>1209</ele>
        <time>2018-09-23T17:33:45.009Z</time>
      </trkpt>
      <trkpt lat="42.70953" lon="1.42135">
        <ele>1208</ele>
        <time>2018-09-23T17:33:49.009Z</time>
      </trkpt>
      <trkpt lat="42.70947" lon="1.42124">
        <ele>1206</ele>
        <time>2018-09-23T17:33:53.009Z</time>
      </trkpt>
      <trkpt lat="42.7094" lon="1.42112">
        <ele>1204</ele>
        <time>2018-09-23T17:33:58.009Z</time>
      </trkpt>
      <trkpt lat="42.70932" lon="1.42102">
        <ele>1202</ele>
        <time>2018-09-23T17:34:03.009Z</time>
      </trkpt>
      <trkpt lat="42.70937" lon="1.42116">
        <ele>1201</ele>
        <time>2018-09-23T17:34:23.009Z</time>
      </trkpt>
      <trkpt lat="42.70941" lon="1.4213">
        <ele>1201</ele>
        <time>2018-09-23T17:34:29.009Z</time>
      </trkpt>
      <trkpt lat="42.70944" lon="1.42146">
        <ele>1200</ele>
        <time>2018-09-23T17:34:34.009Z</time>
      </trkpt>
      <trkpt lat="42.70948" lon="1.42161">
        <ele>1200</ele>
        <time>2018-09-23T17:34:38.009Z</time>
      </trkpt>
      <trkpt lat="42.7095" lon="1.42174">
        <ele>1197.7010239967</ele>
        <time>2018-09-23T17:34:41.009Z</time>
      </trkpt>
      <trkpt lat="42.70954" lon="1.42189">
        <ele>1193.6840192</ele>
        <time>2018-09-23T17:34:46.009Z</time>
      </trkpt>
      <trkpt lat="42.70957" lon="1.42205">
        <ele>1192</ele>
        <time>2018-09-23T17:34:50.009Z</time>
      </trkpt>
      <trkpt lat="42.70958" lon="1.42221">
        <ele>1187.4210048</ele>
        <time>2018-09-23T17:34:54.009Z</time>
      </trkpt>
      <trkpt lat="42.70959" lon="1.42236">
        <ele>1186</ele>
        <time>2018-09-23T17:34:58.009Z</time>
      </trkpt>
      <trkpt lat="42.70962" lon="1.42252">
        <ele>1184</ele>
        <time>2018-09-23T17:35:03.009Z</time>
      </trkpt>
      <trkpt lat="42.70964" lon="1.42267">
        <ele>1184</ele>
        <time>2018-09-23T17:35:08.009Z</time>
      </trkpt>
      <trkpt lat="42.70964" lon="1.42282">
        <ele>1180</ele>
        <time>2018-09-23T17:35:12.009Z</time>
      </trkpt>
      <trkpt lat="42.70965" lon="1.42296">
        <ele>1178.8420096</ele>
        <time>2018-09-23T17:35:16.009Z</time>
      </trkpt>
      <trkpt lat="42.70967" lon="1.42311">
        <ele>1178</ele>
        <time>2018-09-23T17:35:20.009Z</time>
      </trkpt>
      <trkpt lat="42.70972" lon="1.42327">
        <ele>1180</ele>
        <time>2018-09-23T17:35:25.009Z</time>
      </trkpt>
      <trkpt lat="42.70977" lon="1.4234">
        <ele>1180</ele>
        <time>2018-09-23T17:35:29.009Z</time>
      </trkpt>
      <trkpt lat="42.70983" lon="1.42354">
        <ele>1181</ele>
        <time>2018-09-23T17:35:33.009Z</time>
      </trkpt>
      <trkpt lat="42.70988" lon="1.42368">
        <ele>1181</ele>
        <time>2018-09-23T17:35:37.009Z</time>
      </trkpt>
      <trkpt lat="42.7099" lon="1.42381">
        <ele>1180.4210048</ele>
        <time>2018-09-23T17:35:41.009Z</time>
      </trkpt>
      <trkpt lat="42.70994" lon="1.42397">
        <ele>1180</ele>
        <time>2018-09-23T17:35:45.009Z</time>
      </trkpt>
      <trkpt lat="42.71" lon="1.42409">
        <ele>1180</ele>
        <time>2018-09-23T17:35:49.009Z</time>
      </trkpt>
      <trkpt lat="42.71005" lon="1.42421">
        <ele>1178</ele>
        <time>2018-09-23T17:35:54.009Z</time>
      </trkpt>
      <trkpt lat="42.71008" lon="1.42437">
        <ele>1178</ele>
        <time>2018-09-23T17:35:59.009Z</time>
      </trkpt>
      <trkpt lat="42.71012" lon="1.42451">
        <ele>1175</ele>
        <time>2018-09-23T17:36:03.009Z</time>
      </trkpt>
      <trkpt lat="42.71016" lon="1.42465">
        <ele>1175</ele>
        <time>2018-09-23T17:36:07.009Z</time>
      </trkpt>
      <trkpt lat="42.71022" lon="1.42477">
        <ele>1175</ele>
        <time>2018-09-23T17:36:11.009Z</time>
      </trkpt>
      <trkpt lat="42.71026" lon="1.42491">
        <ele>1175</ele>
        <time>2018-09-23T17:36:15.009Z</time>
      </trkpt>
      <trkpt lat="42.71032" lon="1.42503">
        <ele>1175</ele>
        <time>2018-09-23T17:36:19.009Z</time>
      </trkpt>
      <trkpt lat="42.71039" lon="1.42517">
        <ele>1176</ele>
        <time>2018-09-23T17:36:24.009Z</time>
      </trkpt>
      <trkpt lat="42.71046" lon="1.42528">
        <ele>1176</ele>
        <time>2018-09-23T17:36:28.009Z</time>
      </trkpt>
      <trkpt lat="42.71051" lon="1.42542">
        <ele>1175</ele>
        <time>2018-09-23T17:36:32.009Z</time>
      </trkpt>
      <trkpt lat="42.71055" lon="1.42557">
        <ele>1175</ele>
        <time>2018-09-23T17:36:37.009Z</time>
      </trkpt>
      <trkpt lat="42.71058" lon="1.42573">
        <ele>1174</ele>
        <time>2018-09-23T17:36:42.009Z</time>
      </trkpt>
      <trkpt lat="42.71059" lon="1.42588">
        <ele>1174</ele>
        <time>2018-09-23T17:36:46.009Z</time>
      </trkpt>
      <trkpt lat="42.71059" lon="1.42604">
        <ele>1174</ele>
        <time>2018-09-23T17:36:49.009Z</time>
      </trkpt>
      <trkpt lat="42.71063" lon="1.42619">
        <ele>1173</ele>
        <time>2018-09-23T17:36:53.009Z</time>
      </trkpt>
      <trkpt lat="42.71067" lon="1.42634">
        <ele>1173</ele>
        <time>2018-09-23T17:36:57.009Z</time>
      </trkpt>
      <trkpt lat="42.71067" lon="1.42649">
        <ele>1173</ele>
        <time>2018-09-23T17:37:14.009Z</time>
      </trkpt>
      <trkpt lat="42.71069" lon="1.42664">
        <ele>1173</ele>
        <time>2018-09-23T17:37:18.009Z</time>
      </trkpt>
      <trkpt lat="42.71071" lon="1.42679">
        <ele>1172</ele>
        <time>2018-09-23T17:37:22.009Z</time>
      </trkpt>
      <trkpt lat="42.71073" lon="1.42695">
        <ele>1172</ele>
        <time>2018-09-23T17:37:26.009Z</time>
      </trkpt>
      <trkpt lat="42.71075" lon="1.42711">
        <ele>1172</ele>
        <time>2018-09-23T17:37:30.009Z</time>
      </trkpt>
      <trkpt lat="42.71076" lon="1.42726">
        <ele>1169</ele>
        <time>2018-09-23T17:37:34.009Z</time>
      </trkpt>
      <trkpt lat="42.71078" lon="1.42742">
        <ele>1166</ele>
        <time>2018-09-23T17:37:38.009Z</time>
      </trkpt>
      <trkpt lat="42.71081" lon="1.42758">
        <ele>1165</ele>
        <time>2018-09-23T17:37:42.009Z</time>
      </trkpt>
      <trkpt lat="42.71083" lon="1.42774">
        <ele>1164.4210048</ele>
        <time>2018-09-23T17:37:46.009Z</time>
      </trkpt>
      <trkpt lat="42.71085" lon="1.4279">
        <ele>1164</ele>
        <time>2018-09-23T17:37:50.009Z</time>
      </trkpt>
      <trkpt lat="42.71087" lon="1.42805">
        <ele>1163</ele>
        <time>2018-09-23T17:37:54.009Z</time>
      </trkpt>
      <trkpt lat="42.71091" lon="1.4282">
        <ele>1163</ele>
        <time>2018-09-23T17:37:58.009Z</time>
      </trkpt>
      <trkpt lat="42.71094" lon="1.42836">
        <ele>1158</ele>
        <time>2018-09-23T17:38:02.009Z</time>
      </trkpt>
      <trkpt lat="42.711" lon="1.42849">
        <ele>1156.4210048</ele>
        <time>2018-09-23T17:38:06.009Z</time>
      </trkpt>
      <trkpt lat="42.71106" lon="1.42864">
        <ele>1155.4210048</ele>
        <time>2018-09-23T17:38:10.009Z</time>
      </trkpt>
      <trkpt lat="42.71111" lon="1.42879">
        <ele>1154</ele>
        <time>2018-09-23T17:38:14.009Z</time>
      </trkpt>
      <trkpt lat="42.71117" lon="1.42893">
        <ele>1154</ele>
        <time>2018-09-23T17:38:18.009Z</time>
      </trkpt>
      <trkpt lat="42.71121" lon="1.42907">
        <ele>1154</ele>
        <time>2018-09-23T17:38:22.009Z</time>
      </trkpt>
      <trkpt lat="42.71126" lon="1.42923">
        <ele>1154</ele>
        <time>2018-09-23T17:38:26.009Z</time>
      </trkpt>
      <trkpt lat="42.7113" lon="1.42938">
        <ele>1154</ele>
        <time>2018-09-23T17:38:30.009Z</time>
      </trkpt>
      <trkpt lat="42.71136" lon="1.42953">
        <ele>1152</ele>
        <time>2018-09-23T17:38:34.009Z</time>
      </trkpt>
      <trkpt lat="42.71139" lon="1.4297">
        <ele>1152</ele>
        <time>2018-09-23T17:38:38.009Z</time>
      </trkpt>
      <trkpt lat="42.71143" lon="1.42985">
        <ele>1151</ele>
        <time>2018-09-23T17:38:42.009Z</time>
      </trkpt>
      <trkpt lat="42.71147" lon="1.42999">
        <ele>1151</ele>
        <time>2018-09-23T17:38:46.009Z</time>
      </trkpt>
      <trkpt lat="42.71152" lon="1.43012">
        <ele>1151</ele>
        <time>2018-09-23T17:38:50.009Z</time>
      </trkpt>
      <trkpt lat="42.71158" lon="1.43023">
        <ele>1150</ele>
        <time>2018-09-23T17:38:54.009Z</time>
      </trkpt>
      <trkpt lat="42.71168" lon="1.43034">
        <ele>1150</ele>
        <time>2018-09-23T17:38:58.009Z</time>
      </trkpt>
      <trkpt lat="42.71174" lon="1.43042">
        <ele>1148.8420096</ele>
        <time>2018-09-23T17:39:01.009Z</time>
      </trkpt>
      <trkpt lat="42.71181" lon="1.43051">
        <ele>1148</ele>
        <time>2018-09-23T17:39:04.009Z</time>
      </trkpt>
      <trkpt lat="42.71187" lon="1.43059">
        <ele>1148</ele>
        <time>2018-09-23T17:39:07.009Z</time>
      </trkpt>
      <trkpt lat="42.71197" lon="1.43069">
        <ele>1148</ele>
        <time>2018-09-23T17:39:11.009Z</time>
      </trkpt>
      <trkpt lat="42.71206" lon="1.43079">
        <ele>1148</ele>
        <time>2018-09-23T17:39:15.009Z</time>
      </trkpt>
      <trkpt lat="42.71216" lon="1.43088">
        <ele>1148</ele>
        <time>2018-09-23T17:39:19.009Z</time>
      </trkpt>
      <trkpt lat="42.71225" lon="1.43095">
        <ele>1145</ele>
        <time>2018-09-23T17:39:23.009Z</time>
      </trkpt>
      <trkpt lat="42.71237" lon="1.43103">
        <ele>1144</ele>
        <time>2018-09-23T17:39:27.009Z</time>
      </trkpt>
      <trkpt lat="42.71246" lon="1.43109">
        <ele>1144</ele>
        <time>2018-09-23T17:39:30.009Z</time>
      </trkpt>
      <trkpt lat="42.71256" lon="1.4312">
        <ele>1144</ele>
        <time>2018-09-23T17:39:34.009Z</time>
      </trkpt>
      <trkpt lat="42.71265" lon="1.43131">
        <ele>1144</ele>
        <time>2018-09-23T17:39:38.009Z</time>
      </trkpt>
      <trkpt lat="42.71274" lon="1.43142">
        <ele>1143</ele>
        <time>2018-09-23T17:39:42.009Z</time>
      </trkpt>
      <trkpt lat="42.71282" lon="1.43154">
        <ele>1143</ele>
        <time>2018-09-23T17:39:46.009Z</time>
      </trkpt>
      <trkpt lat="42.71291" lon="1.43166">
        <ele>1143</ele>
        <time>2018-09-23T17:39:50.009Z</time>
      </trkpt>
      <trkpt lat="42.713" lon="1.4318">
        <ele>1142</ele>
        <time>2018-09-23T17:39:54.009Z</time>
      </trkpt>
      <trkpt lat="42.71306" lon="1.43191">
        <ele>1142</ele>
        <time>2018-09-23T17:39:57.009Z</time>
      </trkpt>
      <trkpt lat="42.71313" lon="1.43206">
        <ele>1140.8420096</ele>
        <time>2018-09-23T17:40:01.009Z</time>
      </trkpt>
      <trkpt lat="42.71318" lon="1.43222">
        <ele>1140</ele>
        <time>2018-09-23T17:40:05.009Z</time>
      </trkpt>
      <trkpt lat="42.71322" lon="1.43238">
        <ele>1140</ele>
        <time>2018-09-23T17:40:09.009Z</time>
      </trkpt>
      <trkpt lat="42.71323" lon="1.43254">
        <ele>1139</ele>
        <time>2018-09-23T17:40:13.009Z</time>
      </trkpt>
      <trkpt lat="42.71324" lon="1.43269">
        <ele>1139</ele>
        <time>2018-09-23T17:40:17.009Z</time>
      </trkpt>
      <trkpt lat="42.71325" lon="1.43284">
        <ele>1139.5789952</ele>
        <time>2018-09-23T17:40:21.009Z</time>
      </trkpt>
      <trkpt lat="42.71325" lon="1.43299">
        <ele>1140</ele>
        <time>2018-09-23T17:40:25.009Z</time>
      </trkpt>
      <trkpt lat="42.71326" lon="1.43316">
        <ele>1140</ele>
        <time>2018-09-23T17:40:29.009Z</time>
      </trkpt>
      <trkpt lat="42.71326" lon="1.43332">
        <ele>1140</ele>
        <time>2018-09-23T17:40:33.009Z</time>
      </trkpt>
      <trkpt lat="42.71329" lon="1.43347">
        <ele>1140</ele>
        <time>2018-09-23T17:40:37.009Z</time>
      </trkpt>
      <trkpt lat="42.71333" lon="1.43362">
        <ele>1139.4210048</ele>
        <time>2018-09-23T17:40:41.009Z</time>
      </trkpt>
      <trkpt lat="42.71338" lon="1.43375">
        <ele>1139</ele>
        <time>2018-09-23T17:40:45.009Z</time>
      </trkpt>
      <trkpt lat="42.71343" lon="1.43389">
        <ele>1139</ele>
        <time>2018-09-23T17:40:49.009Z</time>
      </trkpt>
      <trkpt lat="42.71349" lon="1.43402">
        <ele>1137</ele>
        <time>2018-09-23T17:40:53.009Z</time>
      </trkpt>
      <trkpt lat="42.71355" lon="1.43415">
        <ele>1137</ele>
        <time>2018-09-23T17:40:57.009Z</time>
      </trkpt>
      <trkpt lat="42.71363" lon="1.43428">
        <ele>1134.105024</ele>
        <time>2018-09-23T17:41:01.009Z</time>
      </trkpt>
      <trkpt lat="42.71366" lon="1.43443">
        <ele>1132</ele>
        <time>2018-09-23T17:41:05.009Z</time>
      </trkpt>
      <trkpt lat="42.71368" lon="1.43457">
        <ele>1131</ele>
        <time>2018-09-23T17:41:09.009Z</time>
      </trkpt>
      <trkpt lat="42.71371" lon="1.43471">
        <ele>1131</ele>
        <time>2018-09-23T17:41:13.009Z</time>
      </trkpt>
      <trkpt lat="42.71379" lon="1.43482">
        <ele>1131</ele>
        <time>2018-09-23T17:41:18.009Z</time>
      </trkpt>
      <trkpt lat="42.71389" lon="1.4349">
        <ele>1131</ele>
        <time>2018-09-23T17:41:23.009Z</time>
      </trkpt>
      <trkpt lat="42.71397" lon="1.43495">
        <ele>1130.96182481</ele>
        <time>2018-09-23T17:41:27.009Z</time>
      </trkpt>
    </trkseg>
  </trk>
</gpx>